<?xml version="1.0" encoding="UTF-8" standalone="no" ?>
<gpx xmlns="http://www.topografix.com/GPX/1/1" xmlns:xsi="http://www.w3.org/2001/XMLSchema-instance" xsi:schemaLocation="http://www.topografix.com/GPX/1/1 http://www.topografix.com/GPX/1/1/gpx.xsd" version="1.1" creator="VisuGPX - https://www.visugpx.com">
  <metadata>
    <name>arbois crotenay picarreau</name>
    <desc><![CDATA[sortie vadans]]></desc>
  </metadata>
  <wpt lat="46.93351" lon="5.70211">
    <ele>270</ele>
  </wpt>
  <trk>
    <name><![CDATA[arbois crotenay picarreau_1]]></name>
    <trkseg>
      <trkpt lat="46.93351" lon="5.70211">
        <ele>270</ele>
        <time>2012-10-11T12:11:01Z</time>
      </trkpt>
      <trkpt lat="46.93351" lon="5.70225">
        <ele>270</ele>
        <time>2012-10-11T12:16:22Z</time>
      </trkpt>
      <trkpt lat="46.93342" lon="5.70232">
        <ele>270</ele>
        <time>2012-10-11T12:16:27Z</time>
      </trkpt>
      <trkpt lat="46.93337" lon="5.70245">
        <ele>263</ele>
        <time>2012-10-11T12:16:31Z</time>
      </trkpt>
      <trkpt lat="46.93329" lon="5.70254">
        <ele>263</ele>
        <time>2012-10-11T12:16:35Z</time>
      </trkpt>
      <trkpt lat="46.93321" lon="5.70267">
        <ele>263</ele>
        <time>2012-10-11T12:16:39Z</time>
      </trkpt>
      <trkpt lat="46.93313" lon="5.70277">
        <ele>256</ele>
        <time>2012-10-11T12:16:42Z</time>
      </trkpt>
      <trkpt lat="46.93303" lon="5.70287">
        <ele>256</ele>
        <time>2012-10-11T12:16:45Z</time>
      </trkpt>
      <trkpt lat="46.93294" lon="5.70295">
        <ele>256</ele>
        <time>2012-10-11T12:16:48Z</time>
      </trkpt>
      <trkpt lat="46.93285" lon="5.70305">
        <ele>256</ele>
        <time>2012-10-11T12:16:51Z</time>
      </trkpt>
      <trkpt lat="46.93278" lon="5.70316">
        <ele>256</ele>
        <time>2012-10-11T12:16:54Z</time>
      </trkpt>
      <trkpt lat="46.93271" lon="5.70325">
        <ele>256</ele>
        <time>2012-10-11T12:16:57Z</time>
      </trkpt>
      <trkpt lat="46.93263" lon="5.70332">
        <ele>256</ele>
        <time>2012-10-11T12:17:04Z</time>
      </trkpt>
      <trkpt lat="46.93266" lon="5.70347">
        <ele>256</ele>
        <time>2012-10-11T12:17:11Z</time>
      </trkpt>
      <trkpt lat="46.93275" lon="5.70359">
        <ele>256</ele>
        <time>2012-10-11T12:17:15Z</time>
      </trkpt>
      <trkpt lat="46.93284" lon="5.70371">
        <ele>256</ele>
        <time>2012-10-11T12:17:18Z</time>
      </trkpt>
      <trkpt lat="46.9329" lon="5.70381">
        <ele>256</ele>
        <time>2012-10-11T12:17:21Z</time>
      </trkpt>
      <trkpt lat="46.93298" lon="5.70392">
        <ele>256</ele>
        <time>2012-10-11T12:17:24Z</time>
      </trkpt>
      <trkpt lat="46.93306" lon="5.70402">
        <ele>262</ele>
        <time>2012-10-11T12:17:28Z</time>
      </trkpt>
      <trkpt lat="46.93314" lon="5.70412">
        <ele>262</ele>
        <time>2012-10-11T12:17:31Z</time>
      </trkpt>
      <trkpt lat="46.93323" lon="5.70423">
        <ele>262</ele>
        <time>2012-10-11T12:17:34Z</time>
      </trkpt>
      <trkpt lat="46.93332" lon="5.70433">
        <ele>262</ele>
        <time>2012-10-11T12:17:37Z</time>
      </trkpt>
      <trkpt lat="46.93341" lon="5.70443">
        <ele>262</ele>
        <time>2012-10-11T12:17:40Z</time>
      </trkpt>
      <trkpt lat="46.93351" lon="5.70453">
        <ele>262</ele>
        <time>2012-10-11T12:17:43Z</time>
      </trkpt>
      <trkpt lat="46.93361" lon="5.70462">
        <ele>262</ele>
        <time>2012-10-11T12:17:46Z</time>
      </trkpt>
      <trkpt lat="46.9337" lon="5.70472">
        <ele>262</ele>
        <time>2012-10-11T12:17:49Z</time>
      </trkpt>
      <trkpt lat="46.9338" lon="5.70481">
        <ele>262</ele>
        <time>2012-10-11T12:17:52Z</time>
      </trkpt>
      <trkpt lat="46.93391" lon="5.7049">
        <ele>262</ele>
        <time>2012-10-11T12:17:55Z</time>
      </trkpt>
      <trkpt lat="46.93401" lon="5.70499">
        <ele>262</ele>
        <time>2012-10-11T12:17:58Z</time>
      </trkpt>
      <trkpt lat="46.9341" lon="5.70508">
        <ele>262</ele>
        <time>2012-10-11T12:18:01Z</time>
      </trkpt>
      <trkpt lat="46.9342" lon="5.70516">
        <ele>262</ele>
        <time>2012-10-11T12:18:04Z</time>
      </trkpt>
      <trkpt lat="46.93429" lon="5.70525">
        <ele>262</ele>
        <time>2012-10-11T12:18:07Z</time>
      </trkpt>
      <trkpt lat="46.93438" lon="5.70534">
        <ele>262</ele>
        <time>2012-10-11T12:18:10Z</time>
      </trkpt>
      <trkpt lat="46.93448" lon="5.70542">
        <ele>262</ele>
        <time>2012-10-11T12:18:13Z</time>
      </trkpt>
      <trkpt lat="46.93458" lon="5.70551">
        <ele>267</ele>
        <time>2012-10-11T12:18:16Z</time>
      </trkpt>
      <trkpt lat="46.93468" lon="5.70559">
        <ele>267</ele>
        <time>2012-10-11T12:18:19Z</time>
      </trkpt>
      <trkpt lat="46.93477" lon="5.70569">
        <ele>267</ele>
        <time>2012-10-11T12:18:22Z</time>
      </trkpt>
      <trkpt lat="46.93487" lon="5.70578">
        <ele>267</ele>
        <time>2012-10-11T12:18:25Z</time>
      </trkpt>
      <trkpt lat="46.93497" lon="5.70587">
        <ele>267</ele>
        <time>2012-10-11T12:18:28Z</time>
      </trkpt>
      <trkpt lat="46.93506" lon="5.70596">
        <ele>267</ele>
        <time>2012-10-11T12:18:31Z</time>
      </trkpt>
      <trkpt lat="46.93516" lon="5.70605">
        <ele>267</ele>
        <time>2012-10-11T12:18:34Z</time>
      </trkpt>
      <trkpt lat="46.93526" lon="5.70614">
        <ele>267</ele>
        <time>2012-10-11T12:18:37Z</time>
      </trkpt>
      <trkpt lat="46.93535" lon="5.70622">
        <ele>267</ele>
        <time>2012-10-11T12:18:40Z</time>
      </trkpt>
      <trkpt lat="46.93545" lon="5.70631">
        <ele>267</ele>
        <time>2012-10-11T12:18:43Z</time>
      </trkpt>
      <trkpt lat="46.93554" lon="5.7064">
        <ele>272</ele>
        <time>2012-10-11T12:18:46Z</time>
      </trkpt>
      <trkpt lat="46.93563" lon="5.70649">
        <ele>272</ele>
        <time>2012-10-11T12:18:49Z</time>
      </trkpt>
      <trkpt lat="46.93572" lon="5.70657">
        <ele>272</ele>
        <time>2012-10-11T12:18:52Z</time>
      </trkpt>
      <trkpt lat="46.93581" lon="5.70666">
        <ele>272</ele>
        <time>2012-10-11T12:18:55Z</time>
      </trkpt>
      <trkpt lat="46.9359" lon="5.70673">
        <ele>272</ele>
        <time>2012-10-11T12:18:58Z</time>
      </trkpt>
      <trkpt lat="46.93598" lon="5.70681">
        <ele>272</ele>
        <time>2012-10-11T12:19:01Z</time>
      </trkpt>
      <trkpt lat="46.93606" lon="5.70689">
        <ele>272</ele>
        <time>2012-10-11T12:19:04Z</time>
      </trkpt>
      <trkpt lat="46.93614" lon="5.70696">
        <ele>272</ele>
        <time>2012-10-11T12:19:07Z</time>
      </trkpt>
      <trkpt lat="46.93623" lon="5.70704">
        <ele>278</ele>
        <time>2012-10-11T12:19:10Z</time>
      </trkpt>
      <trkpt lat="46.93631" lon="5.70713">
        <ele>278</ele>
        <time>2012-10-11T12:19:13Z</time>
      </trkpt>
      <trkpt lat="46.9364" lon="5.70721">
        <ele>278</ele>
        <time>2012-10-11T12:19:16Z</time>
      </trkpt>
      <trkpt lat="46.93648" lon="5.70729">
        <ele>278</ele>
        <time>2012-10-11T12:19:19Z</time>
      </trkpt>
      <trkpt lat="46.93657" lon="5.70738">
        <ele>278</ele>
        <time>2012-10-11T12:19:22Z</time>
      </trkpt>
      <trkpt lat="46.93666" lon="5.70746">
        <ele>278</ele>
        <time>2012-10-11T12:19:25Z</time>
      </trkpt>
      <trkpt lat="46.93674" lon="5.70755">
        <ele>278</ele>
        <time>2012-10-11T12:19:28Z</time>
      </trkpt>
      <trkpt lat="46.93682" lon="5.70764">
        <ele>278</ele>
        <time>2012-10-11T12:19:31Z</time>
      </trkpt>
      <trkpt lat="46.9369" lon="5.70776">
        <ele>278</ele>
        <time>2012-10-11T12:19:34Z</time>
      </trkpt>
      <trkpt lat="46.93698" lon="5.70789">
        <ele>278</ele>
        <time>2012-10-11T12:19:37Z</time>
      </trkpt>
      <trkpt lat="46.93704" lon="5.70804">
        <ele>278</ele>
        <time>2012-10-11T12:19:40Z</time>
      </trkpt>
      <trkpt lat="46.93708" lon="5.70817">
        <ele>278</ele>
        <time>2012-10-11T12:19:43Z</time>
      </trkpt>
      <trkpt lat="46.93711" lon="5.70832">
        <ele>283</ele>
        <time>2012-10-11T12:19:46Z</time>
      </trkpt>
      <trkpt lat="46.93713" lon="5.70846">
        <ele>283</ele>
        <time>2012-10-11T12:19:49Z</time>
      </trkpt>
      <trkpt lat="46.93715" lon="5.70862">
        <ele>283</ele>
        <time>2012-10-11T12:19:52Z</time>
      </trkpt>
      <trkpt lat="46.93718" lon="5.70879">
        <ele>283</ele>
        <time>2012-10-11T12:19:55Z</time>
      </trkpt>
      <trkpt lat="46.93721" lon="5.70894">
        <ele>283</ele>
        <time>2012-10-11T12:19:58Z</time>
      </trkpt>
      <trkpt lat="46.93724" lon="5.70912">
        <ele>283</ele>
        <time>2012-10-11T12:20:01Z</time>
      </trkpt>
      <trkpt lat="46.93727" lon="5.7093">
        <ele>283</ele>
        <time>2012-10-11T12:20:04Z</time>
      </trkpt>
      <trkpt lat="46.9373" lon="5.70942">
        <ele>283</ele>
        <time>2012-10-11T12:20:06Z</time>
      </trkpt>
      <trkpt lat="46.93732" lon="5.7096">
        <ele>283</ele>
        <time>2012-10-11T12:20:09Z</time>
      </trkpt>
      <trkpt lat="46.93735" lon="5.70977">
        <ele>283</ele>
        <time>2012-10-11T12:20:12Z</time>
      </trkpt>
      <trkpt lat="46.93738" lon="5.70995">
        <ele>283</ele>
        <time>2012-10-11T12:20:15Z</time>
      </trkpt>
      <trkpt lat="46.93741" lon="5.71014">
        <ele>283</ele>
        <time>2012-10-11T12:20:18Z</time>
      </trkpt>
      <trkpt lat="46.93743" lon="5.71027">
        <ele>283</ele>
        <time>2012-10-11T12:20:20Z</time>
      </trkpt>
      <trkpt lat="46.93746" lon="5.71046">
        <ele>283</ele>
        <time>2012-10-11T12:20:23Z</time>
      </trkpt>
      <trkpt lat="46.93749" lon="5.7106">
        <ele>283</ele>
        <time>2012-10-11T12:20:25Z</time>
      </trkpt>
      <trkpt lat="46.93752" lon="5.71073">
        <ele>283</ele>
        <time>2012-10-11T12:20:27Z</time>
      </trkpt>
      <trkpt lat="46.93756" lon="5.7109">
        <ele>283</ele>
        <time>2012-10-11T12:20:29Z</time>
      </trkpt>
      <trkpt lat="46.93762" lon="5.71106">
        <ele>283</ele>
        <time>2012-10-11T12:20:31Z</time>
      </trkpt>
      <trkpt lat="46.93769" lon="5.71123">
        <ele>283</ele>
        <time>2012-10-11T12:20:33Z</time>
      </trkpt>
      <trkpt lat="46.93778" lon="5.7114">
        <ele>283</ele>
        <time>2012-10-11T12:20:35Z</time>
      </trkpt>
      <trkpt lat="46.93788" lon="5.71159">
        <ele>283</ele>
        <time>2012-10-11T12:20:37Z</time>
      </trkpt>
      <trkpt lat="46.93799" lon="5.71178">
        <ele>283</ele>
        <time>2012-10-11T12:20:39Z</time>
      </trkpt>
      <trkpt lat="46.9381" lon="5.71198">
        <ele>278</ele>
        <time>2012-10-11T12:20:41Z</time>
      </trkpt>
      <trkpt lat="46.93821" lon="5.71219">
        <ele>278</ele>
        <time>2012-10-11T12:20:43Z</time>
      </trkpt>
      <trkpt lat="46.93826" lon="5.7123">
        <ele>278</ele>
        <time>2012-10-11T12:20:44Z</time>
      </trkpt>
      <trkpt lat="46.93833" lon="5.7124">
        <ele>278</ele>
        <time>2012-10-11T12:20:45Z</time>
      </trkpt>
      <trkpt lat="46.93839" lon="5.7125">
        <ele>278</ele>
        <time>2012-10-11T12:20:46Z</time>
      </trkpt>
      <trkpt lat="46.93844" lon="5.71261">
        <ele>278</ele>
        <time>2012-10-11T12:20:47Z</time>
      </trkpt>
      <trkpt lat="46.9385" lon="5.71272">
        <ele>278</ele>
        <time>2012-10-11T12:20:48Z</time>
      </trkpt>
      <trkpt lat="46.93857" lon="5.71284">
        <ele>278</ele>
        <time>2012-10-11T12:20:49Z</time>
      </trkpt>
      <trkpt lat="46.93863" lon="5.71294">
        <ele>272</ele>
        <time>2012-10-11T12:20:50Z</time>
      </trkpt>
      <trkpt lat="46.93869" lon="5.71306">
        <ele>272</ele>
        <time>2012-10-11T12:20:51Z</time>
      </trkpt>
      <trkpt lat="46.93876" lon="5.71318">
        <ele>272</ele>
        <time>2012-10-11T12:20:52Z</time>
      </trkpt>
      <trkpt lat="46.93882" lon="5.71329">
        <ele>272</ele>
        <time>2012-10-11T12:20:53Z</time>
      </trkpt>
      <trkpt lat="46.93889" lon="5.7134">
        <ele>272</ele>
        <time>2012-10-11T12:20:54Z</time>
      </trkpt>
      <trkpt lat="46.93895" lon="5.71352">
        <ele>272</ele>
        <time>2012-10-11T12:20:55Z</time>
      </trkpt>
      <trkpt lat="46.93901" lon="5.71364">
        <ele>272</ele>
        <time>2012-10-11T12:20:56Z</time>
      </trkpt>
      <trkpt lat="46.93908" lon="5.71374">
        <ele>272</ele>
        <time>2012-10-11T12:20:57Z</time>
      </trkpt>
      <trkpt lat="46.93914" lon="5.71386">
        <ele>272</ele>
        <time>2012-10-11T12:20:58Z</time>
      </trkpt>
      <trkpt lat="46.93921" lon="5.71398">
        <ele>272</ele>
        <time>2012-10-11T12:20:59Z</time>
      </trkpt>
      <trkpt lat="46.93928" lon="5.71409">
        <ele>267</ele>
        <time>2012-10-11T12:21:00Z</time>
      </trkpt>
      <trkpt lat="46.93934" lon="5.71421">
        <ele>267</ele>
        <time>2012-10-11T12:21:01Z</time>
      </trkpt>
      <trkpt lat="46.93941" lon="5.71433">
        <ele>267</ele>
        <time>2012-10-11T12:21:02Z</time>
      </trkpt>
      <trkpt lat="46.93948" lon="5.71444">
        <ele>267</ele>
        <time>2012-10-11T12:21:03Z</time>
      </trkpt>
      <trkpt lat="46.93954" lon="5.71457">
        <ele>267</ele>
        <time>2012-10-11T12:21:04Z</time>
      </trkpt>
      <trkpt lat="46.93961" lon="5.71469">
        <ele>267</ele>
        <time>2012-10-11T12:21:05Z</time>
      </trkpt>
      <trkpt lat="46.93967" lon="5.7148">
        <ele>267</ele>
        <time>2012-10-11T12:21:06Z</time>
      </trkpt>
      <trkpt lat="46.93974" lon="5.71492">
        <ele>267</ele>
        <time>2012-10-11T12:21:07Z</time>
      </trkpt>
      <trkpt lat="46.93981" lon="5.71503">
        <ele>267</ele>
        <time>2012-10-11T12:21:08Z</time>
      </trkpt>
      <trkpt lat="46.93987" lon="5.71515">
        <ele>267</ele>
        <time>2012-10-11T12:21:09Z</time>
      </trkpt>
      <trkpt lat="46.93993" lon="5.71525">
        <ele>267</ele>
        <time>2012-10-11T12:21:10Z</time>
      </trkpt>
      <trkpt lat="46.93999" lon="5.71537">
        <ele>267</ele>
        <time>2012-10-11T12:21:11Z</time>
      </trkpt>
      <trkpt lat="46.9401" lon="5.71558">
        <ele>267</ele>
        <time>2012-10-11T12:21:13Z</time>
      </trkpt>
      <trkpt lat="46.94021" lon="5.71577">
        <ele>267</ele>
        <time>2012-10-11T12:21:15Z</time>
      </trkpt>
      <trkpt lat="46.94031" lon="5.71595">
        <ele>267</ele>
        <time>2012-10-11T12:21:17Z</time>
      </trkpt>
      <trkpt lat="46.94039" lon="5.71612">
        <ele>267</ele>
        <time>2012-10-11T12:21:19Z</time>
      </trkpt>
      <trkpt lat="46.94048" lon="5.71629">
        <ele>267</ele>
        <time>2012-10-11T12:21:21Z</time>
      </trkpt>
      <trkpt lat="46.94056" lon="5.71646">
        <ele>267</ele>
        <time>2012-10-11T12:21:23Z</time>
      </trkpt>
      <trkpt lat="46.94065" lon="5.71661">
        <ele>267</ele>
        <time>2012-10-11T12:21:25Z</time>
      </trkpt>
      <trkpt lat="46.94074" lon="5.71676">
        <ele>267</ele>
        <time>2012-10-11T12:21:27Z</time>
      </trkpt>
      <trkpt lat="46.94082" lon="5.71692">
        <ele>267</ele>
        <time>2012-10-11T12:21:29Z</time>
      </trkpt>
      <trkpt lat="46.94091" lon="5.71707">
        <ele>267</ele>
        <time>2012-10-11T12:21:31Z</time>
      </trkpt>
      <trkpt lat="46.94099" lon="5.7172">
        <ele>267</ele>
        <time>2012-10-11T12:21:33Z</time>
      </trkpt>
      <trkpt lat="46.94108" lon="5.71735">
        <ele>267</ele>
        <time>2012-10-11T12:21:35Z</time>
      </trkpt>
      <trkpt lat="46.94115" lon="5.71749">
        <ele>267</ele>
        <time>2012-10-11T12:21:37Z</time>
      </trkpt>
      <trkpt lat="46.94122" lon="5.71762">
        <ele>267</ele>
        <time>2012-10-11T12:21:39Z</time>
      </trkpt>
      <trkpt lat="46.9413" lon="5.71776">
        <ele>267</ele>
        <time>2012-10-11T12:21:41Z</time>
      </trkpt>
      <trkpt lat="46.94137" lon="5.7179">
        <ele>267</ele>
        <time>2012-10-11T12:21:43Z</time>
      </trkpt>
      <trkpt lat="46.94145" lon="5.71806">
        <ele>267</ele>
        <time>2012-10-11T12:21:45Z</time>
      </trkpt>
      <trkpt lat="46.94151" lon="5.7182">
        <ele>267</ele>
        <time>2012-10-11T12:21:47Z</time>
      </trkpt>
      <trkpt lat="46.94159" lon="5.71833">
        <ele>267</ele>
        <time>2012-10-11T12:21:49Z</time>
      </trkpt>
      <trkpt lat="46.94167" lon="5.71846">
        <ele>267</ele>
        <time>2012-10-11T12:21:51Z</time>
      </trkpt>
      <trkpt lat="46.94175" lon="5.71858">
        <ele>267</ele>
        <time>2012-10-11T12:21:53Z</time>
      </trkpt>
      <trkpt lat="46.94182" lon="5.71868">
        <ele>267</ele>
        <time>2012-10-11T12:21:55Z</time>
      </trkpt>
      <trkpt lat="46.94191" lon="5.71879">
        <ele>267</ele>
        <time>2012-10-11T12:21:57Z</time>
      </trkpt>
      <trkpt lat="46.94199" lon="5.71888">
        <ele>267</ele>
        <time>2012-10-11T12:21:59Z</time>
      </trkpt>
      <trkpt lat="46.94207" lon="5.71899">
        <ele>267</ele>
        <time>2012-10-11T12:22:01Z</time>
      </trkpt>
      <trkpt lat="46.94216" lon="5.71908">
        <ele>267</ele>
        <time>2012-10-11T12:22:03Z</time>
      </trkpt>
      <trkpt lat="46.94224" lon="5.71914">
        <ele>267</ele>
        <time>2012-10-11T12:22:05Z</time>
      </trkpt>
      <trkpt lat="46.94233" lon="5.71923">
        <ele>267</ele>
        <time>2012-10-11T12:22:07Z</time>
      </trkpt>
      <trkpt lat="46.94242" lon="5.71931">
        <ele>267</ele>
        <time>2012-10-11T12:22:09Z</time>
      </trkpt>
      <trkpt lat="46.94252" lon="5.71938">
        <ele>267</ele>
        <time>2012-10-11T12:22:11Z</time>
      </trkpt>
      <trkpt lat="46.94261" lon="5.71947">
        <ele>267</ele>
        <time>2012-10-11T12:22:13Z</time>
      </trkpt>
      <trkpt lat="46.94269" lon="5.71957">
        <ele>267</ele>
        <time>2012-10-11T12:22:15Z</time>
      </trkpt>
      <trkpt lat="46.94278" lon="5.71968">
        <ele>267</ele>
        <time>2012-10-11T12:22:17Z</time>
      </trkpt>
      <trkpt lat="46.94286" lon="5.7198">
        <ele>267</ele>
        <time>2012-10-11T12:22:19Z</time>
      </trkpt>
      <trkpt lat="46.94295" lon="5.71992">
        <ele>267</ele>
        <time>2012-10-11T12:22:21Z</time>
      </trkpt>
      <trkpt lat="46.94303" lon="5.72005">
        <ele>267</ele>
        <time>2012-10-11T12:22:23Z</time>
      </trkpt>
      <trkpt lat="46.9431" lon="5.72019">
        <ele>267</ele>
        <time>2012-10-11T12:22:25Z</time>
      </trkpt>
      <trkpt lat="46.94318" lon="5.72034">
        <ele>267</ele>
        <time>2012-10-11T12:22:27Z</time>
      </trkpt>
      <trkpt lat="46.94326" lon="5.72048">
        <ele>267</ele>
        <time>2012-10-11T12:22:29Z</time>
      </trkpt>
      <trkpt lat="46.94334" lon="5.72063">
        <ele>267</ele>
        <time>2012-10-11T12:22:31Z</time>
      </trkpt>
      <trkpt lat="46.94341" lon="5.72078">
        <ele>267</ele>
        <time>2012-10-11T12:22:33Z</time>
      </trkpt>
      <trkpt lat="46.94348" lon="5.72092">
        <ele>267</ele>
        <time>2012-10-11T12:22:35Z</time>
      </trkpt>
      <trkpt lat="46.94354" lon="5.72108">
        <ele>267</ele>
        <time>2012-10-11T12:22:37Z</time>
      </trkpt>
      <trkpt lat="46.94361" lon="5.72124">
        <ele>267</ele>
        <time>2012-10-11T12:22:39Z</time>
      </trkpt>
      <trkpt lat="46.94368" lon="5.72138">
        <ele>267</ele>
        <time>2012-10-11T12:22:41Z</time>
      </trkpt>
      <trkpt lat="46.94375" lon="5.72152">
        <ele>267</ele>
        <time>2012-10-11T12:22:43Z</time>
      </trkpt>
      <trkpt lat="46.94381" lon="5.72167">
        <ele>267</ele>
        <time>2012-10-11T12:22:45Z</time>
      </trkpt>
      <trkpt lat="46.94387" lon="5.72181">
        <ele>267</ele>
        <time>2012-10-11T12:22:47Z</time>
      </trkpt>
      <trkpt lat="46.94394" lon="5.72195">
        <ele>267</ele>
        <time>2012-10-11T12:22:49Z</time>
      </trkpt>
      <trkpt lat="46.944" lon="5.72208">
        <ele>267</ele>
        <time>2012-10-11T12:22:51Z</time>
      </trkpt>
      <trkpt lat="46.94405" lon="5.72221">
        <ele>267</ele>
        <time>2012-10-11T12:22:53Z</time>
      </trkpt>
      <trkpt lat="46.94411" lon="5.72232">
        <ele>267</ele>
        <time>2012-10-11T12:22:55Z</time>
      </trkpt>
      <trkpt lat="46.94416" lon="5.72244">
        <ele>267</ele>
        <time>2012-10-11T12:22:57Z</time>
      </trkpt>
      <trkpt lat="46.94421" lon="5.72255">
        <ele>267</ele>
        <time>2012-10-11T12:22:59Z</time>
      </trkpt>
      <trkpt lat="46.94426" lon="5.72266">
        <ele>267</ele>
        <time>2012-10-11T12:23:01Z</time>
      </trkpt>
      <trkpt lat="46.94434" lon="5.72282">
        <ele>267</ele>
        <time>2012-10-11T12:23:04Z</time>
      </trkpt>
      <trkpt lat="46.9444" lon="5.72297">
        <ele>267</ele>
        <time>2012-10-11T12:23:07Z</time>
      </trkpt>
      <trkpt lat="46.94445" lon="5.72309">
        <ele>267</ele>
        <time>2012-10-11T12:23:09Z</time>
      </trkpt>
      <trkpt lat="46.94453" lon="5.72325">
        <ele>267</ele>
        <time>2012-10-11T12:23:12Z</time>
      </trkpt>
      <trkpt lat="46.94461" lon="5.72341">
        <ele>267</ele>
        <time>2012-10-11T12:23:15Z</time>
      </trkpt>
      <trkpt lat="46.94466" lon="5.72352">
        <ele>267</ele>
        <time>2012-10-11T12:23:17Z</time>
      </trkpt>
      <trkpt lat="46.94474" lon="5.72369">
        <ele>267</ele>
        <time>2012-10-11T12:23:20Z</time>
      </trkpt>
      <trkpt lat="46.94481" lon="5.72385">
        <ele>267</ele>
        <time>2012-10-11T12:23:23Z</time>
      </trkpt>
      <trkpt lat="46.94487" lon="5.72396">
        <ele>267</ele>
        <time>2012-10-11T12:23:25Z</time>
      </trkpt>
      <trkpt lat="46.94491" lon="5.72407">
        <ele>267</ele>
        <time>2012-10-11T12:23:27Z</time>
      </trkpt>
      <trkpt lat="46.94499" lon="5.72425">
        <ele>267</ele>
        <time>2012-10-11T12:23:30Z</time>
      </trkpt>
      <trkpt lat="46.94507" lon="5.72442">
        <ele>267</ele>
        <time>2012-10-11T12:23:33Z</time>
      </trkpt>
      <trkpt lat="46.94512" lon="5.72452">
        <ele>267</ele>
        <time>2012-10-11T12:23:35Z</time>
      </trkpt>
      <trkpt lat="46.94518" lon="5.72464">
        <ele>267</ele>
        <time>2012-10-11T12:23:37Z</time>
      </trkpt>
      <trkpt lat="46.94523" lon="5.72476">
        <ele>267</ele>
        <time>2012-10-11T12:23:39Z</time>
      </trkpt>
      <trkpt lat="46.94531" lon="5.72493">
        <ele>273</ele>
        <time>2012-10-11T12:23:42Z</time>
      </trkpt>
      <trkpt lat="46.94539" lon="5.72509">
        <ele>273</ele>
        <time>2012-10-11T12:23:45Z</time>
      </trkpt>
      <trkpt lat="46.94544" lon="5.72521">
        <ele>273</ele>
        <time>2012-10-11T12:23:47Z</time>
      </trkpt>
      <trkpt lat="46.94549" lon="5.72532">
        <ele>273</ele>
        <time>2012-10-11T12:23:49Z</time>
      </trkpt>
      <trkpt lat="46.94555" lon="5.72544">
        <ele>273</ele>
        <time>2012-10-11T12:23:51Z</time>
      </trkpt>
      <trkpt lat="46.94562" lon="5.72561">
        <ele>273</ele>
        <time>2012-10-11T12:23:54Z</time>
      </trkpt>
      <trkpt lat="46.94568" lon="5.72572">
        <ele>273</ele>
        <time>2012-10-11T12:23:56Z</time>
      </trkpt>
      <trkpt lat="46.94573" lon="5.72584">
        <ele>273</ele>
        <time>2012-10-11T12:23:58Z</time>
      </trkpt>
      <trkpt lat="46.94578" lon="5.72595">
        <ele>273</ele>
        <time>2012-10-11T12:24:00Z</time>
      </trkpt>
      <trkpt lat="46.94584" lon="5.72607">
        <ele>273</ele>
        <time>2012-10-11T12:24:02Z</time>
      </trkpt>
      <trkpt lat="46.94591" lon="5.72623">
        <ele>273</ele>
        <time>2012-10-11T12:24:05Z</time>
      </trkpt>
      <trkpt lat="46.94597" lon="5.72635">
        <ele>273</ele>
        <time>2012-10-11T12:24:07Z</time>
      </trkpt>
      <trkpt lat="46.94602" lon="5.72646">
        <ele>273</ele>
        <time>2012-10-11T12:24:09Z</time>
      </trkpt>
      <trkpt lat="46.94607" lon="5.72659">
        <ele>273</ele>
        <time>2012-10-11T12:24:11Z</time>
      </trkpt>
      <trkpt lat="46.94613" lon="5.72671">
        <ele>273</ele>
        <time>2012-10-11T12:24:13Z</time>
      </trkpt>
      <trkpt lat="46.94618" lon="5.72682">
        <ele>273</ele>
        <time>2012-10-11T12:24:15Z</time>
      </trkpt>
      <trkpt lat="46.94624" lon="5.72694">
        <ele>273</ele>
        <time>2012-10-11T12:24:17Z</time>
      </trkpt>
      <trkpt lat="46.94629" lon="5.72706">
        <ele>273</ele>
        <time>2012-10-11T12:24:19Z</time>
      </trkpt>
      <trkpt lat="46.94635" lon="5.72716">
        <ele>273</ele>
        <time>2012-10-11T12:24:21Z</time>
      </trkpt>
      <trkpt lat="46.9464" lon="5.72728">
        <ele>273</ele>
        <time>2012-10-11T12:24:23Z</time>
      </trkpt>
      <trkpt lat="46.94645" lon="5.7274">
        <ele>273</ele>
        <time>2012-10-11T12:24:25Z</time>
      </trkpt>
      <trkpt lat="46.94651" lon="5.72752">
        <ele>273</ele>
        <time>2012-10-11T12:24:27Z</time>
      </trkpt>
      <trkpt lat="46.94657" lon="5.72765">
        <ele>273</ele>
        <time>2012-10-11T12:24:29Z</time>
      </trkpt>
      <trkpt lat="46.94663" lon="5.72778">
        <ele>273</ele>
        <time>2012-10-11T12:24:31Z</time>
      </trkpt>
      <trkpt lat="46.94669" lon="5.72791">
        <ele>273</ele>
        <time>2012-10-11T12:24:33Z</time>
      </trkpt>
      <trkpt lat="46.94674" lon="5.72805">
        <ele>273</ele>
        <time>2012-10-11T12:24:35Z</time>
      </trkpt>
      <trkpt lat="46.9468" lon="5.72818">
        <ele>273</ele>
        <time>2012-10-11T12:24:37Z</time>
      </trkpt>
      <trkpt lat="46.94686" lon="5.72832">
        <ele>273</ele>
        <time>2012-10-11T12:24:39Z</time>
      </trkpt>
      <trkpt lat="46.94692" lon="5.72847">
        <ele>273</ele>
        <time>2012-10-11T12:24:41Z</time>
      </trkpt>
      <trkpt lat="46.94699" lon="5.72859">
        <ele>273</ele>
        <time>2012-10-11T12:24:43Z</time>
      </trkpt>
      <trkpt lat="46.94707" lon="5.72871">
        <ele>273</ele>
        <time>2012-10-11T12:24:45Z</time>
      </trkpt>
      <trkpt lat="46.94715" lon="5.7288">
        <ele>273</ele>
        <time>2012-10-11T12:24:47Z</time>
      </trkpt>
      <trkpt lat="46.94724" lon="5.72888">
        <ele>278</ele>
        <time>2012-10-11T12:24:49Z</time>
      </trkpt>
      <trkpt lat="46.94733" lon="5.72896">
        <ele>278</ele>
        <time>2012-10-11T12:24:51Z</time>
      </trkpt>
      <trkpt lat="46.94742" lon="5.72903">
        <ele>278</ele>
        <time>2012-10-11T12:24:53Z</time>
      </trkpt>
      <trkpt lat="46.94752" lon="5.72911">
        <ele>278</ele>
        <time>2012-10-11T12:24:55Z</time>
      </trkpt>
      <trkpt lat="46.9476" lon="5.72919">
        <ele>278</ele>
        <time>2012-10-11T12:24:57Z</time>
      </trkpt>
      <trkpt lat="46.94769" lon="5.72925">
        <ele>278</ele>
        <time>2012-10-11T12:24:59Z</time>
      </trkpt>
      <trkpt lat="46.94778" lon="5.7293">
        <ele>278</ele>
        <time>2012-10-11T12:25:01Z</time>
      </trkpt>
      <trkpt lat="46.94787" lon="5.72932">
        <ele>278</ele>
        <time>2012-10-11T12:25:03Z</time>
      </trkpt>
      <trkpt lat="46.94797" lon="5.72932">
        <ele>278</ele>
        <time>2012-10-11T12:25:05Z</time>
      </trkpt>
      <trkpt lat="46.9481" lon="5.72929">
        <ele>278</ele>
        <time>2012-10-11T12:25:08Z</time>
      </trkpt>
      <trkpt lat="46.94822" lon="5.72926">
        <ele>278</ele>
        <time>2012-10-11T12:25:11Z</time>
      </trkpt>
      <trkpt lat="46.94833" lon="5.72923">
        <ele>278</ele>
        <time>2012-10-11T12:25:14Z</time>
      </trkpt>
      <trkpt lat="46.94845" lon="5.72919">
        <ele>283</ele>
        <time>2012-10-11T12:25:17Z</time>
      </trkpt>
      <trkpt lat="46.94856" lon="5.72918">
        <ele>283</ele>
        <time>2012-10-11T12:25:20Z</time>
      </trkpt>
      <trkpt lat="46.94867" lon="5.72919">
        <ele>283</ele>
        <time>2012-10-11T12:25:23Z</time>
      </trkpt>
      <trkpt lat="46.94877" lon="5.72919">
        <ele>283</ele>
        <time>2012-10-11T12:25:26Z</time>
      </trkpt>
      <trkpt lat="46.94888" lon="5.72921">
        <ele>283</ele>
        <time>2012-10-11T12:25:29Z</time>
      </trkpt>
      <trkpt lat="46.94898" lon="5.72922">
        <ele>283</ele>
        <time>2012-10-11T12:25:32Z</time>
      </trkpt>
      <trkpt lat="46.94909" lon="5.72924">
        <ele>283</ele>
        <time>2012-10-11T12:25:35Z</time>
      </trkpt>
      <trkpt lat="46.9492" lon="5.72928">
        <ele>283</ele>
        <time>2012-10-11T12:25:38Z</time>
      </trkpt>
      <trkpt lat="46.9493" lon="5.72935">
        <ele>283</ele>
        <time>2012-10-11T12:25:41Z</time>
      </trkpt>
      <trkpt lat="46.9494" lon="5.72944">
        <ele>283</ele>
        <time>2012-10-11T12:25:44Z</time>
      </trkpt>
      <trkpt lat="46.94949" lon="5.72955">
        <ele>283</ele>
        <time>2012-10-11T12:25:47Z</time>
      </trkpt>
      <trkpt lat="46.94958" lon="5.72968">
        <ele>289</ele>
        <time>2012-10-11T12:25:50Z</time>
      </trkpt>
      <trkpt lat="46.94966" lon="5.72981">
        <ele>289</ele>
        <time>2012-10-11T12:25:53Z</time>
      </trkpt>
      <trkpt lat="46.94975" lon="5.72995">
        <ele>289</ele>
        <time>2012-10-11T12:25:56Z</time>
      </trkpt>
      <trkpt lat="46.94982" lon="5.73004">
        <ele>289</ele>
        <time>2012-10-11T12:25:58Z</time>
      </trkpt>
      <trkpt lat="46.9499" lon="5.73016">
        <ele>289</ele>
        <time>2012-10-11T12:26:01Z</time>
      </trkpt>
      <trkpt lat="46.94997" lon="5.73027">
        <ele>289</ele>
        <time>2012-10-11T12:26:04Z</time>
      </trkpt>
      <trkpt lat="46.95003" lon="5.7304">
        <ele>289</ele>
        <time>2012-10-11T12:26:07Z</time>
      </trkpt>
      <trkpt lat="46.95013" lon="5.73052">
        <ele>289</ele>
        <time>2012-10-11T12:26:10Z</time>
      </trkpt>
      <trkpt lat="46.95023" lon="5.73061">
        <ele>289</ele>
        <time>2012-10-11T12:26:13Z</time>
      </trkpt>
      <trkpt lat="46.95032" lon="5.73067">
        <ele>289</ele>
        <time>2012-10-11T12:26:16Z</time>
      </trkpt>
      <trkpt lat="46.95043" lon="5.73073">
        <ele>289</ele>
        <time>2012-10-11T12:26:19Z</time>
      </trkpt>
      <trkpt lat="46.95053" lon="5.73078">
        <ele>289</ele>
        <time>2012-10-11T12:26:22Z</time>
      </trkpt>
      <trkpt lat="46.95065" lon="5.73084">
        <ele>289</ele>
        <time>2012-10-11T12:26:25Z</time>
      </trkpt>
      <trkpt lat="46.95075" lon="5.73087">
        <ele>289</ele>
        <time>2012-10-11T12:26:28Z</time>
      </trkpt>
      <trkpt lat="46.95085" lon="5.73092">
        <ele>295</ele>
        <time>2012-10-11T12:26:32Z</time>
      </trkpt>
      <trkpt lat="46.95092" lon="5.73104">
        <ele>295</ele>
        <time>2012-10-11T12:26:35Z</time>
      </trkpt>
      <trkpt lat="46.95094" lon="5.7312">
        <ele>295</ele>
        <time>2012-10-11T12:26:38Z</time>
      </trkpt>
      <trkpt lat="46.95091" lon="5.73138">
        <ele>295</ele>
        <time>2012-10-11T12:26:41Z</time>
      </trkpt>
      <trkpt lat="46.95086" lon="5.73154">
        <ele>295</ele>
        <time>2012-10-11T12:26:44Z</time>
      </trkpt>
      <trkpt lat="46.9508" lon="5.73168">
        <ele>295</ele>
        <time>2012-10-11T12:26:47Z</time>
      </trkpt>
      <trkpt lat="46.95073" lon="5.73183">
        <ele>295</ele>
        <time>2012-10-11T12:26:50Z</time>
      </trkpt>
      <trkpt lat="46.95067" lon="5.73195">
        <ele>295</ele>
        <time>2012-10-11T12:26:53Z</time>
      </trkpt>
      <trkpt lat="46.95061" lon="5.73207">
        <ele>295</ele>
        <time>2012-10-11T12:26:56Z</time>
      </trkpt>
      <trkpt lat="46.95054" lon="5.73219">
        <ele>295</ele>
        <time>2012-10-11T12:26:59Z</time>
      </trkpt>
      <trkpt lat="46.95048" lon="5.73229">
        <ele>295</ele>
        <time>2012-10-11T12:27:02Z</time>
      </trkpt>
      <trkpt lat="46.9504" lon="5.73239">
        <ele>295</ele>
        <time>2012-10-11T12:27:05Z</time>
      </trkpt>
      <trkpt lat="46.9503" lon="5.73254">
        <ele>295</ele>
        <time>2012-10-11T12:27:08Z</time>
      </trkpt>
      <trkpt lat="46.95022" lon="5.73265">
        <ele>295</ele>
        <time>2012-10-11T12:27:10Z</time>
      </trkpt>
      <trkpt lat="46.95012" lon="5.7328">
        <ele>295</ele>
        <time>2012-10-11T12:27:12Z</time>
      </trkpt>
      <trkpt lat="46.95003" lon="5.73299">
        <ele>295</ele>
        <time>2012-10-11T12:27:14Z</time>
      </trkpt>
      <trkpt lat="46.94996" lon="5.73321">
        <ele>295</ele>
        <time>2012-10-11T12:27:16Z</time>
      </trkpt>
      <trkpt lat="46.94993" lon="5.73334">
        <ele>295</ele>
        <time>2012-10-11T12:27:17Z</time>
      </trkpt>
      <trkpt lat="46.94986" lon="5.73358">
        <ele>295</ele>
        <time>2012-10-11T12:27:19Z</time>
      </trkpt>
      <trkpt lat="46.94979" lon="5.73379">
        <ele>295</ele>
        <time>2012-10-11T12:27:21Z</time>
      </trkpt>
      <trkpt lat="46.94971" lon="5.73398">
        <ele>295</ele>
        <time>2012-10-11T12:27:23Z</time>
      </trkpt>
      <trkpt lat="46.94963" lon="5.73416">
        <ele>295</ele>
        <time>2012-10-11T12:27:25Z</time>
      </trkpt>
      <trkpt lat="46.94955" lon="5.73432">
        <ele>295</ele>
        <time>2012-10-11T12:27:27Z</time>
      </trkpt>
      <trkpt lat="46.94949" lon="5.73444">
        <ele>295</ele>
        <time>2012-10-11T12:27:29Z</time>
      </trkpt>
      <trkpt lat="46.94941" lon="5.73459">
        <ele>295</ele>
        <time>2012-10-11T12:27:32Z</time>
      </trkpt>
      <trkpt lat="46.94934" lon="5.73473">
        <ele>295</ele>
        <time>2012-10-11T12:27:35Z</time>
      </trkpt>
      <trkpt lat="46.94929" lon="5.73485">
        <ele>295</ele>
        <time>2012-10-11T12:27:38Z</time>
      </trkpt>
      <trkpt lat="46.94924" lon="5.73498">
        <ele>295</ele>
        <time>2012-10-11T12:27:41Z</time>
      </trkpt>
      <trkpt lat="46.9492" lon="5.73511">
        <ele>295</ele>
        <time>2012-10-11T12:27:44Z</time>
      </trkpt>
      <trkpt lat="46.94917" lon="5.73523">
        <ele>295</ele>
        <time>2012-10-11T12:27:47Z</time>
      </trkpt>
      <trkpt lat="46.94914" lon="5.73537">
        <ele>301</ele>
        <time>2012-10-11T12:27:50Z</time>
      </trkpt>
      <trkpt lat="46.9491" lon="5.73549">
        <ele>301</ele>
        <time>2012-10-11T12:27:53Z</time>
      </trkpt>
      <trkpt lat="46.94907" lon="5.73564">
        <ele>301</ele>
        <time>2012-10-11T12:27:56Z</time>
      </trkpt>
      <trkpt lat="46.94901" lon="5.73581">
        <ele>301</ele>
        <time>2012-10-11T12:27:59Z</time>
      </trkpt>
      <trkpt lat="46.94894" lon="5.73597">
        <ele>301</ele>
        <time>2012-10-11T12:28:02Z</time>
      </trkpt>
      <trkpt lat="46.94888" lon="5.73608">
        <ele>301</ele>
        <time>2012-10-11T12:28:04Z</time>
      </trkpt>
      <trkpt lat="46.94882" lon="5.73619">
        <ele>301</ele>
        <time>2012-10-11T12:28:06Z</time>
      </trkpt>
      <trkpt lat="46.94875" lon="5.73629">
        <ele>301</ele>
        <time>2012-10-11T12:28:08Z</time>
      </trkpt>
      <trkpt lat="46.94866" lon="5.73642">
        <ele>301</ele>
        <time>2012-10-11T12:28:11Z</time>
      </trkpt>
      <trkpt lat="46.94859" lon="5.73652">
        <ele>301</ele>
        <time>2012-10-11T12:28:13Z</time>
      </trkpt>
      <trkpt lat="46.94851" lon="5.7366">
        <ele>301</ele>
        <time>2012-10-11T12:28:15Z</time>
      </trkpt>
      <trkpt lat="46.94841" lon="5.7367">
        <ele>301</ele>
        <time>2012-10-11T12:28:18Z</time>
      </trkpt>
      <trkpt lat="46.94833" lon="5.7368">
        <ele>301</ele>
        <time>2012-10-11T12:28:21Z</time>
      </trkpt>
      <trkpt lat="46.94823" lon="5.73689">
        <ele>306</ele>
        <time>2012-10-11T12:28:24Z</time>
      </trkpt>
      <trkpt lat="46.94814" lon="5.73697">
        <ele>306</ele>
        <time>2012-10-11T12:28:27Z</time>
      </trkpt>
      <trkpt lat="46.94802" lon="5.73703">
        <ele>306</ele>
        <time>2012-10-11T12:28:30Z</time>
      </trkpt>
      <trkpt lat="46.9479" lon="5.73709">
        <ele>299</ele>
        <time>2012-10-11T12:28:33Z</time>
      </trkpt>
      <trkpt lat="46.94781" lon="5.73715">
        <ele>299</ele>
        <time>2012-10-11T12:28:36Z</time>
      </trkpt>
      <trkpt lat="46.94772" lon="5.7372">
        <ele>299</ele>
        <time>2012-10-11T12:28:39Z</time>
      </trkpt>
      <trkpt lat="46.94763" lon="5.73724">
        <ele>299</ele>
        <time>2012-10-11T12:28:42Z</time>
      </trkpt>
      <trkpt lat="46.94752" lon="5.73726">
        <ele>304</ele>
        <time>2012-10-11T12:28:46Z</time>
      </trkpt>
      <trkpt lat="46.94742" lon="5.73726">
        <ele>304</ele>
        <time>2012-10-11T12:28:49Z</time>
      </trkpt>
      <trkpt lat="46.94731" lon="5.73724">
        <ele>304</ele>
        <time>2012-10-11T12:28:52Z</time>
      </trkpt>
      <trkpt lat="46.9472" lon="5.73721">
        <ele>312</ele>
        <time>2012-10-11T12:28:56Z</time>
      </trkpt>
      <trkpt lat="46.94711" lon="5.73717">
        <ele>312</ele>
        <time>2012-10-11T12:28:59Z</time>
      </trkpt>
      <trkpt lat="46.94703" lon="5.73714">
        <ele>312</ele>
        <time>2012-10-11T12:29:02Z</time>
      </trkpt>
      <trkpt lat="46.94691" lon="5.73709">
        <ele>312</ele>
        <time>2012-10-11T12:29:06Z</time>
      </trkpt>
      <trkpt lat="46.94682" lon="5.73706">
        <ele>312</ele>
        <time>2012-10-11T12:29:09Z</time>
      </trkpt>
      <trkpt lat="46.94671" lon="5.73705">
        <ele>318</ele>
        <time>2012-10-11T12:29:13Z</time>
      </trkpt>
      <trkpt lat="46.9466" lon="5.73698">
        <ele>318</ele>
        <time>2012-10-11T12:29:17Z</time>
      </trkpt>
      <trkpt lat="46.94651" lon="5.73695">
        <ele>318</ele>
        <time>2012-10-11T12:29:20Z</time>
      </trkpt>
      <trkpt lat="46.9464" lon="5.73691">
        <ele>318</ele>
        <time>2012-10-11T12:29:23Z</time>
      </trkpt>
      <trkpt lat="46.9463" lon="5.73686">
        <ele>318</ele>
        <time>2012-10-11T12:29:26Z</time>
      </trkpt>
      <trkpt lat="46.94618" lon="5.73682">
        <ele>318</ele>
        <time>2012-10-11T12:29:29Z</time>
      </trkpt>
      <trkpt lat="46.94606" lon="5.73681">
        <ele>323</ele>
        <time>2012-10-11T12:29:32Z</time>
      </trkpt>
      <trkpt lat="46.94593" lon="5.73679">
        <ele>323</ele>
        <time>2012-10-11T12:29:35Z</time>
      </trkpt>
      <trkpt lat="46.94581" lon="5.73679">
        <ele>323</ele>
        <time>2012-10-11T12:29:38Z</time>
      </trkpt>
      <trkpt lat="46.94571" lon="5.7368">
        <ele>323</ele>
        <time>2012-10-11T12:29:41Z</time>
      </trkpt>
      <trkpt lat="46.94562" lon="5.73685">
        <ele>323</ele>
        <time>2012-10-11T12:29:44Z</time>
      </trkpt>
      <trkpt lat="46.94554" lon="5.73693">
        <ele>323</ele>
        <time>2012-10-11T12:29:47Z</time>
      </trkpt>
      <trkpt lat="46.94547" lon="5.73702">
        <ele>323</ele>
        <time>2012-10-11T12:29:50Z</time>
      </trkpt>
      <trkpt lat="46.94544" lon="5.73715">
        <ele>323</ele>
        <time>2012-10-11T12:29:53Z</time>
      </trkpt>
      <trkpt lat="46.94539" lon="5.73729">
        <ele>323</ele>
        <time>2012-10-11T12:29:56Z</time>
      </trkpt>
      <trkpt lat="46.94535" lon="5.73744">
        <ele>323</ele>
        <time>2012-10-11T12:29:59Z</time>
      </trkpt>
      <trkpt lat="46.9453" lon="5.73759">
        <ele>323</ele>
        <time>2012-10-11T12:30:02Z</time>
      </trkpt>
      <trkpt lat="46.94526" lon="5.73775">
        <ele>323</ele>
        <time>2012-10-11T12:30:05Z</time>
      </trkpt>
      <trkpt lat="46.9452" lon="5.73792">
        <ele>323</ele>
        <time>2012-10-11T12:30:08Z</time>
      </trkpt>
      <trkpt lat="46.94516" lon="5.73804">
        <ele>323</ele>
        <time>2012-10-11T12:30:10Z</time>
      </trkpt>
      <trkpt lat="46.94512" lon="5.73818">
        <ele>323</ele>
        <time>2012-10-11T12:30:12Z</time>
      </trkpt>
      <trkpt lat="46.94509" lon="5.73835">
        <ele>323</ele>
        <time>2012-10-11T12:30:14Z</time>
      </trkpt>
      <trkpt lat="46.94506" lon="5.73852">
        <ele>323</ele>
        <time>2012-10-11T12:30:16Z</time>
      </trkpt>
      <trkpt lat="46.94503" lon="5.73871">
        <ele>323</ele>
        <time>2012-10-11T12:30:18Z</time>
      </trkpt>
      <trkpt lat="46.94499" lon="5.73889">
        <ele>317</ele>
        <time>2012-10-11T12:30:20Z</time>
      </trkpt>
      <trkpt lat="46.94498" lon="5.73904">
        <ele>317</ele>
        <time>2012-10-11T12:30:22Z</time>
      </trkpt>
      <trkpt lat="46.94496" lon="5.73918">
        <ele>317</ele>
        <time>2012-10-11T12:30:24Z</time>
      </trkpt>
      <trkpt lat="46.94495" lon="5.73938">
        <ele>317</ele>
        <time>2012-10-11T12:30:27Z</time>
      </trkpt>
      <trkpt lat="46.94495" lon="5.73956">
        <ele>317</ele>
        <time>2012-10-11T12:30:29Z</time>
      </trkpt>
      <trkpt lat="46.94495" lon="5.73973">
        <ele>317</ele>
        <time>2012-10-11T12:30:31Z</time>
      </trkpt>
      <trkpt lat="46.94495" lon="5.73988">
        <ele>317</ele>
        <time>2012-10-11T12:30:33Z</time>
      </trkpt>
      <trkpt lat="46.94493" lon="5.74005">
        <ele>317</ele>
        <time>2012-10-11T12:30:35Z</time>
      </trkpt>
      <trkpt lat="46.94489" lon="5.74021">
        <ele>317</ele>
        <time>2012-10-11T12:30:37Z</time>
      </trkpt>
      <trkpt lat="46.94483" lon="5.74033">
        <ele>317</ele>
        <time>2012-10-11T12:30:39Z</time>
      </trkpt>
      <trkpt lat="46.94478" lon="5.74048">
        <ele>323</ele>
        <time>2012-10-11T12:30:41Z</time>
      </trkpt>
      <trkpt lat="46.9447" lon="5.74062">
        <ele>323</ele>
        <time>2012-10-11T12:30:43Z</time>
      </trkpt>
      <trkpt lat="46.94461" lon="5.74076">
        <ele>323</ele>
        <time>2012-10-11T12:30:45Z</time>
      </trkpt>
      <trkpt lat="46.94453" lon="5.74089">
        <ele>323</ele>
        <time>2012-10-11T12:30:47Z</time>
      </trkpt>
      <trkpt lat="46.94446" lon="5.74102">
        <ele>323</ele>
        <time>2012-10-11T12:30:49Z</time>
      </trkpt>
      <trkpt lat="46.94441" lon="5.74113">
        <ele>323</ele>
        <time>2012-10-11T12:30:51Z</time>
      </trkpt>
      <trkpt lat="46.94434" lon="5.74125">
        <ele>323</ele>
        <time>2012-10-11T12:30:53Z</time>
      </trkpt>
      <trkpt lat="46.94427" lon="5.74138">
        <ele>323</ele>
        <time>2012-10-11T12:30:55Z</time>
      </trkpt>
      <trkpt lat="46.94418" lon="5.74153">
        <ele>323</ele>
        <time>2012-10-11T12:30:57Z</time>
      </trkpt>
      <trkpt lat="46.94408" lon="5.74169">
        <ele>323</ele>
        <time>2012-10-11T12:30:59Z</time>
      </trkpt>
      <trkpt lat="46.94397" lon="5.74187">
        <ele>317</ele>
        <time>2012-10-11T12:31:01Z</time>
      </trkpt>
      <trkpt lat="46.94386" lon="5.74205">
        <ele>317</ele>
        <time>2012-10-11T12:31:03Z</time>
      </trkpt>
      <trkpt lat="46.94374" lon="5.74223">
        <ele>317</ele>
        <time>2012-10-11T12:31:05Z</time>
      </trkpt>
      <trkpt lat="46.94364" lon="5.74245">
        <ele>311</ele>
        <time>2012-10-11T12:31:07Z</time>
      </trkpt>
      <trkpt lat="46.94358" lon="5.74257">
        <ele>311</ele>
        <time>2012-10-11T12:31:08Z</time>
      </trkpt>
      <trkpt lat="46.94351" lon="5.74267">
        <ele>311</ele>
        <time>2012-10-11T12:31:09Z</time>
      </trkpt>
      <trkpt lat="46.94346" lon="5.74279">
        <ele>311</ele>
        <time>2012-10-11T12:31:10Z</time>
      </trkpt>
      <trkpt lat="46.94336" lon="5.743">
        <ele>311</ele>
        <time>2012-10-11T12:31:12Z</time>
      </trkpt>
      <trkpt lat="46.94325" lon="5.7432">
        <ele>305</ele>
        <time>2012-10-11T12:31:14Z</time>
      </trkpt>
      <trkpt lat="46.94315" lon="5.74339">
        <ele>305</ele>
        <time>2012-10-11T12:31:16Z</time>
      </trkpt>
      <trkpt lat="46.94305" lon="5.74356">
        <ele>305</ele>
        <time>2012-10-11T12:31:18Z</time>
      </trkpt>
      <trkpt lat="46.94296" lon="5.74372">
        <ele>305</ele>
        <time>2012-10-11T12:31:20Z</time>
      </trkpt>
      <trkpt lat="46.94287" lon="5.74388">
        <ele>305</ele>
        <time>2012-10-11T12:31:22Z</time>
      </trkpt>
      <trkpt lat="46.94279" lon="5.74404">
        <ele>305</ele>
        <time>2012-10-11T12:31:24Z</time>
      </trkpt>
      <trkpt lat="46.94264" lon="5.74411">
        <ele>305</ele>
        <time>2012-10-11T12:31:26Z</time>
      </trkpt>
      <trkpt lat="46.94251" lon="5.74414">
        <ele>305</ele>
        <time>2012-10-11T12:31:28Z</time>
      </trkpt>
      <trkpt lat="46.94239" lon="5.74416">
        <ele>305</ele>
        <time>2012-10-11T12:31:30Z</time>
      </trkpt>
      <trkpt lat="46.94228" lon="5.74418">
        <ele>299</ele>
        <time>2012-10-11T12:31:32Z</time>
      </trkpt>
      <trkpt lat="46.94217" lon="5.74419">
        <ele>299</ele>
        <time>2012-10-11T12:31:34Z</time>
      </trkpt>
      <trkpt lat="46.94207" lon="5.74421">
        <ele>299</ele>
        <time>2012-10-11T12:31:36Z</time>
      </trkpt>
      <trkpt lat="46.94196" lon="5.74421">
        <ele>299</ele>
        <time>2012-10-11T12:31:38Z</time>
      </trkpt>
      <trkpt lat="46.94185" lon="5.74421">
        <ele>299</ele>
        <time>2012-10-11T12:31:40Z</time>
      </trkpt>
      <trkpt lat="46.94174" lon="5.74422">
        <ele>299</ele>
        <time>2012-10-11T12:31:42Z</time>
      </trkpt>
      <trkpt lat="46.94164" lon="5.74424">
        <ele>299</ele>
        <time>2012-10-11T12:31:44Z</time>
      </trkpt>
      <trkpt lat="46.94153" lon="5.74426">
        <ele>299</ele>
        <time>2012-10-11T12:31:46Z</time>
      </trkpt>
      <trkpt lat="46.94143" lon="5.74428">
        <ele>299</ele>
        <time>2012-10-11T12:31:48Z</time>
      </trkpt>
      <trkpt lat="46.9413" lon="5.74432">
        <ele>299</ele>
        <time>2012-10-11T12:31:51Z</time>
      </trkpt>
      <trkpt lat="46.94119" lon="5.74439">
        <ele>299</ele>
        <time>2012-10-11T12:31:54Z</time>
      </trkpt>
      <trkpt lat="46.94109" lon="5.74448">
        <ele>299</ele>
        <time>2012-10-11T12:31:57Z</time>
      </trkpt>
      <trkpt lat="46.94101" lon="5.74457">
        <ele>306</ele>
        <time>2012-10-11T12:31:59Z</time>
      </trkpt>
      <trkpt lat="46.94095" lon="5.74468">
        <ele>306</ele>
        <time>2012-10-11T12:32:01Z</time>
      </trkpt>
      <trkpt lat="46.94088" lon="5.74479">
        <ele>311</ele>
        <time>2012-10-11T12:32:03Z</time>
      </trkpt>
      <trkpt lat="46.94082" lon="5.74492">
        <ele>320</ele>
        <time>2012-10-11T12:32:05Z</time>
      </trkpt>
      <trkpt lat="46.94076" lon="5.74502">
        <ele>320</ele>
        <time>2012-10-11T12:32:07Z</time>
      </trkpt>
      <trkpt lat="46.94069" lon="5.74518">
        <ele>320</ele>
        <time>2012-10-11T12:32:10Z</time>
      </trkpt>
      <trkpt lat="46.94061" lon="5.74527">
        <ele>320</ele>
        <time>2012-10-11T12:32:12Z</time>
      </trkpt>
      <trkpt lat="46.9405" lon="5.74533">
        <ele>320</ele>
        <time>2012-10-11T12:32:14Z</time>
      </trkpt>
      <trkpt lat="46.94038" lon="5.74534">
        <ele>315</ele>
        <time>2012-10-11T12:32:16Z</time>
      </trkpt>
      <trkpt lat="46.94026" lon="5.74534">
        <ele>315</ele>
        <time>2012-10-11T12:32:18Z</time>
      </trkpt>
      <trkpt lat="46.94015" lon="5.74534">
        <ele>315</ele>
        <time>2012-10-11T12:32:20Z</time>
      </trkpt>
      <trkpt lat="46.94003" lon="5.74534">
        <ele>315</ele>
        <time>2012-10-11T12:32:22Z</time>
      </trkpt>
      <trkpt lat="46.93992" lon="5.74535">
        <ele>308</ele>
        <time>2012-10-11T12:32:24Z</time>
      </trkpt>
      <trkpt lat="46.93981" lon="5.74538">
        <ele>308</ele>
        <time>2012-10-11T12:32:26Z</time>
      </trkpt>
      <trkpt lat="46.9397" lon="5.74548">
        <ele>308</ele>
        <time>2012-10-11T12:32:28Z</time>
      </trkpt>
      <trkpt lat="46.93962" lon="5.74562">
        <ele>308</ele>
        <time>2012-10-11T12:32:30Z</time>
      </trkpt>
      <trkpt lat="46.93957" lon="5.74578">
        <ele>308</ele>
        <time>2012-10-11T12:32:32Z</time>
      </trkpt>
      <trkpt lat="46.93953" lon="5.74594">
        <ele>308</ele>
        <time>2012-10-11T12:32:34Z</time>
      </trkpt>
      <trkpt lat="46.93948" lon="5.74613">
        <ele>319</ele>
        <time>2012-10-11T12:32:36Z</time>
      </trkpt>
      <trkpt lat="46.93942" lon="5.74627">
        <ele>319</ele>
        <time>2012-10-11T12:32:38Z</time>
      </trkpt>
      <trkpt lat="46.93933" lon="5.74638">
        <ele>319</ele>
        <time>2012-10-11T12:32:40Z</time>
      </trkpt>
      <trkpt lat="46.93921" lon="5.74647">
        <ele>319</ele>
        <time>2012-10-11T12:32:42Z</time>
      </trkpt>
      <trkpt lat="46.93909" lon="5.74655">
        <ele>319</ele>
        <time>2012-10-11T12:32:44Z</time>
      </trkpt>
      <trkpt lat="46.93899" lon="5.74662">
        <ele>319</ele>
        <time>2012-10-11T12:32:46Z</time>
      </trkpt>
      <trkpt lat="46.93889" lon="5.7467">
        <ele>319</ele>
        <time>2012-10-11T12:32:48Z</time>
      </trkpt>
      <trkpt lat="46.93878" lon="5.74678">
        <ele>319</ele>
        <time>2012-10-11T12:32:50Z</time>
      </trkpt>
      <trkpt lat="46.93867" lon="5.74686">
        <ele>312</ele>
        <time>2012-10-11T12:32:52Z</time>
      </trkpt>
      <trkpt lat="46.93857" lon="5.74694">
        <ele>312</ele>
        <time>2012-10-11T12:32:54Z</time>
      </trkpt>
      <trkpt lat="46.93845" lon="5.747">
        <ele>312</ele>
        <time>2012-10-11T12:32:56Z</time>
      </trkpt>
      <trkpt lat="46.93834" lon="5.74708">
        <ele>312</ele>
        <time>2012-10-11T12:32:58Z</time>
      </trkpt>
      <trkpt lat="46.93823" lon="5.74716">
        <ele>306</ele>
        <time>2012-10-11T12:33:00Z</time>
      </trkpt>
      <trkpt lat="46.93813" lon="5.74726">
        <ele>306</ele>
        <time>2012-10-11T12:33:02Z</time>
      </trkpt>
      <trkpt lat="46.93803" lon="5.74736">
        <ele>306</ele>
        <time>2012-10-11T12:33:04Z</time>
      </trkpt>
      <trkpt lat="46.93796" lon="5.74749">
        <ele>306</ele>
        <time>2012-10-11T12:33:06Z</time>
      </trkpt>
      <trkpt lat="46.9379" lon="5.74766">
        <ele>306</ele>
        <time>2012-10-11T12:33:08Z</time>
      </trkpt>
      <trkpt lat="46.93788" lon="5.74782">
        <ele>306</ele>
        <time>2012-10-11T12:33:10Z</time>
      </trkpt>
      <trkpt lat="46.93788" lon="5.74801">
        <ele>312</ele>
        <time>2012-10-11T12:33:12Z</time>
      </trkpt>
      <trkpt lat="46.93791" lon="5.74818">
        <ele>312</ele>
        <time>2012-10-11T12:33:14Z</time>
      </trkpt>
      <trkpt lat="46.93796" lon="5.74836">
        <ele>312</ele>
        <time>2012-10-11T12:33:16Z</time>
      </trkpt>
      <trkpt lat="46.93799" lon="5.74854">
        <ele>312</ele>
        <time>2012-10-11T12:33:18Z</time>
      </trkpt>
      <trkpt lat="46.93801" lon="5.74872">
        <ele>312</ele>
        <time>2012-10-11T12:33:20Z</time>
      </trkpt>
      <trkpt lat="46.93801" lon="5.74891">
        <ele>312</ele>
        <time>2012-10-11T12:33:22Z</time>
      </trkpt>
      <trkpt lat="46.93797" lon="5.74908">
        <ele>312</ele>
        <time>2012-10-11T12:33:24Z</time>
      </trkpt>
      <trkpt lat="46.93792" lon="5.74926">
        <ele>312</ele>
        <time>2012-10-11T12:33:26Z</time>
      </trkpt>
      <trkpt lat="46.93786" lon="5.74944">
        <ele>312</ele>
        <time>2012-10-11T12:33:28Z</time>
      </trkpt>
      <trkpt lat="46.93782" lon="5.74961">
        <ele>312</ele>
        <time>2012-10-11T12:33:30Z</time>
      </trkpt>
      <trkpt lat="46.93776" lon="5.7498">
        <ele>312</ele>
        <time>2012-10-11T12:33:32Z</time>
      </trkpt>
      <trkpt lat="46.9377" lon="5.74999">
        <ele>312</ele>
        <time>2012-10-11T12:33:34Z</time>
      </trkpt>
      <trkpt lat="46.93767" lon="5.75018">
        <ele>312</ele>
        <time>2012-10-11T12:33:36Z</time>
      </trkpt>
      <trkpt lat="46.93765" lon="5.75037">
        <ele>312</ele>
        <time>2012-10-11T12:33:38Z</time>
      </trkpt>
      <trkpt lat="46.93764" lon="5.75056">
        <ele>312</ele>
        <time>2012-10-11T12:33:40Z</time>
      </trkpt>
      <trkpt lat="46.93763" lon="5.75075">
        <ele>312</ele>
        <time>2012-10-11T12:33:42Z</time>
      </trkpt>
      <trkpt lat="46.93762" lon="5.75094">
        <ele>312</ele>
        <time>2012-10-11T12:33:44Z</time>
      </trkpt>
      <trkpt lat="46.93758" lon="5.75113">
        <ele>312</ele>
        <time>2012-10-11T12:33:46Z</time>
      </trkpt>
      <trkpt lat="46.93749" lon="5.75129">
        <ele>312</ele>
        <time>2012-10-11T12:33:48Z</time>
      </trkpt>
      <trkpt lat="46.93736" lon="5.75139">
        <ele>312</ele>
        <time>2012-10-11T12:33:50Z</time>
      </trkpt>
      <trkpt lat="46.93721" lon="5.7514">
        <ele>312</ele>
        <time>2012-10-11T12:33:52Z</time>
      </trkpt>
      <trkpt lat="46.93706" lon="5.75137">
        <ele>312</ele>
        <time>2012-10-11T12:33:54Z</time>
      </trkpt>
      <trkpt lat="46.9369" lon="5.75132">
        <ele>312</ele>
        <time>2012-10-11T12:33:56Z</time>
      </trkpt>
      <trkpt lat="46.93674" lon="5.75128">
        <ele>312</ele>
        <time>2012-10-11T12:33:58Z</time>
      </trkpt>
      <trkpt lat="46.93657" lon="5.75122">
        <ele>312</ele>
        <time>2012-10-11T12:34:00Z</time>
      </trkpt>
      <trkpt lat="46.93639" lon="5.75118">
        <ele>312</ele>
        <time>2012-10-11T12:34:02Z</time>
      </trkpt>
      <trkpt lat="46.9363" lon="5.75115">
        <ele>307</ele>
        <time>2012-10-11T12:34:03Z</time>
      </trkpt>
      <trkpt lat="46.9362" lon="5.75112">
        <ele>307</ele>
        <time>2012-10-11T12:34:04Z</time>
      </trkpt>
      <trkpt lat="46.9361" lon="5.75109">
        <ele>307</ele>
        <time>2012-10-11T12:34:05Z</time>
      </trkpt>
      <trkpt lat="46.93601" lon="5.75107">
        <ele>307</ele>
        <time>2012-10-11T12:34:06Z</time>
      </trkpt>
      <trkpt lat="46.9359" lon="5.75103">
        <ele>307</ele>
        <time>2012-10-11T12:34:07Z</time>
      </trkpt>
      <trkpt lat="46.9358" lon="5.75101">
        <ele>307</ele>
        <time>2012-10-11T12:34:08Z</time>
      </trkpt>
      <trkpt lat="46.93569" lon="5.75098">
        <ele>307</ele>
        <time>2012-10-11T12:34:09Z</time>
      </trkpt>
      <trkpt lat="46.93559" lon="5.75095">
        <ele>307</ele>
        <time>2012-10-11T12:34:10Z</time>
      </trkpt>
      <trkpt lat="46.93547" lon="5.75093">
        <ele>307</ele>
        <time>2012-10-11T12:34:11Z</time>
      </trkpt>
      <trkpt lat="46.93536" lon="5.75089">
        <ele>302</ele>
        <time>2012-10-11T12:34:12Z</time>
      </trkpt>
      <trkpt lat="46.93524" lon="5.75085">
        <ele>302</ele>
        <time>2012-10-11T12:34:13Z</time>
      </trkpt>
      <trkpt lat="46.93513" lon="5.75083">
        <ele>302</ele>
        <time>2012-10-11T12:34:14Z</time>
      </trkpt>
      <trkpt lat="46.93502" lon="5.7508">
        <ele>302</ele>
        <time>2012-10-11T12:34:15Z</time>
      </trkpt>
      <trkpt lat="46.9349" lon="5.75076">
        <ele>302</ele>
        <time>2012-10-11T12:34:16Z</time>
      </trkpt>
      <trkpt lat="46.93478" lon="5.75074">
        <ele>302</ele>
        <time>2012-10-11T12:34:17Z</time>
      </trkpt>
      <trkpt lat="46.93466" lon="5.7507">
        <ele>302</ele>
        <time>2012-10-11T12:34:18Z</time>
      </trkpt>
      <trkpt lat="46.93454" lon="5.75067">
        <ele>297</ele>
        <time>2012-10-11T12:34:19Z</time>
      </trkpt>
      <trkpt lat="46.93442" lon="5.75064">
        <ele>297</ele>
        <time>2012-10-11T12:34:20Z</time>
      </trkpt>
      <trkpt lat="46.9343" lon="5.7506">
        <ele>297</ele>
        <time>2012-10-11T12:34:21Z</time>
      </trkpt>
      <trkpt lat="46.93417" lon="5.75057">
        <ele>297</ele>
        <time>2012-10-11T12:34:22Z</time>
      </trkpt>
      <trkpt lat="46.93405" lon="5.75053">
        <ele>297</ele>
        <time>2012-10-11T12:34:23Z</time>
      </trkpt>
      <trkpt lat="46.93393" lon="5.7505">
        <ele>297</ele>
        <time>2012-10-11T12:34:24Z</time>
      </trkpt>
      <trkpt lat="46.9338" lon="5.75047">
        <ele>297</ele>
        <time>2012-10-11T12:34:25Z</time>
      </trkpt>
      <trkpt lat="46.93367" lon="5.75043">
        <ele>297</ele>
        <time>2012-10-11T12:34:26Z</time>
      </trkpt>
      <trkpt lat="46.93355" lon="5.7504">
        <ele>291</ele>
        <time>2012-10-11T12:34:27Z</time>
      </trkpt>
      <trkpt lat="46.93343" lon="5.75036">
        <ele>291</ele>
        <time>2012-10-11T12:34:28Z</time>
      </trkpt>
      <trkpt lat="46.9333" lon="5.75032">
        <ele>291</ele>
        <time>2012-10-11T12:34:29Z</time>
      </trkpt>
      <trkpt lat="46.93318" lon="5.75029">
        <ele>291</ele>
        <time>2012-10-11T12:34:30Z</time>
      </trkpt>
      <trkpt lat="46.93305" lon="5.75025">
        <ele>291</ele>
        <time>2012-10-11T12:34:31Z</time>
      </trkpt>
      <trkpt lat="46.93292" lon="5.75022">
        <ele>291</ele>
        <time>2012-10-11T12:34:32Z</time>
      </trkpt>
      <trkpt lat="46.93279" lon="5.75019">
        <ele>291</ele>
        <time>2012-10-11T12:34:33Z</time>
      </trkpt>
      <trkpt lat="46.93266" lon="5.75015">
        <ele>285</ele>
        <time>2012-10-11T12:34:34Z</time>
      </trkpt>
      <trkpt lat="46.93254" lon="5.75012">
        <ele>285</ele>
        <time>2012-10-11T12:34:35Z</time>
      </trkpt>
      <trkpt lat="46.93241" lon="5.75008">
        <ele>285</ele>
        <time>2012-10-11T12:34:36Z</time>
      </trkpt>
      <trkpt lat="46.93229" lon="5.75004">
        <ele>285</ele>
        <time>2012-10-11T12:34:37Z</time>
      </trkpt>
      <trkpt lat="46.93216" lon="5.75001">
        <ele>285</ele>
        <time>2012-10-11T12:34:38Z</time>
      </trkpt>
      <trkpt lat="46.93203" lon="5.74997">
        <ele>285</ele>
        <time>2012-10-11T12:34:39Z</time>
      </trkpt>
      <trkpt lat="46.93191" lon="5.74994">
        <ele>285</ele>
        <time>2012-10-11T12:34:40Z</time>
      </trkpt>
      <trkpt lat="46.93178" lon="5.7499">
        <ele>285</ele>
        <time>2012-10-11T12:34:41Z</time>
      </trkpt>
      <trkpt lat="46.93166" lon="5.74987">
        <ele>280</ele>
        <time>2012-10-11T12:34:42Z</time>
      </trkpt>
      <trkpt lat="46.93153" lon="5.74984">
        <ele>280</ele>
        <time>2012-10-11T12:34:43Z</time>
      </trkpt>
      <trkpt lat="46.9314" lon="5.74981">
        <ele>280</ele>
        <time>2012-10-11T12:34:44Z</time>
      </trkpt>
      <trkpt lat="46.93127" lon="5.74978">
        <ele>280</ele>
        <time>2012-10-11T12:34:45Z</time>
      </trkpt>
      <trkpt lat="46.93115" lon="5.74974">
        <ele>280</ele>
        <time>2012-10-11T12:34:46Z</time>
      </trkpt>
      <trkpt lat="46.93102" lon="5.74971">
        <ele>280</ele>
        <time>2012-10-11T12:34:47Z</time>
      </trkpt>
      <trkpt lat="46.9309" lon="5.74968">
        <ele>280</ele>
        <time>2012-10-11T12:34:48Z</time>
      </trkpt>
      <trkpt lat="46.93078" lon="5.74964">
        <ele>280</ele>
        <time>2012-10-11T12:34:49Z</time>
      </trkpt>
      <trkpt lat="46.93066" lon="5.74961">
        <ele>274</ele>
        <time>2012-10-11T12:34:50Z</time>
      </trkpt>
      <trkpt lat="46.93054" lon="5.74958">
        <ele>274</ele>
        <time>2012-10-11T12:34:51Z</time>
      </trkpt>
      <trkpt lat="46.93042" lon="5.74954">
        <ele>274</ele>
        <time>2012-10-11T12:34:52Z</time>
      </trkpt>
      <trkpt lat="46.9303" lon="5.74951">
        <ele>274</ele>
        <time>2012-10-11T12:34:53Z</time>
      </trkpt>
      <trkpt lat="46.93018" lon="5.74948">
        <ele>274</ele>
        <time>2012-10-11T12:34:54Z</time>
      </trkpt>
      <trkpt lat="46.93006" lon="5.74945">
        <ele>274</ele>
        <time>2012-10-11T12:34:55Z</time>
      </trkpt>
      <trkpt lat="46.92994" lon="5.74942">
        <ele>274</ele>
        <time>2012-10-11T12:34:56Z</time>
      </trkpt>
      <trkpt lat="46.92983" lon="5.74939">
        <ele>274</ele>
        <time>2012-10-11T12:34:57Z</time>
      </trkpt>
      <trkpt lat="46.92971" lon="5.74935">
        <ele>274</ele>
        <time>2012-10-11T12:34:58Z</time>
      </trkpt>
      <trkpt lat="46.92959" lon="5.74933">
        <ele>274</ele>
        <time>2012-10-11T12:34:59Z</time>
      </trkpt>
      <trkpt lat="46.92948" lon="5.74929">
        <ele>274</ele>
        <time>2012-10-11T12:35:00Z</time>
      </trkpt>
      <trkpt lat="46.92937" lon="5.74926">
        <ele>269</ele>
        <time>2012-10-11T12:35:01Z</time>
      </trkpt>
      <trkpt lat="46.92926" lon="5.74924">
        <ele>269</ele>
        <time>2012-10-11T12:35:02Z</time>
      </trkpt>
      <trkpt lat="46.92914" lon="5.7492">
        <ele>269</ele>
        <time>2012-10-11T12:35:03Z</time>
      </trkpt>
      <trkpt lat="46.92903" lon="5.74916">
        <ele>269</ele>
        <time>2012-10-11T12:35:04Z</time>
      </trkpt>
      <trkpt lat="46.92892" lon="5.74914">
        <ele>269</ele>
        <time>2012-10-11T12:35:05Z</time>
      </trkpt>
      <trkpt lat="46.92881" lon="5.7491">
        <ele>269</ele>
        <time>2012-10-11T12:35:06Z</time>
      </trkpt>
      <trkpt lat="46.9287" lon="5.74907">
        <ele>269</ele>
        <time>2012-10-11T12:35:07Z</time>
      </trkpt>
      <trkpt lat="46.92858" lon="5.74904">
        <ele>269</ele>
        <time>2012-10-11T12:35:08Z</time>
      </trkpt>
      <trkpt lat="46.92848" lon="5.74901">
        <ele>269</ele>
        <time>2012-10-11T12:35:09Z</time>
      </trkpt>
      <trkpt lat="46.92836" lon="5.74899">
        <ele>269</ele>
        <time>2012-10-11T12:35:10Z</time>
      </trkpt>
      <trkpt lat="46.92826" lon="5.74899">
        <ele>269</ele>
        <time>2012-10-11T12:35:11Z</time>
      </trkpt>
      <trkpt lat="46.92815" lon="5.749">
        <ele>269</ele>
        <time>2012-10-11T12:35:12Z</time>
      </trkpt>
      <trkpt lat="46.92804" lon="5.74903">
        <ele>264</ele>
        <time>2012-10-11T12:35:13Z</time>
      </trkpt>
      <trkpt lat="46.92794" lon="5.7491">
        <ele>264</ele>
        <time>2012-10-11T12:35:14Z</time>
      </trkpt>
      <trkpt lat="46.92785" lon="5.74919">
        <ele>264</ele>
        <time>2012-10-11T12:35:15Z</time>
      </trkpt>
      <trkpt lat="46.92777" lon="5.74929">
        <ele>264</ele>
        <time>2012-10-11T12:35:16Z</time>
      </trkpt>
      <trkpt lat="46.9277" lon="5.74939">
        <ele>264</ele>
        <time>2012-10-11T12:35:17Z</time>
      </trkpt>
      <trkpt lat="46.92763" lon="5.7495">
        <ele>264</ele>
        <time>2012-10-11T12:35:18Z</time>
      </trkpt>
      <trkpt lat="46.92756" lon="5.7496">
        <ele>264</ele>
        <time>2012-10-11T12:35:19Z</time>
      </trkpt>
      <trkpt lat="46.9275" lon="5.7497">
        <ele>264</ele>
        <time>2012-10-11T12:35:20Z</time>
      </trkpt>
      <trkpt lat="46.92743" lon="5.7498">
        <ele>264</ele>
        <time>2012-10-11T12:35:21Z</time>
      </trkpt>
      <trkpt lat="46.92737" lon="5.7499">
        <ele>264</ele>
        <time>2012-10-11T12:35:22Z</time>
      </trkpt>
      <trkpt lat="46.92724" lon="5.75006">
        <ele>264</ele>
        <time>2012-10-11T12:35:24Z</time>
      </trkpt>
      <trkpt lat="46.92711" lon="5.75022">
        <ele>264</ele>
        <time>2012-10-11T12:35:26Z</time>
      </trkpt>
      <trkpt lat="46.927" lon="5.75037">
        <ele>264</ele>
        <time>2012-10-11T12:35:28Z</time>
      </trkpt>
      <trkpt lat="46.9269" lon="5.7505">
        <ele>264</ele>
        <time>2012-10-11T12:35:30Z</time>
      </trkpt>
      <trkpt lat="46.92682" lon="5.75064">
        <ele>264</ele>
        <time>2012-10-11T12:35:32Z</time>
      </trkpt>
      <trkpt lat="46.92674" lon="5.75077">
        <ele>264</ele>
        <time>2012-10-11T12:35:34Z</time>
      </trkpt>
      <trkpt lat="46.92666" lon="5.75091">
        <ele>264</ele>
        <time>2012-10-11T12:35:36Z</time>
      </trkpt>
      <trkpt lat="46.92659" lon="5.75103">
        <ele>264</ele>
        <time>2012-10-11T12:35:38Z</time>
      </trkpt>
      <trkpt lat="46.9265" lon="5.75116">
        <ele>264</ele>
        <time>2012-10-11T12:35:40Z</time>
      </trkpt>
      <trkpt lat="46.9264" lon="5.75126">
        <ele>264</ele>
        <time>2012-10-11T12:35:42Z</time>
      </trkpt>
      <trkpt lat="46.92627" lon="5.75133">
        <ele>264</ele>
        <time>2012-10-11T12:35:44Z</time>
      </trkpt>
      <trkpt lat="46.92613" lon="5.75136">
        <ele>264</ele>
        <time>2012-10-11T12:35:46Z</time>
      </trkpt>
      <trkpt lat="46.92598" lon="5.7513">
        <ele>264</ele>
        <time>2012-10-11T12:35:48Z</time>
      </trkpt>
      <trkpt lat="46.92585" lon="5.75122">
        <ele>264</ele>
        <time>2012-10-11T12:35:50Z</time>
      </trkpt>
      <trkpt lat="46.9257" lon="5.75115">
        <ele>264</ele>
        <time>2012-10-11T12:35:52Z</time>
      </trkpt>
      <trkpt lat="46.92556" lon="5.75106">
        <ele>264</ele>
        <time>2012-10-11T12:35:54Z</time>
      </trkpt>
      <trkpt lat="46.92543" lon="5.75096">
        <ele>264</ele>
        <time>2012-10-11T12:35:56Z</time>
      </trkpt>
      <trkpt lat="46.92529" lon="5.75087">
        <ele>264</ele>
        <time>2012-10-11T12:35:58Z</time>
      </trkpt>
      <trkpt lat="46.92515" lon="5.7508">
        <ele>264</ele>
        <time>2012-10-11T12:36:00Z</time>
      </trkpt>
      <trkpt lat="46.92501" lon="5.75072">
        <ele>264</ele>
        <time>2012-10-11T12:36:02Z</time>
      </trkpt>
      <trkpt lat="46.92487" lon="5.75065">
        <ele>264</ele>
        <time>2012-10-11T12:36:04Z</time>
      </trkpt>
      <trkpt lat="46.92473" lon="5.75057">
        <ele>264</ele>
        <time>2012-10-11T12:36:06Z</time>
      </trkpt>
      <trkpt lat="46.9246" lon="5.75048">
        <ele>264</ele>
        <time>2012-10-11T12:36:08Z</time>
      </trkpt>
      <trkpt lat="46.92446" lon="5.7504">
        <ele>264</ele>
        <time>2012-10-11T12:36:10Z</time>
      </trkpt>
      <trkpt lat="46.92433" lon="5.75031">
        <ele>264</ele>
        <time>2012-10-11T12:36:12Z</time>
      </trkpt>
      <trkpt lat="46.9242" lon="5.75024">
        <ele>264</ele>
        <time>2012-10-11T12:36:14Z</time>
      </trkpt>
      <trkpt lat="46.92406" lon="5.75017">
        <ele>264</ele>
        <time>2012-10-11T12:36:16Z</time>
      </trkpt>
      <trkpt lat="46.92392" lon="5.75012">
        <ele>264</ele>
        <time>2012-10-11T12:36:18Z</time>
      </trkpt>
      <trkpt lat="46.92378" lon="5.75007">
        <ele>264</ele>
        <time>2012-10-11T12:36:20Z</time>
      </trkpt>
      <trkpt lat="46.92364" lon="5.75004">
        <ele>264</ele>
        <time>2012-10-11T12:36:22Z</time>
      </trkpt>
      <trkpt lat="46.9235" lon="5.75002">
        <ele>264</ele>
        <time>2012-10-11T12:36:24Z</time>
      </trkpt>
      <trkpt lat="46.92336" lon="5.75003">
        <ele>264</ele>
        <time>2012-10-11T12:36:26Z</time>
      </trkpt>
      <trkpt lat="46.92324" lon="5.75009">
        <ele>264</ele>
        <time>2012-10-11T12:36:28Z</time>
      </trkpt>
      <trkpt lat="46.92311" lon="5.7502">
        <ele>264</ele>
        <time>2012-10-11T12:36:30Z</time>
      </trkpt>
      <trkpt lat="46.92301" lon="5.75032">
        <ele>264</ele>
        <time>2012-10-11T12:36:32Z</time>
      </trkpt>
      <trkpt lat="46.9229" lon="5.75044">
        <ele>264</ele>
        <time>2012-10-11T12:36:34Z</time>
      </trkpt>
      <trkpt lat="46.9228" lon="5.75056">
        <ele>264</ele>
        <time>2012-10-11T12:36:36Z</time>
      </trkpt>
      <trkpt lat="46.92271" lon="5.75067">
        <ele>264</ele>
        <time>2012-10-11T12:36:38Z</time>
      </trkpt>
      <trkpt lat="46.92263" lon="5.7508">
        <ele>264</ele>
        <time>2012-10-11T12:36:40Z</time>
      </trkpt>
      <trkpt lat="46.92257" lon="5.75094">
        <ele>264</ele>
        <time>2012-10-11T12:36:42Z</time>
      </trkpt>
      <trkpt lat="46.92252" lon="5.75109">
        <ele>264</ele>
        <time>2012-10-11T12:36:44Z</time>
      </trkpt>
      <trkpt lat="46.92249" lon="5.75124">
        <ele>264</ele>
        <time>2012-10-11T12:36:46Z</time>
      </trkpt>
      <trkpt lat="46.92246" lon="5.75139">
        <ele>264</ele>
        <time>2012-10-11T12:36:48Z</time>
      </trkpt>
      <trkpt lat="46.92244" lon="5.75154">
        <ele>264</ele>
        <time>2012-10-11T12:36:50Z</time>
      </trkpt>
      <trkpt lat="46.9224" lon="5.7517">
        <ele>264</ele>
        <time>2012-10-11T12:36:52Z</time>
      </trkpt>
      <trkpt lat="46.92236" lon="5.75186">
        <ele>264</ele>
        <time>2012-10-11T12:36:54Z</time>
      </trkpt>
      <trkpt lat="46.92233" lon="5.75201">
        <ele>264</ele>
        <time>2012-10-11T12:36:56Z</time>
      </trkpt>
      <trkpt lat="46.92228" lon="5.75216">
        <ele>264</ele>
        <time>2012-10-11T12:36:58Z</time>
      </trkpt>
      <trkpt lat="46.92223" lon="5.75233">
        <ele>264</ele>
        <time>2012-10-11T12:37:00Z</time>
      </trkpt>
      <trkpt lat="46.92218" lon="5.75248">
        <ele>264</ele>
        <time>2012-10-11T12:37:02Z</time>
      </trkpt>
      <trkpt lat="46.92212" lon="5.75264">
        <ele>264</ele>
        <time>2012-10-11T12:37:04Z</time>
      </trkpt>
      <trkpt lat="46.92207" lon="5.75279">
        <ele>264</ele>
        <time>2012-10-11T12:37:06Z</time>
      </trkpt>
      <trkpt lat="46.922" lon="5.75295">
        <ele>264</ele>
        <time>2012-10-11T12:37:08Z</time>
      </trkpt>
      <trkpt lat="46.92193" lon="5.75309">
        <ele>264</ele>
        <time>2012-10-11T12:37:10Z</time>
      </trkpt>
      <trkpt lat="46.92185" lon="5.75323">
        <ele>264</ele>
        <time>2012-10-11T12:37:12Z</time>
      </trkpt>
      <trkpt lat="46.92178" lon="5.75338">
        <ele>264</ele>
        <time>2012-10-11T12:37:14Z</time>
      </trkpt>
      <trkpt lat="46.9217" lon="5.75352">
        <ele>264</ele>
        <time>2012-10-11T12:37:16Z</time>
      </trkpt>
      <trkpt lat="46.92162" lon="5.75366">
        <ele>264</ele>
        <time>2012-10-11T12:37:18Z</time>
      </trkpt>
      <trkpt lat="46.92154" lon="5.7538">
        <ele>264</ele>
        <time>2012-10-11T12:37:20Z</time>
      </trkpt>
      <trkpt lat="46.92145" lon="5.75393">
        <ele>264</ele>
        <time>2012-10-11T12:37:22Z</time>
      </trkpt>
      <trkpt lat="46.92135" lon="5.75405">
        <ele>264</ele>
        <time>2012-10-11T12:37:24Z</time>
      </trkpt>
      <trkpt lat="46.92127" lon="5.75418">
        <ele>264</ele>
        <time>2012-10-11T12:37:26Z</time>
      </trkpt>
      <trkpt lat="46.92119" lon="5.75432">
        <ele>264</ele>
        <time>2012-10-11T12:37:28Z</time>
      </trkpt>
      <trkpt lat="46.92112" lon="5.75446">
        <ele>264</ele>
        <time>2012-10-11T12:37:30Z</time>
      </trkpt>
      <trkpt lat="46.92105" lon="5.75461">
        <ele>264</ele>
        <time>2012-10-11T12:37:32Z</time>
      </trkpt>
      <trkpt lat="46.92097" lon="5.75476">
        <ele>264</ele>
        <time>2012-10-11T12:37:34Z</time>
      </trkpt>
      <trkpt lat="46.9209" lon="5.75491">
        <ele>264</ele>
        <time>2012-10-11T12:37:36Z</time>
      </trkpt>
      <trkpt lat="46.92084" lon="5.75506">
        <ele>264</ele>
        <time>2012-10-11T12:37:38Z</time>
      </trkpt>
      <trkpt lat="46.92076" lon="5.7552">
        <ele>264</ele>
        <time>2012-10-11T12:37:40Z</time>
      </trkpt>
      <trkpt lat="46.92068" lon="5.75535">
        <ele>264</ele>
        <time>2012-10-11T12:37:42Z</time>
      </trkpt>
      <trkpt lat="46.92061" lon="5.75551">
        <ele>264</ele>
        <time>2012-10-11T12:37:44Z</time>
      </trkpt>
      <trkpt lat="46.92055" lon="5.75566">
        <ele>264</ele>
        <time>2012-10-11T12:37:46Z</time>
      </trkpt>
      <trkpt lat="46.92048" lon="5.75582">
        <ele>264</ele>
        <time>2012-10-11T12:37:48Z</time>
      </trkpt>
      <trkpt lat="46.92041" lon="5.75597">
        <ele>264</ele>
        <time>2012-10-11T12:37:50Z</time>
      </trkpt>
      <trkpt lat="46.92033" lon="5.75614">
        <ele>264</ele>
        <time>2012-10-11T12:37:52Z</time>
      </trkpt>
      <trkpt lat="46.92025" lon="5.7563">
        <ele>264</ele>
        <time>2012-10-11T12:37:54Z</time>
      </trkpt>
      <trkpt lat="46.92018" lon="5.75646">
        <ele>264</ele>
        <time>2012-10-11T12:37:56Z</time>
      </trkpt>
      <trkpt lat="46.92009" lon="5.75661">
        <ele>264</ele>
        <time>2012-10-11T12:37:58Z</time>
      </trkpt>
      <trkpt lat="46.92001" lon="5.75677">
        <ele>264</ele>
        <time>2012-10-11T12:38:00Z</time>
      </trkpt>
      <trkpt lat="46.91993" lon="5.75692">
        <ele>264</ele>
        <time>2012-10-11T12:38:02Z</time>
      </trkpt>
      <trkpt lat="46.91984" lon="5.75707">
        <ele>264</ele>
        <time>2012-10-11T12:38:04Z</time>
      </trkpt>
      <trkpt lat="46.91975" lon="5.75721">
        <ele>264</ele>
        <time>2012-10-11T12:38:06Z</time>
      </trkpt>
      <trkpt lat="46.91965" lon="5.75735">
        <ele>264</ele>
        <time>2012-10-11T12:38:08Z</time>
      </trkpt>
      <trkpt lat="46.91956" lon="5.75748">
        <ele>264</ele>
        <time>2012-10-11T12:38:10Z</time>
      </trkpt>
      <trkpt lat="46.91945" lon="5.75761">
        <ele>264</ele>
        <time>2012-10-11T12:38:12Z</time>
      </trkpt>
      <trkpt lat="46.91934" lon="5.75773">
        <ele>264</ele>
        <time>2012-10-11T12:38:14Z</time>
      </trkpt>
      <trkpt lat="46.91923" lon="5.75783">
        <ele>264</ele>
        <time>2012-10-11T12:38:16Z</time>
      </trkpt>
      <trkpt lat="46.91913" lon="5.75793">
        <ele>264</ele>
        <time>2012-10-11T12:38:18Z</time>
      </trkpt>
      <trkpt lat="46.91901" lon="5.75804">
        <ele>264</ele>
        <time>2012-10-11T12:38:20Z</time>
      </trkpt>
      <trkpt lat="46.91891" lon="5.75814">
        <ele>264</ele>
        <time>2012-10-11T12:38:22Z</time>
      </trkpt>
      <trkpt lat="46.9188" lon="5.75825">
        <ele>264</ele>
        <time>2012-10-11T12:38:24Z</time>
      </trkpt>
      <trkpt lat="46.9187" lon="5.75836">
        <ele>264</ele>
        <time>2012-10-11T12:38:26Z</time>
      </trkpt>
      <trkpt lat="46.9186" lon="5.75848">
        <ele>264</ele>
        <time>2012-10-11T12:38:28Z</time>
      </trkpt>
      <trkpt lat="46.9185" lon="5.75861">
        <ele>264</ele>
        <time>2012-10-11T12:38:30Z</time>
      </trkpt>
      <trkpt lat="46.91842" lon="5.75873">
        <ele>264</ele>
        <time>2012-10-11T12:38:32Z</time>
      </trkpt>
      <trkpt lat="46.91833" lon="5.75886">
        <ele>264</ele>
        <time>2012-10-11T12:38:34Z</time>
      </trkpt>
      <trkpt lat="46.91824" lon="5.75898">
        <ele>264</ele>
        <time>2012-10-11T12:38:36Z</time>
      </trkpt>
      <trkpt lat="46.91815" lon="5.75912">
        <ele>264</ele>
        <time>2012-10-11T12:38:38Z</time>
      </trkpt>
      <trkpt lat="46.91806" lon="5.75924">
        <ele>264</ele>
        <time>2012-10-11T12:38:40Z</time>
      </trkpt>
      <trkpt lat="46.91797" lon="5.75938">
        <ele>264</ele>
        <time>2012-10-11T12:38:42Z</time>
      </trkpt>
      <trkpt lat="46.91789" lon="5.75951">
        <ele>264</ele>
        <time>2012-10-11T12:38:44Z</time>
      </trkpt>
      <trkpt lat="46.91781" lon="5.75965">
        <ele>264</ele>
        <time>2012-10-11T12:38:46Z</time>
      </trkpt>
      <trkpt lat="46.91773" lon="5.75979">
        <ele>264</ele>
        <time>2012-10-11T12:38:48Z</time>
      </trkpt>
      <trkpt lat="46.91765" lon="5.75993">
        <ele>264</ele>
        <time>2012-10-11T12:38:50Z</time>
      </trkpt>
      <trkpt lat="46.91758" lon="5.76006">
        <ele>269</ele>
        <time>2012-10-11T12:38:52Z</time>
      </trkpt>
      <trkpt lat="46.91751" lon="5.7602">
        <ele>269</ele>
        <time>2012-10-11T12:38:54Z</time>
      </trkpt>
      <trkpt lat="46.91743" lon="5.76034">
        <ele>269</ele>
        <time>2012-10-11T12:38:56Z</time>
      </trkpt>
      <trkpt lat="46.91736" lon="5.76048">
        <ele>269</ele>
        <time>2012-10-11T12:38:58Z</time>
      </trkpt>
      <trkpt lat="46.91728" lon="5.76063">
        <ele>269</ele>
        <time>2012-10-11T12:39:00Z</time>
      </trkpt>
      <trkpt lat="46.9172" lon="5.76077">
        <ele>269</ele>
        <time>2012-10-11T12:39:02Z</time>
      </trkpt>
      <trkpt lat="46.91713" lon="5.76091">
        <ele>269</ele>
        <time>2012-10-11T12:39:04Z</time>
      </trkpt>
      <trkpt lat="46.91705" lon="5.76106">
        <ele>269</ele>
        <time>2012-10-11T12:39:06Z</time>
      </trkpt>
      <trkpt lat="46.91698" lon="5.76119">
        <ele>269</ele>
        <time>2012-10-11T12:39:08Z</time>
      </trkpt>
      <trkpt lat="46.9169" lon="5.76132">
        <ele>269</ele>
        <time>2012-10-11T12:39:10Z</time>
      </trkpt>
      <trkpt lat="46.91682" lon="5.76145">
        <ele>269</ele>
        <time>2012-10-11T12:39:12Z</time>
      </trkpt>
      <trkpt lat="46.91674" lon="5.76159">
        <ele>269</ele>
        <time>2012-10-11T12:39:14Z</time>
      </trkpt>
      <trkpt lat="46.91666" lon="5.76173">
        <ele>269</ele>
        <time>2012-10-11T12:39:16Z</time>
      </trkpt>
      <trkpt lat="46.91657" lon="5.76188">
        <ele>269</ele>
        <time>2012-10-11T12:39:18Z</time>
      </trkpt>
      <trkpt lat="46.91648" lon="5.76201">
        <ele>269</ele>
        <time>2012-10-11T12:39:20Z</time>
      </trkpt>
      <trkpt lat="46.91639" lon="5.76215">
        <ele>269</ele>
        <time>2012-10-11T12:39:22Z</time>
      </trkpt>
      <trkpt lat="46.91629" lon="5.76228">
        <ele>269</ele>
        <time>2012-10-11T12:39:24Z</time>
      </trkpt>
      <trkpt lat="46.9162" lon="5.76241">
        <ele>269</ele>
        <time>2012-10-11T12:39:26Z</time>
      </trkpt>
      <trkpt lat="46.9161" lon="5.76255">
        <ele>269</ele>
        <time>2012-10-11T12:39:28Z</time>
      </trkpt>
      <trkpt lat="46.91601" lon="5.76269">
        <ele>269</ele>
        <time>2012-10-11T12:39:30Z</time>
      </trkpt>
      <trkpt lat="46.91592" lon="5.76283">
        <ele>269</ele>
        <time>2012-10-11T12:39:32Z</time>
      </trkpt>
      <trkpt lat="46.91583" lon="5.76296">
        <ele>269</ele>
        <time>2012-10-11T12:39:34Z</time>
      </trkpt>
      <trkpt lat="46.91573" lon="5.76311">
        <ele>269</ele>
        <time>2012-10-11T12:39:36Z</time>
      </trkpt>
      <trkpt lat="46.91564" lon="5.76324">
        <ele>269</ele>
        <time>2012-10-11T12:39:38Z</time>
      </trkpt>
      <trkpt lat="46.91554" lon="5.76338">
        <ele>269</ele>
        <time>2012-10-11T12:39:40Z</time>
      </trkpt>
      <trkpt lat="46.91543" lon="5.76352">
        <ele>269</ele>
        <time>2012-10-11T12:39:42Z</time>
      </trkpt>
      <trkpt lat="46.91533" lon="5.76365">
        <ele>269</ele>
        <time>2012-10-11T12:39:44Z</time>
      </trkpt>
      <trkpt lat="46.91524" lon="5.7638">
        <ele>269</ele>
        <time>2012-10-11T12:39:46Z</time>
      </trkpt>
      <trkpt lat="46.91513" lon="5.76393">
        <ele>269</ele>
        <time>2012-10-11T12:39:48Z</time>
      </trkpt>
      <trkpt lat="46.91503" lon="5.76407">
        <ele>269</ele>
        <time>2012-10-11T12:39:50Z</time>
      </trkpt>
      <trkpt lat="46.91494" lon="5.76419">
        <ele>269</ele>
        <time>2012-10-11T12:39:52Z</time>
      </trkpt>
      <trkpt lat="46.91485" lon="5.76433">
        <ele>269</ele>
        <time>2012-10-11T12:39:54Z</time>
      </trkpt>
      <trkpt lat="46.91476" lon="5.76446">
        <ele>269</ele>
        <time>2012-10-11T12:39:56Z</time>
      </trkpt>
      <trkpt lat="46.91468" lon="5.76461">
        <ele>269</ele>
        <time>2012-10-11T12:39:58Z</time>
      </trkpt>
      <trkpt lat="46.91458" lon="5.76475">
        <ele>269</ele>
        <time>2012-10-11T12:40:00Z</time>
      </trkpt>
      <trkpt lat="46.9145" lon="5.7649">
        <ele>269</ele>
        <time>2012-10-11T12:40:02Z</time>
      </trkpt>
      <trkpt lat="46.91441" lon="5.76505">
        <ele>269</ele>
        <time>2012-10-11T12:40:04Z</time>
      </trkpt>
      <trkpt lat="46.91434" lon="5.7652">
        <ele>269</ele>
        <time>2012-10-11T12:40:06Z</time>
      </trkpt>
      <trkpt lat="46.91427" lon="5.76533">
        <ele>269</ele>
        <time>2012-10-11T12:40:08Z</time>
      </trkpt>
      <trkpt lat="46.9142" lon="5.76548">
        <ele>269</ele>
        <time>2012-10-11T12:40:10Z</time>
      </trkpt>
      <trkpt lat="46.91415" lon="5.76563">
        <ele>269</ele>
        <time>2012-10-11T12:40:12Z</time>
      </trkpt>
      <trkpt lat="46.9141" lon="5.76581">
        <ele>269</ele>
        <time>2012-10-11T12:40:14Z</time>
      </trkpt>
      <trkpt lat="46.91405" lon="5.766">
        <ele>269</ele>
        <time>2012-10-11T12:40:16Z</time>
      </trkpt>
      <trkpt lat="46.914" lon="5.76619">
        <ele>269</ele>
        <time>2012-10-11T12:40:18Z</time>
      </trkpt>
      <trkpt lat="46.91393" lon="5.76636">
        <ele>269</ele>
        <time>2012-10-11T12:40:20Z</time>
      </trkpt>
      <trkpt lat="46.91385" lon="5.76651">
        <ele>269</ele>
        <time>2012-10-11T12:40:22Z</time>
      </trkpt>
      <trkpt lat="46.91375" lon="5.76664">
        <ele>269</ele>
        <time>2012-10-11T12:40:24Z</time>
      </trkpt>
      <trkpt lat="46.91365" lon="5.76676">
        <ele>269</ele>
        <time>2012-10-11T12:40:26Z</time>
      </trkpt>
      <trkpt lat="46.91356" lon="5.76689">
        <ele>269</ele>
        <time>2012-10-11T12:40:28Z</time>
      </trkpt>
      <trkpt lat="46.91348" lon="5.76701">
        <ele>269</ele>
        <time>2012-10-11T12:40:30Z</time>
      </trkpt>
      <trkpt lat="46.91341" lon="5.76714">
        <ele>269</ele>
        <time>2012-10-11T12:40:32Z</time>
      </trkpt>
      <trkpt lat="46.91333" lon="5.76726">
        <ele>269</ele>
        <time>2012-10-11T12:40:34Z</time>
      </trkpt>
      <trkpt lat="46.91327" lon="5.76736">
        <ele>269</ele>
        <time>2012-10-11T12:40:36Z</time>
      </trkpt>
      <trkpt lat="46.91321" lon="5.76746">
        <ele>269</ele>
        <time>2012-10-11T12:40:38Z</time>
      </trkpt>
      <trkpt lat="46.91312" lon="5.76762">
        <ele>269</ele>
        <time>2012-10-11T12:40:41Z</time>
      </trkpt>
      <trkpt lat="46.91306" lon="5.76774">
        <ele>269</ele>
        <time>2012-10-11T12:40:43Z</time>
      </trkpt>
      <trkpt lat="46.913" lon="5.76789">
        <ele>269</ele>
        <time>2012-10-11T12:40:45Z</time>
      </trkpt>
      <trkpt lat="46.91293" lon="5.76804">
        <ele>269</ele>
        <time>2012-10-11T12:40:47Z</time>
      </trkpt>
      <trkpt lat="46.91287" lon="5.76817">
        <ele>269</ele>
        <time>2012-10-11T12:40:49Z</time>
      </trkpt>
      <trkpt lat="46.9128" lon="5.76832">
        <ele>269</ele>
        <time>2012-10-11T12:40:51Z</time>
      </trkpt>
      <trkpt lat="46.91274" lon="5.76844">
        <ele>269</ele>
        <time>2012-10-11T12:40:53Z</time>
      </trkpt>
      <trkpt lat="46.91267" lon="5.76857">
        <ele>269</ele>
        <time>2012-10-11T12:40:55Z</time>
      </trkpt>
      <trkpt lat="46.9126" lon="5.7687">
        <ele>269</ele>
        <time>2012-10-11T12:40:57Z</time>
      </trkpt>
      <trkpt lat="46.91253" lon="5.76885">
        <ele>269</ele>
        <time>2012-10-11T12:40:59Z</time>
      </trkpt>
      <trkpt lat="46.91247" lon="5.76898">
        <ele>269</ele>
        <time>2012-10-11T12:41:01Z</time>
      </trkpt>
      <trkpt lat="46.91241" lon="5.76912">
        <ele>269</ele>
        <time>2012-10-11T12:41:03Z</time>
      </trkpt>
      <trkpt lat="46.91235" lon="5.76925">
        <ele>269</ele>
        <time>2012-10-11T12:41:05Z</time>
      </trkpt>
      <trkpt lat="46.9123" lon="5.76939">
        <ele>275</ele>
        <time>2012-10-11T12:41:07Z</time>
      </trkpt>
      <trkpt lat="46.91224" lon="5.7695">
        <ele>275</ele>
        <time>2012-10-11T12:41:09Z</time>
      </trkpt>
      <trkpt lat="46.91217" lon="5.76962">
        <ele>275</ele>
        <time>2012-10-11T12:41:11Z</time>
      </trkpt>
      <trkpt lat="46.91211" lon="5.76973">
        <ele>275</ele>
        <time>2012-10-11T12:41:13Z</time>
      </trkpt>
      <trkpt lat="46.91201" lon="5.76986">
        <ele>275</ele>
        <time>2012-10-11T12:41:16Z</time>
      </trkpt>
      <trkpt lat="46.91192" lon="5.76998">
        <ele>281</ele>
        <time>2012-10-11T12:41:19Z</time>
      </trkpt>
      <trkpt lat="46.91184" lon="5.77007">
        <ele>281</ele>
        <time>2012-10-11T12:41:22Z</time>
      </trkpt>
      <trkpt lat="46.91175" lon="5.77018">
        <ele>281</ele>
        <time>2012-10-11T12:41:26Z</time>
      </trkpt>
      <trkpt lat="46.9117" lon="5.77032">
        <ele>281</ele>
        <time>2012-10-11T12:41:30Z</time>
      </trkpt>
      <trkpt lat="46.9116" lon="5.77041">
        <ele>281</ele>
        <time>2012-10-11T12:41:33Z</time>
      </trkpt>
      <trkpt lat="46.91147" lon="5.77044">
        <ele>281</ele>
        <time>2012-10-11T12:41:36Z</time>
      </trkpt>
      <trkpt lat="46.91138" lon="5.77044">
        <ele>281</ele>
        <time>2012-10-11T12:41:38Z</time>
      </trkpt>
      <trkpt lat="46.91127" lon="5.77045">
        <ele>281</ele>
        <time>2012-10-11T12:41:40Z</time>
      </trkpt>
      <trkpt lat="46.91115" lon="5.77045">
        <ele>281</ele>
        <time>2012-10-11T12:41:42Z</time>
      </trkpt>
      <trkpt lat="46.91101" lon="5.77044">
        <ele>281</ele>
        <time>2012-10-11T12:41:44Z</time>
      </trkpt>
      <trkpt lat="46.91086" lon="5.77043">
        <ele>275</ele>
        <time>2012-10-11T12:41:46Z</time>
      </trkpt>
      <trkpt lat="46.9107" lon="5.77042">
        <ele>275</ele>
        <time>2012-10-11T12:41:48Z</time>
      </trkpt>
      <trkpt lat="46.91054" lon="5.7704">
        <ele>275</ele>
        <time>2012-10-11T12:41:50Z</time>
      </trkpt>
      <trkpt lat="46.91038" lon="5.77037">
        <ele>275</ele>
        <time>2012-10-11T12:41:52Z</time>
      </trkpt>
      <trkpt lat="46.91021" lon="5.77034">
        <ele>275</ele>
        <time>2012-10-11T12:41:54Z</time>
      </trkpt>
      <trkpt lat="46.91006" lon="5.77029">
        <ele>275</ele>
        <time>2012-10-11T12:41:56Z</time>
      </trkpt>
      <trkpt lat="46.90993" lon="5.77024">
        <ele>275</ele>
        <time>2012-10-11T12:41:58Z</time>
      </trkpt>
      <trkpt lat="46.90981" lon="5.77018">
        <ele>275</ele>
        <time>2012-10-11T12:42:00Z</time>
      </trkpt>
      <trkpt lat="46.90969" lon="5.77011">
        <ele>275</ele>
        <time>2012-10-11T12:42:02Z</time>
      </trkpt>
      <trkpt lat="46.90958" lon="5.77005">
        <ele>275</ele>
        <time>2012-10-11T12:42:04Z</time>
      </trkpt>
      <trkpt lat="46.90947" lon="5.77001">
        <ele>275</ele>
        <time>2012-10-11T12:42:06Z</time>
      </trkpt>
      <trkpt lat="46.90937" lon="5.76995">
        <ele>275</ele>
        <time>2012-10-11T12:42:08Z</time>
      </trkpt>
      <trkpt lat="46.90927" lon="5.7699">
        <ele>275</ele>
        <time>2012-10-11T12:42:10Z</time>
      </trkpt>
      <trkpt lat="46.90918" lon="5.76985">
        <ele>275</ele>
        <time>2012-10-11T12:42:12Z</time>
      </trkpt>
      <trkpt lat="46.90905" lon="5.76976">
        <ele>275</ele>
        <time>2012-10-11T12:42:15Z</time>
      </trkpt>
      <trkpt lat="46.90897" lon="5.7697">
        <ele>275</ele>
        <time>2012-10-11T12:42:17Z</time>
      </trkpt>
      <trkpt lat="46.9089" lon="5.76961">
        <ele>275</ele>
        <time>2012-10-11T12:42:19Z</time>
      </trkpt>
      <trkpt lat="46.90882" lon="5.76953">
        <ele>275</ele>
        <time>2012-10-11T12:42:21Z</time>
      </trkpt>
      <trkpt lat="46.90875" lon="5.76944">
        <ele>275</ele>
        <time>2012-10-11T12:42:23Z</time>
      </trkpt>
      <trkpt lat="46.90867" lon="5.76935">
        <ele>275</ele>
        <time>2012-10-11T12:42:25Z</time>
      </trkpt>
      <trkpt lat="46.90856" lon="5.76926">
        <ele>275</ele>
        <time>2012-10-11T12:42:28Z</time>
      </trkpt>
      <trkpt lat="46.90842" lon="5.76923">
        <ele>275</ele>
        <time>2012-10-11T12:42:31Z</time>
      </trkpt>
      <trkpt lat="46.90832" lon="5.76926">
        <ele>275</ele>
        <time>2012-10-11T12:42:33Z</time>
      </trkpt>
      <trkpt lat="46.90821" lon="5.76928">
        <ele>275</ele>
        <time>2012-10-11T12:42:35Z</time>
      </trkpt>
      <trkpt lat="46.9081" lon="5.76931">
        <ele>275</ele>
        <time>2012-10-11T12:42:37Z</time>
      </trkpt>
      <trkpt lat="46.90798" lon="5.76934">
        <ele>275</ele>
        <time>2012-10-11T12:42:39Z</time>
      </trkpt>
      <trkpt lat="46.90787" lon="5.76938">
        <ele>275</ele>
        <time>2012-10-11T12:42:41Z</time>
      </trkpt>
      <trkpt lat="46.90777" lon="5.76941">
        <ele>275</ele>
        <time>2012-10-11T12:42:43Z</time>
      </trkpt>
      <trkpt lat="46.90767" lon="5.76944">
        <ele>275</ele>
        <time>2012-10-11T12:42:45Z</time>
      </trkpt>
      <trkpt lat="46.90757" lon="5.76946">
        <ele>275</ele>
        <time>2012-10-11T12:42:47Z</time>
      </trkpt>
      <trkpt lat="46.90747" lon="5.76947">
        <ele>275</ele>
        <time>2012-10-11T12:42:49Z</time>
      </trkpt>
      <trkpt lat="46.90737" lon="5.76947">
        <ele>275</ele>
        <time>2012-10-11T12:42:51Z</time>
      </trkpt>
      <trkpt lat="46.90728" lon="5.76948">
        <ele>275</ele>
        <time>2012-10-11T12:42:53Z</time>
      </trkpt>
      <trkpt lat="46.90718" lon="5.76948">
        <ele>275</ele>
        <time>2012-10-11T12:42:55Z</time>
      </trkpt>
      <trkpt lat="46.90708" lon="5.76948">
        <ele>275</ele>
        <time>2012-10-11T12:42:57Z</time>
      </trkpt>
      <trkpt lat="46.90698" lon="5.76949">
        <ele>275</ele>
        <time>2012-10-11T12:42:59Z</time>
      </trkpt>
      <trkpt lat="46.90688" lon="5.76951">
        <ele>275</ele>
        <time>2012-10-11T12:43:01Z</time>
      </trkpt>
      <trkpt lat="46.90678" lon="5.76954">
        <ele>275</ele>
        <time>2012-10-11T12:43:03Z</time>
      </trkpt>
      <trkpt lat="46.90668" lon="5.76957">
        <ele>275</ele>
        <time>2012-10-11T12:43:05Z</time>
      </trkpt>
      <trkpt lat="46.90658" lon="5.7696">
        <ele>275</ele>
        <time>2012-10-11T12:43:07Z</time>
      </trkpt>
      <trkpt lat="46.90648" lon="5.76963">
        <ele>275</ele>
        <time>2012-10-11T12:43:09Z</time>
      </trkpt>
      <trkpt lat="46.90638" lon="5.76966">
        <ele>275</ele>
        <time>2012-10-11T12:43:11Z</time>
      </trkpt>
      <trkpt lat="46.90627" lon="5.7697">
        <ele>275</ele>
        <time>2012-10-11T12:43:13Z</time>
      </trkpt>
      <trkpt lat="46.90617" lon="5.76975">
        <ele>275</ele>
        <time>2012-10-11T12:43:15Z</time>
      </trkpt>
      <trkpt lat="46.90607" lon="5.76982">
        <ele>275</ele>
        <time>2012-10-11T12:43:17Z</time>
      </trkpt>
      <trkpt lat="46.90597" lon="5.76989">
        <ele>275</ele>
        <time>2012-10-11T12:43:19Z</time>
      </trkpt>
      <trkpt lat="46.90588" lon="5.76995">
        <ele>275</ele>
        <time>2012-10-11T12:43:21Z</time>
      </trkpt>
      <trkpt lat="46.9058" lon="5.77001">
        <ele>275</ele>
        <time>2012-10-11T12:43:23Z</time>
      </trkpt>
      <trkpt lat="46.90572" lon="5.77007">
        <ele>275</ele>
        <time>2012-10-11T12:43:25Z</time>
      </trkpt>
      <trkpt lat="46.90563" lon="5.77012">
        <ele>275</ele>
        <time>2012-10-11T12:43:27Z</time>
      </trkpt>
      <trkpt lat="46.90555" lon="5.77018">
        <ele>275</ele>
        <time>2012-10-11T12:43:29Z</time>
      </trkpt>
      <trkpt lat="46.90545" lon="5.77028">
        <ele>282</ele>
        <time>2012-10-11T12:43:32Z</time>
      </trkpt>
      <trkpt lat="46.90538" lon="5.77036">
        <ele>282</ele>
        <time>2012-10-11T12:43:34Z</time>
      </trkpt>
      <trkpt lat="46.9053" lon="5.7705">
        <ele>290</ele>
        <time>2012-10-11T12:43:37Z</time>
      </trkpt>
      <trkpt lat="46.90521" lon="5.77061">
        <ele>290</ele>
        <time>2012-10-11T12:43:40Z</time>
      </trkpt>
      <trkpt lat="46.90512" lon="5.77072">
        <ele>290</ele>
        <time>2012-10-11T12:43:43Z</time>
      </trkpt>
      <trkpt lat="46.90503" lon="5.77084">
        <ele>296</ele>
        <time>2012-10-11T12:43:46Z</time>
      </trkpt>
      <trkpt lat="46.90495" lon="5.7709">
        <ele>296</ele>
        <time>2012-10-11T12:43:48Z</time>
      </trkpt>
      <trkpt lat="46.90486" lon="5.77095">
        <ele>296</ele>
        <time>2012-10-11T12:43:50Z</time>
      </trkpt>
      <trkpt lat="46.90477" lon="5.77099">
        <ele>296</ele>
        <time>2012-10-11T12:43:52Z</time>
      </trkpt>
      <trkpt lat="46.90465" lon="5.77103">
        <ele>291</ele>
        <time>2012-10-11T12:43:55Z</time>
      </trkpt>
      <trkpt lat="46.90453" lon="5.7711">
        <ele>291</ele>
        <time>2012-10-11T12:43:58Z</time>
      </trkpt>
      <trkpt lat="46.90446" lon="5.77118">
        <ele>291</ele>
        <time>2012-10-11T12:44:00Z</time>
      </trkpt>
      <trkpt lat="46.90435" lon="5.77126">
        <ele>291</ele>
        <time>2012-10-11T12:44:03Z</time>
      </trkpt>
      <trkpt lat="46.90425" lon="5.77137">
        <ele>291</ele>
        <time>2012-10-11T12:44:06Z</time>
      </trkpt>
      <trkpt lat="46.90417" lon="5.77151">
        <ele>291</ele>
        <time>2012-10-11T12:44:09Z</time>
      </trkpt>
      <trkpt lat="46.9041" lon="5.77166">
        <ele>291</ele>
        <time>2012-10-11T12:44:12Z</time>
      </trkpt>
      <trkpt lat="46.90405" lon="5.77181">
        <ele>299</ele>
        <time>2012-10-11T12:44:15Z</time>
      </trkpt>
      <trkpt lat="46.904" lon="5.77197">
        <ele>299</ele>
        <time>2012-10-11T12:44:18Z</time>
      </trkpt>
      <trkpt lat="46.90393" lon="5.77213">
        <ele>299</ele>
        <time>2012-10-11T12:44:21Z</time>
      </trkpt>
      <trkpt lat="46.90385" lon="5.77229">
        <ele>304</ele>
        <time>2012-10-11T12:44:24Z</time>
      </trkpt>
      <trkpt lat="46.90382" lon="5.77241">
        <ele>304</ele>
        <time>2012-10-11T12:44:26Z</time>
      </trkpt>
      <trkpt lat="46.90373" lon="5.77257">
        <ele>304</ele>
        <time>2012-10-11T12:44:29Z</time>
      </trkpt>
      <trkpt lat="46.90362" lon="5.7727">
        <ele>304</ele>
        <time>2012-10-11T12:44:32Z</time>
      </trkpt>
      <trkpt lat="46.90351" lon="5.77282">
        <ele>304</ele>
        <time>2012-10-11T12:44:35Z</time>
      </trkpt>
      <trkpt lat="46.90338" lon="5.77287">
        <ele>304</ele>
        <time>2012-10-11T12:44:38Z</time>
      </trkpt>
      <trkpt lat="46.90326" lon="5.77289">
        <ele>304</ele>
        <time>2012-10-11T12:44:41Z</time>
      </trkpt>
      <trkpt lat="46.90313" lon="5.77289">
        <ele>304</ele>
        <time>2012-10-11T12:44:44Z</time>
      </trkpt>
      <trkpt lat="46.90305" lon="5.77284">
        <ele>304</ele>
        <time>2012-10-11T12:44:46Z</time>
      </trkpt>
      <trkpt lat="46.90297" lon="5.77277">
        <ele>304</ele>
        <time>2012-10-11T12:44:48Z</time>
      </trkpt>
      <trkpt lat="46.90288" lon="5.7727">
        <ele>304</ele>
        <time>2012-10-11T12:44:51Z</time>
      </trkpt>
      <trkpt lat="46.9028" lon="5.77263">
        <ele>304</ele>
        <time>2012-10-11T12:44:54Z</time>
      </trkpt>
      <trkpt lat="46.90271" lon="5.77257">
        <ele>304</ele>
        <time>2012-10-11T12:44:57Z</time>
      </trkpt>
      <trkpt lat="46.90263" lon="5.77248">
        <ele>312</ele>
        <time>2012-10-11T12:45:02Z</time>
      </trkpt>
      <trkpt lat="46.90252" lon="5.77239">
        <ele>318</ele>
        <time>2012-10-11T12:46:13Z</time>
      </trkpt>
      <trkpt lat="46.90242" lon="5.77229">
        <ele>318</ele>
        <time>2012-10-11T12:46:16Z</time>
      </trkpt>
      <trkpt lat="46.90235" lon="5.77219">
        <ele>318</ele>
        <time>2012-10-11T12:46:18Z</time>
      </trkpt>
      <trkpt lat="46.90228" lon="5.7721">
        <ele>312</ele>
        <time>2012-10-11T12:46:20Z</time>
      </trkpt>
      <trkpt lat="46.90221" lon="5.77201">
        <ele>312</ele>
        <time>2012-10-11T12:46:22Z</time>
      </trkpt>
      <trkpt lat="46.90212" lon="5.7719">
        <ele>312</ele>
        <time>2012-10-11T12:46:25Z</time>
      </trkpt>
      <trkpt lat="46.90204" lon="5.77181">
        <ele>312</ele>
        <time>2012-10-11T12:46:28Z</time>
      </trkpt>
      <trkpt lat="46.90194" lon="5.77182">
        <ele>305</ele>
        <time>2012-10-11T12:46:32Z</time>
      </trkpt>
      <trkpt lat="46.90184" lon="5.77192">
        <ele>305</ele>
        <time>2012-10-11T12:46:35Z</time>
      </trkpt>
      <trkpt lat="46.90176" lon="5.77198">
        <ele>298</ele>
        <time>2012-10-11T12:46:37Z</time>
      </trkpt>
      <trkpt lat="46.90165" lon="5.77208">
        <ele>298</ele>
        <time>2012-10-11T12:46:40Z</time>
      </trkpt>
      <trkpt lat="46.90156" lon="5.77214">
        <ele>298</ele>
        <time>2012-10-11T12:46:42Z</time>
      </trkpt>
      <trkpt lat="46.90147" lon="5.77222">
        <ele>298</ele>
        <time>2012-10-11T12:46:44Z</time>
      </trkpt>
      <trkpt lat="46.90138" lon="5.77231">
        <ele>298</ele>
        <time>2012-10-11T12:46:46Z</time>
      </trkpt>
      <trkpt lat="46.90129" lon="5.77239">
        <ele>292</ele>
        <time>2012-10-11T12:46:48Z</time>
      </trkpt>
      <trkpt lat="46.9012" lon="5.77246">
        <ele>292</ele>
        <time>2012-10-11T12:46:50Z</time>
      </trkpt>
      <trkpt lat="46.90112" lon="5.77254">
        <ele>292</ele>
        <time>2012-10-11T12:46:52Z</time>
      </trkpt>
      <trkpt lat="46.90103" lon="5.77261">
        <ele>292</ele>
        <time>2012-10-11T12:46:54Z</time>
      </trkpt>
      <trkpt lat="46.90095" lon="5.77268">
        <ele>292</ele>
        <time>2012-10-11T12:46:56Z</time>
      </trkpt>
      <trkpt lat="46.90087" lon="5.77275">
        <ele>292</ele>
        <time>2012-10-11T12:46:58Z</time>
      </trkpt>
      <trkpt lat="46.90078" lon="5.77283">
        <ele>292</ele>
        <time>2012-10-11T12:47:00Z</time>
      </trkpt>
      <trkpt lat="46.90069" lon="5.7729">
        <ele>292</ele>
        <time>2012-10-11T12:47:02Z</time>
      </trkpt>
      <trkpt lat="46.90061" lon="5.77297">
        <ele>292</ele>
        <time>2012-10-11T12:47:04Z</time>
      </trkpt>
      <trkpt lat="46.90052" lon="5.77302">
        <ele>292</ele>
        <time>2012-10-11T12:47:06Z</time>
      </trkpt>
      <trkpt lat="46.90043" lon="5.7731">
        <ele>292</ele>
        <time>2012-10-11T12:47:08Z</time>
      </trkpt>
      <trkpt lat="46.90034" lon="5.77319">
        <ele>292</ele>
        <time>2012-10-11T12:47:10Z</time>
      </trkpt>
      <trkpt lat="46.90024" lon="5.7733">
        <ele>292</ele>
        <time>2012-10-11T12:47:13Z</time>
      </trkpt>
      <trkpt lat="46.90016" lon="5.77338">
        <ele>292</ele>
        <time>2012-10-11T12:47:15Z</time>
      </trkpt>
      <trkpt lat="46.90009" lon="5.77347">
        <ele>292</ele>
        <time>2012-10-11T12:47:17Z</time>
      </trkpt>
      <trkpt lat="46.90002" lon="5.77356">
        <ele>297</ele>
        <time>2012-10-11T12:47:19Z</time>
      </trkpt>
      <trkpt lat="46.89994" lon="5.77364">
        <ele>297</ele>
        <time>2012-10-11T12:47:21Z</time>
      </trkpt>
      <trkpt lat="46.89986" lon="5.77372">
        <ele>297</ele>
        <time>2012-10-11T12:47:23Z</time>
      </trkpt>
      <trkpt lat="46.89978" lon="5.77387">
        <ele>297</ele>
        <time>2012-10-11T12:47:26Z</time>
      </trkpt>
      <trkpt lat="46.89972" lon="5.77398">
        <ele>297</ele>
        <time>2012-10-11T12:47:28Z</time>
      </trkpt>
      <trkpt lat="46.89965" lon="5.77414">
        <ele>297</ele>
        <time>2012-10-11T12:47:31Z</time>
      </trkpt>
      <trkpt lat="46.89959" lon="5.7743">
        <ele>297</ele>
        <time>2012-10-11T12:47:34Z</time>
      </trkpt>
      <trkpt lat="46.89952" lon="5.77446">
        <ele>302</ele>
        <time>2012-10-11T12:47:37Z</time>
      </trkpt>
      <trkpt lat="46.89946" lon="5.77461">
        <ele>302</ele>
        <time>2012-10-11T12:47:40Z</time>
      </trkpt>
      <trkpt lat="46.89939" lon="5.77478">
        <ele>302</ele>
        <time>2012-10-11T12:47:43Z</time>
      </trkpt>
      <trkpt lat="46.89933" lon="5.77494">
        <ele>302</ele>
        <time>2012-10-11T12:47:46Z</time>
      </trkpt>
      <trkpt lat="46.89929" lon="5.77511">
        <ele>302</ele>
        <time>2012-10-11T12:47:49Z</time>
      </trkpt>
      <trkpt lat="46.89927" lon="5.77529">
        <ele>308</ele>
        <time>2012-10-11T12:47:52Z</time>
      </trkpt>
      <trkpt lat="46.89925" lon="5.77547">
        <ele>308</ele>
        <time>2012-10-11T12:47:55Z</time>
      </trkpt>
      <trkpt lat="46.89923" lon="5.77565">
        <ele>308</ele>
        <time>2012-10-11T12:47:58Z</time>
      </trkpt>
      <trkpt lat="46.89922" lon="5.77584">
        <ele>308</ele>
        <time>2012-10-11T12:48:01Z</time>
      </trkpt>
      <trkpt lat="46.8992" lon="5.77602">
        <ele>308</ele>
        <time>2012-10-11T12:48:04Z</time>
      </trkpt>
      <trkpt lat="46.89919" lon="5.77619">
        <ele>308</ele>
        <time>2012-10-11T12:48:07Z</time>
      </trkpt>
      <trkpt lat="46.89917" lon="5.77637">
        <ele>308</ele>
        <time>2012-10-11T12:48:10Z</time>
      </trkpt>
      <trkpt lat="46.89915" lon="5.77655">
        <ele>308</ele>
        <time>2012-10-11T12:48:13Z</time>
      </trkpt>
      <trkpt lat="46.89913" lon="5.77672">
        <ele>308</ele>
        <time>2012-10-11T12:48:16Z</time>
      </trkpt>
      <trkpt lat="46.89909" lon="5.7769">
        <ele>308</ele>
        <time>2012-10-11T12:48:19Z</time>
      </trkpt>
      <trkpt lat="46.89904" lon="5.77706">
        <ele>308</ele>
        <time>2012-10-11T12:48:22Z</time>
      </trkpt>
      <trkpt lat="46.89897" lon="5.77721">
        <ele>308</ele>
        <time>2012-10-11T12:48:25Z</time>
      </trkpt>
      <trkpt lat="46.89891" lon="5.77737">
        <ele>314</ele>
        <time>2012-10-11T12:48:28Z</time>
      </trkpt>
      <trkpt lat="46.89885" lon="5.77753">
        <ele>314</ele>
        <time>2012-10-11T12:48:31Z</time>
      </trkpt>
      <trkpt lat="46.8988" lon="5.77769">
        <ele>314</ele>
        <time>2012-10-11T12:48:34Z</time>
      </trkpt>
      <trkpt lat="46.89875" lon="5.77785">
        <ele>314</ele>
        <time>2012-10-11T12:48:37Z</time>
      </trkpt>
      <trkpt lat="46.89871" lon="5.77801">
        <ele>314</ele>
        <time>2012-10-11T12:48:40Z</time>
      </trkpt>
      <trkpt lat="46.89867" lon="5.77817">
        <ele>314</ele>
        <time>2012-10-11T12:48:43Z</time>
      </trkpt>
      <trkpt lat="46.89863" lon="5.77834">
        <ele>314</ele>
        <time>2012-10-11T12:48:46Z</time>
      </trkpt>
      <trkpt lat="46.89859" lon="5.77852">
        <ele>319</ele>
        <time>2012-10-11T12:48:49Z</time>
      </trkpt>
      <trkpt lat="46.89857" lon="5.77869">
        <ele>319</ele>
        <time>2012-10-11T12:48:52Z</time>
      </trkpt>
      <trkpt lat="46.89855" lon="5.77886">
        <ele>319</ele>
        <time>2012-10-11T12:48:55Z</time>
      </trkpt>
      <trkpt lat="46.89853" lon="5.77903">
        <ele>319</ele>
        <time>2012-10-11T12:48:58Z</time>
      </trkpt>
      <trkpt lat="46.89851" lon="5.7792">
        <ele>319</ele>
        <time>2012-10-11T12:49:01Z</time>
      </trkpt>
      <trkpt lat="46.8985" lon="5.77937">
        <ele>319</ele>
        <time>2012-10-11T12:49:04Z</time>
      </trkpt>
      <trkpt lat="46.89847" lon="5.77955">
        <ele>319</ele>
        <time>2012-10-11T12:49:07Z</time>
      </trkpt>
      <trkpt lat="46.89843" lon="5.77971">
        <ele>319</ele>
        <time>2012-10-11T12:49:10Z</time>
      </trkpt>
      <trkpt lat="46.8984" lon="5.77988">
        <ele>319</ele>
        <time>2012-10-11T12:49:13Z</time>
      </trkpt>
      <trkpt lat="46.89837" lon="5.78003">
        <ele>319</ele>
        <time>2012-10-11T12:49:16Z</time>
      </trkpt>
      <trkpt lat="46.89832" lon="5.78019">
        <ele>324</ele>
        <time>2012-10-11T12:49:19Z</time>
      </trkpt>
      <trkpt lat="46.89829" lon="5.78034">
        <ele>324</ele>
        <time>2012-10-11T12:49:22Z</time>
      </trkpt>
      <trkpt lat="46.89823" lon="5.7805">
        <ele>324</ele>
        <time>2012-10-11T12:49:25Z</time>
      </trkpt>
      <trkpt lat="46.89817" lon="5.78063">
        <ele>324</ele>
        <time>2012-10-11T12:49:28Z</time>
      </trkpt>
      <trkpt lat="46.89811" lon="5.78077">
        <ele>324</ele>
        <time>2012-10-11T12:49:31Z</time>
      </trkpt>
      <trkpt lat="46.89805" lon="5.78091">
        <ele>330</ele>
        <time>2012-10-11T12:49:34Z</time>
      </trkpt>
      <trkpt lat="46.89797" lon="5.78105">
        <ele>330</ele>
        <time>2012-10-11T12:49:37Z</time>
      </trkpt>
      <trkpt lat="46.89788" lon="5.78118">
        <ele>330</ele>
        <time>2012-10-11T12:49:40Z</time>
      </trkpt>
      <trkpt lat="46.89783" lon="5.78134">
        <ele>330</ele>
        <time>2012-10-11T12:49:43Z</time>
      </trkpt>
      <trkpt lat="46.89782" lon="5.78151">
        <ele>330</ele>
        <time>2012-10-11T12:49:46Z</time>
      </trkpt>
      <trkpt lat="46.89782" lon="5.78169">
        <ele>330</ele>
        <time>2012-10-11T12:49:49Z</time>
      </trkpt>
      <trkpt lat="46.89786" lon="5.78185">
        <ele>330</ele>
        <time>2012-10-11T12:49:52Z</time>
      </trkpt>
      <trkpt lat="46.89792" lon="5.78198">
        <ele>330</ele>
        <time>2012-10-11T12:49:55Z</time>
      </trkpt>
      <trkpt lat="46.89797" lon="5.78212">
        <ele>330</ele>
        <time>2012-10-11T12:49:58Z</time>
      </trkpt>
      <trkpt lat="46.89803" lon="5.78227">
        <ele>330</ele>
        <time>2012-10-11T12:50:01Z</time>
      </trkpt>
      <trkpt lat="46.89806" lon="5.78242">
        <ele>330</ele>
        <time>2012-10-11T12:50:04Z</time>
      </trkpt>
      <trkpt lat="46.8981" lon="5.78258">
        <ele>330</ele>
        <time>2012-10-11T12:50:07Z</time>
      </trkpt>
      <trkpt lat="46.89813" lon="5.78275">
        <ele>330</ele>
        <time>2012-10-11T12:50:10Z</time>
      </trkpt>
      <trkpt lat="46.89815" lon="5.78292">
        <ele>330</ele>
        <time>2012-10-11T12:50:13Z</time>
      </trkpt>
      <trkpt lat="46.89817" lon="5.7831">
        <ele>330</ele>
        <time>2012-10-11T12:50:16Z</time>
      </trkpt>
      <trkpt lat="46.89818" lon="5.78328">
        <ele>330</ele>
        <time>2012-10-11T12:50:19Z</time>
      </trkpt>
      <trkpt lat="46.89819" lon="5.78346">
        <ele>336</ele>
        <time>2012-10-11T12:50:22Z</time>
      </trkpt>
      <trkpt lat="46.89821" lon="5.78363">
        <ele>336</ele>
        <time>2012-10-11T12:50:25Z</time>
      </trkpt>
      <trkpt lat="46.89821" lon="5.7838">
        <ele>336</ele>
        <time>2012-10-11T12:50:28Z</time>
      </trkpt>
      <trkpt lat="46.89822" lon="5.78397">
        <ele>336</ele>
        <time>2012-10-11T12:50:31Z</time>
      </trkpt>
      <trkpt lat="46.89823" lon="5.78415">
        <ele>336</ele>
        <time>2012-10-11T12:50:34Z</time>
      </trkpt>
      <trkpt lat="46.89825" lon="5.78432">
        <ele>336</ele>
        <time>2012-10-11T12:50:37Z</time>
      </trkpt>
      <trkpt lat="46.89827" lon="5.7845">
        <ele>336</ele>
        <time>2012-10-11T12:50:40Z</time>
      </trkpt>
      <trkpt lat="46.89829" lon="5.78467">
        <ele>336</ele>
        <time>2012-10-11T12:50:43Z</time>
      </trkpt>
      <trkpt lat="46.89832" lon="5.78483">
        <ele>336</ele>
        <time>2012-10-11T12:50:46Z</time>
      </trkpt>
      <trkpt lat="46.89835" lon="5.78499">
        <ele>341</ele>
        <time>2012-10-11T12:50:49Z</time>
      </trkpt>
      <trkpt lat="46.89839" lon="5.78515">
        <ele>341</ele>
        <time>2012-10-11T12:50:52Z</time>
      </trkpt>
      <trkpt lat="46.89841" lon="5.78532">
        <ele>341</ele>
        <time>2012-10-11T12:50:55Z</time>
      </trkpt>
      <trkpt lat="46.89843" lon="5.78549">
        <ele>341</ele>
        <time>2012-10-11T12:50:58Z</time>
      </trkpt>
      <trkpt lat="46.89845" lon="5.78565">
        <ele>341</ele>
        <time>2012-10-11T12:51:01Z</time>
      </trkpt>
      <trkpt lat="46.89846" lon="5.78583">
        <ele>341</ele>
        <time>2012-10-11T12:51:04Z</time>
      </trkpt>
      <trkpt lat="46.89847" lon="5.78601">
        <ele>341</ele>
        <time>2012-10-11T12:51:07Z</time>
      </trkpt>
      <trkpt lat="46.89847" lon="5.78618">
        <ele>341</ele>
        <time>2012-10-11T12:51:10Z</time>
      </trkpt>
      <trkpt lat="46.89848" lon="5.78635">
        <ele>341</ele>
        <time>2012-10-11T12:51:13Z</time>
      </trkpt>
      <trkpt lat="46.8985" lon="5.78652">
        <ele>346</ele>
        <time>2012-10-11T12:51:16Z</time>
      </trkpt>
      <trkpt lat="46.89851" lon="5.78669">
        <ele>346</ele>
        <time>2012-10-11T12:51:19Z</time>
      </trkpt>
      <trkpt lat="46.89853" lon="5.78687">
        <ele>346</ele>
        <time>2012-10-11T12:51:22Z</time>
      </trkpt>
      <trkpt lat="46.89854" lon="5.78704">
        <ele>346</ele>
        <time>2012-10-11T12:51:25Z</time>
      </trkpt>
      <trkpt lat="46.89854" lon="5.78721">
        <ele>346</ele>
        <time>2012-10-11T12:51:28Z</time>
      </trkpt>
      <trkpt lat="46.89853" lon="5.78739">
        <ele>346</ele>
        <time>2012-10-11T12:51:31Z</time>
      </trkpt>
      <trkpt lat="46.89851" lon="5.78755">
        <ele>346</ele>
        <time>2012-10-11T12:51:34Z</time>
      </trkpt>
      <trkpt lat="46.89848" lon="5.78772">
        <ele>346</ele>
        <time>2012-10-11T12:51:37Z</time>
      </trkpt>
      <trkpt lat="46.89846" lon="5.78788">
        <ele>352</ele>
        <time>2012-10-11T12:51:40Z</time>
      </trkpt>
      <trkpt lat="46.89843" lon="5.78805">
        <ele>352</ele>
        <time>2012-10-11T12:51:43Z</time>
      </trkpt>
      <trkpt lat="46.89841" lon="5.78822">
        <ele>352</ele>
        <time>2012-10-11T12:51:46Z</time>
      </trkpt>
      <trkpt lat="46.8984" lon="5.78839">
        <ele>352</ele>
        <time>2012-10-11T12:51:49Z</time>
      </trkpt>
      <trkpt lat="46.89838" lon="5.78856">
        <ele>352</ele>
        <time>2012-10-11T12:51:52Z</time>
      </trkpt>
      <trkpt lat="46.89837" lon="5.78874">
        <ele>352</ele>
        <time>2012-10-11T12:51:55Z</time>
      </trkpt>
      <trkpt lat="46.89835" lon="5.78891">
        <ele>352</ele>
        <time>2012-10-11T12:51:58Z</time>
      </trkpt>
      <trkpt lat="46.89833" lon="5.78909">
        <ele>352</ele>
        <time>2012-10-11T12:52:01Z</time>
      </trkpt>
      <trkpt lat="46.8983" lon="5.78927">
        <ele>352</ele>
        <time>2012-10-11T12:52:04Z</time>
      </trkpt>
      <trkpt lat="46.89827" lon="5.78944">
        <ele>352</ele>
        <time>2012-10-11T12:52:07Z</time>
      </trkpt>
      <trkpt lat="46.89824" lon="5.78962">
        <ele>352</ele>
        <time>2012-10-11T12:52:10Z</time>
      </trkpt>
      <trkpt lat="46.89821" lon="5.7898">
        <ele>352</ele>
        <time>2012-10-11T12:52:13Z</time>
      </trkpt>
      <trkpt lat="46.89818" lon="5.78997">
        <ele>358</ele>
        <time>2012-10-11T12:52:16Z</time>
      </trkpt>
      <trkpt lat="46.89816" lon="5.79015">
        <ele>358</ele>
        <time>2012-10-11T12:52:19Z</time>
      </trkpt>
      <trkpt lat="46.89813" lon="5.79032">
        <ele>358</ele>
        <time>2012-10-11T12:52:22Z</time>
      </trkpt>
      <trkpt lat="46.89811" lon="5.79049">
        <ele>358</ele>
        <time>2012-10-11T12:52:25Z</time>
      </trkpt>
      <trkpt lat="46.89808" lon="5.79066">
        <ele>358</ele>
        <time>2012-10-11T12:52:28Z</time>
      </trkpt>
      <trkpt lat="46.89804" lon="5.79082">
        <ele>358</ele>
        <time>2012-10-11T12:52:31Z</time>
      </trkpt>
      <trkpt lat="46.898" lon="5.79097">
        <ele>358</ele>
        <time>2012-10-11T12:52:34Z</time>
      </trkpt>
      <trkpt lat="46.89795" lon="5.79112">
        <ele>363</ele>
        <time>2012-10-11T12:52:37Z</time>
      </trkpt>
      <trkpt lat="46.8979" lon="5.79124">
        <ele>363</ele>
        <time>2012-10-11T12:52:40Z</time>
      </trkpt>
      <trkpt lat="46.89784" lon="5.79138">
        <ele>363</ele>
        <time>2012-10-11T12:52:43Z</time>
      </trkpt>
      <trkpt lat="46.89777" lon="5.79149">
        <ele>363</ele>
        <time>2012-10-11T12:52:46Z</time>
      </trkpt>
      <trkpt lat="46.8977" lon="5.7916">
        <ele>369</ele>
        <time>2012-10-11T12:52:49Z</time>
      </trkpt>
      <trkpt lat="46.8976" lon="5.7917">
        <ele>369</ele>
        <time>2012-10-11T12:52:52Z</time>
      </trkpt>
      <trkpt lat="46.89751" lon="5.79177">
        <ele>369</ele>
        <time>2012-10-11T12:52:54Z</time>
      </trkpt>
      <trkpt lat="46.89742" lon="5.79187">
        <ele>369</ele>
        <time>2012-10-11T12:52:57Z</time>
      </trkpt>
      <trkpt lat="46.89733" lon="5.79197">
        <ele>369</ele>
        <time>2012-10-11T12:53:00Z</time>
      </trkpt>
      <trkpt lat="46.89726" lon="5.79209">
        <ele>369</ele>
        <time>2012-10-11T12:53:03Z</time>
      </trkpt>
      <trkpt lat="46.89719" lon="5.7922">
        <ele>369</ele>
        <time>2012-10-11T12:53:06Z</time>
      </trkpt>
      <trkpt lat="46.89712" lon="5.79233">
        <ele>369</ele>
        <time>2012-10-11T12:53:09Z</time>
      </trkpt>
      <trkpt lat="46.89705" lon="5.79248">
        <ele>369</ele>
        <time>2012-10-11T12:53:12Z</time>
      </trkpt>
      <trkpt lat="46.89699" lon="5.79264">
        <ele>369</ele>
        <time>2012-10-11T12:53:15Z</time>
      </trkpt>
      <trkpt lat="46.89696" lon="5.7928">
        <ele>374</ele>
        <time>2012-10-11T12:53:18Z</time>
      </trkpt>
      <trkpt lat="46.89688" lon="5.79294">
        <ele>374</ele>
        <time>2012-10-11T12:53:21Z</time>
      </trkpt>
      <trkpt lat="46.89683" lon="5.79309">
        <ele>374</ele>
        <time>2012-10-11T12:53:24Z</time>
      </trkpt>
      <trkpt lat="46.89677" lon="5.79324">
        <ele>374</ele>
        <time>2012-10-11T12:53:27Z</time>
      </trkpt>
      <trkpt lat="46.89667" lon="5.79335">
        <ele>374</ele>
        <time>2012-10-11T12:53:30Z</time>
      </trkpt>
      <trkpt lat="46.89661" lon="5.79348">
        <ele>374</ele>
        <time>2012-10-11T12:53:33Z</time>
      </trkpt>
      <trkpt lat="46.89654" lon="5.7936">
        <ele>381</ele>
        <time>2012-10-11T12:53:36Z</time>
      </trkpt>
      <trkpt lat="46.89646" lon="5.79368">
        <ele>381</ele>
        <time>2012-10-11T12:53:38Z</time>
      </trkpt>
      <trkpt lat="46.89639" lon="5.79379">
        <ele>381</ele>
        <time>2012-10-11T12:53:41Z</time>
      </trkpt>
      <trkpt lat="46.89637" lon="5.79393">
        <ele>381</ele>
        <time>2012-10-11T12:53:44Z</time>
      </trkpt>
      <trkpt lat="46.8963" lon="5.79405">
        <ele>381</ele>
        <time>2012-10-11T12:53:47Z</time>
      </trkpt>
      <trkpt lat="46.89622" lon="5.79412">
        <ele>387</ele>
        <time>2012-10-11T12:53:49Z</time>
      </trkpt>
      <trkpt lat="46.89613" lon="5.7942">
        <ele>387</ele>
        <time>2012-10-11T12:53:51Z</time>
      </trkpt>
      <trkpt lat="46.89604" lon="5.7943">
        <ele>387</ele>
        <time>2012-10-11T12:53:54Z</time>
      </trkpt>
      <trkpt lat="46.89595" lon="5.79443">
        <ele>387</ele>
        <time>2012-10-11T12:53:57Z</time>
      </trkpt>
      <trkpt lat="46.89587" lon="5.79451">
        <ele>387</ele>
        <time>2012-10-11T12:53:59Z</time>
      </trkpt>
      <trkpt lat="46.89576" lon="5.79461">
        <ele>387</ele>
        <time>2012-10-11T12:54:02Z</time>
      </trkpt>
      <trkpt lat="46.89566" lon="5.79469">
        <ele>387</ele>
        <time>2012-10-11T12:54:04Z</time>
      </trkpt>
      <trkpt lat="46.89556" lon="5.79475">
        <ele>387</ele>
        <time>2012-10-11T12:54:06Z</time>
      </trkpt>
      <trkpt lat="46.89548" lon="5.79481">
        <ele>387</ele>
        <time>2012-10-11T12:54:08Z</time>
      </trkpt>
      <trkpt lat="46.89536" lon="5.79488">
        <ele>387</ele>
        <time>2012-10-11T12:54:11Z</time>
      </trkpt>
      <trkpt lat="46.89524" lon="5.79495">
        <ele>387</ele>
        <time>2012-10-11T12:54:14Z</time>
      </trkpt>
      <trkpt lat="46.89513" lon="5.795">
        <ele>380</ele>
        <time>2012-10-11T12:54:17Z</time>
      </trkpt>
      <trkpt lat="46.89501" lon="5.79506">
        <ele>380</ele>
        <time>2012-10-11T12:54:20Z</time>
      </trkpt>
      <trkpt lat="46.89491" lon="5.79512">
        <ele>380</ele>
        <time>2012-10-11T12:54:23Z</time>
      </trkpt>
      <trkpt lat="46.8948" lon="5.79519">
        <ele>374</ele>
        <time>2012-10-11T12:54:26Z</time>
      </trkpt>
      <trkpt lat="46.8947" lon="5.79526">
        <ele>374</ele>
        <time>2012-10-11T12:54:29Z</time>
      </trkpt>
      <trkpt lat="46.89461" lon="5.7953">
        <ele>374</ele>
        <time>2012-10-11T12:54:31Z</time>
      </trkpt>
      <trkpt lat="46.89449" lon="5.79537">
        <ele>374</ele>
        <time>2012-10-11T12:54:34Z</time>
      </trkpt>
      <trkpt lat="46.89438" lon="5.79544">
        <ele>374</ele>
        <time>2012-10-11T12:54:37Z</time>
      </trkpt>
      <trkpt lat="46.89427" lon="5.79549">
        <ele>374</ele>
        <time>2012-10-11T12:54:40Z</time>
      </trkpt>
      <trkpt lat="46.89415" lon="5.79555">
        <ele>374</ele>
        <time>2012-10-11T12:54:43Z</time>
      </trkpt>
      <trkpt lat="46.89404" lon="5.79561">
        <ele>374</ele>
        <time>2012-10-11T12:54:46Z</time>
      </trkpt>
      <trkpt lat="46.89393" lon="5.79566">
        <ele>374</ele>
        <time>2012-10-11T12:54:49Z</time>
      </trkpt>
      <trkpt lat="46.89383" lon="5.79569">
        <ele>374</ele>
        <time>2012-10-11T12:54:52Z</time>
      </trkpt>
      <trkpt lat="46.89371" lon="5.79577">
        <ele>374</ele>
        <time>2012-10-11T12:54:55Z</time>
      </trkpt>
      <trkpt lat="46.89361" lon="5.79583">
        <ele>374</ele>
        <time>2012-10-11T12:54:58Z</time>
      </trkpt>
      <trkpt lat="46.89349" lon="5.79588">
        <ele>374</ele>
        <time>2012-10-11T12:55:01Z</time>
      </trkpt>
      <trkpt lat="46.89341" lon="5.79594">
        <ele>380</ele>
        <time>2012-10-11T12:55:03Z</time>
      </trkpt>
      <trkpt lat="46.8933" lon="5.79604">
        <ele>380</ele>
        <time>2012-10-11T12:55:06Z</time>
      </trkpt>
      <trkpt lat="46.89319" lon="5.79613">
        <ele>386</ele>
        <time>2012-10-11T12:55:09Z</time>
      </trkpt>
      <trkpt lat="46.89308" lon="5.79619">
        <ele>386</ele>
        <time>2012-10-11T12:55:12Z</time>
      </trkpt>
      <trkpt lat="46.89297" lon="5.79627">
        <ele>392</ele>
        <time>2012-10-11T12:55:15Z</time>
      </trkpt>
      <trkpt lat="46.89286" lon="5.79635">
        <ele>392</ele>
        <time>2012-10-11T12:55:18Z</time>
      </trkpt>
      <trkpt lat="46.89274" lon="5.79642">
        <ele>392</ele>
        <time>2012-10-11T12:55:21Z</time>
      </trkpt>
      <trkpt lat="46.89266" lon="5.79651">
        <ele>400</ele>
        <time>2012-10-11T12:55:23Z</time>
      </trkpt>
      <trkpt lat="46.89254" lon="5.79658">
        <ele>400</ele>
        <time>2012-10-11T12:55:26Z</time>
      </trkpt>
      <trkpt lat="46.89242" lon="5.79664">
        <ele>400</ele>
        <time>2012-10-11T12:55:29Z</time>
      </trkpt>
      <trkpt lat="46.89232" lon="5.79669">
        <ele>400</ele>
        <time>2012-10-11T12:55:32Z</time>
      </trkpt>
      <trkpt lat="46.89221" lon="5.79676">
        <ele>400</ele>
        <time>2012-10-11T12:55:35Z</time>
      </trkpt>
      <trkpt lat="46.8921" lon="5.79683">
        <ele>400</ele>
        <time>2012-10-11T12:55:38Z</time>
      </trkpt>
      <trkpt lat="46.892" lon="5.79689">
        <ele>400</ele>
        <time>2012-10-11T12:55:41Z</time>
      </trkpt>
      <trkpt lat="46.8919" lon="5.79695">
        <ele>400</ele>
        <time>2012-10-11T12:55:44Z</time>
      </trkpt>
      <trkpt lat="46.8918" lon="5.79698">
        <ele>400</ele>
        <time>2012-10-11T12:55:47Z</time>
      </trkpt>
      <trkpt lat="46.89169" lon="5.79703">
        <ele>400</ele>
        <time>2012-10-11T12:55:50Z</time>
      </trkpt>
      <trkpt lat="46.89157" lon="5.7971">
        <ele>408</ele>
        <time>2012-10-11T12:55:53Z</time>
      </trkpt>
      <trkpt lat="46.89149" lon="5.79715">
        <ele>408</ele>
        <time>2012-10-11T12:55:55Z</time>
      </trkpt>
      <trkpt lat="46.89139" lon="5.79723">
        <ele>408</ele>
        <time>2012-10-11T12:55:57Z</time>
      </trkpt>
      <trkpt lat="46.89129" lon="5.79728">
        <ele>408</ele>
        <time>2012-10-11T12:55:59Z</time>
      </trkpt>
      <trkpt lat="46.89117" lon="5.79734">
        <ele>408</ele>
        <time>2012-10-11T12:56:02Z</time>
      </trkpt>
      <trkpt lat="46.89108" lon="5.79739">
        <ele>408</ele>
        <time>2012-10-11T12:56:04Z</time>
      </trkpt>
      <trkpt lat="46.89099" lon="5.79742">
        <ele>408</ele>
        <time>2012-10-11T12:56:06Z</time>
      </trkpt>
      <trkpt lat="46.89087" lon="5.79746">
        <ele>408</ele>
        <time>2012-10-11T12:56:08Z</time>
      </trkpt>
      <trkpt lat="46.89076" lon="5.79749">
        <ele>408</ele>
        <time>2012-10-11T12:56:10Z</time>
      </trkpt>
      <trkpt lat="46.89066" lon="5.79755">
        <ele>408</ele>
        <time>2012-10-11T12:56:12Z</time>
      </trkpt>
      <trkpt lat="46.89056" lon="5.79759">
        <ele>408</ele>
        <time>2012-10-11T12:56:14Z</time>
      </trkpt>
      <trkpt lat="46.89045" lon="5.79765">
        <ele>408</ele>
        <time>2012-10-11T12:56:16Z</time>
      </trkpt>
      <trkpt lat="46.89036" lon="5.79769">
        <ele>401</ele>
        <time>2012-10-11T12:56:18Z</time>
      </trkpt>
      <trkpt lat="46.89026" lon="5.79774">
        <ele>401</ele>
        <time>2012-10-11T12:56:20Z</time>
      </trkpt>
      <trkpt lat="46.89016" lon="5.79777">
        <ele>401</ele>
        <time>2012-10-11T12:56:22Z</time>
      </trkpt>
      <trkpt lat="46.89007" lon="5.79781">
        <ele>401</ele>
        <time>2012-10-11T12:56:24Z</time>
      </trkpt>
      <trkpt lat="46.88996" lon="5.79783">
        <ele>401</ele>
        <time>2012-10-11T12:56:26Z</time>
      </trkpt>
      <trkpt lat="46.88986" lon="5.79784">
        <ele>401</ele>
        <time>2012-10-11T12:56:28Z</time>
      </trkpt>
      <trkpt lat="46.88976" lon="5.79784">
        <ele>401</ele>
        <time>2012-10-11T12:56:30Z</time>
      </trkpt>
      <trkpt lat="46.88967" lon="5.79784">
        <ele>401</ele>
        <time>2012-10-11T12:56:32Z</time>
      </trkpt>
      <trkpt lat="46.88957" lon="5.79784">
        <ele>401</ele>
        <time>2012-10-11T12:56:34Z</time>
      </trkpt>
      <trkpt lat="46.88944" lon="5.79786">
        <ele>401</ele>
        <time>2012-10-11T12:56:37Z</time>
      </trkpt>
      <trkpt lat="46.88935" lon="5.79789">
        <ele>401</ele>
        <time>2012-10-11T12:56:39Z</time>
      </trkpt>
      <trkpt lat="46.88926" lon="5.79792">
        <ele>401</ele>
        <time>2012-10-11T12:56:41Z</time>
      </trkpt>
      <trkpt lat="46.88914" lon="5.79798">
        <ele>401</ele>
        <time>2012-10-11T12:56:44Z</time>
      </trkpt>
      <trkpt lat="46.88903" lon="5.79804">
        <ele>401</ele>
        <time>2012-10-11T12:56:47Z</time>
      </trkpt>
      <trkpt lat="46.88892" lon="5.79813">
        <ele>401</ele>
        <time>2012-10-11T12:56:50Z</time>
      </trkpt>
      <trkpt lat="46.88883" lon="5.79823">
        <ele>401</ele>
        <time>2012-10-11T12:56:53Z</time>
      </trkpt>
      <trkpt lat="46.88874" lon="5.79835">
        <ele>401</ele>
        <time>2012-10-11T12:56:56Z</time>
      </trkpt>
      <trkpt lat="46.88866" lon="5.79847">
        <ele>401</ele>
        <time>2012-10-11T12:56:59Z</time>
      </trkpt>
      <trkpt lat="46.88859" lon="5.79862">
        <ele>401</ele>
        <time>2012-10-11T12:57:02Z</time>
      </trkpt>
      <trkpt lat="46.88856" lon="5.79878">
        <ele>401</ele>
        <time>2012-10-11T12:57:05Z</time>
      </trkpt>
      <trkpt lat="46.88848" lon="5.79892">
        <ele>411</ele>
        <time>2012-10-11T12:57:08Z</time>
      </trkpt>
      <trkpt lat="46.88845" lon="5.79909">
        <ele>418</ele>
        <time>2012-10-11T12:57:11Z</time>
      </trkpt>
      <trkpt lat="46.88843" lon="5.79926">
        <ele>425</ele>
        <time>2012-10-11T12:57:14Z</time>
      </trkpt>
      <trkpt lat="46.88839" lon="5.79943">
        <ele>425</ele>
        <time>2012-10-11T12:57:17Z</time>
      </trkpt>
      <trkpt lat="46.88837" lon="5.79959">
        <ele>425</ele>
        <time>2012-10-11T12:57:20Z</time>
      </trkpt>
      <trkpt lat="46.88831" lon="5.79969">
        <ele>425</ele>
        <time>2012-10-11T12:57:22Z</time>
      </trkpt>
      <trkpt lat="46.88824" lon="5.79978">
        <ele>425</ele>
        <time>2012-10-11T12:57:24Z</time>
      </trkpt>
      <trkpt lat="46.88814" lon="5.79986">
        <ele>419</ele>
        <time>2012-10-11T12:57:26Z</time>
      </trkpt>
      <trkpt lat="46.88805" lon="5.7999">
        <ele>419</ele>
        <time>2012-10-11T12:57:28Z</time>
      </trkpt>
      <trkpt lat="46.88797" lon="5.79995">
        <ele>419</ele>
        <time>2012-10-11T12:57:30Z</time>
      </trkpt>
      <trkpt lat="46.88788" lon="5.79998">
        <ele>419</ele>
        <time>2012-10-11T12:57:32Z</time>
      </trkpt>
      <trkpt lat="46.88775" lon="5.80001">
        <ele>414</ele>
        <time>2012-10-11T12:57:35Z</time>
      </trkpt>
      <trkpt lat="46.88763" lon="5.80003">
        <ele>414</ele>
        <time>2012-10-11T12:57:38Z</time>
      </trkpt>
      <trkpt lat="46.88753" lon="5.80003">
        <ele>414</ele>
        <time>2012-10-11T12:57:40Z</time>
      </trkpt>
      <trkpt lat="46.88741" lon="5.80002">
        <ele>414</ele>
        <time>2012-10-11T12:57:43Z</time>
      </trkpt>
      <trkpt lat="46.88732" lon="5.79998">
        <ele>414</ele>
        <time>2012-10-11T12:57:45Z</time>
      </trkpt>
      <trkpt lat="46.8872" lon="5.79994">
        <ele>414</ele>
        <time>2012-10-11T12:57:48Z</time>
      </trkpt>
      <trkpt lat="46.88707" lon="5.7999">
        <ele>414</ele>
        <time>2012-10-11T12:57:51Z</time>
      </trkpt>
      <trkpt lat="46.88695" lon="5.79989">
        <ele>414</ele>
        <time>2012-10-11T12:57:54Z</time>
      </trkpt>
      <trkpt lat="46.88683" lon="5.79994">
        <ele>414</ele>
        <time>2012-10-11T12:57:57Z</time>
      </trkpt>
      <trkpt lat="46.88672" lon="5.80003">
        <ele>414</ele>
        <time>2012-10-11T12:58:00Z</time>
      </trkpt>
      <trkpt lat="46.8866" lon="5.80011">
        <ele>414</ele>
        <time>2012-10-11T12:58:03Z</time>
      </trkpt>
      <trkpt lat="46.88651" lon="5.80018">
        <ele>414</ele>
        <time>2012-10-11T12:58:06Z</time>
      </trkpt>
      <trkpt lat="46.8864" lon="5.80025">
        <ele>414</ele>
        <time>2012-10-11T12:58:09Z</time>
      </trkpt>
      <trkpt lat="46.88628" lon="5.80029">
        <ele>414</ele>
        <time>2012-10-11T12:58:12Z</time>
      </trkpt>
      <trkpt lat="46.88616" lon="5.8003">
        <ele>414</ele>
        <time>2012-10-11T12:58:15Z</time>
      </trkpt>
      <trkpt lat="46.88604" lon="5.8003">
        <ele>420</ele>
        <time>2012-10-11T12:58:18Z</time>
      </trkpt>
      <trkpt lat="46.88592" lon="5.80028">
        <ele>420</ele>
        <time>2012-10-11T12:58:21Z</time>
      </trkpt>
      <trkpt lat="46.8858" lon="5.80027">
        <ele>420</ele>
        <time>2012-10-11T12:58:24Z</time>
      </trkpt>
      <trkpt lat="46.88569" lon="5.80025">
        <ele>420</ele>
        <time>2012-10-11T12:58:27Z</time>
      </trkpt>
      <trkpt lat="46.88558" lon="5.80022">
        <ele>420</ele>
        <time>2012-10-11T12:58:30Z</time>
      </trkpt>
      <trkpt lat="46.88545" lon="5.8002">
        <ele>426</ele>
        <time>2012-10-11T12:58:33Z</time>
      </trkpt>
      <trkpt lat="46.88534" lon="5.80019">
        <ele>426</ele>
        <time>2012-10-11T12:58:36Z</time>
      </trkpt>
      <trkpt lat="46.88522" lon="5.8002">
        <ele>426</ele>
        <time>2012-10-11T12:58:39Z</time>
      </trkpt>
      <trkpt lat="46.88511" lon="5.80022">
        <ele>426</ele>
        <time>2012-10-11T12:58:42Z</time>
      </trkpt>
      <trkpt lat="46.88498" lon="5.80022">
        <ele>426</ele>
        <time>2012-10-11T12:58:45Z</time>
      </trkpt>
      <trkpt lat="46.88486" lon="5.80026">
        <ele>426</ele>
        <time>2012-10-11T12:58:48Z</time>
      </trkpt>
      <trkpt lat="46.88474" lon="5.80029">
        <ele>426</ele>
        <time>2012-10-11T12:58:51Z</time>
      </trkpt>
      <trkpt lat="46.88462" lon="5.80029">
        <ele>426</ele>
        <time>2012-10-11T12:58:54Z</time>
      </trkpt>
      <trkpt lat="46.88449" lon="5.80031">
        <ele>426</ele>
        <time>2012-10-11T12:58:57Z</time>
      </trkpt>
      <trkpt lat="46.88437" lon="5.80031">
        <ele>426</ele>
        <time>2012-10-11T12:59:00Z</time>
      </trkpt>
      <trkpt lat="46.88425" lon="5.80029">
        <ele>426</ele>
        <time>2012-10-11T12:59:03Z</time>
      </trkpt>
      <trkpt lat="46.88412" lon="5.80026">
        <ele>426</ele>
        <time>2012-10-11T12:59:06Z</time>
      </trkpt>
      <trkpt lat="46.88401" lon="5.80022">
        <ele>432</ele>
        <time>2012-10-11T12:59:09Z</time>
      </trkpt>
      <trkpt lat="46.88389" lon="5.80016">
        <ele>432</ele>
        <time>2012-10-11T12:59:12Z</time>
      </trkpt>
      <trkpt lat="46.88378" lon="5.80009">
        <ele>437</ele>
        <time>2012-10-11T12:59:15Z</time>
      </trkpt>
      <trkpt lat="46.88366" lon="5.80003">
        <ele>437</ele>
        <time>2012-10-11T12:59:18Z</time>
      </trkpt>
      <trkpt lat="46.88356" lon="5.8">
        <ele>437</ele>
        <time>2012-10-11T12:59:21Z</time>
      </trkpt>
      <trkpt lat="46.88344" lon="5.79997">
        <ele>437</ele>
        <time>2012-10-11T12:59:24Z</time>
      </trkpt>
      <trkpt lat="46.88331" lon="5.79996">
        <ele>437</ele>
        <time>2012-10-11T12:59:27Z</time>
      </trkpt>
      <trkpt lat="46.88318" lon="5.79996">
        <ele>437</ele>
        <time>2012-10-11T12:59:30Z</time>
      </trkpt>
      <trkpt lat="46.88306" lon="5.79995">
        <ele>437</ele>
        <time>2012-10-11T12:59:33Z</time>
      </trkpt>
      <trkpt lat="46.88294" lon="5.79996">
        <ele>437</ele>
        <time>2012-10-11T12:59:36Z</time>
      </trkpt>
      <trkpt lat="46.88282" lon="5.79997">
        <ele>437</ele>
        <time>2012-10-11T12:59:39Z</time>
      </trkpt>
      <trkpt lat="46.8827" lon="5.80001">
        <ele>437</ele>
        <time>2012-10-11T12:59:42Z</time>
      </trkpt>
      <trkpt lat="46.88258" lon="5.80004">
        <ele>437</ele>
        <time>2012-10-11T12:59:45Z</time>
      </trkpt>
      <trkpt lat="46.88246" lon="5.80007">
        <ele>437</ele>
        <time>2012-10-11T12:59:48Z</time>
      </trkpt>
      <trkpt lat="46.88234" lon="5.8001">
        <ele>437</ele>
        <time>2012-10-11T12:59:51Z</time>
      </trkpt>
      <trkpt lat="46.88223" lon="5.80013">
        <ele>437</ele>
        <time>2012-10-11T12:59:54Z</time>
      </trkpt>
      <trkpt lat="46.88209" lon="5.80016">
        <ele>437</ele>
        <time>2012-10-11T12:59:57Z</time>
      </trkpt>
      <trkpt lat="46.88197" lon="5.80019">
        <ele>437</ele>
        <time>2012-10-11T13:00:00Z</time>
      </trkpt>
      <trkpt lat="46.88184" lon="5.80021">
        <ele>437</ele>
        <time>2012-10-11T13:00:03Z</time>
      </trkpt>
      <trkpt lat="46.88173" lon="5.80024">
        <ele>437</ele>
        <time>2012-10-11T13:00:06Z</time>
      </trkpt>
      <trkpt lat="46.8816" lon="5.80028">
        <ele>437</ele>
        <time>2012-10-11T13:00:09Z</time>
      </trkpt>
      <trkpt lat="46.88149" lon="5.80032">
        <ele>437</ele>
        <time>2012-10-11T13:00:12Z</time>
      </trkpt>
      <trkpt lat="46.88137" lon="5.80035">
        <ele>437</ele>
        <time>2012-10-11T13:00:15Z</time>
      </trkpt>
      <trkpt lat="46.88125" lon="5.80039">
        <ele>437</ele>
        <time>2012-10-11T13:00:18Z</time>
      </trkpt>
      <trkpt lat="46.88112" lon="5.80041">
        <ele>437</ele>
        <time>2012-10-11T13:00:21Z</time>
      </trkpt>
      <trkpt lat="46.88101" lon="5.80045">
        <ele>437</ele>
        <time>2012-10-11T13:00:24Z</time>
      </trkpt>
      <trkpt lat="46.8809" lon="5.80048">
        <ele>444</ele>
        <time>2012-10-11T13:00:27Z</time>
      </trkpt>
      <trkpt lat="46.88081" lon="5.8005">
        <ele>444</ele>
        <time>2012-10-11T13:00:29Z</time>
      </trkpt>
      <trkpt lat="46.88067" lon="5.8005">
        <ele>444</ele>
        <time>2012-10-11T13:00:32Z</time>
      </trkpt>
      <trkpt lat="46.88055" lon="5.80048">
        <ele>444</ele>
        <time>2012-10-11T13:00:35Z</time>
      </trkpt>
      <trkpt lat="46.88043" lon="5.80044">
        <ele>444</ele>
        <time>2012-10-11T13:00:38Z</time>
      </trkpt>
      <trkpt lat="46.8803" lon="5.8004">
        <ele>450</ele>
        <time>2012-10-11T13:00:41Z</time>
      </trkpt>
      <trkpt lat="46.88019" lon="5.80038">
        <ele>450</ele>
        <time>2012-10-11T13:00:44Z</time>
      </trkpt>
      <trkpt lat="46.88008" lon="5.80036">
        <ele>450</ele>
        <time>2012-10-11T13:00:47Z</time>
      </trkpt>
      <trkpt lat="46.87996" lon="5.8004">
        <ele>450</ele>
        <time>2012-10-11T13:00:50Z</time>
      </trkpt>
      <trkpt lat="46.87987" lon="5.80049">
        <ele>450</ele>
        <time>2012-10-11T13:00:53Z</time>
      </trkpt>
      <trkpt lat="46.87981" lon="5.80064">
        <ele>450</ele>
        <time>2012-10-11T13:00:56Z</time>
      </trkpt>
      <trkpt lat="46.87977" lon="5.80081">
        <ele>456</ele>
        <time>2012-10-11T13:00:59Z</time>
      </trkpt>
      <trkpt lat="46.87975" lon="5.80093">
        <ele>456</ele>
        <time>2012-10-11T13:01:01Z</time>
      </trkpt>
      <trkpt lat="46.87972" lon="5.80111">
        <ele>456</ele>
        <time>2012-10-11T13:01:04Z</time>
      </trkpt>
      <trkpt lat="46.87968" lon="5.80123">
        <ele>456</ele>
        <time>2012-10-11T13:01:06Z</time>
      </trkpt>
      <trkpt lat="46.87961" lon="5.80137">
        <ele>456</ele>
        <time>2012-10-11T13:01:09Z</time>
      </trkpt>
      <trkpt lat="46.87952" lon="5.80149">
        <ele>456</ele>
        <time>2012-10-11T13:01:12Z</time>
      </trkpt>
      <trkpt lat="46.87943" lon="5.80155">
        <ele>456</ele>
        <time>2012-10-11T13:01:14Z</time>
      </trkpt>
      <trkpt lat="46.87934" lon="5.8016">
        <ele>456</ele>
        <time>2012-10-11T13:01:16Z</time>
      </trkpt>
      <trkpt lat="46.87922" lon="5.80167">
        <ele>463</ele>
        <time>2012-10-11T13:01:19Z</time>
      </trkpt>
      <trkpt lat="46.8791" lon="5.8017">
        <ele>463</ele>
        <time>2012-10-11T13:01:22Z</time>
      </trkpt>
      <trkpt lat="46.87897" lon="5.80169">
        <ele>463</ele>
        <time>2012-10-11T13:01:25Z</time>
      </trkpt>
      <trkpt lat="46.87887" lon="5.80167">
        <ele>463</ele>
        <time>2012-10-11T13:01:27Z</time>
      </trkpt>
      <trkpt lat="46.87879" lon="5.80163">
        <ele>463</ele>
        <time>2012-10-11T13:01:29Z</time>
      </trkpt>
      <trkpt lat="46.87867" lon="5.80155">
        <ele>463</ele>
        <time>2012-10-11T13:01:32Z</time>
      </trkpt>
      <trkpt lat="46.87855" lon="5.80149">
        <ele>463</ele>
        <time>2012-10-11T13:01:35Z</time>
      </trkpt>
      <trkpt lat="46.87844" lon="5.80146">
        <ele>463</ele>
        <time>2012-10-11T13:01:38Z</time>
      </trkpt>
      <trkpt lat="46.87831" lon="5.80144">
        <ele>463</ele>
        <time>2012-10-11T13:01:41Z</time>
      </trkpt>
      <trkpt lat="46.87819" lon="5.8014">
        <ele>463</ele>
        <time>2012-10-11T13:01:44Z</time>
      </trkpt>
      <trkpt lat="46.87807" lon="5.80136">
        <ele>463</ele>
        <time>2012-10-11T13:01:47Z</time>
      </trkpt>
      <trkpt lat="46.87796" lon="5.80128">
        <ele>463</ele>
        <time>2012-10-11T13:01:50Z</time>
      </trkpt>
      <trkpt lat="46.87785" lon="5.80121">
        <ele>463</ele>
        <time>2012-10-11T13:01:53Z</time>
      </trkpt>
      <trkpt lat="46.87774" lon="5.80114">
        <ele>463</ele>
        <time>2012-10-11T13:01:56Z</time>
      </trkpt>
      <trkpt lat="46.87765" lon="5.80108">
        <ele>463</ele>
        <time>2012-10-11T13:01:58Z</time>
      </trkpt>
      <trkpt lat="46.87757" lon="5.80102">
        <ele>463</ele>
        <time>2012-10-11T13:02:00Z</time>
      </trkpt>
      <trkpt lat="46.87745" lon="5.80095">
        <ele>469</ele>
        <time>2012-10-11T13:02:03Z</time>
      </trkpt>
      <trkpt lat="46.87733" lon="5.80088">
        <ele>469</ele>
        <time>2012-10-11T13:02:06Z</time>
      </trkpt>
      <trkpt lat="46.87722" lon="5.80082">
        <ele>469</ele>
        <time>2012-10-11T13:02:09Z</time>
      </trkpt>
      <trkpt lat="46.87713" lon="5.80077">
        <ele>469</ele>
        <time>2012-10-11T13:02:11Z</time>
      </trkpt>
      <trkpt lat="46.87701" lon="5.80071">
        <ele>469</ele>
        <time>2012-10-11T13:02:14Z</time>
      </trkpt>
      <trkpt lat="46.87688" lon="5.80065">
        <ele>469</ele>
        <time>2012-10-11T13:02:17Z</time>
      </trkpt>
      <trkpt lat="46.87676" lon="5.80059">
        <ele>469</ele>
        <time>2012-10-11T13:02:20Z</time>
      </trkpt>
      <trkpt lat="46.87668" lon="5.80056">
        <ele>469</ele>
        <time>2012-10-11T13:02:22Z</time>
      </trkpt>
      <trkpt lat="46.87659" lon="5.80051">
        <ele>469</ele>
        <time>2012-10-11T13:02:24Z</time>
      </trkpt>
      <trkpt lat="46.8765" lon="5.80048">
        <ele>474</ele>
        <time>2012-10-11T13:02:26Z</time>
      </trkpt>
      <trkpt lat="46.87637" lon="5.80043">
        <ele>474</ele>
        <time>2012-10-11T13:02:29Z</time>
      </trkpt>
      <trkpt lat="46.87624" lon="5.8004">
        <ele>474</ele>
        <time>2012-10-11T13:02:32Z</time>
      </trkpt>
      <trkpt lat="46.87616" lon="5.80035">
        <ele>474</ele>
        <time>2012-10-11T13:02:34Z</time>
      </trkpt>
      <trkpt lat="46.87607" lon="5.80031">
        <ele>474</ele>
        <time>2012-10-11T13:02:36Z</time>
      </trkpt>
      <trkpt lat="46.87595" lon="5.80025">
        <ele>474</ele>
        <time>2012-10-11T13:02:39Z</time>
      </trkpt>
      <trkpt lat="46.87582" lon="5.80019">
        <ele>480</ele>
        <time>2012-10-11T13:02:42Z</time>
      </trkpt>
      <trkpt lat="46.8757" lon="5.80013">
        <ele>480</ele>
        <time>2012-10-11T13:02:45Z</time>
      </trkpt>
      <trkpt lat="46.87561" lon="5.8001">
        <ele>480</ele>
        <time>2012-10-11T13:02:47Z</time>
      </trkpt>
      <trkpt lat="46.87549" lon="5.80004">
        <ele>480</ele>
        <time>2012-10-11T13:02:50Z</time>
      </trkpt>
      <trkpt lat="46.87536" lon="5.79998">
        <ele>480</ele>
        <time>2012-10-11T13:02:53Z</time>
      </trkpt>
      <trkpt lat="46.87525" lon="5.79994">
        <ele>480</ele>
        <time>2012-10-11T13:02:56Z</time>
      </trkpt>
      <trkpt lat="46.87514" lon="5.79987">
        <ele>480</ele>
        <time>2012-10-11T13:02:59Z</time>
      </trkpt>
      <trkpt lat="46.87502" lon="5.79982">
        <ele>480</ele>
        <time>2012-10-11T13:03:02Z</time>
      </trkpt>
      <trkpt lat="46.87491" lon="5.79977">
        <ele>480</ele>
        <time>2012-10-11T13:03:05Z</time>
      </trkpt>
      <trkpt lat="46.87479" lon="5.79971">
        <ele>480</ele>
        <time>2012-10-11T13:03:08Z</time>
      </trkpt>
      <trkpt lat="46.87468" lon="5.79966">
        <ele>480</ele>
        <time>2012-10-11T13:03:11Z</time>
      </trkpt>
      <trkpt lat="46.87456" lon="5.79962">
        <ele>485</ele>
        <time>2012-10-11T13:03:14Z</time>
      </trkpt>
      <trkpt lat="46.87446" lon="5.79956">
        <ele>485</ele>
        <time>2012-10-11T13:03:17Z</time>
      </trkpt>
      <trkpt lat="46.87435" lon="5.7995">
        <ele>485</ele>
        <time>2012-10-11T13:03:20Z</time>
      </trkpt>
      <trkpt lat="46.87424" lon="5.79947">
        <ele>485</ele>
        <time>2012-10-11T13:03:23Z</time>
      </trkpt>
      <trkpt lat="46.87412" lon="5.79943">
        <ele>485</ele>
        <time>2012-10-11T13:03:26Z</time>
      </trkpt>
      <trkpt lat="46.87401" lon="5.7994">
        <ele>485</ele>
        <time>2012-10-11T13:03:29Z</time>
      </trkpt>
      <trkpt lat="46.8739" lon="5.79934">
        <ele>485</ele>
        <time>2012-10-11T13:03:32Z</time>
      </trkpt>
      <trkpt lat="46.8738" lon="5.79929">
        <ele>485</ele>
        <time>2012-10-11T13:03:35Z</time>
      </trkpt>
      <trkpt lat="46.87369" lon="5.79924">
        <ele>485</ele>
        <time>2012-10-11T13:03:38Z</time>
      </trkpt>
      <trkpt lat="46.87358" lon="5.79918">
        <ele>485</ele>
        <time>2012-10-11T13:03:41Z</time>
      </trkpt>
      <trkpt lat="46.87348" lon="5.79913">
        <ele>485</ele>
        <time>2012-10-11T13:03:44Z</time>
      </trkpt>
      <trkpt lat="46.87337" lon="5.79906">
        <ele>485</ele>
        <time>2012-10-11T13:03:47Z</time>
      </trkpt>
      <trkpt lat="46.87328" lon="5.79898">
        <ele>485</ele>
        <time>2012-10-11T13:03:50Z</time>
      </trkpt>
      <trkpt lat="46.87316" lon="5.79892">
        <ele>485</ele>
        <time>2012-10-11T13:03:53Z</time>
      </trkpt>
      <trkpt lat="46.87306" lon="5.79887">
        <ele>485</ele>
        <time>2012-10-11T13:03:56Z</time>
      </trkpt>
      <trkpt lat="46.87295" lon="5.79881">
        <ele>485</ele>
        <time>2012-10-11T13:03:59Z</time>
      </trkpt>
      <trkpt lat="46.87283" lon="5.79878">
        <ele>485</ele>
        <time>2012-10-11T13:04:02Z</time>
      </trkpt>
      <trkpt lat="46.87271" lon="5.79877">
        <ele>485</ele>
        <time>2012-10-11T13:04:05Z</time>
      </trkpt>
      <trkpt lat="46.8726" lon="5.79878">
        <ele>485</ele>
        <time>2012-10-11T13:04:08Z</time>
      </trkpt>
      <trkpt lat="46.87247" lon="5.7988">
        <ele>491</ele>
        <time>2012-10-11T13:04:11Z</time>
      </trkpt>
      <trkpt lat="46.87236" lon="5.79881">
        <ele>491</ele>
        <time>2012-10-11T13:04:14Z</time>
      </trkpt>
      <trkpt lat="46.87224" lon="5.79886">
        <ele>499</ele>
        <time>2012-10-11T13:04:17Z</time>
      </trkpt>
      <trkpt lat="46.87211" lon="5.7989">
        <ele>499</ele>
        <time>2012-10-11T13:04:20Z</time>
      </trkpt>
      <trkpt lat="46.87199" lon="5.79893">
        <ele>499</ele>
        <time>2012-10-11T13:04:23Z</time>
      </trkpt>
      <trkpt lat="46.8719" lon="5.79897">
        <ele>499</ele>
        <time>2012-10-11T13:04:26Z</time>
      </trkpt>
      <trkpt lat="46.87178" lon="5.79903">
        <ele>505</ele>
        <time>2012-10-11T13:04:29Z</time>
      </trkpt>
      <trkpt lat="46.87172" lon="5.79914">
        <ele>505</ele>
        <time>2012-10-11T13:04:32Z</time>
      </trkpt>
      <trkpt lat="46.87169" lon="5.79927">
        <ele>505</ele>
        <time>2012-10-11T13:04:36Z</time>
      </trkpt>
      <trkpt lat="46.87167" lon="5.79941">
        <ele>517</ele>
        <time>2012-10-11T13:04:39Z</time>
      </trkpt>
      <trkpt lat="46.87164" lon="5.79955">
        <ele>517</ele>
        <time>2012-10-11T13:04:42Z</time>
      </trkpt>
      <trkpt lat="46.87164" lon="5.79973">
        <ele>529</ele>
        <time>2012-10-11T13:04:46Z</time>
      </trkpt>
      <trkpt lat="46.87161" lon="5.79988">
        <ele>535</ele>
        <time>2012-10-11T13:04:49Z</time>
      </trkpt>
      <trkpt lat="46.87159" lon="5.80004">
        <ele>535</ele>
        <time>2012-10-11T13:04:52Z</time>
      </trkpt>
      <trkpt lat="46.87157" lon="5.80018">
        <ele>535</ele>
        <time>2012-10-11T13:04:55Z</time>
      </trkpt>
      <trkpt lat="46.87154" lon="5.80034">
        <ele>535</ele>
        <time>2012-10-11T13:04:58Z</time>
      </trkpt>
      <trkpt lat="46.87146" lon="5.80049">
        <ele>529</ele>
        <time>2012-10-11T13:05:01Z</time>
      </trkpt>
      <trkpt lat="46.87143" lon="5.80065">
        <ele>529</ele>
        <time>2012-10-11T13:05:04Z</time>
      </trkpt>
      <trkpt lat="46.87137" lon="5.80082">
        <ele>529</ele>
        <time>2012-10-11T13:05:07Z</time>
      </trkpt>
      <trkpt lat="46.87135" lon="5.80099">
        <ele>522</ele>
        <time>2012-10-11T13:05:10Z</time>
      </trkpt>
      <trkpt lat="46.87133" lon="5.80115">
        <ele>522</ele>
        <time>2012-10-11T13:05:13Z</time>
      </trkpt>
      <trkpt lat="46.87128" lon="5.80127">
        <ele>515</ele>
        <time>2012-10-11T13:05:15Z</time>
      </trkpt>
      <trkpt lat="46.87125" lon="5.80139">
        <ele>515</ele>
        <time>2012-10-11T13:05:17Z</time>
      </trkpt>
      <trkpt lat="46.87115" lon="5.80154">
        <ele>510</ele>
        <time>2012-10-11T13:05:20Z</time>
      </trkpt>
      <trkpt lat="46.87106" lon="5.80161">
        <ele>510</ele>
        <time>2012-10-11T13:05:22Z</time>
      </trkpt>
      <trkpt lat="46.87097" lon="5.80167">
        <ele>505</ele>
        <time>2012-10-11T13:05:24Z</time>
      </trkpt>
      <trkpt lat="46.87087" lon="5.80172">
        <ele>505</ele>
        <time>2012-10-11T13:05:26Z</time>
      </trkpt>
      <trkpt lat="46.87077" lon="5.8018">
        <ele>499</ele>
        <time>2012-10-11T13:05:29Z</time>
      </trkpt>
      <trkpt lat="46.87069" lon="5.80188">
        <ele>499</ele>
        <time>2012-10-11T13:05:32Z</time>
      </trkpt>
      <trkpt lat="46.87062" lon="5.80196">
        <ele>499</ele>
        <time>2012-10-11T13:05:35Z</time>
      </trkpt>
      <trkpt lat="46.87052" lon="5.80206">
        <ele>499</ele>
        <time>2012-10-11T13:05:38Z</time>
      </trkpt>
      <trkpt lat="46.87044" lon="5.80214">
        <ele>492</ele>
        <time>2012-10-11T13:05:40Z</time>
      </trkpt>
      <trkpt lat="46.87036" lon="5.80221">
        <ele>492</ele>
        <time>2012-10-11T13:05:42Z</time>
      </trkpt>
      <trkpt lat="46.87028" lon="5.80234">
        <ele>492</ele>
        <time>2012-10-11T13:05:45Z</time>
      </trkpt>
      <trkpt lat="46.87024" lon="5.80248">
        <ele>492</ele>
        <time>2012-10-11T13:05:48Z</time>
      </trkpt>
      <trkpt lat="46.87018" lon="5.80264">
        <ele>492</ele>
        <time>2012-10-11T13:05:51Z</time>
      </trkpt>
      <trkpt lat="46.87017" lon="5.8028">
        <ele>504</ele>
        <time>2012-10-11T13:05:53Z</time>
      </trkpt>
      <trkpt lat="46.87015" lon="5.80295">
        <ele>504</ele>
        <time>2012-10-11T13:05:55Z</time>
      </trkpt>
      <trkpt lat="46.87012" lon="5.80307">
        <ele>512</ele>
        <time>2012-10-11T13:05:57Z</time>
      </trkpt>
      <trkpt lat="46.8701" lon="5.8032">
        <ele>512</ele>
        <time>2012-10-11T13:05:59Z</time>
      </trkpt>
      <trkpt lat="46.87007" lon="5.80332">
        <ele>518</ele>
        <time>2012-10-11T13:06:01Z</time>
      </trkpt>
      <trkpt lat="46.87003" lon="5.80349">
        <ele>518</ele>
        <time>2012-10-11T13:06:04Z</time>
      </trkpt>
      <trkpt lat="46.86995" lon="5.80366">
        <ele>518</ele>
        <time>2012-10-11T13:06:07Z</time>
      </trkpt>
      <trkpt lat="46.86989" lon="5.80376">
        <ele>518</ele>
        <time>2012-10-11T13:06:09Z</time>
      </trkpt>
      <trkpt lat="46.86983" lon="5.80386">
        <ele>524</ele>
        <time>2012-10-11T13:06:12Z</time>
      </trkpt>
      <trkpt lat="46.86973" lon="5.80387">
        <ele>524</ele>
        <time>2012-10-11T13:06:18Z</time>
      </trkpt>
      <trkpt lat="46.86965" lon="5.80403">
        <ele>524</ele>
        <time>2012-10-11T13:06:20Z</time>
      </trkpt>
      <trkpt lat="46.86955" lon="5.8042">
        <ele>515</ele>
        <time>2012-10-11T13:06:22Z</time>
      </trkpt>
      <trkpt lat="46.86949" lon="5.80438">
        <ele>515</ele>
        <time>2012-10-11T13:06:24Z</time>
      </trkpt>
      <trkpt lat="46.86945" lon="5.80455">
        <ele>508</ele>
        <time>2012-10-11T13:06:26Z</time>
      </trkpt>
      <trkpt lat="46.8694" lon="5.80473">
        <ele>508</ele>
        <time>2012-10-11T13:06:28Z</time>
      </trkpt>
      <trkpt lat="46.86934" lon="5.80486">
        <ele>514</ele>
        <time>2012-10-11T13:06:30Z</time>
      </trkpt>
      <trkpt lat="46.86923" lon="5.80499">
        <ele>514</ele>
        <time>2012-10-11T13:06:32Z</time>
      </trkpt>
      <trkpt lat="46.86918" lon="5.80512">
        <ele>514</ele>
        <time>2012-10-11T13:06:34Z</time>
      </trkpt>
      <trkpt lat="46.86917" lon="5.80531">
        <ele>514</ele>
        <time>2012-10-11T13:06:37Z</time>
      </trkpt>
      <trkpt lat="46.86928" lon="5.80548">
        <ele>526</ele>
        <time>2012-10-11T13:06:40Z</time>
      </trkpt>
      <trkpt lat="46.86923" lon="5.8056">
        <ele>526</ele>
        <time>2012-10-11T13:06:42Z</time>
      </trkpt>
      <trkpt lat="46.86919" lon="5.80571">
        <ele>526</ele>
        <time>2012-10-11T13:06:44Z</time>
      </trkpt>
      <trkpt lat="46.86912" lon="5.80584">
        <ele>526</ele>
        <time>2012-10-11T13:06:46Z</time>
      </trkpt>
      <trkpt lat="46.86902" lon="5.80594">
        <ele>526</ele>
        <time>2012-10-11T13:06:48Z</time>
      </trkpt>
      <trkpt lat="46.86894" lon="5.80601">
        <ele>526</ele>
        <time>2012-10-11T13:06:50Z</time>
      </trkpt>
      <trkpt lat="46.86881" lon="5.80609">
        <ele>520</ele>
        <time>2012-10-11T13:06:53Z</time>
      </trkpt>
      <trkpt lat="46.86872" lon="5.80614">
        <ele>520</ele>
        <time>2012-10-11T13:06:55Z</time>
      </trkpt>
      <trkpt lat="46.86864" lon="5.80619">
        <ele>520</ele>
        <time>2012-10-11T13:06:57Z</time>
      </trkpt>
      <trkpt lat="46.86854" lon="5.8062">
        <ele>520</ele>
        <time>2012-10-11T13:06:59Z</time>
      </trkpt>
      <trkpt lat="46.86845" lon="5.80618">
        <ele>520</ele>
        <time>2012-10-11T13:07:01Z</time>
      </trkpt>
      <trkpt lat="46.86834" lon="5.80613">
        <ele>520</ele>
        <time>2012-10-11T13:07:03Z</time>
      </trkpt>
      <trkpt lat="46.86825" lon="5.80605">
        <ele>520</ele>
        <time>2012-10-11T13:07:05Z</time>
      </trkpt>
      <trkpt lat="46.86817" lon="5.80597">
        <ele>520</ele>
        <time>2012-10-11T13:07:07Z</time>
      </trkpt>
      <trkpt lat="46.8681" lon="5.80587">
        <ele>520</ele>
        <time>2012-10-11T13:07:09Z</time>
      </trkpt>
      <trkpt lat="46.86804" lon="5.80574">
        <ele>520</ele>
        <time>2012-10-11T13:07:11Z</time>
      </trkpt>
      <trkpt lat="46.86798" lon="5.80562">
        <ele>520</ele>
        <time>2012-10-11T13:07:13Z</time>
      </trkpt>
      <trkpt lat="46.8679" lon="5.80553">
        <ele>528</ele>
        <time>2012-10-11T13:07:15Z</time>
      </trkpt>
      <trkpt lat="46.86784" lon="5.80543">
        <ele>528</ele>
        <time>2012-10-11T13:07:17Z</time>
      </trkpt>
      <trkpt lat="46.86777" lon="5.80534">
        <ele>528</ele>
        <time>2012-10-11T13:07:19Z</time>
      </trkpt>
      <trkpt lat="46.8677" lon="5.80524">
        <ele>528</ele>
        <time>2012-10-11T13:07:21Z</time>
      </trkpt>
      <trkpt lat="46.86763" lon="5.80516">
        <ele>528</ele>
        <time>2012-10-11T13:07:23Z</time>
      </trkpt>
      <trkpt lat="46.86754" lon="5.80508">
        <ele>528</ele>
        <time>2012-10-11T13:07:25Z</time>
      </trkpt>
      <trkpt lat="46.86746" lon="5.80501">
        <ele>534</ele>
        <time>2012-10-11T13:07:27Z</time>
      </trkpt>
      <trkpt lat="46.86737" lon="5.80495">
        <ele>534</ele>
        <time>2012-10-11T13:07:29Z</time>
      </trkpt>
      <trkpt lat="46.86729" lon="5.8049">
        <ele>534</ele>
        <time>2012-10-11T13:07:31Z</time>
      </trkpt>
      <trkpt lat="46.8672" lon="5.80483">
        <ele>534</ele>
        <time>2012-10-11T13:07:33Z</time>
      </trkpt>
      <trkpt lat="46.86711" lon="5.80478">
        <ele>534</ele>
        <time>2012-10-11T13:07:35Z</time>
      </trkpt>
      <trkpt lat="46.86699" lon="5.80471">
        <ele>534</ele>
        <time>2012-10-11T13:07:38Z</time>
      </trkpt>
      <trkpt lat="46.86686" lon="5.80466">
        <ele>534</ele>
        <time>2012-10-11T13:07:41Z</time>
      </trkpt>
      <trkpt lat="46.86677" lon="5.80464">
        <ele>534</ele>
        <time>2012-10-11T13:07:43Z</time>
      </trkpt>
      <trkpt lat="46.86663" lon="5.80463">
        <ele>534</ele>
        <time>2012-10-11T13:07:46Z</time>
      </trkpt>
      <trkpt lat="46.86654" lon="5.80463">
        <ele>534</ele>
        <time>2012-10-11T13:07:48Z</time>
      </trkpt>
      <trkpt lat="46.86645" lon="5.80466">
        <ele>534</ele>
        <time>2012-10-11T13:07:50Z</time>
      </trkpt>
      <trkpt lat="46.86636" lon="5.80472">
        <ele>534</ele>
        <time>2012-10-11T13:07:52Z</time>
      </trkpt>
      <trkpt lat="46.86623" lon="5.80481">
        <ele>534</ele>
        <time>2012-10-11T13:07:55Z</time>
      </trkpt>
      <trkpt lat="46.86615" lon="5.80489">
        <ele>534</ele>
        <time>2012-10-11T13:07:57Z</time>
      </trkpt>
      <trkpt lat="46.86609" lon="5.80498">
        <ele>534</ele>
        <time>2012-10-11T13:07:59Z</time>
      </trkpt>
      <trkpt lat="46.86601" lon="5.80511">
        <ele>534</ele>
        <time>2012-10-11T13:08:02Z</time>
      </trkpt>
      <trkpt lat="46.86598" lon="5.80525">
        <ele>542</ele>
        <time>2012-10-11T13:08:04Z</time>
      </trkpt>
      <trkpt lat="46.86594" lon="5.80537">
        <ele>542</ele>
        <time>2012-10-11T13:08:06Z</time>
      </trkpt>
      <trkpt lat="46.86591" lon="5.80552">
        <ele>542</ele>
        <time>2012-10-11T13:08:08Z</time>
      </trkpt>
      <trkpt lat="46.86589" lon="5.80566">
        <ele>542</ele>
        <time>2012-10-11T13:08:10Z</time>
      </trkpt>
      <trkpt lat="46.86589" lon="5.80579">
        <ele>542</ele>
        <time>2012-10-11T13:08:12Z</time>
      </trkpt>
      <trkpt lat="46.86589" lon="5.80594">
        <ele>542</ele>
        <time>2012-10-11T13:08:14Z</time>
      </trkpt>
      <trkpt lat="46.8659" lon="5.80607">
        <ele>542</ele>
        <time>2012-10-11T13:08:16Z</time>
      </trkpt>
      <trkpt lat="46.86592" lon="5.80621">
        <ele>542</ele>
        <time>2012-10-11T13:08:18Z</time>
      </trkpt>
      <trkpt lat="46.86595" lon="5.80633">
        <ele>542</ele>
        <time>2012-10-11T13:08:20Z</time>
      </trkpt>
      <trkpt lat="46.86601" lon="5.80649">
        <ele>542</ele>
        <time>2012-10-11T13:08:23Z</time>
      </trkpt>
      <trkpt lat="46.86609" lon="5.8066">
        <ele>542</ele>
        <time>2012-10-11T13:08:26Z</time>
      </trkpt>
      <trkpt lat="46.86619" lon="5.80667">
        <ele>549</ele>
        <time>2012-10-11T13:08:29Z</time>
      </trkpt>
      <trkpt lat="46.86628" lon="5.80681">
        <ele>549</ele>
        <time>2012-10-11T13:08:32Z</time>
      </trkpt>
      <trkpt lat="46.86636" lon="5.80687">
        <ele>549</ele>
        <time>2012-10-11T13:08:34Z</time>
      </trkpt>
      <trkpt lat="46.86646" lon="5.80698">
        <ele>549</ele>
        <time>2012-10-11T13:08:37Z</time>
      </trkpt>
      <trkpt lat="46.86652" lon="5.80708">
        <ele>549</ele>
        <time>2012-10-11T13:08:39Z</time>
      </trkpt>
      <trkpt lat="46.86658" lon="5.80718">
        <ele>549</ele>
        <time>2012-10-11T13:08:41Z</time>
      </trkpt>
      <trkpt lat="46.86666" lon="5.80734">
        <ele>549</ele>
        <time>2012-10-11T13:08:43Z</time>
      </trkpt>
      <trkpt lat="46.86673" lon="5.80747">
        <ele>549</ele>
        <time>2012-10-11T13:08:45Z</time>
      </trkpt>
      <trkpt lat="46.86679" lon="5.80761">
        <ele>549</ele>
        <time>2012-10-11T13:08:47Z</time>
      </trkpt>
      <trkpt lat="46.86684" lon="5.80773">
        <ele>549</ele>
        <time>2012-10-11T13:08:49Z</time>
      </trkpt>
      <trkpt lat="46.86689" lon="5.80787">
        <ele>549</ele>
        <time>2012-10-11T13:08:51Z</time>
      </trkpt>
      <trkpt lat="46.86692" lon="5.808">
        <ele>549</ele>
        <time>2012-10-11T13:08:53Z</time>
      </trkpt>
      <trkpt lat="46.86697" lon="5.80815">
        <ele>549</ele>
        <time>2012-10-11T13:08:55Z</time>
      </trkpt>
      <trkpt lat="46.86702" lon="5.80829">
        <ele>544</ele>
        <time>2012-10-11T13:08:57Z</time>
      </trkpt>
      <trkpt lat="46.86705" lon="5.80845">
        <ele>544</ele>
        <time>2012-10-11T13:08:59Z</time>
      </trkpt>
      <trkpt lat="46.86707" lon="5.80862">
        <ele>544</ele>
        <time>2012-10-11T13:09:01Z</time>
      </trkpt>
      <trkpt lat="46.86708" lon="5.8088">
        <ele>544</ele>
        <time>2012-10-11T13:09:03Z</time>
      </trkpt>
      <trkpt lat="46.86709" lon="5.809">
        <ele>544</ele>
        <time>2012-10-11T13:09:05Z</time>
      </trkpt>
      <trkpt lat="46.86708" lon="5.8092">
        <ele>544</ele>
        <time>2012-10-11T13:09:07Z</time>
      </trkpt>
      <trkpt lat="46.86707" lon="5.8094">
        <ele>544</ele>
        <time>2012-10-11T13:09:09Z</time>
      </trkpt>
      <trkpt lat="46.86702" lon="5.80959">
        <ele>544</ele>
        <time>2012-10-11T13:09:11Z</time>
      </trkpt>
      <trkpt lat="46.86697" lon="5.80976">
        <ele>544</ele>
        <time>2012-10-11T13:09:13Z</time>
      </trkpt>
      <trkpt lat="46.86692" lon="5.80989">
        <ele>544</ele>
        <time>2012-10-11T13:09:15Z</time>
      </trkpt>
      <trkpt lat="46.86686" lon="5.81001">
        <ele>544</ele>
        <time>2012-10-11T13:09:18Z</time>
      </trkpt>
      <trkpt lat="46.86692" lon="5.81011">
        <ele>544</ele>
        <time>2012-10-11T13:14:50Z</time>
      </trkpt>
      <trkpt lat="46.86682" lon="5.81014">
        <ele>544</ele>
        <time>2012-10-11T13:15:11Z</time>
      </trkpt>
      <trkpt lat="46.86675" lon="5.81024">
        <ele>544</ele>
        <time>2012-10-11T13:15:15Z</time>
      </trkpt>
      <trkpt lat="46.86667" lon="5.81032">
        <ele>544</ele>
        <time>2012-10-11T13:15:19Z</time>
      </trkpt>
      <trkpt lat="46.86659" lon="5.81041">
        <ele>544</ele>
        <time>2012-10-11T13:15:22Z</time>
      </trkpt>
      <trkpt lat="46.8665" lon="5.8105">
        <ele>544</ele>
        <time>2012-10-11T13:15:25Z</time>
      </trkpt>
      <trkpt lat="46.86639" lon="5.8106">
        <ele>544</ele>
        <time>2012-10-11T13:15:28Z</time>
      </trkpt>
      <trkpt lat="46.86631" lon="5.81066">
        <ele>544</ele>
        <time>2012-10-11T13:15:30Z</time>
      </trkpt>
      <trkpt lat="46.86623" lon="5.81073">
        <ele>544</ele>
        <time>2012-10-11T13:15:32Z</time>
      </trkpt>
      <trkpt lat="46.86614" lon="5.81078">
        <ele>544</ele>
        <time>2012-10-11T13:15:34Z</time>
      </trkpt>
      <trkpt lat="46.86605" lon="5.81085">
        <ele>544</ele>
        <time>2012-10-11T13:15:36Z</time>
      </trkpt>
      <trkpt lat="46.86597" lon="5.81092">
        <ele>544</ele>
        <time>2012-10-11T13:15:38Z</time>
      </trkpt>
      <trkpt lat="46.86587" lon="5.81099">
        <ele>544</ele>
        <time>2012-10-11T13:15:40Z</time>
      </trkpt>
      <trkpt lat="46.86578" lon="5.81105">
        <ele>544</ele>
        <time>2012-10-11T13:15:42Z</time>
      </trkpt>
      <trkpt lat="46.86567" lon="5.81112">
        <ele>544</ele>
        <time>2012-10-11T13:15:44Z</time>
      </trkpt>
      <trkpt lat="46.86557" lon="5.8112">
        <ele>544</ele>
        <time>2012-10-11T13:15:46Z</time>
      </trkpt>
      <trkpt lat="46.86548" lon="5.81128">
        <ele>544</ele>
        <time>2012-10-11T13:15:48Z</time>
      </trkpt>
      <trkpt lat="46.86537" lon="5.81136">
        <ele>544</ele>
        <time>2012-10-11T13:15:50Z</time>
      </trkpt>
      <trkpt lat="46.86527" lon="5.81144">
        <ele>544</ele>
        <time>2012-10-11T13:15:52Z</time>
      </trkpt>
      <trkpt lat="46.86517" lon="5.81153">
        <ele>544</ele>
        <time>2012-10-11T13:15:54Z</time>
      </trkpt>
      <trkpt lat="46.86506" lon="5.81162">
        <ele>544</ele>
        <time>2012-10-11T13:15:56Z</time>
      </trkpt>
      <trkpt lat="46.86496" lon="5.8117">
        <ele>544</ele>
        <time>2012-10-11T13:15:58Z</time>
      </trkpt>
      <trkpt lat="46.86487" lon="5.81178">
        <ele>544</ele>
        <time>2012-10-11T13:16:00Z</time>
      </trkpt>
      <trkpt lat="46.86476" lon="5.81186">
        <ele>544</ele>
        <time>2012-10-11T13:16:02Z</time>
      </trkpt>
      <trkpt lat="46.86466" lon="5.81194">
        <ele>544</ele>
        <time>2012-10-11T13:16:04Z</time>
      </trkpt>
      <trkpt lat="46.86456" lon="5.81202">
        <ele>544</ele>
        <time>2012-10-11T13:16:06Z</time>
      </trkpt>
      <trkpt lat="46.86447" lon="5.81209">
        <ele>544</ele>
        <time>2012-10-11T13:16:08Z</time>
      </trkpt>
      <trkpt lat="46.86436" lon="5.81217">
        <ele>544</ele>
        <time>2012-10-11T13:16:10Z</time>
      </trkpt>
      <trkpt lat="46.86426" lon="5.81225">
        <ele>544</ele>
        <time>2012-10-11T13:16:12Z</time>
      </trkpt>
      <trkpt lat="46.86416" lon="5.81232">
        <ele>544</ele>
        <time>2012-10-11T13:16:14Z</time>
      </trkpt>
      <trkpt lat="46.86407" lon="5.8124">
        <ele>544</ele>
        <time>2012-10-11T13:16:16Z</time>
      </trkpt>
      <trkpt lat="46.86398" lon="5.81248">
        <ele>544</ele>
        <time>2012-10-11T13:16:18Z</time>
      </trkpt>
      <trkpt lat="46.86387" lon="5.81256">
        <ele>544</ele>
        <time>2012-10-11T13:16:20Z</time>
      </trkpt>
      <trkpt lat="46.86377" lon="5.81264">
        <ele>544</ele>
        <time>2012-10-11T13:16:22Z</time>
      </trkpt>
      <trkpt lat="46.86367" lon="5.81272">
        <ele>544</ele>
        <time>2012-10-11T13:16:24Z</time>
      </trkpt>
      <trkpt lat="46.86357" lon="5.81281">
        <ele>544</ele>
        <time>2012-10-11T13:16:26Z</time>
      </trkpt>
      <trkpt lat="46.86347" lon="5.81289">
        <ele>544</ele>
        <time>2012-10-11T13:16:28Z</time>
      </trkpt>
      <trkpt lat="46.86336" lon="5.81297">
        <ele>544</ele>
        <time>2012-10-11T13:16:30Z</time>
      </trkpt>
      <trkpt lat="46.86326" lon="5.81305">
        <ele>544</ele>
        <time>2012-10-11T13:16:32Z</time>
      </trkpt>
      <trkpt lat="46.86315" lon="5.81312">
        <ele>544</ele>
        <time>2012-10-11T13:16:34Z</time>
      </trkpt>
      <trkpt lat="46.86305" lon="5.8132">
        <ele>544</ele>
        <time>2012-10-11T13:16:36Z</time>
      </trkpt>
      <trkpt lat="46.86293" lon="5.81326">
        <ele>544</ele>
        <time>2012-10-11T13:16:38Z</time>
      </trkpt>
      <trkpt lat="46.86282" lon="5.81331">
        <ele>544</ele>
        <time>2012-10-11T13:16:40Z</time>
      </trkpt>
      <trkpt lat="46.8627" lon="5.81335">
        <ele>544</ele>
        <time>2012-10-11T13:16:42Z</time>
      </trkpt>
      <trkpt lat="46.86258" lon="5.81338">
        <ele>544</ele>
        <time>2012-10-11T13:16:44Z</time>
      </trkpt>
      <trkpt lat="46.86246" lon="5.8134">
        <ele>544</ele>
        <time>2012-10-11T13:16:46Z</time>
      </trkpt>
      <trkpt lat="46.86233" lon="5.81343">
        <ele>544</ele>
        <time>2012-10-11T13:16:48Z</time>
      </trkpt>
      <trkpt lat="46.86221" lon="5.81346">
        <ele>544</ele>
        <time>2012-10-11T13:16:50Z</time>
      </trkpt>
      <trkpt lat="46.86209" lon="5.81348">
        <ele>544</ele>
        <time>2012-10-11T13:16:52Z</time>
      </trkpt>
      <trkpt lat="46.86196" lon="5.81352">
        <ele>544</ele>
        <time>2012-10-11T13:16:54Z</time>
      </trkpt>
      <trkpt lat="46.86184" lon="5.81356">
        <ele>544</ele>
        <time>2012-10-11T13:16:56Z</time>
      </trkpt>
      <trkpt lat="46.86171" lon="5.81358">
        <ele>544</ele>
        <time>2012-10-11T13:16:58Z</time>
      </trkpt>
      <trkpt lat="46.86159" lon="5.81362">
        <ele>544</ele>
        <time>2012-10-11T13:17:00Z</time>
      </trkpt>
      <trkpt lat="46.86146" lon="5.81365">
        <ele>544</ele>
        <time>2012-10-11T13:17:02Z</time>
      </trkpt>
      <trkpt lat="46.86135" lon="5.81369">
        <ele>544</ele>
        <time>2012-10-11T13:17:04Z</time>
      </trkpt>
      <trkpt lat="46.86122" lon="5.81372">
        <ele>544</ele>
        <time>2012-10-11T13:17:06Z</time>
      </trkpt>
      <trkpt lat="46.8611" lon="5.81374">
        <ele>544</ele>
        <time>2012-10-11T13:17:08Z</time>
      </trkpt>
      <trkpt lat="46.86098" lon="5.81378">
        <ele>544</ele>
        <time>2012-10-11T13:17:10Z</time>
      </trkpt>
      <trkpt lat="46.86085" lon="5.81381">
        <ele>544</ele>
        <time>2012-10-11T13:17:12Z</time>
      </trkpt>
      <trkpt lat="46.86073" lon="5.81384">
        <ele>544</ele>
        <time>2012-10-11T13:17:14Z</time>
      </trkpt>
      <trkpt lat="46.86061" lon="5.81388">
        <ele>544</ele>
        <time>2012-10-11T13:17:16Z</time>
      </trkpt>
      <trkpt lat="46.86048" lon="5.81391">
        <ele>544</ele>
        <time>2012-10-11T13:17:18Z</time>
      </trkpt>
      <trkpt lat="46.86036" lon="5.81394">
        <ele>544</ele>
        <time>2012-10-11T13:17:20Z</time>
      </trkpt>
      <trkpt lat="46.86023" lon="5.81398">
        <ele>544</ele>
        <time>2012-10-11T13:17:22Z</time>
      </trkpt>
      <trkpt lat="46.8601" lon="5.81401">
        <ele>544</ele>
        <time>2012-10-11T13:17:24Z</time>
      </trkpt>
      <trkpt lat="46.85997" lon="5.81406">
        <ele>544</ele>
        <time>2012-10-11T13:17:26Z</time>
      </trkpt>
      <trkpt lat="46.85984" lon="5.81409">
        <ele>544</ele>
        <time>2012-10-11T13:17:28Z</time>
      </trkpt>
      <trkpt lat="46.8597" lon="5.81411">
        <ele>544</ele>
        <time>2012-10-11T13:17:30Z</time>
      </trkpt>
      <trkpt lat="46.85955" lon="5.81415">
        <ele>544</ele>
        <time>2012-10-11T13:17:32Z</time>
      </trkpt>
      <trkpt lat="46.85941" lon="5.81419">
        <ele>544</ele>
        <time>2012-10-11T13:17:34Z</time>
      </trkpt>
      <trkpt lat="46.85927" lon="5.81423">
        <ele>544</ele>
        <time>2012-10-11T13:17:36Z</time>
      </trkpt>
      <trkpt lat="46.85912" lon="5.81427">
        <ele>544</ele>
        <time>2012-10-11T13:17:38Z</time>
      </trkpt>
      <trkpt lat="46.85898" lon="5.8143">
        <ele>544</ele>
        <time>2012-10-11T13:17:40Z</time>
      </trkpt>
      <trkpt lat="46.85883" lon="5.81435">
        <ele>544</ele>
        <time>2012-10-11T13:17:42Z</time>
      </trkpt>
      <trkpt lat="46.85868" lon="5.81438">
        <ele>544</ele>
        <time>2012-10-11T13:17:44Z</time>
      </trkpt>
      <trkpt lat="46.85853" lon="5.81442">
        <ele>544</ele>
        <time>2012-10-11T13:17:46Z</time>
      </trkpt>
      <trkpt lat="46.85838" lon="5.81446">
        <ele>544</ele>
        <time>2012-10-11T13:17:48Z</time>
      </trkpt>
      <trkpt lat="46.85824" lon="5.8145">
        <ele>544</ele>
        <time>2012-10-11T13:17:50Z</time>
      </trkpt>
      <trkpt lat="46.85809" lon="5.81453">
        <ele>544</ele>
        <time>2012-10-11T13:17:52Z</time>
      </trkpt>
      <trkpt lat="46.85795" lon="5.81457">
        <ele>544</ele>
        <time>2012-10-11T13:17:54Z</time>
      </trkpt>
      <trkpt lat="46.85781" lon="5.81461">
        <ele>544</ele>
        <time>2012-10-11T13:17:56Z</time>
      </trkpt>
      <trkpt lat="46.85767" lon="5.81463">
        <ele>544</ele>
        <time>2012-10-11T13:17:58Z</time>
      </trkpt>
      <trkpt lat="46.85753" lon="5.81467">
        <ele>544</ele>
        <time>2012-10-11T13:18:00Z</time>
      </trkpt>
      <trkpt lat="46.8574" lon="5.81471">
        <ele>544</ele>
        <time>2012-10-11T13:18:02Z</time>
      </trkpt>
      <trkpt lat="46.85727" lon="5.81475">
        <ele>544</ele>
        <time>2012-10-11T13:18:04Z</time>
      </trkpt>
      <trkpt lat="46.85714" lon="5.8148">
        <ele>544</ele>
        <time>2012-10-11T13:18:06Z</time>
      </trkpt>
      <trkpt lat="46.85702" lon="5.81486">
        <ele>544</ele>
        <time>2012-10-11T13:18:08Z</time>
      </trkpt>
      <trkpt lat="46.85689" lon="5.81491">
        <ele>544</ele>
        <time>2012-10-11T13:18:10Z</time>
      </trkpt>
      <trkpt lat="46.85676" lon="5.81497">
        <ele>544</ele>
        <time>2012-10-11T13:18:12Z</time>
      </trkpt>
      <trkpt lat="46.85663" lon="5.81502">
        <ele>544</ele>
        <time>2012-10-11T13:18:14Z</time>
      </trkpt>
      <trkpt lat="46.8565" lon="5.81507">
        <ele>544</ele>
        <time>2012-10-11T13:18:16Z</time>
      </trkpt>
      <trkpt lat="46.85637" lon="5.81513">
        <ele>544</ele>
        <time>2012-10-11T13:18:18Z</time>
      </trkpt>
      <trkpt lat="46.85624" lon="5.81517">
        <ele>544</ele>
        <time>2012-10-11T13:18:20Z</time>
      </trkpt>
      <trkpt lat="46.85611" lon="5.81523">
        <ele>544</ele>
        <time>2012-10-11T13:18:22Z</time>
      </trkpt>
      <trkpt lat="46.85598" lon="5.81528">
        <ele>544</ele>
        <time>2012-10-11T13:18:24Z</time>
      </trkpt>
      <trkpt lat="46.85585" lon="5.81533">
        <ele>544</ele>
        <time>2012-10-11T13:18:26Z</time>
      </trkpt>
      <trkpt lat="46.85573" lon="5.81539">
        <ele>544</ele>
        <time>2012-10-11T13:18:28Z</time>
      </trkpt>
      <trkpt lat="46.8556" lon="5.81545">
        <ele>544</ele>
        <time>2012-10-11T13:18:30Z</time>
      </trkpt>
      <trkpt lat="46.85548" lon="5.81549">
        <ele>544</ele>
        <time>2012-10-11T13:18:32Z</time>
      </trkpt>
      <trkpt lat="46.85536" lon="5.81554">
        <ele>544</ele>
        <time>2012-10-11T13:18:34Z</time>
      </trkpt>
      <trkpt lat="46.85523" lon="5.81559">
        <ele>544</ele>
        <time>2012-10-11T13:18:36Z</time>
      </trkpt>
      <trkpt lat="46.85511" lon="5.81564">
        <ele>544</ele>
        <time>2012-10-11T13:18:38Z</time>
      </trkpt>
      <trkpt lat="46.85498" lon="5.81568">
        <ele>544</ele>
        <time>2012-10-11T13:18:40Z</time>
      </trkpt>
      <trkpt lat="46.85485" lon="5.81574">
        <ele>544</ele>
        <time>2012-10-11T13:18:42Z</time>
      </trkpt>
      <trkpt lat="46.85473" lon="5.81578">
        <ele>544</ele>
        <time>2012-10-11T13:18:44Z</time>
      </trkpt>
      <trkpt lat="46.8546" lon="5.81584">
        <ele>544</ele>
        <time>2012-10-11T13:18:46Z</time>
      </trkpt>
      <trkpt lat="46.85448" lon="5.81589">
        <ele>544</ele>
        <time>2012-10-11T13:18:48Z</time>
      </trkpt>
      <trkpt lat="46.85435" lon="5.81594">
        <ele>544</ele>
        <time>2012-10-11T13:18:50Z</time>
      </trkpt>
      <trkpt lat="46.85423" lon="5.81599">
        <ele>549</ele>
        <time>2012-10-11T13:18:52Z</time>
      </trkpt>
      <trkpt lat="46.85411" lon="5.81604">
        <ele>549</ele>
        <time>2012-10-11T13:18:54Z</time>
      </trkpt>
      <trkpt lat="46.85398" lon="5.8161">
        <ele>549</ele>
        <time>2012-10-11T13:18:56Z</time>
      </trkpt>
      <trkpt lat="46.85385" lon="5.81614">
        <ele>549</ele>
        <time>2012-10-11T13:18:58Z</time>
      </trkpt>
      <trkpt lat="46.85372" lon="5.8162">
        <ele>549</ele>
        <time>2012-10-11T13:19:00Z</time>
      </trkpt>
      <trkpt lat="46.8536" lon="5.81625">
        <ele>549</ele>
        <time>2012-10-11T13:19:02Z</time>
      </trkpt>
      <trkpt lat="46.85347" lon="5.8163">
        <ele>549</ele>
        <time>2012-10-11T13:19:04Z</time>
      </trkpt>
      <trkpt lat="46.85334" lon="5.81635">
        <ele>549</ele>
        <time>2012-10-11T13:19:06Z</time>
      </trkpt>
      <trkpt lat="46.8532" lon="5.8164">
        <ele>549</ele>
        <time>2012-10-11T13:19:08Z</time>
      </trkpt>
      <trkpt lat="46.85307" lon="5.81646">
        <ele>549</ele>
        <time>2012-10-11T13:19:10Z</time>
      </trkpt>
      <trkpt lat="46.85295" lon="5.8165">
        <ele>549</ele>
        <time>2012-10-11T13:19:12Z</time>
      </trkpt>
      <trkpt lat="46.85282" lon="5.81655">
        <ele>549</ele>
        <time>2012-10-11T13:19:14Z</time>
      </trkpt>
      <trkpt lat="46.8527" lon="5.81659">
        <ele>549</ele>
        <time>2012-10-11T13:19:16Z</time>
      </trkpt>
      <trkpt lat="46.85258" lon="5.81665">
        <ele>549</ele>
        <time>2012-10-11T13:19:18Z</time>
      </trkpt>
      <trkpt lat="46.85246" lon="5.8167">
        <ele>549</ele>
        <time>2012-10-11T13:19:20Z</time>
      </trkpt>
      <trkpt lat="46.85234" lon="5.81676">
        <ele>549</ele>
        <time>2012-10-11T13:19:22Z</time>
      </trkpt>
      <trkpt lat="46.85224" lon="5.81683">
        <ele>549</ele>
        <time>2012-10-11T13:19:24Z</time>
      </trkpt>
      <trkpt lat="46.85213" lon="5.81688">
        <ele>549</ele>
        <time>2012-10-11T13:19:26Z</time>
      </trkpt>
      <trkpt lat="46.85202" lon="5.81695">
        <ele>549</ele>
        <time>2012-10-11T13:19:28Z</time>
      </trkpt>
      <trkpt lat="46.85193" lon="5.81701">
        <ele>549</ele>
        <time>2012-10-11T13:19:30Z</time>
      </trkpt>
      <trkpt lat="46.85182" lon="5.81708">
        <ele>549</ele>
        <time>2012-10-11T13:19:32Z</time>
      </trkpt>
      <trkpt lat="46.85172" lon="5.81715">
        <ele>549</ele>
        <time>2012-10-11T13:19:34Z</time>
      </trkpt>
      <trkpt lat="46.85162" lon="5.81722">
        <ele>555</ele>
        <time>2012-10-11T13:19:36Z</time>
      </trkpt>
      <trkpt lat="46.85151" lon="5.81727">
        <ele>555</ele>
        <time>2012-10-11T13:19:38Z</time>
      </trkpt>
      <trkpt lat="46.85141" lon="5.81732">
        <ele>555</ele>
        <time>2012-10-11T13:19:40Z</time>
      </trkpt>
      <trkpt lat="46.85129" lon="5.81733">
        <ele>555</ele>
        <time>2012-10-11T13:19:42Z</time>
      </trkpt>
      <trkpt lat="46.85118" lon="5.81733">
        <ele>555</ele>
        <time>2012-10-11T13:19:44Z</time>
      </trkpt>
      <trkpt lat="46.85107" lon="5.81732">
        <ele>555</ele>
        <time>2012-10-11T13:19:46Z</time>
      </trkpt>
      <trkpt lat="46.85096" lon="5.8173">
        <ele>555</ele>
        <time>2012-10-11T13:19:48Z</time>
      </trkpt>
      <trkpt lat="46.85085" lon="5.81727">
        <ele>555</ele>
        <time>2012-10-11T13:19:50Z</time>
      </trkpt>
      <trkpt lat="46.85075" lon="5.81723">
        <ele>555</ele>
        <time>2012-10-11T13:19:52Z</time>
      </trkpt>
      <trkpt lat="46.85064" lon="5.81719">
        <ele>555</ele>
        <time>2012-10-11T13:19:54Z</time>
      </trkpt>
      <trkpt lat="46.85054" lon="5.81716">
        <ele>555</ele>
        <time>2012-10-11T13:19:56Z</time>
      </trkpt>
      <trkpt lat="46.85043" lon="5.81712">
        <ele>555</ele>
        <time>2012-10-11T13:19:58Z</time>
      </trkpt>
      <trkpt lat="46.85032" lon="5.8171">
        <ele>555</ele>
        <time>2012-10-11T13:20:00Z</time>
      </trkpt>
      <trkpt lat="46.85022" lon="5.81708">
        <ele>555</ele>
        <time>2012-10-11T13:20:02Z</time>
      </trkpt>
      <trkpt lat="46.85011" lon="5.81707">
        <ele>555</ele>
        <time>2012-10-11T13:20:04Z</time>
      </trkpt>
      <trkpt lat="46.85001" lon="5.81706">
        <ele>555</ele>
        <time>2012-10-11T13:20:06Z</time>
      </trkpt>
      <trkpt lat="46.8499" lon="5.81705">
        <ele>555</ele>
        <time>2012-10-11T13:20:08Z</time>
      </trkpt>
      <trkpt lat="46.8498" lon="5.81704">
        <ele>555</ele>
        <time>2012-10-11T13:20:10Z</time>
      </trkpt>
      <trkpt lat="46.84969" lon="5.81704">
        <ele>555</ele>
        <time>2012-10-11T13:20:12Z</time>
      </trkpt>
      <trkpt lat="46.84959" lon="5.81704">
        <ele>555</ele>
        <time>2012-10-11T13:20:14Z</time>
      </trkpt>
      <trkpt lat="46.84948" lon="5.81705">
        <ele>555</ele>
        <time>2012-10-11T13:20:16Z</time>
      </trkpt>
      <trkpt lat="46.84938" lon="5.81706">
        <ele>555</ele>
        <time>2012-10-11T13:20:18Z</time>
      </trkpt>
      <trkpt lat="46.84927" lon="5.81706">
        <ele>555</ele>
        <time>2012-10-11T13:20:20Z</time>
      </trkpt>
      <trkpt lat="46.84916" lon="5.81706">
        <ele>555</ele>
        <time>2012-10-11T13:20:22Z</time>
      </trkpt>
      <trkpt lat="46.84905" lon="5.81706">
        <ele>555</ele>
        <time>2012-10-11T13:20:24Z</time>
      </trkpt>
      <trkpt lat="46.84894" lon="5.81706">
        <ele>555</ele>
        <time>2012-10-11T13:20:26Z</time>
      </trkpt>
      <trkpt lat="46.84884" lon="5.81706">
        <ele>555</ele>
        <time>2012-10-11T13:20:28Z</time>
      </trkpt>
      <trkpt lat="46.84874" lon="5.81706">
        <ele>555</ele>
        <time>2012-10-11T13:20:30Z</time>
      </trkpt>
      <trkpt lat="46.84863" lon="5.81706">
        <ele>560</ele>
        <time>2012-10-11T13:20:32Z</time>
      </trkpt>
      <trkpt lat="46.84854" lon="5.81706">
        <ele>560</ele>
        <time>2012-10-11T13:20:34Z</time>
      </trkpt>
      <trkpt lat="46.84843" lon="5.81707">
        <ele>560</ele>
        <time>2012-10-11T13:20:36Z</time>
      </trkpt>
      <trkpt lat="46.84833" lon="5.81707">
        <ele>560</ele>
        <time>2012-10-11T13:20:38Z</time>
      </trkpt>
      <trkpt lat="46.84822" lon="5.81707">
        <ele>560</ele>
        <time>2012-10-11T13:20:40Z</time>
      </trkpt>
      <trkpt lat="46.84812" lon="5.81708">
        <ele>560</ele>
        <time>2012-10-11T13:20:42Z</time>
      </trkpt>
      <trkpt lat="46.84803" lon="5.81708">
        <ele>560</ele>
        <time>2012-10-11T13:20:44Z</time>
      </trkpt>
      <trkpt lat="46.84794" lon="5.81708">
        <ele>560</ele>
        <time>2012-10-11T13:20:46Z</time>
      </trkpt>
      <trkpt lat="46.84784" lon="5.81709">
        <ele>566</ele>
        <time>2012-10-11T13:20:48Z</time>
      </trkpt>
      <trkpt lat="46.84771" lon="5.81709">
        <ele>566</ele>
        <time>2012-10-11T13:20:51Z</time>
      </trkpt>
      <trkpt lat="46.84762" lon="5.8171">
        <ele>566</ele>
        <time>2012-10-11T13:20:53Z</time>
      </trkpt>
      <trkpt lat="46.84748" lon="5.8171">
        <ele>566</ele>
        <time>2012-10-11T13:20:56Z</time>
      </trkpt>
      <trkpt lat="46.84739" lon="5.8171">
        <ele>566</ele>
        <time>2012-10-11T13:20:58Z</time>
      </trkpt>
      <trkpt lat="46.8473" lon="5.81709">
        <ele>566</ele>
        <time>2012-10-11T13:21:00Z</time>
      </trkpt>
      <trkpt lat="46.8472" lon="5.81709">
        <ele>566</ele>
        <time>2012-10-11T13:21:02Z</time>
      </trkpt>
      <trkpt lat="46.84711" lon="5.81709">
        <ele>566</ele>
        <time>2012-10-11T13:21:04Z</time>
      </trkpt>
      <trkpt lat="46.84698" lon="5.81709">
        <ele>566</ele>
        <time>2012-10-11T13:21:07Z</time>
      </trkpt>
      <trkpt lat="46.84689" lon="5.81709">
        <ele>566</ele>
        <time>2012-10-11T13:21:09Z</time>
      </trkpt>
      <trkpt lat="46.84679" lon="5.81709">
        <ele>566</ele>
        <time>2012-10-11T13:21:11Z</time>
      </trkpt>
      <trkpt lat="46.84667" lon="5.8171">
        <ele>566</ele>
        <time>2012-10-11T13:21:14Z</time>
      </trkpt>
      <trkpt lat="46.84654" lon="5.81711">
        <ele>566</ele>
        <time>2012-10-11T13:21:17Z</time>
      </trkpt>
      <trkpt lat="46.84641" lon="5.81713">
        <ele>572</ele>
        <time>2012-10-11T13:21:20Z</time>
      </trkpt>
      <trkpt lat="46.84632" lon="5.81713">
        <ele>572</ele>
        <time>2012-10-11T13:21:22Z</time>
      </trkpt>
      <trkpt lat="46.84622" lon="5.81713">
        <ele>572</ele>
        <time>2012-10-11T13:21:24Z</time>
      </trkpt>
      <trkpt lat="46.84609" lon="5.81713">
        <ele>572</ele>
        <time>2012-10-11T13:21:27Z</time>
      </trkpt>
      <trkpt lat="46.84597" lon="5.81714">
        <ele>572</ele>
        <time>2012-10-11T13:21:30Z</time>
      </trkpt>
      <trkpt lat="46.84584" lon="5.81714">
        <ele>572</ele>
        <time>2012-10-11T13:21:33Z</time>
      </trkpt>
      <trkpt lat="46.84572" lon="5.81714">
        <ele>572</ele>
        <time>2012-10-11T13:21:36Z</time>
      </trkpt>
      <trkpt lat="46.84563" lon="5.81714">
        <ele>572</ele>
        <time>2012-10-11T13:21:38Z</time>
      </trkpt>
      <trkpt lat="46.84553" lon="5.81716">
        <ele>572</ele>
        <time>2012-10-11T13:21:40Z</time>
      </trkpt>
      <trkpt lat="46.8454" lon="5.81718">
        <ele>572</ele>
        <time>2012-10-11T13:21:43Z</time>
      </trkpt>
      <trkpt lat="46.84527" lon="5.81718">
        <ele>572</ele>
        <time>2012-10-11T13:21:46Z</time>
      </trkpt>
      <trkpt lat="46.84513" lon="5.8172">
        <ele>577</ele>
        <time>2012-10-11T13:21:49Z</time>
      </trkpt>
      <trkpt lat="46.84504" lon="5.81722">
        <ele>577</ele>
        <time>2012-10-11T13:21:51Z</time>
      </trkpt>
      <trkpt lat="46.84495" lon="5.81723">
        <ele>577</ele>
        <time>2012-10-11T13:21:53Z</time>
      </trkpt>
      <trkpt lat="46.84482" lon="5.81724">
        <ele>577</ele>
        <time>2012-10-11T13:21:56Z</time>
      </trkpt>
      <trkpt lat="46.84469" lon="5.81727">
        <ele>577</ele>
        <time>2012-10-11T13:21:59Z</time>
      </trkpt>
      <trkpt lat="46.84457" lon="5.81733">
        <ele>577</ele>
        <time>2012-10-11T13:22:02Z</time>
      </trkpt>
      <trkpt lat="46.84449" lon="5.81736">
        <ele>577</ele>
        <time>2012-10-11T13:22:04Z</time>
      </trkpt>
      <trkpt lat="46.84436" lon="5.81743">
        <ele>577</ele>
        <time>2012-10-11T13:22:07Z</time>
      </trkpt>
      <trkpt lat="46.84428" lon="5.81748">
        <ele>584</ele>
        <time>2012-10-11T13:22:09Z</time>
      </trkpt>
      <trkpt lat="46.8442" lon="5.81754">
        <ele>584</ele>
        <time>2012-10-11T13:22:11Z</time>
      </trkpt>
      <trkpt lat="46.84412" lon="5.81763">
        <ele>584</ele>
        <time>2012-10-11T13:22:13Z</time>
      </trkpt>
      <trkpt lat="46.84403" lon="5.81768">
        <ele>584</ele>
        <time>2012-10-11T13:22:15Z</time>
      </trkpt>
      <trkpt lat="46.84394" lon="5.81774">
        <ele>584</ele>
        <time>2012-10-11T13:22:17Z</time>
      </trkpt>
      <trkpt lat="46.84386" lon="5.81782">
        <ele>584</ele>
        <time>2012-10-11T13:22:19Z</time>
      </trkpt>
      <trkpt lat="46.84377" lon="5.81789">
        <ele>590</ele>
        <time>2012-10-11T13:22:21Z</time>
      </trkpt>
      <trkpt lat="46.84368" lon="5.81797">
        <ele>590</ele>
        <time>2012-10-11T13:22:23Z</time>
      </trkpt>
      <trkpt lat="46.84359" lon="5.81805">
        <ele>590</ele>
        <time>2012-10-11T13:22:25Z</time>
      </trkpt>
      <trkpt lat="46.84351" lon="5.81813">
        <ele>590</ele>
        <time>2012-10-11T13:22:27Z</time>
      </trkpt>
      <trkpt lat="46.84343" lon="5.81821">
        <ele>590</ele>
        <time>2012-10-11T13:22:29Z</time>
      </trkpt>
      <trkpt lat="46.84335" lon="5.81828">
        <ele>590</ele>
        <time>2012-10-11T13:22:31Z</time>
      </trkpt>
      <trkpt lat="46.84326" lon="5.81835">
        <ele>590</ele>
        <time>2012-10-11T13:22:33Z</time>
      </trkpt>
      <trkpt lat="46.84317" lon="5.81841">
        <ele>590</ele>
        <time>2012-10-11T13:22:35Z</time>
      </trkpt>
      <trkpt lat="46.84308" lon="5.81847">
        <ele>590</ele>
        <time>2012-10-11T13:22:37Z</time>
      </trkpt>
      <trkpt lat="46.84299" lon="5.81851">
        <ele>590</ele>
        <time>2012-10-11T13:22:39Z</time>
      </trkpt>
      <trkpt lat="46.84289" lon="5.81856">
        <ele>590</ele>
        <time>2012-10-11T13:22:41Z</time>
      </trkpt>
      <trkpt lat="46.84278" lon="5.8186">
        <ele>590</ele>
        <time>2012-10-11T13:22:43Z</time>
      </trkpt>
      <trkpt lat="46.84268" lon="5.81862">
        <ele>590</ele>
        <time>2012-10-11T13:22:45Z</time>
      </trkpt>
      <trkpt lat="46.84257" lon="5.81864">
        <ele>590</ele>
        <time>2012-10-11T13:22:47Z</time>
      </trkpt>
      <trkpt lat="46.84248" lon="5.81866">
        <ele>590</ele>
        <time>2012-10-11T13:22:49Z</time>
      </trkpt>
      <trkpt lat="46.84238" lon="5.81869">
        <ele>590</ele>
        <time>2012-10-11T13:22:51Z</time>
      </trkpt>
      <trkpt lat="46.84229" lon="5.81871">
        <ele>590</ele>
        <time>2012-10-11T13:22:53Z</time>
      </trkpt>
      <trkpt lat="46.84219" lon="5.81875">
        <ele>590</ele>
        <time>2012-10-11T13:22:55Z</time>
      </trkpt>
      <trkpt lat="46.84206" lon="5.81877">
        <ele>590</ele>
        <time>2012-10-11T13:22:58Z</time>
      </trkpt>
      <trkpt lat="46.84196" lon="5.8188">
        <ele>590</ele>
        <time>2012-10-11T13:23:00Z</time>
      </trkpt>
      <trkpt lat="46.84185" lon="5.81884">
        <ele>590</ele>
        <time>2012-10-11T13:23:02Z</time>
      </trkpt>
      <trkpt lat="46.84175" lon="5.81886">
        <ele>590</ele>
        <time>2012-10-11T13:23:04Z</time>
      </trkpt>
      <trkpt lat="46.84164" lon="5.81888">
        <ele>590</ele>
        <time>2012-10-11T13:23:06Z</time>
      </trkpt>
      <trkpt lat="46.84153" lon="5.81891">
        <ele>590</ele>
        <time>2012-10-11T13:23:08Z</time>
      </trkpt>
      <trkpt lat="46.84142" lon="5.81895">
        <ele>590</ele>
        <time>2012-10-11T13:23:10Z</time>
      </trkpt>
      <trkpt lat="46.84132" lon="5.81897">
        <ele>590</ele>
        <time>2012-10-11T13:23:12Z</time>
      </trkpt>
      <trkpt lat="46.8412" lon="5.819">
        <ele>590</ele>
        <time>2012-10-11T13:23:14Z</time>
      </trkpt>
      <trkpt lat="46.84109" lon="5.81903">
        <ele>590</ele>
        <time>2012-10-11T13:23:16Z</time>
      </trkpt>
      <trkpt lat="46.84098" lon="5.81907">
        <ele>590</ele>
        <time>2012-10-11T13:23:18Z</time>
      </trkpt>
      <trkpt lat="46.84087" lon="5.8191">
        <ele>585</ele>
        <time>2012-10-11T13:23:20Z</time>
      </trkpt>
      <trkpt lat="46.84074" lon="5.81913">
        <ele>585</ele>
        <time>2012-10-11T13:23:22Z</time>
      </trkpt>
      <trkpt lat="46.84062" lon="5.81917">
        <ele>585</ele>
        <time>2012-10-11T13:23:24Z</time>
      </trkpt>
      <trkpt lat="46.84049" lon="5.8192">
        <ele>585</ele>
        <time>2012-10-11T13:23:26Z</time>
      </trkpt>
      <trkpt lat="46.84036" lon="5.81922">
        <ele>585</ele>
        <time>2012-10-11T13:23:28Z</time>
      </trkpt>
      <trkpt lat="46.84024" lon="5.81926">
        <ele>585</ele>
        <time>2012-10-11T13:23:30Z</time>
      </trkpt>
      <trkpt lat="46.84011" lon="5.81929">
        <ele>585</ele>
        <time>2012-10-11T13:23:32Z</time>
      </trkpt>
      <trkpt lat="46.83997" lon="5.81931">
        <ele>580</ele>
        <time>2012-10-11T13:23:34Z</time>
      </trkpt>
      <trkpt lat="46.83984" lon="5.81935">
        <ele>580</ele>
        <time>2012-10-11T13:23:36Z</time>
      </trkpt>
      <trkpt lat="46.83971" lon="5.81939">
        <ele>580</ele>
        <time>2012-10-11T13:23:38Z</time>
      </trkpt>
      <trkpt lat="46.83959" lon="5.81941">
        <ele>580</ele>
        <time>2012-10-11T13:23:40Z</time>
      </trkpt>
      <trkpt lat="46.83946" lon="5.81945">
        <ele>580</ele>
        <time>2012-10-11T13:23:42Z</time>
      </trkpt>
      <trkpt lat="46.83934" lon="5.81948">
        <ele>580</ele>
        <time>2012-10-11T13:23:44Z</time>
      </trkpt>
      <trkpt lat="46.83922" lon="5.81953">
        <ele>580</ele>
        <time>2012-10-11T13:23:46Z</time>
      </trkpt>
      <trkpt lat="46.8391" lon="5.81956">
        <ele>580</ele>
        <time>2012-10-11T13:23:48Z</time>
      </trkpt>
      <trkpt lat="46.83898" lon="5.81958">
        <ele>580</ele>
        <time>2012-10-11T13:23:50Z</time>
      </trkpt>
      <trkpt lat="46.83885" lon="5.81961">
        <ele>580</ele>
        <time>2012-10-11T13:23:52Z</time>
      </trkpt>
      <trkpt lat="46.83874" lon="5.81964">
        <ele>580</ele>
        <time>2012-10-11T13:23:54Z</time>
      </trkpt>
      <trkpt lat="46.83863" lon="5.81967">
        <ele>580</ele>
        <time>2012-10-11T13:23:56Z</time>
      </trkpt>
      <trkpt lat="46.83851" lon="5.8197">
        <ele>580</ele>
        <time>2012-10-11T13:23:58Z</time>
      </trkpt>
      <trkpt lat="46.8384" lon="5.81973">
        <ele>580</ele>
        <time>2012-10-11T13:24:00Z</time>
      </trkpt>
      <trkpt lat="46.83829" lon="5.81975">
        <ele>580</ele>
        <time>2012-10-11T13:24:02Z</time>
      </trkpt>
      <trkpt lat="46.83817" lon="5.81979">
        <ele>580</ele>
        <time>2012-10-11T13:24:04Z</time>
      </trkpt>
      <trkpt lat="46.83806" lon="5.81981">
        <ele>580</ele>
        <time>2012-10-11T13:24:06Z</time>
      </trkpt>
      <trkpt lat="46.83795" lon="5.81983">
        <ele>580</ele>
        <time>2012-10-11T13:24:08Z</time>
      </trkpt>
      <trkpt lat="46.83784" lon="5.81987">
        <ele>580</ele>
        <time>2012-10-11T13:24:10Z</time>
      </trkpt>
      <trkpt lat="46.83772" lon="5.8199">
        <ele>580</ele>
        <time>2012-10-11T13:24:12Z</time>
      </trkpt>
      <trkpt lat="46.83761" lon="5.81992">
        <ele>580</ele>
        <time>2012-10-11T13:24:14Z</time>
      </trkpt>
      <trkpt lat="46.83749" lon="5.81994">
        <ele>580</ele>
        <time>2012-10-11T13:24:16Z</time>
      </trkpt>
      <trkpt lat="46.83738" lon="5.81998">
        <ele>580</ele>
        <time>2012-10-11T13:24:18Z</time>
      </trkpt>
      <trkpt lat="46.83726" lon="5.82001">
        <ele>580</ele>
        <time>2012-10-11T13:24:20Z</time>
      </trkpt>
      <trkpt lat="46.83716" lon="5.82005">
        <ele>580</ele>
        <time>2012-10-11T13:24:22Z</time>
      </trkpt>
      <trkpt lat="46.83705" lon="5.82009">
        <ele>580</ele>
        <time>2012-10-11T13:24:24Z</time>
      </trkpt>
      <trkpt lat="46.83694" lon="5.82011">
        <ele>580</ele>
        <time>2012-10-11T13:24:26Z</time>
      </trkpt>
      <trkpt lat="46.83682" lon="5.82014">
        <ele>580</ele>
        <time>2012-10-11T13:24:28Z</time>
      </trkpt>
      <trkpt lat="46.8367" lon="5.82018">
        <ele>580</ele>
        <time>2012-10-11T13:24:30Z</time>
      </trkpt>
      <trkpt lat="46.83658" lon="5.82021">
        <ele>580</ele>
        <time>2012-10-11T13:24:32Z</time>
      </trkpt>
      <trkpt lat="46.83647" lon="5.82024">
        <ele>580</ele>
        <time>2012-10-11T13:24:34Z</time>
      </trkpt>
      <trkpt lat="46.83635" lon="5.82027">
        <ele>580</ele>
        <time>2012-10-11T13:24:36Z</time>
      </trkpt>
      <trkpt lat="46.83623" lon="5.8203">
        <ele>580</ele>
        <time>2012-10-11T13:24:38Z</time>
      </trkpt>
      <trkpt lat="46.83612" lon="5.82033">
        <ele>580</ele>
        <time>2012-10-11T13:24:40Z</time>
      </trkpt>
      <trkpt lat="46.836" lon="5.82036">
        <ele>580</ele>
        <time>2012-10-11T13:24:42Z</time>
      </trkpt>
      <trkpt lat="46.83587" lon="5.82038">
        <ele>580</ele>
        <time>2012-10-11T13:24:44Z</time>
      </trkpt>
      <trkpt lat="46.83575" lon="5.82041">
        <ele>580</ele>
        <time>2012-10-11T13:24:46Z</time>
      </trkpt>
      <trkpt lat="46.83563" lon="5.82045">
        <ele>580</ele>
        <time>2012-10-11T13:24:48Z</time>
      </trkpt>
      <trkpt lat="46.83551" lon="5.82048">
        <ele>580</ele>
        <time>2012-10-11T13:24:50Z</time>
      </trkpt>
      <trkpt lat="46.83539" lon="5.82051">
        <ele>580</ele>
        <time>2012-10-11T13:24:52Z</time>
      </trkpt>
      <trkpt lat="46.83528" lon="5.82054">
        <ele>580</ele>
        <time>2012-10-11T13:24:54Z</time>
      </trkpt>
      <trkpt lat="46.83516" lon="5.82056">
        <ele>580</ele>
        <time>2012-10-11T13:24:56Z</time>
      </trkpt>
      <trkpt lat="46.83504" lon="5.82059">
        <ele>580</ele>
        <time>2012-10-11T13:24:58Z</time>
      </trkpt>
      <trkpt lat="46.83493" lon="5.82062">
        <ele>580</ele>
        <time>2012-10-11T13:25:00Z</time>
      </trkpt>
      <trkpt lat="46.83481" lon="5.82065">
        <ele>580</ele>
        <time>2012-10-11T13:25:02Z</time>
      </trkpt>
      <trkpt lat="46.8347" lon="5.82069">
        <ele>580</ele>
        <time>2012-10-11T13:25:04Z</time>
      </trkpt>
      <trkpt lat="46.83459" lon="5.82072">
        <ele>580</ele>
        <time>2012-10-11T13:25:06Z</time>
      </trkpt>
      <trkpt lat="46.83446" lon="5.82074">
        <ele>580</ele>
        <time>2012-10-11T13:25:08Z</time>
      </trkpt>
      <trkpt lat="46.83434" lon="5.82077">
        <ele>580</ele>
        <time>2012-10-11T13:25:10Z</time>
      </trkpt>
      <trkpt lat="46.83422" lon="5.8208">
        <ele>580</ele>
        <time>2012-10-11T13:25:12Z</time>
      </trkpt>
      <trkpt lat="46.8341" lon="5.82083">
        <ele>580</ele>
        <time>2012-10-11T13:25:14Z</time>
      </trkpt>
      <trkpt lat="46.83398" lon="5.82086">
        <ele>580</ele>
        <time>2012-10-11T13:25:16Z</time>
      </trkpt>
      <trkpt lat="46.83387" lon="5.82089">
        <ele>580</ele>
        <time>2012-10-11T13:25:18Z</time>
      </trkpt>
      <trkpt lat="46.83375" lon="5.82092">
        <ele>580</ele>
        <time>2012-10-11T13:25:20Z</time>
      </trkpt>
      <trkpt lat="46.83362" lon="5.82095">
        <ele>580</ele>
        <time>2012-10-11T13:25:22Z</time>
      </trkpt>
      <trkpt lat="46.83351" lon="5.82098">
        <ele>580</ele>
        <time>2012-10-11T13:25:24Z</time>
      </trkpt>
      <trkpt lat="46.83339" lon="5.82101">
        <ele>580</ele>
        <time>2012-10-11T13:25:26Z</time>
      </trkpt>
      <trkpt lat="46.83327" lon="5.82104">
        <ele>580</ele>
        <time>2012-10-11T13:25:28Z</time>
      </trkpt>
      <trkpt lat="46.83315" lon="5.82107">
        <ele>580</ele>
        <time>2012-10-11T13:25:30Z</time>
      </trkpt>
      <trkpt lat="46.83302" lon="5.82111">
        <ele>580</ele>
        <time>2012-10-11T13:25:32Z</time>
      </trkpt>
      <trkpt lat="46.83289" lon="5.82115">
        <ele>580</ele>
        <time>2012-10-11T13:25:34Z</time>
      </trkpt>
      <trkpt lat="46.83277" lon="5.82117">
        <ele>580</ele>
        <time>2012-10-11T13:25:36Z</time>
      </trkpt>
      <trkpt lat="46.83264" lon="5.82121">
        <ele>580</ele>
        <time>2012-10-11T13:25:38Z</time>
      </trkpt>
      <trkpt lat="46.83251" lon="5.82124">
        <ele>580</ele>
        <time>2012-10-11T13:25:40Z</time>
      </trkpt>
      <trkpt lat="46.83239" lon="5.82127">
        <ele>580</ele>
        <time>2012-10-11T13:25:42Z</time>
      </trkpt>
      <trkpt lat="46.83225" lon="5.8213">
        <ele>580</ele>
        <time>2012-10-11T13:25:44Z</time>
      </trkpt>
      <trkpt lat="46.83213" lon="5.82134">
        <ele>580</ele>
        <time>2012-10-11T13:25:46Z</time>
      </trkpt>
      <trkpt lat="46.832" lon="5.82136">
        <ele>580</ele>
        <time>2012-10-11T13:25:48Z</time>
      </trkpt>
      <trkpt lat="46.83187" lon="5.8214">
        <ele>580</ele>
        <time>2012-10-11T13:25:50Z</time>
      </trkpt>
      <trkpt lat="46.83175" lon="5.82142">
        <ele>580</ele>
        <time>2012-10-11T13:25:52Z</time>
      </trkpt>
      <trkpt lat="46.83163" lon="5.82146">
        <ele>580</ele>
        <time>2012-10-11T13:25:54Z</time>
      </trkpt>
      <trkpt lat="46.83151" lon="5.82149">
        <ele>580</ele>
        <time>2012-10-11T13:25:56Z</time>
      </trkpt>
      <trkpt lat="46.8314" lon="5.82151">
        <ele>580</ele>
        <time>2012-10-11T13:25:58Z</time>
      </trkpt>
      <trkpt lat="46.83128" lon="5.82154">
        <ele>580</ele>
        <time>2012-10-11T13:26:00Z</time>
      </trkpt>
      <trkpt lat="46.83117" lon="5.82158">
        <ele>580</ele>
        <time>2012-10-11T13:26:02Z</time>
      </trkpt>
      <trkpt lat="46.83106" lon="5.8216">
        <ele>580</ele>
        <time>2012-10-11T13:26:04Z</time>
      </trkpt>
      <trkpt lat="46.83095" lon="5.82163">
        <ele>580</ele>
        <time>2012-10-11T13:26:06Z</time>
      </trkpt>
      <trkpt lat="46.83083" lon="5.82167">
        <ele>580</ele>
        <time>2012-10-11T13:26:08Z</time>
      </trkpt>
      <trkpt lat="46.83071" lon="5.82169">
        <ele>580</ele>
        <time>2012-10-11T13:26:10Z</time>
      </trkpt>
      <trkpt lat="46.8306" lon="5.82172">
        <ele>580</ele>
        <time>2012-10-11T13:26:12Z</time>
      </trkpt>
      <trkpt lat="46.83049" lon="5.82176">
        <ele>580</ele>
        <time>2012-10-11T13:26:14Z</time>
      </trkpt>
      <trkpt lat="46.83038" lon="5.82178">
        <ele>580</ele>
        <time>2012-10-11T13:26:16Z</time>
      </trkpt>
      <trkpt lat="46.83026" lon="5.82182">
        <ele>580</ele>
        <time>2012-10-11T13:26:18Z</time>
      </trkpt>
      <trkpt lat="46.83014" lon="5.82185">
        <ele>585</ele>
        <time>2012-10-11T13:26:20Z</time>
      </trkpt>
      <trkpt lat="46.83002" lon="5.82187">
        <ele>585</ele>
        <time>2012-10-11T13:26:22Z</time>
      </trkpt>
      <trkpt lat="46.82989" lon="5.8219">
        <ele>585</ele>
        <time>2012-10-11T13:26:24Z</time>
      </trkpt>
      <trkpt lat="46.82976" lon="5.82192">
        <ele>585</ele>
        <time>2012-10-11T13:26:26Z</time>
      </trkpt>
      <trkpt lat="46.82962" lon="5.82194">
        <ele>585</ele>
        <time>2012-10-11T13:26:28Z</time>
      </trkpt>
      <trkpt lat="46.82949" lon="5.82194">
        <ele>585</ele>
        <time>2012-10-11T13:26:30Z</time>
      </trkpt>
      <trkpt lat="46.82935" lon="5.82195">
        <ele>585</ele>
        <time>2012-10-11T13:26:32Z</time>
      </trkpt>
      <trkpt lat="46.82922" lon="5.82195">
        <ele>585</ele>
        <time>2012-10-11T13:26:34Z</time>
      </trkpt>
      <trkpt lat="46.82909" lon="5.82195">
        <ele>585</ele>
        <time>2012-10-11T13:26:36Z</time>
      </trkpt>
      <trkpt lat="46.82895" lon="5.82196">
        <ele>585</ele>
        <time>2012-10-11T13:26:38Z</time>
      </trkpt>
      <trkpt lat="46.82882" lon="5.82196">
        <ele>585</ele>
        <time>2012-10-11T13:26:40Z</time>
      </trkpt>
      <trkpt lat="46.82869" lon="5.82197">
        <ele>585</ele>
        <time>2012-10-11T13:26:42Z</time>
      </trkpt>
      <trkpt lat="46.82854" lon="5.82197">
        <ele>585</ele>
        <time>2012-10-11T13:26:44Z</time>
      </trkpt>
      <trkpt lat="46.8284" lon="5.82198">
        <ele>585</ele>
        <time>2012-10-11T13:26:46Z</time>
      </trkpt>
      <trkpt lat="46.82825" lon="5.82199">
        <ele>585</ele>
        <time>2012-10-11T13:26:48Z</time>
      </trkpt>
      <trkpt lat="46.82812" lon="5.822">
        <ele>585</ele>
        <time>2012-10-11T13:26:50Z</time>
      </trkpt>
      <trkpt lat="46.82798" lon="5.822">
        <ele>585</ele>
        <time>2012-10-11T13:26:52Z</time>
      </trkpt>
      <trkpt lat="46.82785" lon="5.822">
        <ele>585</ele>
        <time>2012-10-11T13:26:54Z</time>
      </trkpt>
      <trkpt lat="46.82772" lon="5.822">
        <ele>585</ele>
        <time>2012-10-11T13:26:56Z</time>
      </trkpt>
      <trkpt lat="46.82758" lon="5.822">
        <ele>585</ele>
        <time>2012-10-11T13:26:58Z</time>
      </trkpt>
      <trkpt lat="46.82745" lon="5.82201">
        <ele>585</ele>
        <time>2012-10-11T13:27:00Z</time>
      </trkpt>
      <trkpt lat="46.82731" lon="5.82201">
        <ele>585</ele>
        <time>2012-10-11T13:27:02Z</time>
      </trkpt>
      <trkpt lat="46.82718" lon="5.82202">
        <ele>585</ele>
        <time>2012-10-11T13:27:04Z</time>
      </trkpt>
      <trkpt lat="46.82703" lon="5.82202">
        <ele>585</ele>
        <time>2012-10-11T13:27:06Z</time>
      </trkpt>
      <trkpt lat="46.8269" lon="5.82202">
        <ele>585</ele>
        <time>2012-10-11T13:27:08Z</time>
      </trkpt>
      <trkpt lat="46.82676" lon="5.82202">
        <ele>585</ele>
        <time>2012-10-11T13:27:10Z</time>
      </trkpt>
      <trkpt lat="46.82661" lon="5.82201">
        <ele>585</ele>
        <time>2012-10-11T13:27:12Z</time>
      </trkpt>
      <trkpt lat="46.82648" lon="5.82199">
        <ele>585</ele>
        <time>2012-10-11T13:27:14Z</time>
      </trkpt>
      <trkpt lat="46.82634" lon="5.82196">
        <ele>585</ele>
        <time>2012-10-11T13:27:16Z</time>
      </trkpt>
      <trkpt lat="46.8262" lon="5.82193">
        <ele>585</ele>
        <time>2012-10-11T13:27:18Z</time>
      </trkpt>
      <trkpt lat="46.82607" lon="5.82187">
        <ele>585</ele>
        <time>2012-10-11T13:27:20Z</time>
      </trkpt>
      <trkpt lat="46.82593" lon="5.82182">
        <ele>585</ele>
        <time>2012-10-11T13:27:22Z</time>
      </trkpt>
      <trkpt lat="46.8258" lon="5.82177">
        <ele>585</ele>
        <time>2012-10-11T13:27:24Z</time>
      </trkpt>
      <trkpt lat="46.82566" lon="5.82171">
        <ele>585</ele>
        <time>2012-10-11T13:27:26Z</time>
      </trkpt>
      <trkpt lat="46.82552" lon="5.82166">
        <ele>585</ele>
        <time>2012-10-11T13:27:28Z</time>
      </trkpt>
      <trkpt lat="46.82538" lon="5.8216">
        <ele>585</ele>
        <time>2012-10-11T13:27:30Z</time>
      </trkpt>
      <trkpt lat="46.82525" lon="5.82155">
        <ele>585</ele>
        <time>2012-10-11T13:27:32Z</time>
      </trkpt>
      <trkpt lat="46.82511" lon="5.8215">
        <ele>585</ele>
        <time>2012-10-11T13:27:34Z</time>
      </trkpt>
      <trkpt lat="46.82497" lon="5.82144">
        <ele>585</ele>
        <time>2012-10-11T13:27:36Z</time>
      </trkpt>
      <trkpt lat="46.82483" lon="5.8214">
        <ele>585</ele>
        <time>2012-10-11T13:27:38Z</time>
      </trkpt>
      <trkpt lat="46.8247" lon="5.82134">
        <ele>580</ele>
        <time>2012-10-11T13:27:40Z</time>
      </trkpt>
      <trkpt lat="46.82456" lon="5.82129">
        <ele>580</ele>
        <time>2012-10-11T13:27:42Z</time>
      </trkpt>
      <trkpt lat="46.82442" lon="5.82125">
        <ele>580</ele>
        <time>2012-10-11T13:27:44Z</time>
      </trkpt>
      <trkpt lat="46.82428" lon="5.82121">
        <ele>580</ele>
        <time>2012-10-11T13:27:46Z</time>
      </trkpt>
      <trkpt lat="46.82414" lon="5.82119">
        <ele>580</ele>
        <time>2012-10-11T13:27:48Z</time>
      </trkpt>
      <trkpt lat="46.82399" lon="5.82118">
        <ele>580</ele>
        <time>2012-10-11T13:27:50Z</time>
      </trkpt>
      <trkpt lat="46.82385" lon="5.82117">
        <ele>580</ele>
        <time>2012-10-11T13:27:52Z</time>
      </trkpt>
      <trkpt lat="46.8237" lon="5.82116">
        <ele>580</ele>
        <time>2012-10-11T13:27:54Z</time>
      </trkpt>
      <trkpt lat="46.82356" lon="5.82115">
        <ele>580</ele>
        <time>2012-10-11T13:27:56Z</time>
      </trkpt>
      <trkpt lat="46.82341" lon="5.82115">
        <ele>580</ele>
        <time>2012-10-11T13:27:58Z</time>
      </trkpt>
      <trkpt lat="46.82326" lon="5.82113">
        <ele>580</ele>
        <time>2012-10-11T13:28:00Z</time>
      </trkpt>
      <trkpt lat="46.82311" lon="5.82112">
        <ele>580</ele>
        <time>2012-10-11T13:28:02Z</time>
      </trkpt>
      <trkpt lat="46.82295" lon="5.82111">
        <ele>580</ele>
        <time>2012-10-11T13:28:04Z</time>
      </trkpt>
      <trkpt lat="46.8228" lon="5.8211">
        <ele>580</ele>
        <time>2012-10-11T13:28:06Z</time>
      </trkpt>
      <trkpt lat="46.82265" lon="5.82109">
        <ele>580</ele>
        <time>2012-10-11T13:28:08Z</time>
      </trkpt>
      <trkpt lat="46.8225" lon="5.82108">
        <ele>580</ele>
        <time>2012-10-11T13:28:10Z</time>
      </trkpt>
      <trkpt lat="46.82234" lon="5.82107">
        <ele>575</ele>
        <time>2012-10-11T13:28:12Z</time>
      </trkpt>
      <trkpt lat="46.82219" lon="5.82107">
        <ele>575</ele>
        <time>2012-10-11T13:28:14Z</time>
      </trkpt>
      <trkpt lat="46.82205" lon="5.82107">
        <ele>575</ele>
        <time>2012-10-11T13:28:16Z</time>
      </trkpt>
      <trkpt lat="46.82189" lon="5.82107">
        <ele>575</ele>
        <time>2012-10-11T13:28:18Z</time>
      </trkpt>
      <trkpt lat="46.82174" lon="5.82108">
        <ele>575</ele>
        <time>2012-10-11T13:28:20Z</time>
      </trkpt>
      <trkpt lat="46.82158" lon="5.82109">
        <ele>575</ele>
        <time>2012-10-11T13:28:22Z</time>
      </trkpt>
      <trkpt lat="46.82142" lon="5.82111">
        <ele>575</ele>
        <time>2012-10-11T13:28:24Z</time>
      </trkpt>
      <trkpt lat="46.82126" lon="5.82112">
        <ele>575</ele>
        <time>2012-10-11T13:28:26Z</time>
      </trkpt>
      <trkpt lat="46.8211" lon="5.82114">
        <ele>575</ele>
        <time>2012-10-11T13:28:28Z</time>
      </trkpt>
      <trkpt lat="46.82094" lon="5.82116">
        <ele>575</ele>
        <time>2012-10-11T13:28:30Z</time>
      </trkpt>
      <trkpt lat="46.82078" lon="5.82117">
        <ele>575</ele>
        <time>2012-10-11T13:28:32Z</time>
      </trkpt>
      <trkpt lat="46.82062" lon="5.82119">
        <ele>575</ele>
        <time>2012-10-11T13:28:34Z</time>
      </trkpt>
      <trkpt lat="46.82047" lon="5.82121">
        <ele>575</ele>
        <time>2012-10-11T13:28:36Z</time>
      </trkpt>
      <trkpt lat="46.82032" lon="5.82122">
        <ele>575</ele>
        <time>2012-10-11T13:28:38Z</time>
      </trkpt>
      <trkpt lat="46.82017" lon="5.82124">
        <ele>575</ele>
        <time>2012-10-11T13:28:40Z</time>
      </trkpt>
      <trkpt lat="46.82003" lon="5.82125">
        <ele>575</ele>
        <time>2012-10-11T13:28:42Z</time>
      </trkpt>
      <trkpt lat="46.81988" lon="5.82125">
        <ele>575</ele>
        <time>2012-10-11T13:28:44Z</time>
      </trkpt>
      <trkpt lat="46.81974" lon="5.82126">
        <ele>575</ele>
        <time>2012-10-11T13:28:46Z</time>
      </trkpt>
      <trkpt lat="46.81959" lon="5.82127">
        <ele>575</ele>
        <time>2012-10-11T13:28:48Z</time>
      </trkpt>
      <trkpt lat="46.81944" lon="5.82129">
        <ele>575</ele>
        <time>2012-10-11T13:28:50Z</time>
      </trkpt>
      <trkpt lat="46.8193" lon="5.8213">
        <ele>575</ele>
        <time>2012-10-11T13:28:52Z</time>
      </trkpt>
      <trkpt lat="46.81915" lon="5.82132">
        <ele>575</ele>
        <time>2012-10-11T13:28:54Z</time>
      </trkpt>
      <trkpt lat="46.81901" lon="5.82133">
        <ele>575</ele>
        <time>2012-10-11T13:28:56Z</time>
      </trkpt>
      <trkpt lat="46.81886" lon="5.82134">
        <ele>575</ele>
        <time>2012-10-11T13:28:58Z</time>
      </trkpt>
      <trkpt lat="46.81872" lon="5.82135">
        <ele>575</ele>
        <time>2012-10-11T13:29:00Z</time>
      </trkpt>
      <trkpt lat="46.81858" lon="5.82136">
        <ele>575</ele>
        <time>2012-10-11T13:29:02Z</time>
      </trkpt>
      <trkpt lat="46.81844" lon="5.82138">
        <ele>575</ele>
        <time>2012-10-11T13:29:04Z</time>
      </trkpt>
      <trkpt lat="46.8183" lon="5.82139">
        <ele>575</ele>
        <time>2012-10-11T13:29:06Z</time>
      </trkpt>
      <trkpt lat="46.81816" lon="5.8214">
        <ele>575</ele>
        <time>2012-10-11T13:29:08Z</time>
      </trkpt>
      <trkpt lat="46.81802" lon="5.82142">
        <ele>575</ele>
        <time>2012-10-11T13:29:10Z</time>
      </trkpt>
      <trkpt lat="46.81788" lon="5.82142">
        <ele>575</ele>
        <time>2012-10-11T13:29:12Z</time>
      </trkpt>
      <trkpt lat="46.81774" lon="5.82144">
        <ele>575</ele>
        <time>2012-10-11T13:29:14Z</time>
      </trkpt>
      <trkpt lat="46.81759" lon="5.82145">
        <ele>575</ele>
        <time>2012-10-11T13:29:16Z</time>
      </trkpt>
      <trkpt lat="46.81745" lon="5.82146">
        <ele>575</ele>
        <time>2012-10-11T13:29:18Z</time>
      </trkpt>
      <trkpt lat="46.81731" lon="5.82147">
        <ele>575</ele>
        <time>2012-10-11T13:29:20Z</time>
      </trkpt>
      <trkpt lat="46.81717" lon="5.82149">
        <ele>575</ele>
        <time>2012-10-11T13:29:22Z</time>
      </trkpt>
      <trkpt lat="46.81703" lon="5.82149">
        <ele>575</ele>
        <time>2012-10-11T13:29:24Z</time>
      </trkpt>
      <trkpt lat="46.81688" lon="5.8215">
        <ele>575</ele>
        <time>2012-10-11T13:29:26Z</time>
      </trkpt>
      <trkpt lat="46.81674" lon="5.82151">
        <ele>575</ele>
        <time>2012-10-11T13:29:28Z</time>
      </trkpt>
      <trkpt lat="46.81661" lon="5.82153">
        <ele>575</ele>
        <time>2012-10-11T13:29:30Z</time>
      </trkpt>
      <trkpt lat="46.81648" lon="5.82155">
        <ele>575</ele>
        <time>2012-10-11T13:29:32Z</time>
      </trkpt>
      <trkpt lat="46.81634" lon="5.82158">
        <ele>575</ele>
        <time>2012-10-11T13:29:34Z</time>
      </trkpt>
      <trkpt lat="46.81621" lon="5.8216">
        <ele>575</ele>
        <time>2012-10-11T13:29:36Z</time>
      </trkpt>
      <trkpt lat="46.81608" lon="5.82166">
        <ele>575</ele>
        <time>2012-10-11T13:29:38Z</time>
      </trkpt>
      <trkpt lat="46.81595" lon="5.82173">
        <ele>575</ele>
        <time>2012-10-11T13:29:40Z</time>
      </trkpt>
      <trkpt lat="46.81582" lon="5.8218">
        <ele>575</ele>
        <time>2012-10-11T13:29:42Z</time>
      </trkpt>
      <trkpt lat="46.81568" lon="5.82189">
        <ele>575</ele>
        <time>2012-10-11T13:29:44Z</time>
      </trkpt>
      <trkpt lat="46.81555" lon="5.82197">
        <ele>575</ele>
        <time>2012-10-11T13:29:46Z</time>
      </trkpt>
      <trkpt lat="46.81542" lon="5.82206">
        <ele>575</ele>
        <time>2012-10-11T13:29:48Z</time>
      </trkpt>
      <trkpt lat="46.81528" lon="5.82214">
        <ele>575</ele>
        <time>2012-10-11T13:29:50Z</time>
      </trkpt>
      <trkpt lat="46.81515" lon="5.82222">
        <ele>575</ele>
        <time>2012-10-11T13:29:52Z</time>
      </trkpt>
      <trkpt lat="46.81502" lon="5.82231">
        <ele>575</ele>
        <time>2012-10-11T13:29:54Z</time>
      </trkpt>
      <trkpt lat="46.81488" lon="5.82239">
        <ele>575</ele>
        <time>2012-10-11T13:29:56Z</time>
      </trkpt>
      <trkpt lat="46.81474" lon="5.82248">
        <ele>575</ele>
        <time>2012-10-11T13:29:58Z</time>
      </trkpt>
      <trkpt lat="46.81461" lon="5.82256">
        <ele>575</ele>
        <time>2012-10-11T13:30:00Z</time>
      </trkpt>
      <trkpt lat="46.81447" lon="5.82264">
        <ele>575</ele>
        <time>2012-10-11T13:30:02Z</time>
      </trkpt>
      <trkpt lat="46.81434" lon="5.82272">
        <ele>575</ele>
        <time>2012-10-11T13:30:04Z</time>
      </trkpt>
      <trkpt lat="46.8142" lon="5.82281">
        <ele>575</ele>
        <time>2012-10-11T13:30:06Z</time>
      </trkpt>
      <trkpt lat="46.81406" lon="5.82289">
        <ele>575</ele>
        <time>2012-10-11T13:30:08Z</time>
      </trkpt>
      <trkpt lat="46.81392" lon="5.82297">
        <ele>575</ele>
        <time>2012-10-11T13:30:10Z</time>
      </trkpt>
      <trkpt lat="46.81379" lon="5.82306">
        <ele>575</ele>
        <time>2012-10-11T13:30:12Z</time>
      </trkpt>
      <trkpt lat="46.81365" lon="5.82313">
        <ele>575</ele>
        <time>2012-10-11T13:30:14Z</time>
      </trkpt>
      <trkpt lat="46.81352" lon="5.82321">
        <ele>575</ele>
        <time>2012-10-11T13:30:16Z</time>
      </trkpt>
      <trkpt lat="46.81338" lon="5.8233">
        <ele>575</ele>
        <time>2012-10-11T13:30:18Z</time>
      </trkpt>
      <trkpt lat="46.81325" lon="5.82338">
        <ele>575</ele>
        <time>2012-10-11T13:30:20Z</time>
      </trkpt>
      <trkpt lat="46.81311" lon="5.82346">
        <ele>575</ele>
        <time>2012-10-11T13:30:22Z</time>
      </trkpt>
      <trkpt lat="46.81297" lon="5.82355">
        <ele>575</ele>
        <time>2012-10-11T13:30:24Z</time>
      </trkpt>
      <trkpt lat="46.81283" lon="5.82363">
        <ele>575</ele>
        <time>2012-10-11T13:30:26Z</time>
      </trkpt>
      <trkpt lat="46.81268" lon="5.82372">
        <ele>575</ele>
        <time>2012-10-11T13:30:28Z</time>
      </trkpt>
      <trkpt lat="46.81254" lon="5.82381">
        <ele>575</ele>
        <time>2012-10-11T13:30:30Z</time>
      </trkpt>
      <trkpt lat="46.8124" lon="5.82388">
        <ele>575</ele>
        <time>2012-10-11T13:30:32Z</time>
      </trkpt>
      <trkpt lat="46.81227" lon="5.82395">
        <ele>575</ele>
        <time>2012-10-11T13:30:34Z</time>
      </trkpt>
      <trkpt lat="46.81213" lon="5.82403">
        <ele>575</ele>
        <time>2012-10-11T13:30:36Z</time>
      </trkpt>
      <trkpt lat="46.81199" lon="5.8241">
        <ele>575</ele>
        <time>2012-10-11T13:30:38Z</time>
      </trkpt>
      <trkpt lat="46.81185" lon="5.82417">
        <ele>575</ele>
        <time>2012-10-11T13:30:40Z</time>
      </trkpt>
      <trkpt lat="46.81172" lon="5.82425">
        <ele>575</ele>
        <time>2012-10-11T13:30:42Z</time>
      </trkpt>
      <trkpt lat="46.81159" lon="5.82431">
        <ele>575</ele>
        <time>2012-10-11T13:30:44Z</time>
      </trkpt>
      <trkpt lat="46.81145" lon="5.82438">
        <ele>575</ele>
        <time>2012-10-11T13:30:46Z</time>
      </trkpt>
      <trkpt lat="46.81132" lon="5.82444">
        <ele>575</ele>
        <time>2012-10-11T13:30:48Z</time>
      </trkpt>
      <trkpt lat="46.8112" lon="5.82452">
        <ele>575</ele>
        <time>2012-10-11T13:30:50Z</time>
      </trkpt>
      <trkpt lat="46.81108" lon="5.82458">
        <ele>575</ele>
        <time>2012-10-11T13:30:52Z</time>
      </trkpt>
      <trkpt lat="46.81096" lon="5.82464">
        <ele>575</ele>
        <time>2012-10-11T13:30:54Z</time>
      </trkpt>
      <trkpt lat="46.81085" lon="5.82469">
        <ele>575</ele>
        <time>2012-10-11T13:30:56Z</time>
      </trkpt>
      <trkpt lat="46.81072" lon="5.82476">
        <ele>575</ele>
        <time>2012-10-11T13:30:58Z</time>
      </trkpt>
      <trkpt lat="46.81061" lon="5.82482">
        <ele>575</ele>
        <time>2012-10-11T13:31:00Z</time>
      </trkpt>
      <trkpt lat="46.81048" lon="5.82488">
        <ele>575</ele>
        <time>2012-10-11T13:31:02Z</time>
      </trkpt>
      <trkpt lat="46.81036" lon="5.82495">
        <ele>575</ele>
        <time>2012-10-11T13:31:04Z</time>
      </trkpt>
      <trkpt lat="46.81024" lon="5.82501">
        <ele>575</ele>
        <time>2012-10-11T13:31:06Z</time>
      </trkpt>
      <trkpt lat="46.81011" lon="5.82507">
        <ele>575</ele>
        <time>2012-10-11T13:31:08Z</time>
      </trkpt>
      <trkpt lat="46.81" lon="5.82514">
        <ele>575</ele>
        <time>2012-10-11T13:31:10Z</time>
      </trkpt>
      <trkpt lat="46.80988" lon="5.82522">
        <ele>575</ele>
        <time>2012-10-11T13:31:12Z</time>
      </trkpt>
      <trkpt lat="46.80976" lon="5.82531">
        <ele>575</ele>
        <time>2012-10-11T13:31:14Z</time>
      </trkpt>
      <trkpt lat="46.80964" lon="5.8254">
        <ele>575</ele>
        <time>2012-10-11T13:31:16Z</time>
      </trkpt>
      <trkpt lat="46.80952" lon="5.82549">
        <ele>575</ele>
        <time>2012-10-11T13:31:18Z</time>
      </trkpt>
      <trkpt lat="46.80941" lon="5.82559">
        <ele>575</ele>
        <time>2012-10-11T13:31:20Z</time>
      </trkpt>
      <trkpt lat="46.8093" lon="5.82569">
        <ele>575</ele>
        <time>2012-10-11T13:31:22Z</time>
      </trkpt>
      <trkpt lat="46.80918" lon="5.82579">
        <ele>575</ele>
        <time>2012-10-11T13:31:24Z</time>
      </trkpt>
      <trkpt lat="46.80906" lon="5.82589">
        <ele>575</ele>
        <time>2012-10-11T13:31:26Z</time>
      </trkpt>
      <trkpt lat="46.80893" lon="5.826">
        <ele>575</ele>
        <time>2012-10-11T13:31:28Z</time>
      </trkpt>
      <trkpt lat="46.80882" lon="5.82611">
        <ele>575</ele>
        <time>2012-10-11T13:31:30Z</time>
      </trkpt>
      <trkpt lat="46.80869" lon="5.8262">
        <ele>575</ele>
        <time>2012-10-11T13:31:32Z</time>
      </trkpt>
      <trkpt lat="46.80858" lon="5.8263">
        <ele>575</ele>
        <time>2012-10-11T13:31:34Z</time>
      </trkpt>
      <trkpt lat="46.80845" lon="5.8264">
        <ele>575</ele>
        <time>2012-10-11T13:31:36Z</time>
      </trkpt>
      <trkpt lat="46.80834" lon="5.8265">
        <ele>575</ele>
        <time>2012-10-11T13:31:38Z</time>
      </trkpt>
      <trkpt lat="46.80822" lon="5.8266">
        <ele>575</ele>
        <time>2012-10-11T13:31:40Z</time>
      </trkpt>
      <trkpt lat="46.8081" lon="5.8267">
        <ele>575</ele>
        <time>2012-10-11T13:31:42Z</time>
      </trkpt>
      <trkpt lat="46.80798" lon="5.8268">
        <ele>575</ele>
        <time>2012-10-11T13:31:44Z</time>
      </trkpt>
      <trkpt lat="46.80787" lon="5.8269">
        <ele>580</ele>
        <time>2012-10-11T13:31:46Z</time>
      </trkpt>
      <trkpt lat="46.80776" lon="5.82699">
        <ele>580</ele>
        <time>2012-10-11T13:31:48Z</time>
      </trkpt>
      <trkpt lat="46.80765" lon="5.82708">
        <ele>580</ele>
        <time>2012-10-11T13:31:50Z</time>
      </trkpt>
      <trkpt lat="46.80753" lon="5.82717">
        <ele>580</ele>
        <time>2012-10-11T13:31:52Z</time>
      </trkpt>
      <trkpt lat="46.80742" lon="5.82727">
        <ele>580</ele>
        <time>2012-10-11T13:31:54Z</time>
      </trkpt>
      <trkpt lat="46.8073" lon="5.82736">
        <ele>580</ele>
        <time>2012-10-11T13:31:56Z</time>
      </trkpt>
      <trkpt lat="46.80718" lon="5.82747">
        <ele>580</ele>
        <time>2012-10-11T13:31:58Z</time>
      </trkpt>
      <trkpt lat="46.80706" lon="5.82757">
        <ele>580</ele>
        <time>2012-10-11T13:32:00Z</time>
      </trkpt>
      <trkpt lat="46.80694" lon="5.82767">
        <ele>580</ele>
        <time>2012-10-11T13:32:02Z</time>
      </trkpt>
      <trkpt lat="46.80682" lon="5.82778">
        <ele>580</ele>
        <time>2012-10-11T13:32:04Z</time>
      </trkpt>
      <trkpt lat="46.80669" lon="5.82788">
        <ele>580</ele>
        <time>2012-10-11T13:32:06Z</time>
      </trkpt>
      <trkpt lat="46.80656" lon="5.828">
        <ele>580</ele>
        <time>2012-10-11T13:32:08Z</time>
      </trkpt>
      <trkpt lat="46.80642" lon="5.82811">
        <ele>580</ele>
        <time>2012-10-11T13:32:10Z</time>
      </trkpt>
      <trkpt lat="46.80629" lon="5.82822">
        <ele>580</ele>
        <time>2012-10-11T13:32:12Z</time>
      </trkpt>
      <trkpt lat="46.80616" lon="5.82832">
        <ele>580</ele>
        <time>2012-10-11T13:32:14Z</time>
      </trkpt>
      <trkpt lat="46.80602" lon="5.82844">
        <ele>580</ele>
        <time>2012-10-11T13:32:16Z</time>
      </trkpt>
      <trkpt lat="46.80588" lon="5.82856">
        <ele>580</ele>
        <time>2012-10-11T13:32:18Z</time>
      </trkpt>
      <trkpt lat="46.80575" lon="5.82867">
        <ele>580</ele>
        <time>2012-10-11T13:32:20Z</time>
      </trkpt>
      <trkpt lat="46.80561" lon="5.82878">
        <ele>580</ele>
        <time>2012-10-11T13:32:22Z</time>
      </trkpt>
      <trkpt lat="46.80547" lon="5.82889">
        <ele>580</ele>
        <time>2012-10-11T13:32:24Z</time>
      </trkpt>
      <trkpt lat="46.80534" lon="5.829">
        <ele>580</ele>
        <time>2012-10-11T13:32:26Z</time>
      </trkpt>
      <trkpt lat="46.80522" lon="5.82911">
        <ele>580</ele>
        <time>2012-10-11T13:32:28Z</time>
      </trkpt>
      <trkpt lat="46.80509" lon="5.82921">
        <ele>580</ele>
        <time>2012-10-11T13:32:30Z</time>
      </trkpt>
      <trkpt lat="46.80496" lon="5.82932">
        <ele>580</ele>
        <time>2012-10-11T13:32:32Z</time>
      </trkpt>
      <trkpt lat="46.80484" lon="5.82943">
        <ele>580</ele>
        <time>2012-10-11T13:32:34Z</time>
      </trkpt>
      <trkpt lat="46.80472" lon="5.82953">
        <ele>580</ele>
        <time>2012-10-11T13:32:36Z</time>
      </trkpt>
      <trkpt lat="46.8046" lon="5.82963">
        <ele>580</ele>
        <time>2012-10-11T13:32:38Z</time>
      </trkpt>
      <trkpt lat="46.80449" lon="5.82972">
        <ele>580</ele>
        <time>2012-10-11T13:32:40Z</time>
      </trkpt>
      <trkpt lat="46.80439" lon="5.82981">
        <ele>580</ele>
        <time>2012-10-11T13:32:42Z</time>
      </trkpt>
      <trkpt lat="46.8043" lon="5.82988">
        <ele>580</ele>
        <time>2012-10-11T13:32:44Z</time>
      </trkpt>
      <trkpt lat="46.80421" lon="5.82995">
        <ele>580</ele>
        <time>2012-10-11T13:32:46Z</time>
      </trkpt>
      <trkpt lat="46.80413" lon="5.83001">
        <ele>580</ele>
        <time>2012-10-11T13:32:48Z</time>
      </trkpt>
      <trkpt lat="46.80402" lon="5.83009">
        <ele>580</ele>
        <time>2012-10-11T13:32:51Z</time>
      </trkpt>
      <trkpt lat="46.80392" lon="5.83011">
        <ele>580</ele>
        <time>2012-10-11T13:32:54Z</time>
      </trkpt>
      <trkpt lat="46.80383" lon="5.83003">
        <ele>580</ele>
        <time>2012-10-11T13:32:59Z</time>
      </trkpt>
      <trkpt lat="46.80375" lon="5.82996">
        <ele>580</ele>
        <time>2012-10-11T13:33:19Z</time>
      </trkpt>
      <trkpt lat="46.80364" lon="5.83001">
        <ele>580</ele>
        <time>2012-10-11T13:33:23Z</time>
      </trkpt>
      <trkpt lat="46.80354" lon="5.83013">
        <ele>580</ele>
        <time>2012-10-11T13:33:26Z</time>
      </trkpt>
      <trkpt lat="46.80344" lon="5.83026">
        <ele>580</ele>
        <time>2012-10-11T13:33:29Z</time>
      </trkpt>
      <trkpt lat="46.80337" lon="5.83035">
        <ele>580</ele>
        <time>2012-10-11T13:33:31Z</time>
      </trkpt>
      <trkpt lat="46.80328" lon="5.83045">
        <ele>580</ele>
        <time>2012-10-11T13:33:33Z</time>
      </trkpt>
      <trkpt lat="46.8032" lon="5.83054">
        <ele>580</ele>
        <time>2012-10-11T13:33:35Z</time>
      </trkpt>
      <trkpt lat="46.80312" lon="5.83064">
        <ele>580</ele>
        <time>2012-10-11T13:33:37Z</time>
      </trkpt>
      <trkpt lat="46.80302" lon="5.83072">
        <ele>580</ele>
        <time>2012-10-11T13:33:39Z</time>
      </trkpt>
      <trkpt lat="46.80292" lon="5.8308">
        <ele>580</ele>
        <time>2012-10-11T13:33:41Z</time>
      </trkpt>
      <trkpt lat="46.80282" lon="5.83088">
        <ele>580</ele>
        <time>2012-10-11T13:33:43Z</time>
      </trkpt>
      <trkpt lat="46.80272" lon="5.83095">
        <ele>580</ele>
        <time>2012-10-11T13:33:45Z</time>
      </trkpt>
      <trkpt lat="46.80262" lon="5.83101">
        <ele>580</ele>
        <time>2012-10-11T13:33:47Z</time>
      </trkpt>
      <trkpt lat="46.80252" lon="5.83106">
        <ele>580</ele>
        <time>2012-10-11T13:33:49Z</time>
      </trkpt>
      <trkpt lat="46.80242" lon="5.83112">
        <ele>580</ele>
        <time>2012-10-11T13:33:51Z</time>
      </trkpt>
      <trkpt lat="46.80232" lon="5.83117">
        <ele>580</ele>
        <time>2012-10-11T13:33:53Z</time>
      </trkpt>
      <trkpt lat="46.80222" lon="5.83123">
        <ele>580</ele>
        <time>2012-10-11T13:33:55Z</time>
      </trkpt>
      <trkpt lat="46.80211" lon="5.83128">
        <ele>580</ele>
        <time>2012-10-11T13:33:57Z</time>
      </trkpt>
      <trkpt lat="46.80201" lon="5.83133">
        <ele>580</ele>
        <time>2012-10-11T13:33:59Z</time>
      </trkpt>
      <trkpt lat="46.8019" lon="5.83139">
        <ele>580</ele>
        <time>2012-10-11T13:34:01Z</time>
      </trkpt>
      <trkpt lat="46.8018" lon="5.83144">
        <ele>580</ele>
        <time>2012-10-11T13:34:03Z</time>
      </trkpt>
      <trkpt lat="46.80169" lon="5.8315">
        <ele>580</ele>
        <time>2012-10-11T13:34:05Z</time>
      </trkpt>
      <trkpt lat="46.80159" lon="5.83155">
        <ele>580</ele>
        <time>2012-10-11T13:34:07Z</time>
      </trkpt>
      <trkpt lat="46.80148" lon="5.83161">
        <ele>585</ele>
        <time>2012-10-11T13:34:09Z</time>
      </trkpt>
      <trkpt lat="46.80138" lon="5.83167">
        <ele>585</ele>
        <time>2012-10-11T13:34:11Z</time>
      </trkpt>
      <trkpt lat="46.80127" lon="5.83171">
        <ele>585</ele>
        <time>2012-10-11T13:34:13Z</time>
      </trkpt>
      <trkpt lat="46.80116" lon="5.83176">
        <ele>585</ele>
        <time>2012-10-11T13:34:15Z</time>
      </trkpt>
      <trkpt lat="46.80106" lon="5.83183">
        <ele>585</ele>
        <time>2012-10-11T13:34:17Z</time>
      </trkpt>
      <trkpt lat="46.80096" lon="5.83188">
        <ele>585</ele>
        <time>2012-10-11T13:34:19Z</time>
      </trkpt>
      <trkpt lat="46.80085" lon="5.83194">
        <ele>585</ele>
        <time>2012-10-11T13:34:21Z</time>
      </trkpt>
      <trkpt lat="46.80074" lon="5.832">
        <ele>585</ele>
        <time>2012-10-11T13:34:23Z</time>
      </trkpt>
      <trkpt lat="46.80064" lon="5.83206">
        <ele>585</ele>
        <time>2012-10-11T13:34:25Z</time>
      </trkpt>
      <trkpt lat="46.80053" lon="5.83213">
        <ele>585</ele>
        <time>2012-10-11T13:34:27Z</time>
      </trkpt>
      <trkpt lat="46.80043" lon="5.83222">
        <ele>585</ele>
        <time>2012-10-11T13:34:29Z</time>
      </trkpt>
      <trkpt lat="46.80034" lon="5.83232">
        <ele>585</ele>
        <time>2012-10-11T13:34:31Z</time>
      </trkpt>
      <trkpt lat="46.80026" lon="5.83245">
        <ele>585</ele>
        <time>2012-10-11T13:34:33Z</time>
      </trkpt>
      <trkpt lat="46.80018" lon="5.83257">
        <ele>585</ele>
        <time>2012-10-11T13:34:35Z</time>
      </trkpt>
      <trkpt lat="46.80011" lon="5.8327">
        <ele>585</ele>
        <time>2012-10-11T13:34:37Z</time>
      </trkpt>
      <trkpt lat="46.80003" lon="5.83282">
        <ele>585</ele>
        <time>2012-10-11T13:34:39Z</time>
      </trkpt>
      <trkpt lat="46.79995" lon="5.83293">
        <ele>585</ele>
        <time>2012-10-11T13:34:41Z</time>
      </trkpt>
      <trkpt lat="46.79984" lon="5.83301">
        <ele>585</ele>
        <time>2012-10-11T13:34:43Z</time>
      </trkpt>
      <trkpt lat="46.79974" lon="5.83309">
        <ele>585</ele>
        <time>2012-10-11T13:34:45Z</time>
      </trkpt>
      <trkpt lat="46.79963" lon="5.83315">
        <ele>590</ele>
        <time>2012-10-11T13:34:47Z</time>
      </trkpt>
      <trkpt lat="46.79953" lon="5.83322">
        <ele>590</ele>
        <time>2012-10-11T13:34:49Z</time>
      </trkpt>
      <trkpt lat="46.79942" lon="5.83328">
        <ele>599</ele>
        <time>2012-10-11T13:34:51Z</time>
      </trkpt>
      <trkpt lat="46.79931" lon="5.83335">
        <ele>599</ele>
        <time>2012-10-11T13:34:53Z</time>
      </trkpt>
      <trkpt lat="46.79919" lon="5.83342">
        <ele>599</ele>
        <time>2012-10-11T13:34:55Z</time>
      </trkpt>
      <trkpt lat="46.79909" lon="5.83349">
        <ele>599</ele>
        <time>2012-10-11T13:34:57Z</time>
      </trkpt>
      <trkpt lat="46.79899" lon="5.83356">
        <ele>599</ele>
        <time>2012-10-11T13:34:59Z</time>
      </trkpt>
      <trkpt lat="46.79889" lon="5.83364">
        <ele>599</ele>
        <time>2012-10-11T13:35:01Z</time>
      </trkpt>
      <trkpt lat="46.79879" lon="5.83371">
        <ele>599</ele>
        <time>2012-10-11T13:35:03Z</time>
      </trkpt>
      <trkpt lat="46.7987" lon="5.83379">
        <ele>599</ele>
        <time>2012-10-11T13:35:05Z</time>
      </trkpt>
      <trkpt lat="46.7986" lon="5.83386">
        <ele>599</ele>
        <time>2012-10-11T13:35:07Z</time>
      </trkpt>
      <trkpt lat="46.79852" lon="5.83393">
        <ele>599</ele>
        <time>2012-10-11T13:35:09Z</time>
      </trkpt>
      <trkpt lat="46.79844" lon="5.834">
        <ele>599</ele>
        <time>2012-10-11T13:35:11Z</time>
      </trkpt>
      <trkpt lat="46.79836" lon="5.83407">
        <ele>599</ele>
        <time>2012-10-11T13:35:13Z</time>
      </trkpt>
      <trkpt lat="46.79824" lon="5.83415">
        <ele>599</ele>
        <time>2012-10-11T13:35:16Z</time>
      </trkpt>
      <trkpt lat="46.79813" lon="5.83424">
        <ele>599</ele>
        <time>2012-10-11T13:35:19Z</time>
      </trkpt>
      <trkpt lat="46.79802" lon="5.83432">
        <ele>599</ele>
        <time>2012-10-11T13:35:22Z</time>
      </trkpt>
      <trkpt lat="46.79792" lon="5.83441">
        <ele>599</ele>
        <time>2012-10-11T13:35:25Z</time>
      </trkpt>
      <trkpt lat="46.7978" lon="5.83449">
        <ele>599</ele>
        <time>2012-10-11T13:35:28Z</time>
      </trkpt>
      <trkpt lat="46.79769" lon="5.83454">
        <ele>599</ele>
        <time>2012-10-11T13:35:31Z</time>
      </trkpt>
      <trkpt lat="46.79758" lon="5.83459">
        <ele>599</ele>
        <time>2012-10-11T13:35:34Z</time>
      </trkpt>
      <trkpt lat="46.79746" lon="5.83461">
        <ele>599</ele>
        <time>2012-10-11T13:35:37Z</time>
      </trkpt>
      <trkpt lat="46.79734" lon="5.83462">
        <ele>599</ele>
        <time>2012-10-11T13:35:40Z</time>
      </trkpt>
      <trkpt lat="46.79721" lon="5.83463">
        <ele>599</ele>
        <time>2012-10-11T13:35:43Z</time>
      </trkpt>
      <trkpt lat="46.79709" lon="5.83464">
        <ele>599</ele>
        <time>2012-10-11T13:35:46Z</time>
      </trkpt>
      <trkpt lat="46.79697" lon="5.83465">
        <ele>599</ele>
        <time>2012-10-11T13:35:49Z</time>
      </trkpt>
      <trkpt lat="46.79684" lon="5.83466">
        <ele>599</ele>
        <time>2012-10-11T13:35:52Z</time>
      </trkpt>
      <trkpt lat="46.79673" lon="5.83469">
        <ele>599</ele>
        <time>2012-10-11T13:35:55Z</time>
      </trkpt>
      <trkpt lat="46.79662" lon="5.83475">
        <ele>599</ele>
        <time>2012-10-11T13:35:58Z</time>
      </trkpt>
      <trkpt lat="46.7965" lon="5.83482">
        <ele>604</ele>
        <time>2012-10-11T13:36:01Z</time>
      </trkpt>
      <trkpt lat="46.79639" lon="5.8349">
        <ele>604</ele>
        <time>2012-10-11T13:36:04Z</time>
      </trkpt>
      <trkpt lat="46.79628" lon="5.835">
        <ele>604</ele>
        <time>2012-10-11T13:36:07Z</time>
      </trkpt>
      <trkpt lat="46.7962" lon="5.83505">
        <ele>604</ele>
        <time>2012-10-11T13:36:09Z</time>
      </trkpt>
      <trkpt lat="46.79609" lon="5.83514">
        <ele>604</ele>
        <time>2012-10-11T13:36:12Z</time>
      </trkpt>
      <trkpt lat="46.79601" lon="5.83521">
        <ele>604</ele>
        <time>2012-10-11T13:36:14Z</time>
      </trkpt>
      <trkpt lat="46.79589" lon="5.83529">
        <ele>604</ele>
        <time>2012-10-11T13:36:17Z</time>
      </trkpt>
      <trkpt lat="46.79581" lon="5.83536">
        <ele>604</ele>
        <time>2012-10-11T13:36:19Z</time>
      </trkpt>
      <trkpt lat="46.7957" lon="5.83546">
        <ele>604</ele>
        <time>2012-10-11T13:36:22Z</time>
      </trkpt>
      <trkpt lat="46.79562" lon="5.83552">
        <ele>604</ele>
        <time>2012-10-11T13:36:24Z</time>
      </trkpt>
      <trkpt lat="46.79554" lon="5.83559">
        <ele>604</ele>
        <time>2012-10-11T13:36:26Z</time>
      </trkpt>
      <trkpt lat="46.79542" lon="5.8357">
        <ele>604</ele>
        <time>2012-10-11T13:36:29Z</time>
      </trkpt>
      <trkpt lat="46.79534" lon="5.83578">
        <ele>604</ele>
        <time>2012-10-11T13:36:31Z</time>
      </trkpt>
      <trkpt lat="46.79527" lon="5.83586">
        <ele>604</ele>
        <time>2012-10-11T13:36:33Z</time>
      </trkpt>
      <trkpt lat="46.7952" lon="5.83596">
        <ele>604</ele>
        <time>2012-10-11T13:36:35Z</time>
      </trkpt>
      <trkpt lat="46.79513" lon="5.83606">
        <ele>604</ele>
        <time>2012-10-11T13:36:37Z</time>
      </trkpt>
      <trkpt lat="46.79507" lon="5.83616">
        <ele>609</ele>
        <time>2012-10-11T13:36:39Z</time>
      </trkpt>
      <trkpt lat="46.79501" lon="5.83627">
        <ele>609</ele>
        <time>2012-10-11T13:36:41Z</time>
      </trkpt>
      <trkpt lat="46.79496" lon="5.83639">
        <ele>609</ele>
        <time>2012-10-11T13:36:43Z</time>
      </trkpt>
      <trkpt lat="46.79493" lon="5.83652">
        <ele>609</ele>
        <time>2012-10-11T13:36:45Z</time>
      </trkpt>
      <trkpt lat="46.79489" lon="5.83664">
        <ele>609</ele>
        <time>2012-10-11T13:36:47Z</time>
      </trkpt>
      <trkpt lat="46.79485" lon="5.83677">
        <ele>609</ele>
        <time>2012-10-11T13:36:49Z</time>
      </trkpt>
      <trkpt lat="46.7948" lon="5.83695">
        <ele>609</ele>
        <time>2012-10-11T13:36:52Z</time>
      </trkpt>
      <trkpt lat="46.79473" lon="5.8371">
        <ele>609</ele>
        <time>2012-10-11T13:36:55Z</time>
      </trkpt>
      <trkpt lat="46.79461" lon="5.83712">
        <ele>609</ele>
        <time>2012-10-11T13:36:58Z</time>
      </trkpt>
      <trkpt lat="46.7945" lon="5.83703">
        <ele>609</ele>
        <time>2012-10-11T13:37:01Z</time>
      </trkpt>
      <trkpt lat="46.7944" lon="5.83695">
        <ele>609</ele>
        <time>2012-10-11T13:37:04Z</time>
      </trkpt>
      <trkpt lat="46.7943" lon="5.83688">
        <ele>609</ele>
        <time>2012-10-11T13:37:07Z</time>
      </trkpt>
      <trkpt lat="46.7942" lon="5.83682">
        <ele>609</ele>
        <time>2012-10-11T13:37:10Z</time>
      </trkpt>
      <trkpt lat="46.79409" lon="5.83677">
        <ele>609</ele>
        <time>2012-10-11T13:37:13Z</time>
      </trkpt>
      <trkpt lat="46.79399" lon="5.83671">
        <ele>609</ele>
        <time>2012-10-11T13:37:16Z</time>
      </trkpt>
      <trkpt lat="46.79388" lon="5.83665">
        <ele>609</ele>
        <time>2012-10-11T13:37:19Z</time>
      </trkpt>
      <trkpt lat="46.79376" lon="5.83661">
        <ele>609</ele>
        <time>2012-10-11T13:37:22Z</time>
      </trkpt>
      <trkpt lat="46.79367" lon="5.83657">
        <ele>609</ele>
        <time>2012-10-11T13:37:24Z</time>
      </trkpt>
      <trkpt lat="46.79357" lon="5.83653">
        <ele>609</ele>
        <time>2012-10-11T13:37:26Z</time>
      </trkpt>
      <trkpt lat="46.79347" lon="5.83648">
        <ele>609</ele>
        <time>2012-10-11T13:37:28Z</time>
      </trkpt>
      <trkpt lat="46.79335" lon="5.83644">
        <ele>609</ele>
        <time>2012-10-11T13:37:30Z</time>
      </trkpt>
      <trkpt lat="46.79324" lon="5.83637">
        <ele>609</ele>
        <time>2012-10-11T13:37:32Z</time>
      </trkpt>
      <trkpt lat="46.79311" lon="5.83632">
        <ele>609</ele>
        <time>2012-10-11T13:37:34Z</time>
      </trkpt>
      <trkpt lat="46.79299" lon="5.83627">
        <ele>609</ele>
        <time>2012-10-11T13:37:36Z</time>
      </trkpt>
      <trkpt lat="46.79287" lon="5.83621">
        <ele>609</ele>
        <time>2012-10-11T13:37:38Z</time>
      </trkpt>
      <trkpt lat="46.79275" lon="5.83616">
        <ele>609</ele>
        <time>2012-10-11T13:37:40Z</time>
      </trkpt>
      <trkpt lat="46.79263" lon="5.83611">
        <ele>609</ele>
        <time>2012-10-11T13:37:42Z</time>
      </trkpt>
      <trkpt lat="46.79252" lon="5.83607">
        <ele>609</ele>
        <time>2012-10-11T13:37:44Z</time>
      </trkpt>
      <trkpt lat="46.79241" lon="5.83601">
        <ele>609</ele>
        <time>2012-10-11T13:37:46Z</time>
      </trkpt>
      <trkpt lat="46.79229" lon="5.83598">
        <ele>609</ele>
        <time>2012-10-11T13:37:48Z</time>
      </trkpt>
      <trkpt lat="46.79216" lon="5.83591">
        <ele>609</ele>
        <time>2012-10-11T13:37:50Z</time>
      </trkpt>
      <trkpt lat="46.79204" lon="5.83586">
        <ele>609</ele>
        <time>2012-10-11T13:37:52Z</time>
      </trkpt>
      <trkpt lat="46.79191" lon="5.8358">
        <ele>609</ele>
        <time>2012-10-11T13:37:54Z</time>
      </trkpt>
      <trkpt lat="46.79179" lon="5.83574">
        <ele>609</ele>
        <time>2012-10-11T13:37:56Z</time>
      </trkpt>
      <trkpt lat="46.79167" lon="5.83568">
        <ele>609</ele>
        <time>2012-10-11T13:37:58Z</time>
      </trkpt>
      <trkpt lat="46.79156" lon="5.83564">
        <ele>609</ele>
        <time>2012-10-11T13:38:00Z</time>
      </trkpt>
      <trkpt lat="46.79146" lon="5.83558">
        <ele>609</ele>
        <time>2012-10-11T13:38:02Z</time>
      </trkpt>
      <trkpt lat="46.79135" lon="5.83554">
        <ele>609</ele>
        <time>2012-10-11T13:38:04Z</time>
      </trkpt>
      <trkpt lat="46.79125" lon="5.83548">
        <ele>609</ele>
        <time>2012-10-11T13:38:06Z</time>
      </trkpt>
      <trkpt lat="46.79115" lon="5.83542">
        <ele>609</ele>
        <time>2012-10-11T13:38:08Z</time>
      </trkpt>
      <trkpt lat="46.79105" lon="5.83535">
        <ele>609</ele>
        <time>2012-10-11T13:38:10Z</time>
      </trkpt>
      <trkpt lat="46.79097" lon="5.83527">
        <ele>609</ele>
        <time>2012-10-11T13:38:12Z</time>
      </trkpt>
      <trkpt lat="46.79089" lon="5.83517">
        <ele>609</ele>
        <time>2012-10-11T13:38:14Z</time>
      </trkpt>
      <trkpt lat="46.79082" lon="5.83506">
        <ele>609</ele>
        <time>2012-10-11T13:38:16Z</time>
      </trkpt>
      <trkpt lat="46.79074" lon="5.83495">
        <ele>609</ele>
        <time>2012-10-11T13:38:18Z</time>
      </trkpt>
      <trkpt lat="46.79066" lon="5.83484">
        <ele>609</ele>
        <time>2012-10-11T13:38:20Z</time>
      </trkpt>
      <trkpt lat="46.79058" lon="5.83472">
        <ele>609</ele>
        <time>2012-10-11T13:38:22Z</time>
      </trkpt>
      <trkpt lat="46.7905" lon="5.83461">
        <ele>609</ele>
        <time>2012-10-11T13:38:24Z</time>
      </trkpt>
      <trkpt lat="46.79042" lon="5.8345">
        <ele>609</ele>
        <time>2012-10-11T13:38:26Z</time>
      </trkpt>
      <trkpt lat="46.79034" lon="5.83437">
        <ele>609</ele>
        <time>2012-10-11T13:38:28Z</time>
      </trkpt>
      <trkpt lat="46.79026" lon="5.83425">
        <ele>609</ele>
        <time>2012-10-11T13:38:30Z</time>
      </trkpt>
      <trkpt lat="46.79018" lon="5.83413">
        <ele>609</ele>
        <time>2012-10-11T13:38:32Z</time>
      </trkpt>
      <trkpt lat="46.79009" lon="5.83399">
        <ele>609</ele>
        <time>2012-10-11T13:38:34Z</time>
      </trkpt>
      <trkpt lat="46.78999" lon="5.83386">
        <ele>609</ele>
        <time>2012-10-11T13:38:36Z</time>
      </trkpt>
      <trkpt lat="46.7899" lon="5.83371">
        <ele>609</ele>
        <time>2012-10-11T13:38:38Z</time>
      </trkpt>
      <trkpt lat="46.7898" lon="5.83358">
        <ele>609</ele>
        <time>2012-10-11T13:38:40Z</time>
      </trkpt>
      <trkpt lat="46.7897" lon="5.83344">
        <ele>609</ele>
        <time>2012-10-11T13:38:42Z</time>
      </trkpt>
      <trkpt lat="46.7896" lon="5.8333">
        <ele>609</ele>
        <time>2012-10-11T13:38:44Z</time>
      </trkpt>
      <trkpt lat="46.7895" lon="5.83316">
        <ele>609</ele>
        <time>2012-10-11T13:38:46Z</time>
      </trkpt>
      <trkpt lat="46.7894" lon="5.83301">
        <ele>609</ele>
        <time>2012-10-11T13:38:48Z</time>
      </trkpt>
      <trkpt lat="46.78931" lon="5.83287">
        <ele>609</ele>
        <time>2012-10-11T13:38:50Z</time>
      </trkpt>
      <trkpt lat="46.78921" lon="5.83273">
        <ele>609</ele>
        <time>2012-10-11T13:38:52Z</time>
      </trkpt>
      <trkpt lat="46.78912" lon="5.83259">
        <ele>609</ele>
        <time>2012-10-11T13:38:54Z</time>
      </trkpt>
      <trkpt lat="46.78902" lon="5.83246">
        <ele>609</ele>
        <time>2012-10-11T13:38:56Z</time>
      </trkpt>
      <trkpt lat="46.78891" lon="5.83234">
        <ele>609</ele>
        <time>2012-10-11T13:38:58Z</time>
      </trkpt>
      <trkpt lat="46.7888" lon="5.83223">
        <ele>609</ele>
        <time>2012-10-11T13:39:00Z</time>
      </trkpt>
      <trkpt lat="46.78868" lon="5.83212">
        <ele>609</ele>
        <time>2012-10-11T13:39:02Z</time>
      </trkpt>
      <trkpt lat="46.78855" lon="5.83202">
        <ele>609</ele>
        <time>2012-10-11T13:39:04Z</time>
      </trkpt>
      <trkpt lat="46.78842" lon="5.83193">
        <ele>609</ele>
        <time>2012-10-11T13:39:06Z</time>
      </trkpt>
      <trkpt lat="46.78829" lon="5.83186">
        <ele>609</ele>
        <time>2012-10-11T13:39:08Z</time>
      </trkpt>
      <trkpt lat="46.78815" lon="5.83183">
        <ele>609</ele>
        <time>2012-10-11T13:39:10Z</time>
      </trkpt>
      <trkpt lat="46.78801" lon="5.8318">
        <ele>609</ele>
        <time>2012-10-11T13:39:12Z</time>
      </trkpt>
      <trkpt lat="46.78787" lon="5.83179">
        <ele>609</ele>
        <time>2012-10-11T13:39:14Z</time>
      </trkpt>
      <trkpt lat="46.78775" lon="5.83179">
        <ele>609</ele>
        <time>2012-10-11T13:39:16Z</time>
      </trkpt>
      <trkpt lat="46.78762" lon="5.8318">
        <ele>609</ele>
        <time>2012-10-11T13:39:18Z</time>
      </trkpt>
      <trkpt lat="46.7875" lon="5.83181">
        <ele>609</ele>
        <time>2012-10-11T13:39:20Z</time>
      </trkpt>
      <trkpt lat="46.78737" lon="5.83183">
        <ele>609</ele>
        <time>2012-10-11T13:39:22Z</time>
      </trkpt>
      <trkpt lat="46.78725" lon="5.83185">
        <ele>609</ele>
        <time>2012-10-11T13:39:24Z</time>
      </trkpt>
      <trkpt lat="46.78713" lon="5.83187">
        <ele>609</ele>
        <time>2012-10-11T13:39:26Z</time>
      </trkpt>
      <trkpt lat="46.78701" lon="5.8319">
        <ele>609</ele>
        <time>2012-10-11T13:39:28Z</time>
      </trkpt>
      <trkpt lat="46.78689" lon="5.83188">
        <ele>609</ele>
        <time>2012-10-11T13:39:30Z</time>
      </trkpt>
      <trkpt lat="46.78679" lon="5.83183">
        <ele>609</ele>
        <time>2012-10-11T13:39:32Z</time>
      </trkpt>
      <trkpt lat="46.78671" lon="5.83176">
        <ele>609</ele>
        <time>2012-10-11T13:39:34Z</time>
      </trkpt>
      <trkpt lat="46.78662" lon="5.83167">
        <ele>609</ele>
        <time>2012-10-11T13:39:36Z</time>
      </trkpt>
      <trkpt lat="46.78654" lon="5.83157">
        <ele>609</ele>
        <time>2012-10-11T13:39:38Z</time>
      </trkpt>
      <trkpt lat="46.78646" lon="5.83147">
        <ele>609</ele>
        <time>2012-10-11T13:39:40Z</time>
      </trkpt>
      <trkpt lat="46.78637" lon="5.83137">
        <ele>609</ele>
        <time>2012-10-11T13:39:42Z</time>
      </trkpt>
      <trkpt lat="46.78629" lon="5.83126">
        <ele>609</ele>
        <time>2012-10-11T13:39:44Z</time>
      </trkpt>
      <trkpt lat="46.78621" lon="5.83115">
        <ele>615</ele>
        <time>2012-10-11T13:39:46Z</time>
      </trkpt>
      <trkpt lat="46.78612" lon="5.83105">
        <ele>615</ele>
        <time>2012-10-11T13:39:48Z</time>
      </trkpt>
      <trkpt lat="46.78603" lon="5.83096">
        <ele>615</ele>
        <time>2012-10-11T13:39:50Z</time>
      </trkpt>
      <trkpt lat="46.78594" lon="5.83088">
        <ele>615</ele>
        <time>2012-10-11T13:39:52Z</time>
      </trkpt>
      <trkpt lat="46.78585" lon="5.8308">
        <ele>615</ele>
        <time>2012-10-11T13:39:54Z</time>
      </trkpt>
      <trkpt lat="46.78575" lon="5.83072">
        <ele>615</ele>
        <time>2012-10-11T13:39:56Z</time>
      </trkpt>
      <trkpt lat="46.78565" lon="5.83064">
        <ele>615</ele>
        <time>2012-10-11T13:39:58Z</time>
      </trkpt>
      <trkpt lat="46.78555" lon="5.83054">
        <ele>615</ele>
        <time>2012-10-11T13:40:00Z</time>
      </trkpt>
      <trkpt lat="46.78545" lon="5.83042">
        <ele>615</ele>
        <time>2012-10-11T13:40:02Z</time>
      </trkpt>
      <trkpt lat="46.78537" lon="5.83026">
        <ele>615</ele>
        <time>2012-10-11T13:40:04Z</time>
      </trkpt>
      <trkpt lat="46.78528" lon="5.83008">
        <ele>615</ele>
        <time>2012-10-11T13:40:06Z</time>
      </trkpt>
      <trkpt lat="46.78518" lon="5.82991">
        <ele>615</ele>
        <time>2012-10-11T13:40:08Z</time>
      </trkpt>
      <trkpt lat="46.78507" lon="5.82972">
        <ele>615</ele>
        <time>2012-10-11T13:40:10Z</time>
      </trkpt>
      <trkpt lat="46.78496" lon="5.82951">
        <ele>615</ele>
        <time>2012-10-11T13:40:12Z</time>
      </trkpt>
      <trkpt lat="46.78487" lon="5.8293">
        <ele>615</ele>
        <time>2012-10-11T13:40:14Z</time>
      </trkpt>
      <trkpt lat="46.78477" lon="5.82911">
        <ele>615</ele>
        <time>2012-10-11T13:40:16Z</time>
      </trkpt>
      <trkpt lat="46.78467" lon="5.82892">
        <ele>615</ele>
        <time>2012-10-11T13:40:18Z</time>
      </trkpt>
      <trkpt lat="46.78458" lon="5.82874">
        <ele>615</ele>
        <time>2012-10-11T13:40:20Z</time>
      </trkpt>
      <trkpt lat="46.78447" lon="5.82856">
        <ele>615</ele>
        <time>2012-10-11T13:40:22Z</time>
      </trkpt>
      <trkpt lat="46.78441" lon="5.82847">
        <ele>615</ele>
        <time>2012-10-11T13:40:23Z</time>
      </trkpt>
      <trkpt lat="46.78427" lon="5.82831">
        <ele>615</ele>
        <time>2012-10-11T13:40:25Z</time>
      </trkpt>
      <trkpt lat="46.78413" lon="5.82816">
        <ele>615</ele>
        <time>2012-10-11T13:40:27Z</time>
      </trkpt>
      <trkpt lat="46.78398" lon="5.82802">
        <ele>610</ele>
        <time>2012-10-11T13:40:29Z</time>
      </trkpt>
      <trkpt lat="46.78384" lon="5.82787">
        <ele>610</ele>
        <time>2012-10-11T13:40:31Z</time>
      </trkpt>
      <trkpt lat="46.78376" lon="5.82779">
        <ele>610</ele>
        <time>2012-10-11T13:40:32Z</time>
      </trkpt>
      <trkpt lat="46.78362" lon="5.82765">
        <ele>610</ele>
        <time>2012-10-11T13:40:34Z</time>
      </trkpt>
      <trkpt lat="46.78354" lon="5.82757">
        <ele>610</ele>
        <time>2012-10-11T13:40:35Z</time>
      </trkpt>
      <trkpt lat="46.7834" lon="5.82743">
        <ele>610</ele>
        <time>2012-10-11T13:40:37Z</time>
      </trkpt>
      <trkpt lat="46.78326" lon="5.8273">
        <ele>610</ele>
        <time>2012-10-11T13:40:39Z</time>
      </trkpt>
      <trkpt lat="46.78313" lon="5.82716">
        <ele>610</ele>
        <time>2012-10-11T13:40:41Z</time>
      </trkpt>
      <trkpt lat="46.78301" lon="5.82701">
        <ele>610</ele>
        <time>2012-10-11T13:40:43Z</time>
      </trkpt>
      <trkpt lat="46.78289" lon="5.8269">
        <ele>610</ele>
        <time>2012-10-11T13:40:45Z</time>
      </trkpt>
      <trkpt lat="46.78276" lon="5.82678">
        <ele>610</ele>
        <time>2012-10-11T13:40:47Z</time>
      </trkpt>
      <trkpt lat="46.78266" lon="5.82667">
        <ele>610</ele>
        <time>2012-10-11T13:40:49Z</time>
      </trkpt>
      <trkpt lat="46.78255" lon="5.82656">
        <ele>610</ele>
        <time>2012-10-11T13:40:51Z</time>
      </trkpt>
      <trkpt lat="46.78244" lon="5.82646">
        <ele>610</ele>
        <time>2012-10-11T13:40:53Z</time>
      </trkpt>
      <trkpt lat="46.78233" lon="5.82636">
        <ele>610</ele>
        <time>2012-10-11T13:40:55Z</time>
      </trkpt>
      <trkpt lat="46.78221" lon="5.82627">
        <ele>610</ele>
        <time>2012-10-11T13:40:57Z</time>
      </trkpt>
      <trkpt lat="46.78207" lon="5.82618">
        <ele>610</ele>
        <time>2012-10-11T13:40:59Z</time>
      </trkpt>
      <trkpt lat="46.78193" lon="5.82609">
        <ele>605</ele>
        <time>2012-10-11T13:41:01Z</time>
      </trkpt>
      <trkpt lat="46.78179" lon="5.82599">
        <ele>605</ele>
        <time>2012-10-11T13:41:03Z</time>
      </trkpt>
      <trkpt lat="46.78163" lon="5.82588">
        <ele>605</ele>
        <time>2012-10-11T13:41:05Z</time>
      </trkpt>
      <trkpt lat="46.78146" lon="5.82578">
        <ele>605</ele>
        <time>2012-10-11T13:41:07Z</time>
      </trkpt>
      <trkpt lat="46.78138" lon="5.82572">
        <ele>605</ele>
        <time>2012-10-11T13:41:08Z</time>
      </trkpt>
      <trkpt lat="46.7812" lon="5.82561">
        <ele>605</ele>
        <time>2012-10-11T13:41:10Z</time>
      </trkpt>
      <trkpt lat="46.78112" lon="5.82555">
        <ele>605</ele>
        <time>2012-10-11T13:41:11Z</time>
      </trkpt>
      <trkpt lat="46.78102" lon="5.82549">
        <ele>605</ele>
        <time>2012-10-11T13:41:12Z</time>
      </trkpt>
      <trkpt lat="46.78093" lon="5.82542">
        <ele>605</ele>
        <time>2012-10-11T13:41:13Z</time>
      </trkpt>
      <trkpt lat="46.78083" lon="5.82536">
        <ele>605</ele>
        <time>2012-10-11T13:41:14Z</time>
      </trkpt>
      <trkpt lat="46.78074" lon="5.82531">
        <ele>605</ele>
        <time>2012-10-11T13:41:15Z</time>
      </trkpt>
      <trkpt lat="46.78064" lon="5.82524">
        <ele>599</ele>
        <time>2012-10-11T13:41:16Z</time>
      </trkpt>
      <trkpt lat="46.78055" lon="5.82518">
        <ele>599</ele>
        <time>2012-10-11T13:41:17Z</time>
      </trkpt>
      <trkpt lat="46.78046" lon="5.82512">
        <ele>599</ele>
        <time>2012-10-11T13:41:18Z</time>
      </trkpt>
      <trkpt lat="46.78036" lon="5.82505">
        <ele>599</ele>
        <time>2012-10-11T13:41:19Z</time>
      </trkpt>
      <trkpt lat="46.78027" lon="5.82499">
        <ele>599</ele>
        <time>2012-10-11T13:41:20Z</time>
      </trkpt>
      <trkpt lat="46.78018" lon="5.82494">
        <ele>599</ele>
        <time>2012-10-11T13:41:21Z</time>
      </trkpt>
      <trkpt lat="46.78009" lon="5.82487">
        <ele>599</ele>
        <time>2012-10-11T13:41:22Z</time>
      </trkpt>
      <trkpt lat="46.78001" lon="5.82483">
        <ele>599</ele>
        <time>2012-10-11T13:41:23Z</time>
      </trkpt>
      <trkpt lat="46.77992" lon="5.82478">
        <ele>599</ele>
        <time>2012-10-11T13:41:24Z</time>
      </trkpt>
      <trkpt lat="46.77983" lon="5.82472">
        <ele>599</ele>
        <time>2012-10-11T13:41:25Z</time>
      </trkpt>
      <trkpt lat="46.77974" lon="5.82467">
        <ele>599</ele>
        <time>2012-10-11T13:41:26Z</time>
      </trkpt>
      <trkpt lat="46.77965" lon="5.8246">
        <ele>599</ele>
        <time>2012-10-11T13:41:27Z</time>
      </trkpt>
      <trkpt lat="46.77948" lon="5.82451">
        <ele>594</ele>
        <time>2012-10-11T13:41:29Z</time>
      </trkpt>
      <trkpt lat="46.7794" lon="5.82445">
        <ele>594</ele>
        <time>2012-10-11T13:41:30Z</time>
      </trkpt>
      <trkpt lat="46.77931" lon="5.8244">
        <ele>594</ele>
        <time>2012-10-11T13:41:31Z</time>
      </trkpt>
      <trkpt lat="46.77922" lon="5.82434">
        <ele>594</ele>
        <time>2012-10-11T13:41:32Z</time>
      </trkpt>
      <trkpt lat="46.77913" lon="5.82428">
        <ele>594</ele>
        <time>2012-10-11T13:41:33Z</time>
      </trkpt>
      <trkpt lat="46.77904" lon="5.82423">
        <ele>594</ele>
        <time>2012-10-11T13:41:34Z</time>
      </trkpt>
      <trkpt lat="46.77895" lon="5.82416">
        <ele>594</ele>
        <time>2012-10-11T13:41:35Z</time>
      </trkpt>
      <trkpt lat="46.77886" lon="5.82411">
        <ele>588</ele>
        <time>2012-10-11T13:41:36Z</time>
      </trkpt>
      <trkpt lat="46.77877" lon="5.82406">
        <ele>588</ele>
        <time>2012-10-11T13:41:37Z</time>
      </trkpt>
      <trkpt lat="46.77868" lon="5.82399">
        <ele>588</ele>
        <time>2012-10-11T13:41:38Z</time>
      </trkpt>
      <trkpt lat="46.77859" lon="5.82394">
        <ele>588</ele>
        <time>2012-10-11T13:41:39Z</time>
      </trkpt>
      <trkpt lat="46.7785" lon="5.82388">
        <ele>588</ele>
        <time>2012-10-11T13:41:40Z</time>
      </trkpt>
      <trkpt lat="46.77841" lon="5.82382">
        <ele>588</ele>
        <time>2012-10-11T13:41:41Z</time>
      </trkpt>
      <trkpt lat="46.77833" lon="5.82377">
        <ele>588</ele>
        <time>2012-10-11T13:41:42Z</time>
      </trkpt>
      <trkpt lat="46.77824" lon="5.82372">
        <ele>588</ele>
        <time>2012-10-11T13:41:43Z</time>
      </trkpt>
      <trkpt lat="46.77815" lon="5.82366">
        <ele>588</ele>
        <time>2012-10-11T13:41:44Z</time>
      </trkpt>
      <trkpt lat="46.77806" lon="5.82361">
        <ele>583</ele>
        <time>2012-10-11T13:41:45Z</time>
      </trkpt>
      <trkpt lat="46.77798" lon="5.82355">
        <ele>583</ele>
        <time>2012-10-11T13:41:46Z</time>
      </trkpt>
      <trkpt lat="46.77788" lon="5.8235">
        <ele>583</ele>
        <time>2012-10-11T13:41:47Z</time>
      </trkpt>
      <trkpt lat="46.7778" lon="5.82345">
        <ele>583</ele>
        <time>2012-10-11T13:41:48Z</time>
      </trkpt>
      <trkpt lat="46.77772" lon="5.82338">
        <ele>583</ele>
        <time>2012-10-11T13:41:49Z</time>
      </trkpt>
      <trkpt lat="46.77764" lon="5.82328">
        <ele>583</ele>
        <time>2012-10-11T13:41:50Z</time>
      </trkpt>
      <trkpt lat="46.77758" lon="5.82318">
        <ele>583</ele>
        <time>2012-10-11T13:41:51Z</time>
      </trkpt>
      <trkpt lat="46.77754" lon="5.82305">
        <ele>583</ele>
        <time>2012-10-11T13:41:52Z</time>
      </trkpt>
      <trkpt lat="46.77751" lon="5.82291">
        <ele>583</ele>
        <time>2012-10-11T13:41:53Z</time>
      </trkpt>
      <trkpt lat="46.77751" lon="5.82275">
        <ele>583</ele>
        <time>2012-10-11T13:41:54Z</time>
      </trkpt>
      <trkpt lat="46.77749" lon="5.82261">
        <ele>583</ele>
        <time>2012-10-11T13:41:55Z</time>
      </trkpt>
      <trkpt lat="46.77746" lon="5.82246">
        <ele>583</ele>
        <time>2012-10-11T13:41:56Z</time>
      </trkpt>
      <trkpt lat="46.77743" lon="5.82232">
        <ele>583</ele>
        <time>2012-10-11T13:41:57Z</time>
      </trkpt>
      <trkpt lat="46.77739" lon="5.82208">
        <ele>583</ele>
        <time>2012-10-11T13:41:59Z</time>
      </trkpt>
      <trkpt lat="46.7773" lon="5.82191">
        <ele>583</ele>
        <time>2012-10-11T13:42:01Z</time>
      </trkpt>
      <trkpt lat="46.77719" lon="5.82178">
        <ele>583</ele>
        <time>2012-10-11T13:42:03Z</time>
      </trkpt>
      <trkpt lat="46.77703" lon="5.82174">
        <ele>583</ele>
        <time>2012-10-11T13:42:05Z</time>
      </trkpt>
      <trkpt lat="46.77686" lon="5.82173">
        <ele>578</ele>
        <time>2012-10-11T13:42:07Z</time>
      </trkpt>
      <trkpt lat="46.77677" lon="5.82174">
        <ele>578</ele>
        <time>2012-10-11T13:42:08Z</time>
      </trkpt>
      <trkpt lat="46.77667" lon="5.82175">
        <ele>578</ele>
        <time>2012-10-11T13:42:09Z</time>
      </trkpt>
      <trkpt lat="46.77658" lon="5.82176">
        <ele>578</ele>
        <time>2012-10-11T13:42:10Z</time>
      </trkpt>
      <trkpt lat="46.7764" lon="5.82178">
        <ele>578</ele>
        <time>2012-10-11T13:42:12Z</time>
      </trkpt>
      <trkpt lat="46.7763" lon="5.82178">
        <ele>578</ele>
        <time>2012-10-11T13:42:13Z</time>
      </trkpt>
      <trkpt lat="46.7762" lon="5.82178">
        <ele>578</ele>
        <time>2012-10-11T13:42:14Z</time>
      </trkpt>
      <trkpt lat="46.77611" lon="5.82179">
        <ele>578</ele>
        <time>2012-10-11T13:42:15Z</time>
      </trkpt>
      <trkpt lat="46.77601" lon="5.82179">
        <ele>578</ele>
        <time>2012-10-11T13:42:16Z</time>
      </trkpt>
      <trkpt lat="46.77591" lon="5.8218">
        <ele>578</ele>
        <time>2012-10-11T13:42:17Z</time>
      </trkpt>
      <trkpt lat="46.77581" lon="5.8218">
        <ele>572</ele>
        <time>2012-10-11T13:42:18Z</time>
      </trkpt>
      <trkpt lat="46.7757" lon="5.82181">
        <ele>572</ele>
        <time>2012-10-11T13:42:19Z</time>
      </trkpt>
      <trkpt lat="46.77561" lon="5.82181">
        <ele>572</ele>
        <time>2012-10-11T13:42:20Z</time>
      </trkpt>
      <trkpt lat="46.77551" lon="5.82181">
        <ele>572</ele>
        <time>2012-10-11T13:42:21Z</time>
      </trkpt>
      <trkpt lat="46.7754" lon="5.82182">
        <ele>572</ele>
        <time>2012-10-11T13:42:22Z</time>
      </trkpt>
      <trkpt lat="46.7753" lon="5.82182">
        <ele>572</ele>
        <time>2012-10-11T13:42:23Z</time>
      </trkpt>
      <trkpt lat="46.7752" lon="5.82181">
        <ele>572</ele>
        <time>2012-10-11T13:42:24Z</time>
      </trkpt>
      <trkpt lat="46.7751" lon="5.8218">
        <ele>572</ele>
        <time>2012-10-11T13:42:25Z</time>
      </trkpt>
      <trkpt lat="46.775" lon="5.82181">
        <ele>572</ele>
        <time>2012-10-11T13:42:26Z</time>
      </trkpt>
      <trkpt lat="46.7749" lon="5.82181">
        <ele>572</ele>
        <time>2012-10-11T13:42:27Z</time>
      </trkpt>
      <trkpt lat="46.7748" lon="5.82182">
        <ele>567</ele>
        <time>2012-10-11T13:42:28Z</time>
      </trkpt>
      <trkpt lat="46.7747" lon="5.82183">
        <ele>567</ele>
        <time>2012-10-11T13:42:29Z</time>
      </trkpt>
      <trkpt lat="46.7746" lon="5.82184">
        <ele>567</ele>
        <time>2012-10-11T13:42:30Z</time>
      </trkpt>
      <trkpt lat="46.77451" lon="5.82184">
        <ele>567</ele>
        <time>2012-10-11T13:42:31Z</time>
      </trkpt>
      <trkpt lat="46.77441" lon="5.82186">
        <ele>567</ele>
        <time>2012-10-11T13:42:32Z</time>
      </trkpt>
      <trkpt lat="46.77423" lon="5.82191">
        <ele>567</ele>
        <time>2012-10-11T13:42:34Z</time>
      </trkpt>
      <trkpt lat="46.77413" lon="5.82196">
        <ele>567</ele>
        <time>2012-10-11T13:42:35Z</time>
      </trkpt>
      <trkpt lat="46.77403" lon="5.82203">
        <ele>567</ele>
        <time>2012-10-11T13:42:36Z</time>
      </trkpt>
      <trkpt lat="46.77395" lon="5.82212">
        <ele>567</ele>
        <time>2012-10-11T13:42:37Z</time>
      </trkpt>
      <trkpt lat="46.77387" lon="5.82221">
        <ele>567</ele>
        <time>2012-10-11T13:42:38Z</time>
      </trkpt>
      <trkpt lat="46.77378" lon="5.8223">
        <ele>567</ele>
        <time>2012-10-11T13:42:39Z</time>
      </trkpt>
      <trkpt lat="46.77369" lon="5.8224">
        <ele>567</ele>
        <time>2012-10-11T13:42:40Z</time>
      </trkpt>
      <trkpt lat="46.77358" lon="5.82248">
        <ele>567</ele>
        <time>2012-10-11T13:42:41Z</time>
      </trkpt>
      <trkpt lat="46.7735" lon="5.82255">
        <ele>567</ele>
        <time>2012-10-11T13:42:42Z</time>
      </trkpt>
      <trkpt lat="46.77339" lon="5.82261">
        <ele>567</ele>
        <time>2012-10-11T13:42:43Z</time>
      </trkpt>
      <trkpt lat="46.7733" lon="5.82267">
        <ele>567</ele>
        <time>2012-10-11T13:42:44Z</time>
      </trkpt>
      <trkpt lat="46.77321" lon="5.82272">
        <ele>567</ele>
        <time>2012-10-11T13:42:45Z</time>
      </trkpt>
      <trkpt lat="46.77311" lon="5.82275">
        <ele>567</ele>
        <time>2012-10-11T13:42:46Z</time>
      </trkpt>
      <trkpt lat="46.77301" lon="5.82281">
        <ele>567</ele>
        <time>2012-10-11T13:42:47Z</time>
      </trkpt>
      <trkpt lat="46.7729" lon="5.82284">
        <ele>567</ele>
        <time>2012-10-11T13:42:48Z</time>
      </trkpt>
      <trkpt lat="46.77279" lon="5.82288">
        <ele>567</ele>
        <time>2012-10-11T13:42:49Z</time>
      </trkpt>
      <trkpt lat="46.77269" lon="5.82292">
        <ele>567</ele>
        <time>2012-10-11T13:42:50Z</time>
      </trkpt>
      <trkpt lat="46.77259" lon="5.82296">
        <ele>567</ele>
        <time>2012-10-11T13:42:51Z</time>
      </trkpt>
      <trkpt lat="46.77249" lon="5.82301">
        <ele>567</ele>
        <time>2012-10-11T13:42:52Z</time>
      </trkpt>
      <trkpt lat="46.77238" lon="5.82305">
        <ele>567</ele>
        <time>2012-10-11T13:42:53Z</time>
      </trkpt>
      <trkpt lat="46.77227" lon="5.82309">
        <ele>567</ele>
        <time>2012-10-11T13:42:54Z</time>
      </trkpt>
      <trkpt lat="46.77217" lon="5.82312">
        <ele>567</ele>
        <time>2012-10-11T13:42:55Z</time>
      </trkpt>
      <trkpt lat="46.77206" lon="5.82317">
        <ele>567</ele>
        <time>2012-10-11T13:42:56Z</time>
      </trkpt>
      <trkpt lat="46.77197" lon="5.8232">
        <ele>567</ele>
        <time>2012-10-11T13:42:57Z</time>
      </trkpt>
      <trkpt lat="46.77187" lon="5.82325">
        <ele>567</ele>
        <time>2012-10-11T13:42:58Z</time>
      </trkpt>
      <trkpt lat="46.77175" lon="5.82328">
        <ele>567</ele>
        <time>2012-10-11T13:42:59Z</time>
      </trkpt>
      <trkpt lat="46.77164" lon="5.82333">
        <ele>567</ele>
        <time>2012-10-11T13:43:00Z</time>
      </trkpt>
      <trkpt lat="46.77154" lon="5.82337">
        <ele>567</ele>
        <time>2012-10-11T13:43:01Z</time>
      </trkpt>
      <trkpt lat="46.77143" lon="5.8234">
        <ele>559</ele>
        <time>2012-10-11T13:43:02Z</time>
      </trkpt>
      <trkpt lat="46.77132" lon="5.82344">
        <ele>559</ele>
        <time>2012-10-11T13:43:03Z</time>
      </trkpt>
      <trkpt lat="46.77121" lon="5.82346">
        <ele>559</ele>
        <time>2012-10-11T13:43:04Z</time>
      </trkpt>
      <trkpt lat="46.77109" lon="5.82351">
        <ele>559</ele>
        <time>2012-10-11T13:43:05Z</time>
      </trkpt>
      <trkpt lat="46.77098" lon="5.82354">
        <ele>559</ele>
        <time>2012-10-11T13:43:06Z</time>
      </trkpt>
      <trkpt lat="46.77087" lon="5.8236">
        <ele>554</ele>
        <time>2012-10-11T13:43:07Z</time>
      </trkpt>
      <trkpt lat="46.77077" lon="5.82364">
        <ele>554</ele>
        <time>2012-10-11T13:43:08Z</time>
      </trkpt>
      <trkpt lat="46.77066" lon="5.82369">
        <ele>554</ele>
        <time>2012-10-11T13:43:09Z</time>
      </trkpt>
      <trkpt lat="46.77055" lon="5.82373">
        <ele>554</ele>
        <time>2012-10-11T13:43:10Z</time>
      </trkpt>
      <trkpt lat="46.77044" lon="5.82378">
        <ele>554</ele>
        <time>2012-10-11T13:43:11Z</time>
      </trkpt>
      <trkpt lat="46.77034" lon="5.82381">
        <ele>554</ele>
        <time>2012-10-11T13:43:12Z</time>
      </trkpt>
      <trkpt lat="46.77022" lon="5.82387">
        <ele>554</ele>
        <time>2012-10-11T13:43:13Z</time>
      </trkpt>
      <trkpt lat="46.77011" lon="5.8239">
        <ele>554</ele>
        <time>2012-10-11T13:43:14Z</time>
      </trkpt>
      <trkpt lat="46.77" lon="5.82394">
        <ele>548</ele>
        <time>2012-10-11T13:43:15Z</time>
      </trkpt>
      <trkpt lat="46.76988" lon="5.82397">
        <ele>548</ele>
        <time>2012-10-11T13:43:16Z</time>
      </trkpt>
      <trkpt lat="46.76977" lon="5.82401">
        <ele>548</ele>
        <time>2012-10-11T13:43:17Z</time>
      </trkpt>
      <trkpt lat="46.76966" lon="5.82405">
        <ele>548</ele>
        <time>2012-10-11T13:43:18Z</time>
      </trkpt>
      <trkpt lat="46.76956" lon="5.82409">
        <ele>548</ele>
        <time>2012-10-11T13:43:19Z</time>
      </trkpt>
      <trkpt lat="46.76946" lon="5.82414">
        <ele>548</ele>
        <time>2012-10-11T13:43:20Z</time>
      </trkpt>
      <trkpt lat="46.76936" lon="5.82417">
        <ele>542</ele>
        <time>2012-10-11T13:43:21Z</time>
      </trkpt>
      <trkpt lat="46.76927" lon="5.82422">
        <ele>542</ele>
        <time>2012-10-11T13:43:22Z</time>
      </trkpt>
      <trkpt lat="46.76917" lon="5.82425">
        <ele>542</ele>
        <time>2012-10-11T13:43:23Z</time>
      </trkpt>
      <trkpt lat="46.76909" lon="5.82429">
        <ele>542</ele>
        <time>2012-10-11T13:43:24Z</time>
      </trkpt>
      <trkpt lat="46.769" lon="5.82433">
        <ele>542</ele>
        <time>2012-10-11T13:43:25Z</time>
      </trkpt>
      <trkpt lat="46.76884" lon="5.8244">
        <ele>542</ele>
        <time>2012-10-11T13:43:27Z</time>
      </trkpt>
      <trkpt lat="46.76869" lon="5.82445">
        <ele>542</ele>
        <time>2012-10-11T13:43:29Z</time>
      </trkpt>
      <trkpt lat="46.76855" lon="5.82451">
        <ele>542</ele>
        <time>2012-10-11T13:43:31Z</time>
      </trkpt>
      <trkpt lat="46.7684" lon="5.82452">
        <ele>542</ele>
        <time>2012-10-11T13:43:33Z</time>
      </trkpt>
      <trkpt lat="46.76825" lon="5.82452">
        <ele>542</ele>
        <time>2012-10-11T13:43:35Z</time>
      </trkpt>
      <trkpt lat="46.7681" lon="5.82448">
        <ele>542</ele>
        <time>2012-10-11T13:43:37Z</time>
      </trkpt>
      <trkpt lat="46.76795" lon="5.82441">
        <ele>542</ele>
        <time>2012-10-11T13:43:39Z</time>
      </trkpt>
      <trkpt lat="46.76782" lon="5.82431">
        <ele>542</ele>
        <time>2012-10-11T13:43:41Z</time>
      </trkpt>
      <trkpt lat="46.76769" lon="5.82422">
        <ele>542</ele>
        <time>2012-10-11T13:43:43Z</time>
      </trkpt>
      <trkpt lat="46.76756" lon="5.82413">
        <ele>542</ele>
        <time>2012-10-11T13:43:45Z</time>
      </trkpt>
      <trkpt lat="46.76744" lon="5.82403">
        <ele>542</ele>
        <time>2012-10-11T13:43:47Z</time>
      </trkpt>
      <trkpt lat="46.76732" lon="5.82394">
        <ele>542</ele>
        <time>2012-10-11T13:43:49Z</time>
      </trkpt>
      <trkpt lat="46.76719" lon="5.82386">
        <ele>542</ele>
        <time>2012-10-11T13:43:51Z</time>
      </trkpt>
      <trkpt lat="46.76708" lon="5.82377">
        <ele>542</ele>
        <time>2012-10-11T13:43:53Z</time>
      </trkpt>
      <trkpt lat="46.76696" lon="5.82369">
        <ele>542</ele>
        <time>2012-10-11T13:43:55Z</time>
      </trkpt>
      <trkpt lat="46.76684" lon="5.8236">
        <ele>542</ele>
        <time>2012-10-11T13:43:57Z</time>
      </trkpt>
      <trkpt lat="46.76672" lon="5.82352">
        <ele>542</ele>
        <time>2012-10-11T13:43:59Z</time>
      </trkpt>
      <trkpt lat="46.76661" lon="5.82343">
        <ele>542</ele>
        <time>2012-10-11T13:44:01Z</time>
      </trkpt>
      <trkpt lat="46.76649" lon="5.82335">
        <ele>542</ele>
        <time>2012-10-11T13:44:03Z</time>
      </trkpt>
      <trkpt lat="46.76638" lon="5.82327">
        <ele>542</ele>
        <time>2012-10-11T13:44:05Z</time>
      </trkpt>
      <trkpt lat="46.76627" lon="5.82318">
        <ele>542</ele>
        <time>2012-10-11T13:44:07Z</time>
      </trkpt>
      <trkpt lat="46.76616" lon="5.82309">
        <ele>542</ele>
        <time>2012-10-11T13:44:09Z</time>
      </trkpt>
      <trkpt lat="46.76604" lon="5.82301">
        <ele>542</ele>
        <time>2012-10-11T13:44:11Z</time>
      </trkpt>
      <trkpt lat="46.76592" lon="5.82292">
        <ele>542</ele>
        <time>2012-10-11T13:44:13Z</time>
      </trkpt>
      <trkpt lat="46.76581" lon="5.82284">
        <ele>542</ele>
        <time>2012-10-11T13:44:15Z</time>
      </trkpt>
      <trkpt lat="46.76569" lon="5.82275">
        <ele>542</ele>
        <time>2012-10-11T13:44:17Z</time>
      </trkpt>
      <trkpt lat="46.76558" lon="5.82267">
        <ele>542</ele>
        <time>2012-10-11T13:44:19Z</time>
      </trkpt>
      <trkpt lat="46.76546" lon="5.82259">
        <ele>542</ele>
        <time>2012-10-11T13:44:21Z</time>
      </trkpt>
      <trkpt lat="46.76535" lon="5.8225">
        <ele>542</ele>
        <time>2012-10-11T13:44:23Z</time>
      </trkpt>
      <trkpt lat="46.76523" lon="5.82242">
        <ele>542</ele>
        <time>2012-10-11T13:44:25Z</time>
      </trkpt>
      <trkpt lat="46.76511" lon="5.82233">
        <ele>542</ele>
        <time>2012-10-11T13:44:27Z</time>
      </trkpt>
      <trkpt lat="46.765" lon="5.82224">
        <ele>537</ele>
        <time>2012-10-11T13:44:29Z</time>
      </trkpt>
      <trkpt lat="46.76488" lon="5.82215">
        <ele>537</ele>
        <time>2012-10-11T13:44:31Z</time>
      </trkpt>
      <trkpt lat="46.76476" lon="5.82206">
        <ele>537</ele>
        <time>2012-10-11T13:44:33Z</time>
      </trkpt>
      <trkpt lat="46.76463" lon="5.82197">
        <ele>537</ele>
        <time>2012-10-11T13:44:35Z</time>
      </trkpt>
      <trkpt lat="46.7645" lon="5.82188">
        <ele>537</ele>
        <time>2012-10-11T13:44:37Z</time>
      </trkpt>
      <trkpt lat="46.76438" lon="5.82179">
        <ele>537</ele>
        <time>2012-10-11T13:44:39Z</time>
      </trkpt>
      <trkpt lat="46.76425" lon="5.82169">
        <ele>537</ele>
        <time>2012-10-11T13:44:41Z</time>
      </trkpt>
      <trkpt lat="46.76413" lon="5.8216">
        <ele>537</ele>
        <time>2012-10-11T13:44:43Z</time>
      </trkpt>
      <trkpt lat="46.764" lon="5.82151">
        <ele>537</ele>
        <time>2012-10-11T13:44:45Z</time>
      </trkpt>
      <trkpt lat="46.76388" lon="5.82142">
        <ele>537</ele>
        <time>2012-10-11T13:44:47Z</time>
      </trkpt>
      <trkpt lat="46.76376" lon="5.82133">
        <ele>537</ele>
        <time>2012-10-11T13:44:49Z</time>
      </trkpt>
      <trkpt lat="46.76363" lon="5.82124">
        <ele>537</ele>
        <time>2012-10-11T13:44:51Z</time>
      </trkpt>
      <trkpt lat="46.76351" lon="5.82116">
        <ele>537</ele>
        <time>2012-10-11T13:44:53Z</time>
      </trkpt>
      <trkpt lat="46.76338" lon="5.82107">
        <ele>537</ele>
        <time>2012-10-11T13:44:55Z</time>
      </trkpt>
      <trkpt lat="46.76327" lon="5.82098">
        <ele>537</ele>
        <time>2012-10-11T13:44:57Z</time>
      </trkpt>
      <trkpt lat="46.76315" lon="5.82089">
        <ele>537</ele>
        <time>2012-10-11T13:44:59Z</time>
      </trkpt>
      <trkpt lat="46.76303" lon="5.82081">
        <ele>537</ele>
        <time>2012-10-11T13:45:01Z</time>
      </trkpt>
      <trkpt lat="46.76291" lon="5.82072">
        <ele>537</ele>
        <time>2012-10-11T13:45:03Z</time>
      </trkpt>
      <trkpt lat="46.7628" lon="5.82063">
        <ele>537</ele>
        <time>2012-10-11T13:45:05Z</time>
      </trkpt>
      <trkpt lat="46.76268" lon="5.82055">
        <ele>537</ele>
        <time>2012-10-11T13:45:07Z</time>
      </trkpt>
      <trkpt lat="46.76256" lon="5.82047">
        <ele>537</ele>
        <time>2012-10-11T13:45:09Z</time>
      </trkpt>
      <trkpt lat="46.76245" lon="5.82038">
        <ele>537</ele>
        <time>2012-10-11T13:45:11Z</time>
      </trkpt>
      <trkpt lat="46.76234" lon="5.8203">
        <ele>537</ele>
        <time>2012-10-11T13:45:13Z</time>
      </trkpt>
      <trkpt lat="46.76222" lon="5.82022">
        <ele>537</ele>
        <time>2012-10-11T13:45:15Z</time>
      </trkpt>
      <trkpt lat="46.76211" lon="5.82013">
        <ele>537</ele>
        <time>2012-10-11T13:45:17Z</time>
      </trkpt>
      <trkpt lat="46.76199" lon="5.82005">
        <ele>537</ele>
        <time>2012-10-11T13:45:19Z</time>
      </trkpt>
      <trkpt lat="46.76187" lon="5.81997">
        <ele>537</ele>
        <time>2012-10-11T13:45:21Z</time>
      </trkpt>
      <trkpt lat="46.76175" lon="5.81988">
        <ele>537</ele>
        <time>2012-10-11T13:45:23Z</time>
      </trkpt>
      <trkpt lat="46.76164" lon="5.8198">
        <ele>537</ele>
        <time>2012-10-11T13:45:25Z</time>
      </trkpt>
      <trkpt lat="46.76151" lon="5.81972">
        <ele>537</ele>
        <time>2012-10-11T13:45:27Z</time>
      </trkpt>
      <trkpt lat="46.7614" lon="5.81963">
        <ele>537</ele>
        <time>2012-10-11T13:45:29Z</time>
      </trkpt>
      <trkpt lat="46.76128" lon="5.81955">
        <ele>537</ele>
        <time>2012-10-11T13:45:31Z</time>
      </trkpt>
      <trkpt lat="46.76116" lon="5.81946">
        <ele>537</ele>
        <time>2012-10-11T13:45:33Z</time>
      </trkpt>
      <trkpt lat="46.76104" lon="5.81937">
        <ele>537</ele>
        <time>2012-10-11T13:45:35Z</time>
      </trkpt>
      <trkpt lat="46.76093" lon="5.81929">
        <ele>537</ele>
        <time>2012-10-11T13:45:37Z</time>
      </trkpt>
      <trkpt lat="46.76082" lon="5.81921">
        <ele>537</ele>
        <time>2012-10-11T13:45:39Z</time>
      </trkpt>
      <trkpt lat="46.7607" lon="5.81912">
        <ele>537</ele>
        <time>2012-10-11T13:45:41Z</time>
      </trkpt>
      <trkpt lat="46.76058" lon="5.81904">
        <ele>537</ele>
        <time>2012-10-11T13:45:43Z</time>
      </trkpt>
      <trkpt lat="46.76046" lon="5.81895">
        <ele>537</ele>
        <time>2012-10-11T13:45:45Z</time>
      </trkpt>
      <trkpt lat="46.76035" lon="5.81886">
        <ele>537</ele>
        <time>2012-10-11T13:45:47Z</time>
      </trkpt>
      <trkpt lat="46.76023" lon="5.81878">
        <ele>537</ele>
        <time>2012-10-11T13:45:49Z</time>
      </trkpt>
      <trkpt lat="46.76011" lon="5.81869">
        <ele>537</ele>
        <time>2012-10-11T13:45:51Z</time>
      </trkpt>
      <trkpt lat="46.75998" lon="5.8186">
        <ele>537</ele>
        <time>2012-10-11T13:45:53Z</time>
      </trkpt>
      <trkpt lat="46.75986" lon="5.81851">
        <ele>537</ele>
        <time>2012-10-11T13:45:55Z</time>
      </trkpt>
      <trkpt lat="46.75974" lon="5.81842">
        <ele>537</ele>
        <time>2012-10-11T13:45:57Z</time>
      </trkpt>
      <trkpt lat="46.75961" lon="5.81834">
        <ele>537</ele>
        <time>2012-10-11T13:45:59Z</time>
      </trkpt>
      <trkpt lat="46.7595" lon="5.81825">
        <ele>537</ele>
        <time>2012-10-11T13:46:01Z</time>
      </trkpt>
      <trkpt lat="46.75938" lon="5.81817">
        <ele>537</ele>
        <time>2012-10-11T13:46:03Z</time>
      </trkpt>
      <trkpt lat="46.75927" lon="5.81807">
        <ele>537</ele>
        <time>2012-10-11T13:46:05Z</time>
      </trkpt>
      <trkpt lat="46.75916" lon="5.81798">
        <ele>537</ele>
        <time>2012-10-11T13:46:07Z</time>
      </trkpt>
      <trkpt lat="46.75905" lon="5.81788">
        <ele>537</ele>
        <time>2012-10-11T13:46:09Z</time>
      </trkpt>
      <trkpt lat="46.75894" lon="5.81776">
        <ele>537</ele>
        <time>2012-10-11T13:46:11Z</time>
      </trkpt>
      <trkpt lat="46.75883" lon="5.81765">
        <ele>537</ele>
        <time>2012-10-11T13:46:13Z</time>
      </trkpt>
      <trkpt lat="46.75872" lon="5.81754">
        <ele>537</ele>
        <time>2012-10-11T13:46:15Z</time>
      </trkpt>
      <trkpt lat="46.75861" lon="5.81744">
        <ele>537</ele>
        <time>2012-10-11T13:46:17Z</time>
      </trkpt>
      <trkpt lat="46.75851" lon="5.81732">
        <ele>537</ele>
        <time>2012-10-11T13:46:19Z</time>
      </trkpt>
      <trkpt lat="46.7584" lon="5.81721">
        <ele>537</ele>
        <time>2012-10-11T13:46:21Z</time>
      </trkpt>
      <trkpt lat="46.75829" lon="5.8171">
        <ele>537</ele>
        <time>2012-10-11T13:46:23Z</time>
      </trkpt>
      <trkpt lat="46.75818" lon="5.81699">
        <ele>537</ele>
        <time>2012-10-11T13:46:25Z</time>
      </trkpt>
      <trkpt lat="46.75807" lon="5.81688">
        <ele>537</ele>
        <time>2012-10-11T13:46:27Z</time>
      </trkpt>
      <trkpt lat="46.75796" lon="5.81677">
        <ele>537</ele>
        <time>2012-10-11T13:46:29Z</time>
      </trkpt>
      <trkpt lat="46.75785" lon="5.81665">
        <ele>537</ele>
        <time>2012-10-11T13:46:31Z</time>
      </trkpt>
      <trkpt lat="46.75774" lon="5.81654">
        <ele>537</ele>
        <time>2012-10-11T13:46:33Z</time>
      </trkpt>
      <trkpt lat="46.75763" lon="5.81643">
        <ele>537</ele>
        <time>2012-10-11T13:46:35Z</time>
      </trkpt>
      <trkpt lat="46.75752" lon="5.81631">
        <ele>537</ele>
        <time>2012-10-11T13:46:37Z</time>
      </trkpt>
      <trkpt lat="46.75741" lon="5.81619">
        <ele>537</ele>
        <time>2012-10-11T13:46:39Z</time>
      </trkpt>
      <trkpt lat="46.7573" lon="5.81607">
        <ele>537</ele>
        <time>2012-10-11T13:46:41Z</time>
      </trkpt>
      <trkpt lat="46.75719" lon="5.81595">
        <ele>537</ele>
        <time>2012-10-11T13:46:43Z</time>
      </trkpt>
      <trkpt lat="46.75707" lon="5.81583">
        <ele>537</ele>
        <time>2012-10-11T13:46:45Z</time>
      </trkpt>
      <trkpt lat="46.75696" lon="5.81571">
        <ele>537</ele>
        <time>2012-10-11T13:46:47Z</time>
      </trkpt>
      <trkpt lat="46.75684" lon="5.81559">
        <ele>537</ele>
        <time>2012-10-11T13:46:49Z</time>
      </trkpt>
      <trkpt lat="46.75672" lon="5.81547">
        <ele>537</ele>
        <time>2012-10-11T13:46:51Z</time>
      </trkpt>
      <trkpt lat="46.75661" lon="5.81536">
        <ele>537</ele>
        <time>2012-10-11T13:46:53Z</time>
      </trkpt>
      <trkpt lat="46.75649" lon="5.81524">
        <ele>537</ele>
        <time>2012-10-11T13:46:55Z</time>
      </trkpt>
      <trkpt lat="46.75637" lon="5.81513">
        <ele>537</ele>
        <time>2012-10-11T13:46:57Z</time>
      </trkpt>
      <trkpt lat="46.75624" lon="5.81502">
        <ele>537</ele>
        <time>2012-10-11T13:46:59Z</time>
      </trkpt>
      <trkpt lat="46.75612" lon="5.81491">
        <ele>537</ele>
        <time>2012-10-11T13:47:01Z</time>
      </trkpt>
      <trkpt lat="46.75599" lon="5.8148">
        <ele>537</ele>
        <time>2012-10-11T13:47:03Z</time>
      </trkpt>
      <trkpt lat="46.75587" lon="5.8147">
        <ele>537</ele>
        <time>2012-10-11T13:47:05Z</time>
      </trkpt>
      <trkpt lat="46.75575" lon="5.8146">
        <ele>537</ele>
        <time>2012-10-11T13:47:07Z</time>
      </trkpt>
      <trkpt lat="46.75564" lon="5.8145">
        <ele>537</ele>
        <time>2012-10-11T13:47:09Z</time>
      </trkpt>
      <trkpt lat="46.75553" lon="5.8144">
        <ele>537</ele>
        <time>2012-10-11T13:47:11Z</time>
      </trkpt>
      <trkpt lat="46.75542" lon="5.8143">
        <ele>537</ele>
        <time>2012-10-11T13:47:13Z</time>
      </trkpt>
      <trkpt lat="46.75533" lon="5.81423">
        <ele>537</ele>
        <time>2012-10-11T13:47:15Z</time>
      </trkpt>
      <trkpt lat="46.75522" lon="5.81423">
        <ele>537</ele>
        <time>2012-10-11T13:47:17Z</time>
      </trkpt>
      <trkpt lat="46.75514" lon="5.81433">
        <ele>537</ele>
        <time>2012-10-11T13:47:19Z</time>
      </trkpt>
      <trkpt lat="46.75509" lon="5.81446">
        <ele>537</ele>
        <time>2012-10-11T13:47:21Z</time>
      </trkpt>
      <trkpt lat="46.75506" lon="5.81462">
        <ele>537</ele>
        <time>2012-10-11T13:47:23Z</time>
      </trkpt>
      <trkpt lat="46.75501" lon="5.81479">
        <ele>537</ele>
        <time>2012-10-11T13:47:25Z</time>
      </trkpt>
      <trkpt lat="46.75497" lon="5.81494">
        <ele>537</ele>
        <time>2012-10-11T13:47:27Z</time>
      </trkpt>
      <trkpt lat="46.75492" lon="5.8151">
        <ele>537</ele>
        <time>2012-10-11T13:47:29Z</time>
      </trkpt>
      <trkpt lat="46.75487" lon="5.81525">
        <ele>537</ele>
        <time>2012-10-11T13:47:31Z</time>
      </trkpt>
      <trkpt lat="46.75483" lon="5.81542">
        <ele>537</ele>
        <time>2012-10-11T13:47:33Z</time>
      </trkpt>
      <trkpt lat="46.75478" lon="5.81558">
        <ele>537</ele>
        <time>2012-10-11T13:47:35Z</time>
      </trkpt>
      <trkpt lat="46.75473" lon="5.81575">
        <ele>537</ele>
        <time>2012-10-11T13:47:37Z</time>
      </trkpt>
      <trkpt lat="46.75468" lon="5.81591">
        <ele>537</ele>
        <time>2012-10-11T13:47:39Z</time>
      </trkpt>
      <trkpt lat="46.75462" lon="5.81608">
        <ele>537</ele>
        <time>2012-10-11T13:47:41Z</time>
      </trkpt>
      <trkpt lat="46.75456" lon="5.81624">
        <ele>537</ele>
        <time>2012-10-11T13:47:43Z</time>
      </trkpt>
      <trkpt lat="46.7545" lon="5.81641">
        <ele>537</ele>
        <time>2012-10-11T13:47:45Z</time>
      </trkpt>
      <trkpt lat="46.75444" lon="5.81657">
        <ele>537</ele>
        <time>2012-10-11T13:47:47Z</time>
      </trkpt>
      <trkpt lat="46.75437" lon="5.81674">
        <ele>537</ele>
        <time>2012-10-11T13:47:49Z</time>
      </trkpt>
      <trkpt lat="46.7543" lon="5.81689">
        <ele>537</ele>
        <time>2012-10-11T13:47:51Z</time>
      </trkpt>
      <trkpt lat="46.75422" lon="5.81706">
        <ele>537</ele>
        <time>2012-10-11T13:47:53Z</time>
      </trkpt>
      <trkpt lat="46.75415" lon="5.81722">
        <ele>537</ele>
        <time>2012-10-11T13:47:55Z</time>
      </trkpt>
      <trkpt lat="46.75407" lon="5.81737">
        <ele>537</ele>
        <time>2012-10-11T13:47:57Z</time>
      </trkpt>
      <trkpt lat="46.75399" lon="5.81753">
        <ele>537</ele>
        <time>2012-10-11T13:47:59Z</time>
      </trkpt>
      <trkpt lat="46.75391" lon="5.81767">
        <ele>537</ele>
        <time>2012-10-11T13:48:01Z</time>
      </trkpt>
      <trkpt lat="46.75385" lon="5.81778">
        <ele>537</ele>
        <time>2012-10-11T13:48:03Z</time>
      </trkpt>
      <trkpt lat="46.75375" lon="5.81786">
        <ele>537</ele>
        <time>2012-10-11T13:48:06Z</time>
      </trkpt>
      <trkpt lat="46.75365" lon="5.81781">
        <ele>537</ele>
        <time>2012-10-11T13:48:09Z</time>
      </trkpt>
      <trkpt lat="46.75356" lon="5.81771">
        <ele>537</ele>
        <time>2012-10-11T13:48:11Z</time>
      </trkpt>
      <trkpt lat="46.75345" lon="5.81759">
        <ele>531</ele>
        <time>2012-10-11T13:48:13Z</time>
      </trkpt>
      <trkpt lat="46.75333" lon="5.81748">
        <ele>531</ele>
        <time>2012-10-11T13:48:15Z</time>
      </trkpt>
      <trkpt lat="46.75319" lon="5.81737">
        <ele>531</ele>
        <time>2012-10-11T13:48:17Z</time>
      </trkpt>
      <trkpt lat="46.75303" lon="5.81727">
        <ele>531</ele>
        <time>2012-10-11T13:48:19Z</time>
      </trkpt>
      <trkpt lat="46.75288" lon="5.81715">
        <ele>531</ele>
        <time>2012-10-11T13:48:21Z</time>
      </trkpt>
      <trkpt lat="46.7528" lon="5.81709">
        <ele>531</ele>
        <time>2012-10-11T13:48:22Z</time>
      </trkpt>
      <trkpt lat="46.75272" lon="5.81702">
        <ele>531</ele>
        <time>2012-10-11T13:48:23Z</time>
      </trkpt>
      <trkpt lat="46.75264" lon="5.81696">
        <ele>531</ele>
        <time>2012-10-11T13:48:24Z</time>
      </trkpt>
      <trkpt lat="46.75256" lon="5.8169">
        <ele>531</ele>
        <time>2012-10-11T13:48:25Z</time>
      </trkpt>
      <trkpt lat="46.75247" lon="5.81683">
        <ele>526</ele>
        <time>2012-10-11T13:48:26Z</time>
      </trkpt>
      <trkpt lat="46.75238" lon="5.81677">
        <ele>526</ele>
        <time>2012-10-11T13:48:27Z</time>
      </trkpt>
      <trkpt lat="46.75229" lon="5.81671">
        <ele>526</ele>
        <time>2012-10-11T13:48:28Z</time>
      </trkpt>
      <trkpt lat="46.7522" lon="5.81665">
        <ele>526</ele>
        <time>2012-10-11T13:48:29Z</time>
      </trkpt>
      <trkpt lat="46.75211" lon="5.81657">
        <ele>526</ele>
        <time>2012-10-11T13:48:30Z</time>
      </trkpt>
      <trkpt lat="46.75203" lon="5.8165">
        <ele>526</ele>
        <time>2012-10-11T13:48:31Z</time>
      </trkpt>
      <trkpt lat="46.75193" lon="5.81643">
        <ele>526</ele>
        <time>2012-10-11T13:48:32Z</time>
      </trkpt>
      <trkpt lat="46.75185" lon="5.81635">
        <ele>526</ele>
        <time>2012-10-11T13:48:33Z</time>
      </trkpt>
      <trkpt lat="46.75175" lon="5.81626">
        <ele>526</ele>
        <time>2012-10-11T13:48:34Z</time>
      </trkpt>
      <trkpt lat="46.75167" lon="5.81617">
        <ele>521</ele>
        <time>2012-10-11T13:48:35Z</time>
      </trkpt>
      <trkpt lat="46.75157" lon="5.81608">
        <ele>521</ele>
        <time>2012-10-11T13:48:36Z</time>
      </trkpt>
      <trkpt lat="46.75149" lon="5.81598">
        <ele>521</ele>
        <time>2012-10-11T13:48:37Z</time>
      </trkpt>
      <trkpt lat="46.7514" lon="5.81588">
        <ele>521</ele>
        <time>2012-10-11T13:48:38Z</time>
      </trkpt>
      <trkpt lat="46.75131" lon="5.81577">
        <ele>521</ele>
        <time>2012-10-11T13:48:39Z</time>
      </trkpt>
      <trkpt lat="46.75122" lon="5.81566">
        <ele>521</ele>
        <time>2012-10-11T13:48:40Z</time>
      </trkpt>
      <trkpt lat="46.75114" lon="5.81555">
        <ele>521</ele>
        <time>2012-10-11T13:48:41Z</time>
      </trkpt>
      <trkpt lat="46.75107" lon="5.81543">
        <ele>521</ele>
        <time>2012-10-11T13:48:42Z</time>
      </trkpt>
      <trkpt lat="46.75101" lon="5.81533">
        <ele>521</ele>
        <time>2012-10-11T13:48:43Z</time>
      </trkpt>
      <trkpt lat="46.75091" lon="5.81515">
        <ele>516</ele>
        <time>2012-10-11T13:48:45Z</time>
      </trkpt>
      <trkpt lat="46.75084" lon="5.81495">
        <ele>516</ele>
        <time>2012-10-11T13:48:47Z</time>
      </trkpt>
      <trkpt lat="46.75083" lon="5.81472">
        <ele>516</ele>
        <time>2012-10-11T13:48:49Z</time>
      </trkpt>
      <trkpt lat="46.7509" lon="5.8145">
        <ele>516</ele>
        <time>2012-10-11T13:48:51Z</time>
      </trkpt>
      <trkpt lat="46.75101" lon="5.8143">
        <ele>516</ele>
        <time>2012-10-11T13:48:53Z</time>
      </trkpt>
      <trkpt lat="46.75114" lon="5.81411">
        <ele>516</ele>
        <time>2012-10-11T13:48:55Z</time>
      </trkpt>
      <trkpt lat="46.75127" lon="5.81392">
        <ele>516</ele>
        <time>2012-10-11T13:48:57Z</time>
      </trkpt>
      <trkpt lat="46.75133" lon="5.81383">
        <ele>516</ele>
        <time>2012-10-11T13:48:58Z</time>
      </trkpt>
      <trkpt lat="46.7514" lon="5.81374">
        <ele>511</ele>
        <time>2012-10-11T13:48:59Z</time>
      </trkpt>
      <trkpt lat="46.75151" lon="5.81355">
        <ele>511</ele>
        <time>2012-10-11T13:49:01Z</time>
      </trkpt>
      <trkpt lat="46.75161" lon="5.81334">
        <ele>511</ele>
        <time>2012-10-11T13:49:03Z</time>
      </trkpt>
      <trkpt lat="46.7517" lon="5.81313">
        <ele>511</ele>
        <time>2012-10-11T13:49:05Z</time>
      </trkpt>
      <trkpt lat="46.75179" lon="5.81293">
        <ele>511</ele>
        <time>2012-10-11T13:49:07Z</time>
      </trkpt>
      <trkpt lat="46.75188" lon="5.81273">
        <ele>511</ele>
        <time>2012-10-11T13:49:09Z</time>
      </trkpt>
      <trkpt lat="46.75196" lon="5.81254">
        <ele>511</ele>
        <time>2012-10-11T13:49:11Z</time>
      </trkpt>
      <trkpt lat="46.75204" lon="5.81235">
        <ele>511</ele>
        <time>2012-10-11T13:49:13Z</time>
      </trkpt>
      <trkpt lat="46.75211" lon="5.81216">
        <ele>511</ele>
        <time>2012-10-11T13:49:15Z</time>
      </trkpt>
      <trkpt lat="46.75219" lon="5.81199">
        <ele>511</ele>
        <time>2012-10-11T13:49:17Z</time>
      </trkpt>
      <trkpt lat="46.75225" lon="5.81185">
        <ele>511</ele>
        <time>2012-10-11T13:49:19Z</time>
      </trkpt>
      <trkpt lat="46.75232" lon="5.81171">
        <ele>511</ele>
        <time>2012-10-11T13:49:21Z</time>
      </trkpt>
      <trkpt lat="46.75238" lon="5.81156">
        <ele>511</ele>
        <time>2012-10-11T13:49:23Z</time>
      </trkpt>
      <trkpt lat="46.75244" lon="5.81142">
        <ele>511</ele>
        <time>2012-10-11T13:49:25Z</time>
      </trkpt>
      <trkpt lat="46.75249" lon="5.81127">
        <ele>511</ele>
        <time>2012-10-11T13:49:27Z</time>
      </trkpt>
      <trkpt lat="46.75255" lon="5.81113">
        <ele>511</ele>
        <time>2012-10-11T13:49:29Z</time>
      </trkpt>
      <trkpt lat="46.75262" lon="5.811">
        <ele>511</ele>
        <time>2012-10-11T13:49:31Z</time>
      </trkpt>
      <trkpt lat="46.75267" lon="5.81087">
        <ele>511</ele>
        <time>2012-10-11T13:49:33Z</time>
      </trkpt>
      <trkpt lat="46.75273" lon="5.81074">
        <ele>511</ele>
        <time>2012-10-11T13:49:35Z</time>
      </trkpt>
      <trkpt lat="46.75278" lon="5.81063">
        <ele>511</ele>
        <time>2012-10-11T13:49:37Z</time>
      </trkpt>
      <trkpt lat="46.75284" lon="5.81051">
        <ele>511</ele>
        <time>2012-10-11T13:49:39Z</time>
      </trkpt>
      <trkpt lat="46.7529" lon="5.81038">
        <ele>506</ele>
        <time>2012-10-11T13:49:41Z</time>
      </trkpt>
      <trkpt lat="46.75295" lon="5.81025">
        <ele>506</ele>
        <time>2012-10-11T13:49:43Z</time>
      </trkpt>
      <trkpt lat="46.75302" lon="5.81012">
        <ele>506</ele>
        <time>2012-10-11T13:49:45Z</time>
      </trkpt>
      <trkpt lat="46.75308" lon="5.80996">
        <ele>506</ele>
        <time>2012-10-11T13:49:47Z</time>
      </trkpt>
      <trkpt lat="46.75316" lon="5.80981">
        <ele>506</ele>
        <time>2012-10-11T13:49:49Z</time>
      </trkpt>
      <trkpt lat="46.75324" lon="5.80964">
        <ele>506</ele>
        <time>2012-10-11T13:49:51Z</time>
      </trkpt>
      <trkpt lat="46.75332" lon="5.80945">
        <ele>506</ele>
        <time>2012-10-11T13:49:53Z</time>
      </trkpt>
      <trkpt lat="46.75341" lon="5.80927">
        <ele>506</ele>
        <time>2012-10-11T13:49:55Z</time>
      </trkpt>
      <trkpt lat="46.75349" lon="5.80907">
        <ele>506</ele>
        <time>2012-10-11T13:49:57Z</time>
      </trkpt>
      <trkpt lat="46.75358" lon="5.80886">
        <ele>506</ele>
        <time>2012-10-11T13:49:59Z</time>
      </trkpt>
      <trkpt lat="46.75366" lon="5.80863">
        <ele>506</ele>
        <time>2012-10-11T13:50:01Z</time>
      </trkpt>
      <trkpt lat="46.75372" lon="5.80842">
        <ele>506</ele>
        <time>2012-10-11T13:50:03Z</time>
      </trkpt>
      <trkpt lat="46.7538" lon="5.8082">
        <ele>506</ele>
        <time>2012-10-11T13:50:05Z</time>
      </trkpt>
      <trkpt lat="46.75387" lon="5.80799">
        <ele>506</ele>
        <time>2012-10-11T13:50:07Z</time>
      </trkpt>
      <trkpt lat="46.75393" lon="5.80776">
        <ele>506</ele>
        <time>2012-10-11T13:50:09Z</time>
      </trkpt>
      <trkpt lat="46.754" lon="5.80755">
        <ele>500</ele>
        <time>2012-10-11T13:50:11Z</time>
      </trkpt>
      <trkpt lat="46.75407" lon="5.80732">
        <ele>500</ele>
        <time>2012-10-11T13:50:13Z</time>
      </trkpt>
      <trkpt lat="46.75414" lon="5.80711">
        <ele>500</ele>
        <time>2012-10-11T13:50:15Z</time>
      </trkpt>
      <trkpt lat="46.7542" lon="5.80691">
        <ele>500</ele>
        <time>2012-10-11T13:50:17Z</time>
      </trkpt>
      <trkpt lat="46.75427" lon="5.8067">
        <ele>500</ele>
        <time>2012-10-11T13:50:19Z</time>
      </trkpt>
      <trkpt lat="46.75433" lon="5.8065">
        <ele>500</ele>
        <time>2012-10-11T13:50:21Z</time>
      </trkpt>
      <trkpt lat="46.75439" lon="5.8063">
        <ele>500</ele>
        <time>2012-10-11T13:50:23Z</time>
      </trkpt>
      <trkpt lat="46.75445" lon="5.8061">
        <ele>500</ele>
        <time>2012-10-11T13:50:25Z</time>
      </trkpt>
      <trkpt lat="46.75451" lon="5.80591">
        <ele>500</ele>
        <time>2012-10-11T13:50:27Z</time>
      </trkpt>
      <trkpt lat="46.75456" lon="5.80574">
        <ele>500</ele>
        <time>2012-10-11T13:50:29Z</time>
      </trkpt>
      <trkpt lat="46.7546" lon="5.80555">
        <ele>500</ele>
        <time>2012-10-11T13:50:31Z</time>
      </trkpt>
      <trkpt lat="46.75464" lon="5.80539">
        <ele>500</ele>
        <time>2012-10-11T13:50:33Z</time>
      </trkpt>
      <trkpt lat="46.75466" lon="5.8052">
        <ele>500</ele>
        <time>2012-10-11T13:50:35Z</time>
      </trkpt>
      <trkpt lat="46.75468" lon="5.80501">
        <ele>500</ele>
        <time>2012-10-11T13:50:37Z</time>
      </trkpt>
      <trkpt lat="46.75469" lon="5.80483">
        <ele>500</ele>
        <time>2012-10-11T13:50:39Z</time>
      </trkpt>
      <trkpt lat="46.7547" lon="5.80465">
        <ele>500</ele>
        <time>2012-10-11T13:50:41Z</time>
      </trkpt>
      <trkpt lat="46.75472" lon="5.80448">
        <ele>500</ele>
        <time>2012-10-11T13:50:43Z</time>
      </trkpt>
      <trkpt lat="46.75474" lon="5.8043">
        <ele>500</ele>
        <time>2012-10-11T13:50:45Z</time>
      </trkpt>
      <trkpt lat="46.75476" lon="5.80412">
        <ele>500</ele>
        <time>2012-10-11T13:50:47Z</time>
      </trkpt>
      <trkpt lat="46.75477" lon="5.80394">
        <ele>500</ele>
        <time>2012-10-11T13:50:49Z</time>
      </trkpt>
      <trkpt lat="46.75479" lon="5.80377">
        <ele>500</ele>
        <time>2012-10-11T13:50:51Z</time>
      </trkpt>
      <trkpt lat="46.75481" lon="5.80361">
        <ele>500</ele>
        <time>2012-10-11T13:50:53Z</time>
      </trkpt>
      <trkpt lat="46.75482" lon="5.80344">
        <ele>500</ele>
        <time>2012-10-11T13:50:55Z</time>
      </trkpt>
      <trkpt lat="46.75483" lon="5.80327">
        <ele>500</ele>
        <time>2012-10-11T13:50:57Z</time>
      </trkpt>
      <trkpt lat="46.75485" lon="5.80311">
        <ele>500</ele>
        <time>2012-10-11T13:50:59Z</time>
      </trkpt>
      <trkpt lat="46.75487" lon="5.80295">
        <ele>500</ele>
        <time>2012-10-11T13:51:01Z</time>
      </trkpt>
      <trkpt lat="46.75487" lon="5.80278">
        <ele>500</ele>
        <time>2012-10-11T13:51:03Z</time>
      </trkpt>
      <trkpt lat="46.75489" lon="5.80263">
        <ele>500</ele>
        <time>2012-10-11T13:51:05Z</time>
      </trkpt>
      <trkpt lat="46.7549" lon="5.80248">
        <ele>500</ele>
        <time>2012-10-11T13:51:07Z</time>
      </trkpt>
      <trkpt lat="46.75491" lon="5.80234">
        <ele>500</ele>
        <time>2012-10-11T13:51:09Z</time>
      </trkpt>
      <trkpt lat="46.75493" lon="5.8022">
        <ele>500</ele>
        <time>2012-10-11T13:51:11Z</time>
      </trkpt>
      <trkpt lat="46.75494" lon="5.80207">
        <ele>500</ele>
        <time>2012-10-11T13:51:13Z</time>
      </trkpt>
      <trkpt lat="46.75496" lon="5.80193">
        <ele>500</ele>
        <time>2012-10-11T13:51:15Z</time>
      </trkpt>
      <trkpt lat="46.75498" lon="5.80175">
        <ele>500</ele>
        <time>2012-10-11T13:51:18Z</time>
      </trkpt>
      <trkpt lat="46.755" lon="5.80157">
        <ele>500</ele>
        <time>2012-10-11T13:51:21Z</time>
      </trkpt>
      <trkpt lat="46.75501" lon="5.8014">
        <ele>500</ele>
        <time>2012-10-11T13:51:24Z</time>
      </trkpt>
      <trkpt lat="46.75502" lon="5.80127">
        <ele>500</ele>
        <time>2012-10-11T13:51:26Z</time>
      </trkpt>
      <trkpt lat="46.75504" lon="5.8011">
        <ele>500</ele>
        <time>2012-10-11T13:51:29Z</time>
      </trkpt>
      <trkpt lat="46.75504" lon="5.80091">
        <ele>506</ele>
        <time>2012-10-11T13:51:32Z</time>
      </trkpt>
      <trkpt lat="46.75508" lon="5.80074">
        <ele>506</ele>
        <time>2012-10-11T13:51:35Z</time>
      </trkpt>
      <trkpt lat="46.75509" lon="5.80057">
        <ele>506</ele>
        <time>2012-10-11T13:51:38Z</time>
      </trkpt>
      <trkpt lat="46.7551" lon="5.8004">
        <ele>506</ele>
        <time>2012-10-11T13:51:41Z</time>
      </trkpt>
      <trkpt lat="46.7551" lon="5.80022">
        <ele>506</ele>
        <time>2012-10-11T13:51:44Z</time>
      </trkpt>
      <trkpt lat="46.75509" lon="5.80009">
        <ele>506</ele>
        <time>2012-10-11T13:51:46Z</time>
      </trkpt>
      <trkpt lat="46.75506" lon="5.7999">
        <ele>506</ele>
        <time>2012-10-11T13:51:49Z</time>
      </trkpt>
      <trkpt lat="46.75503" lon="5.79972">
        <ele>506</ele>
        <time>2012-10-11T13:51:52Z</time>
      </trkpt>
      <trkpt lat="46.75497" lon="5.79956">
        <ele>506</ele>
        <time>2012-10-11T13:51:55Z</time>
      </trkpt>
      <trkpt lat="46.75493" lon="5.79944">
        <ele>506</ele>
        <time>2012-10-11T13:51:57Z</time>
      </trkpt>
      <trkpt lat="46.75488" lon="5.7993">
        <ele>506</ele>
        <time>2012-10-11T13:52:00Z</time>
      </trkpt>
      <trkpt lat="46.75482" lon="5.79917">
        <ele>511</ele>
        <time>2012-10-11T13:52:03Z</time>
      </trkpt>
      <trkpt lat="46.75475" lon="5.79907">
        <ele>511</ele>
        <time>2012-10-11T13:52:06Z</time>
      </trkpt>
      <trkpt lat="46.75469" lon="5.79895">
        <ele>511</ele>
        <time>2012-10-11T13:52:09Z</time>
      </trkpt>
      <trkpt lat="46.75461" lon="5.79883">
        <ele>511</ele>
        <time>2012-10-11T13:52:12Z</time>
      </trkpt>
      <trkpt lat="46.75454" lon="5.79872">
        <ele>516</ele>
        <time>2012-10-11T13:52:15Z</time>
      </trkpt>
      <trkpt lat="46.75446" lon="5.79863">
        <ele>516</ele>
        <time>2012-10-11T13:52:18Z</time>
      </trkpt>
      <trkpt lat="46.7544" lon="5.7985">
        <ele>516</ele>
        <time>2012-10-11T13:52:21Z</time>
      </trkpt>
      <trkpt lat="46.75432" lon="5.79837">
        <ele>516</ele>
        <time>2012-10-11T13:52:24Z</time>
      </trkpt>
      <trkpt lat="46.75425" lon="5.79825">
        <ele>516</ele>
        <time>2012-10-11T13:52:27Z</time>
      </trkpt>
      <trkpt lat="46.75417" lon="5.79812">
        <ele>516</ele>
        <time>2012-10-11T13:52:30Z</time>
      </trkpt>
      <trkpt lat="46.7541" lon="5.798">
        <ele>516</ele>
        <time>2012-10-11T13:52:33Z</time>
      </trkpt>
      <trkpt lat="46.75404" lon="5.79788">
        <ele>522</ele>
        <time>2012-10-11T13:52:36Z</time>
      </trkpt>
      <trkpt lat="46.75398" lon="5.79776">
        <ele>522</ele>
        <time>2012-10-11T13:52:39Z</time>
      </trkpt>
      <trkpt lat="46.75395" lon="5.7976">
        <ele>522</ele>
        <time>2012-10-11T13:52:42Z</time>
      </trkpt>
      <trkpt lat="46.75391" lon="5.79745">
        <ele>522</ele>
        <time>2012-10-11T13:52:45Z</time>
      </trkpt>
      <trkpt lat="46.75386" lon="5.7973">
        <ele>522</ele>
        <time>2012-10-11T13:52:48Z</time>
      </trkpt>
      <trkpt lat="46.7538" lon="5.79716">
        <ele>522</ele>
        <time>2012-10-11T13:52:51Z</time>
      </trkpt>
      <trkpt lat="46.75372" lon="5.79704">
        <ele>522</ele>
        <time>2012-10-11T13:52:54Z</time>
      </trkpt>
      <trkpt lat="46.75362" lon="5.79697">
        <ele>522</ele>
        <time>2012-10-11T13:52:57Z</time>
      </trkpt>
      <trkpt lat="46.75353" lon="5.79692">
        <ele>522</ele>
        <time>2012-10-11T13:53:00Z</time>
      </trkpt>
      <trkpt lat="46.75342" lon="5.79686">
        <ele>522</ele>
        <time>2012-10-11T13:53:03Z</time>
      </trkpt>
      <trkpt lat="46.75332" lon="5.79678">
        <ele>522</ele>
        <time>2012-10-11T13:53:06Z</time>
      </trkpt>
      <trkpt lat="46.75322" lon="5.7967">
        <ele>522</ele>
        <time>2012-10-11T13:53:09Z</time>
      </trkpt>
      <trkpt lat="46.75314" lon="5.7966">
        <ele>522</ele>
        <time>2012-10-11T13:53:12Z</time>
      </trkpt>
      <trkpt lat="46.75307" lon="5.79649">
        <ele>522</ele>
        <time>2012-10-11T13:53:15Z</time>
      </trkpt>
      <trkpt lat="46.75301" lon="5.79633">
        <ele>522</ele>
        <time>2012-10-11T13:53:18Z</time>
      </trkpt>
      <trkpt lat="46.75299" lon="5.79618">
        <ele>522</ele>
        <time>2012-10-11T13:53:21Z</time>
      </trkpt>
      <trkpt lat="46.75298" lon="5.79602">
        <ele>522</ele>
        <time>2012-10-11T13:53:24Z</time>
      </trkpt>
      <trkpt lat="46.75298" lon="5.79584">
        <ele>522</ele>
        <time>2012-10-11T13:53:27Z</time>
      </trkpt>
      <trkpt lat="46.75298" lon="5.79566">
        <ele>522</ele>
        <time>2012-10-11T13:53:30Z</time>
      </trkpt>
      <trkpt lat="46.75297" lon="5.79549">
        <ele>522</ele>
        <time>2012-10-11T13:53:33Z</time>
      </trkpt>
      <trkpt lat="46.75295" lon="5.79533">
        <ele>522</ele>
        <time>2012-10-11T13:53:36Z</time>
      </trkpt>
      <trkpt lat="46.75289" lon="5.79518">
        <ele>522</ele>
        <time>2012-10-11T13:53:39Z</time>
      </trkpt>
      <trkpt lat="46.75281" lon="5.79503">
        <ele>522</ele>
        <time>2012-10-11T13:53:42Z</time>
      </trkpt>
      <trkpt lat="46.75272" lon="5.79491">
        <ele>522</ele>
        <time>2012-10-11T13:53:45Z</time>
      </trkpt>
      <trkpt lat="46.75262" lon="5.7948">
        <ele>522</ele>
        <time>2012-10-11T13:53:48Z</time>
      </trkpt>
      <trkpt lat="46.75253" lon="5.79468">
        <ele>527</ele>
        <time>2012-10-11T13:53:51Z</time>
      </trkpt>
      <trkpt lat="46.75244" lon="5.79457">
        <ele>527</ele>
        <time>2012-10-11T13:53:54Z</time>
      </trkpt>
      <trkpt lat="46.75235" lon="5.79446">
        <ele>527</ele>
        <time>2012-10-11T13:53:57Z</time>
      </trkpt>
      <trkpt lat="46.75226" lon="5.79434">
        <ele>527</ele>
        <time>2012-10-11T13:54:00Z</time>
      </trkpt>
      <trkpt lat="46.75217" lon="5.79422">
        <ele>527</ele>
        <time>2012-10-11T13:54:03Z</time>
      </trkpt>
      <trkpt lat="46.75207" lon="5.79412">
        <ele>527</ele>
        <time>2012-10-11T13:54:06Z</time>
      </trkpt>
      <trkpt lat="46.75198" lon="5.794">
        <ele>527</ele>
        <time>2012-10-11T13:54:09Z</time>
      </trkpt>
      <trkpt lat="46.75188" lon="5.79389">
        <ele>527</ele>
        <time>2012-10-11T13:54:12Z</time>
      </trkpt>
      <trkpt lat="46.7518" lon="5.79377">
        <ele>533</ele>
        <time>2012-10-11T13:54:15Z</time>
      </trkpt>
      <trkpt lat="46.7517" lon="5.79365">
        <ele>533</ele>
        <time>2012-10-11T13:54:18Z</time>
      </trkpt>
      <trkpt lat="46.75164" lon="5.79355">
        <ele>533</ele>
        <time>2012-10-11T13:54:20Z</time>
      </trkpt>
      <trkpt lat="46.75154" lon="5.79342">
        <ele>533</ele>
        <time>2012-10-11T13:54:23Z</time>
      </trkpt>
      <trkpt lat="46.75145" lon="5.79328">
        <ele>533</ele>
        <time>2012-10-11T13:54:26Z</time>
      </trkpt>
      <trkpt lat="46.75136" lon="5.79315">
        <ele>533</ele>
        <time>2012-10-11T13:54:29Z</time>
      </trkpt>
      <trkpt lat="46.75127" lon="5.79302">
        <ele>533</ele>
        <time>2012-10-11T13:54:32Z</time>
      </trkpt>
      <trkpt lat="46.75119" lon="5.79289">
        <ele>533</ele>
        <time>2012-10-11T13:54:35Z</time>
      </trkpt>
      <trkpt lat="46.75109" lon="5.79278">
        <ele>533</ele>
        <time>2012-10-11T13:54:38Z</time>
      </trkpt>
      <trkpt lat="46.75101" lon="5.79265">
        <ele>538</ele>
        <time>2012-10-11T13:54:41Z</time>
      </trkpt>
      <trkpt lat="46.75092" lon="5.79254">
        <ele>538</ele>
        <time>2012-10-11T13:54:44Z</time>
      </trkpt>
      <trkpt lat="46.75083" lon="5.79241">
        <ele>538</ele>
        <time>2012-10-11T13:54:47Z</time>
      </trkpt>
      <trkpt lat="46.75074" lon="5.7923">
        <ele>538</ele>
        <time>2012-10-11T13:54:50Z</time>
      </trkpt>
      <trkpt lat="46.75065" lon="5.79218">
        <ele>538</ele>
        <time>2012-10-11T13:54:53Z</time>
      </trkpt>
      <trkpt lat="46.75056" lon="5.79208">
        <ele>544</ele>
        <time>2012-10-11T13:54:56Z</time>
      </trkpt>
      <trkpt lat="46.75046" lon="5.79196">
        <ele>544</ele>
        <time>2012-10-11T13:54:59Z</time>
      </trkpt>
      <trkpt lat="46.75036" lon="5.79184">
        <ele>544</ele>
        <time>2012-10-11T13:55:02Z</time>
      </trkpt>
      <trkpt lat="46.75026" lon="5.79173">
        <ele>544</ele>
        <time>2012-10-11T13:55:05Z</time>
      </trkpt>
      <trkpt lat="46.75016" lon="5.79161">
        <ele>544</ele>
        <time>2012-10-11T13:55:08Z</time>
      </trkpt>
      <trkpt lat="46.75007" lon="5.7915">
        <ele>544</ele>
        <time>2012-10-11T13:55:11Z</time>
      </trkpt>
      <trkpt lat="46.74996" lon="5.79139">
        <ele>544</ele>
        <time>2012-10-11T13:55:14Z</time>
      </trkpt>
      <trkpt lat="46.74986" lon="5.79127">
        <ele>544</ele>
        <time>2012-10-11T13:55:17Z</time>
      </trkpt>
      <trkpt lat="46.74977" lon="5.79116">
        <ele>544</ele>
        <time>2012-10-11T13:55:20Z</time>
      </trkpt>
      <trkpt lat="46.74966" lon="5.79106">
        <ele>544</ele>
        <time>2012-10-11T13:55:23Z</time>
      </trkpt>
      <trkpt lat="46.74956" lon="5.79095">
        <ele>549</ele>
        <time>2012-10-11T13:55:26Z</time>
      </trkpt>
      <trkpt lat="46.74945" lon="5.79086">
        <ele>549</ele>
        <time>2012-10-11T13:55:29Z</time>
      </trkpt>
      <trkpt lat="46.74934" lon="5.79077">
        <ele>549</ele>
        <time>2012-10-11T13:55:32Z</time>
      </trkpt>
      <trkpt lat="46.74925" lon="5.79067">
        <ele>549</ele>
        <time>2012-10-11T13:55:35Z</time>
      </trkpt>
      <trkpt lat="46.74915" lon="5.79055">
        <ele>549</ele>
        <time>2012-10-11T13:55:38Z</time>
      </trkpt>
      <trkpt lat="46.74906" lon="5.79045">
        <ele>549</ele>
        <time>2012-10-11T13:55:41Z</time>
      </trkpt>
      <trkpt lat="46.74896" lon="5.79035">
        <ele>549</ele>
        <time>2012-10-11T13:55:44Z</time>
      </trkpt>
      <trkpt lat="46.74886" lon="5.79025">
        <ele>549</ele>
        <time>2012-10-11T13:55:47Z</time>
      </trkpt>
      <trkpt lat="46.74876" lon="5.79015">
        <ele>554</ele>
        <time>2012-10-11T13:55:50Z</time>
      </trkpt>
      <trkpt lat="46.74866" lon="5.79007">
        <ele>554</ele>
        <time>2012-10-11T13:55:53Z</time>
      </trkpt>
      <trkpt lat="46.74855" lon="5.78998">
        <ele>554</ele>
        <time>2012-10-11T13:55:56Z</time>
      </trkpt>
      <trkpt lat="46.74845" lon="5.78987">
        <ele>554</ele>
        <time>2012-10-11T13:55:59Z</time>
      </trkpt>
      <trkpt lat="46.74836" lon="5.78974">
        <ele>554</ele>
        <time>2012-10-11T13:56:02Z</time>
      </trkpt>
      <trkpt lat="46.74826" lon="5.78962">
        <ele>554</ele>
        <time>2012-10-11T13:56:05Z</time>
      </trkpt>
      <trkpt lat="46.74818" lon="5.78949">
        <ele>554</ele>
        <time>2012-10-11T13:56:08Z</time>
      </trkpt>
      <trkpt lat="46.74812" lon="5.78938">
        <ele>554</ele>
        <time>2012-10-11T13:56:10Z</time>
      </trkpt>
      <trkpt lat="46.74804" lon="5.78924">
        <ele>554</ele>
        <time>2012-10-11T13:56:13Z</time>
      </trkpt>
      <trkpt lat="46.74795" lon="5.78912">
        <ele>560</ele>
        <time>2012-10-11T13:56:16Z</time>
      </trkpt>
      <trkpt lat="46.74788" lon="5.789">
        <ele>560</ele>
        <time>2012-10-11T13:56:19Z</time>
      </trkpt>
      <trkpt lat="46.7478" lon="5.78885">
        <ele>560</ele>
        <time>2012-10-11T13:56:22Z</time>
      </trkpt>
      <trkpt lat="46.74772" lon="5.78871">
        <ele>560</ele>
        <time>2012-10-11T13:56:25Z</time>
      </trkpt>
      <trkpt lat="46.74763" lon="5.78856">
        <ele>560</ele>
        <time>2012-10-11T13:56:28Z</time>
      </trkpt>
      <trkpt lat="46.74754" lon="5.78844">
        <ele>560</ele>
        <time>2012-10-11T13:56:31Z</time>
      </trkpt>
      <trkpt lat="46.74744" lon="5.78832">
        <ele>560</ele>
        <time>2012-10-11T13:56:34Z</time>
      </trkpt>
      <trkpt lat="46.74733" lon="5.78822">
        <ele>560</ele>
        <time>2012-10-11T13:56:37Z</time>
      </trkpt>
      <trkpt lat="46.74722" lon="5.78813">
        <ele>560</ele>
        <time>2012-10-11T13:56:40Z</time>
      </trkpt>
      <trkpt lat="46.74712" lon="5.78805">
        <ele>560</ele>
        <time>2012-10-11T13:56:43Z</time>
      </trkpt>
      <trkpt lat="46.74701" lon="5.78795">
        <ele>566</ele>
        <time>2012-10-11T13:56:46Z</time>
      </trkpt>
      <trkpt lat="46.7469" lon="5.78787">
        <ele>566</ele>
        <time>2012-10-11T13:56:49Z</time>
      </trkpt>
      <trkpt lat="46.7468" lon="5.78779">
        <ele>566</ele>
        <time>2012-10-11T13:56:52Z</time>
      </trkpt>
      <trkpt lat="46.7467" lon="5.78768">
        <ele>566</ele>
        <time>2012-10-11T13:56:55Z</time>
      </trkpt>
      <trkpt lat="46.7466" lon="5.78756">
        <ele>566</ele>
        <time>2012-10-11T13:56:58Z</time>
      </trkpt>
      <trkpt lat="46.74652" lon="5.78742">
        <ele>566</ele>
        <time>2012-10-11T13:57:01Z</time>
      </trkpt>
      <trkpt lat="46.74645" lon="5.78728">
        <ele>566</ele>
        <time>2012-10-11T13:57:04Z</time>
      </trkpt>
      <trkpt lat="46.74638" lon="5.78714">
        <ele>566</ele>
        <time>2012-10-11T13:57:07Z</time>
      </trkpt>
      <trkpt lat="46.74631" lon="5.78701">
        <ele>572</ele>
        <time>2012-10-11T13:57:10Z</time>
      </trkpt>
      <trkpt lat="46.74624" lon="5.78686">
        <ele>572</ele>
        <time>2012-10-11T13:57:13Z</time>
      </trkpt>
      <trkpt lat="46.74618" lon="5.7867">
        <ele>572</ele>
        <time>2012-10-11T13:57:16Z</time>
      </trkpt>
      <trkpt lat="46.74611" lon="5.78654">
        <ele>572</ele>
        <time>2012-10-11T13:57:19Z</time>
      </trkpt>
      <trkpt lat="46.74604" lon="5.78642">
        <ele>572</ele>
        <time>2012-10-11T13:57:22Z</time>
      </trkpt>
      <trkpt lat="46.74594" lon="5.7863">
        <ele>572</ele>
        <time>2012-10-11T13:57:25Z</time>
      </trkpt>
      <trkpt lat="46.74584" lon="5.7862">
        <ele>572</ele>
        <time>2012-10-11T13:57:28Z</time>
      </trkpt>
      <trkpt lat="46.74574" lon="5.78611">
        <ele>578</ele>
        <time>2012-10-11T13:57:31Z</time>
      </trkpt>
      <trkpt lat="46.74563" lon="5.78603">
        <ele>578</ele>
        <time>2012-10-11T13:57:34Z</time>
      </trkpt>
      <trkpt lat="46.74552" lon="5.78595">
        <ele>578</ele>
        <time>2012-10-11T13:57:37Z</time>
      </trkpt>
      <trkpt lat="46.74544" lon="5.78588">
        <ele>578</ele>
        <time>2012-10-11T13:57:39Z</time>
      </trkpt>
      <trkpt lat="46.74534" lon="5.78577">
        <ele>578</ele>
        <time>2012-10-11T13:57:42Z</time>
      </trkpt>
      <trkpt lat="46.74526" lon="5.78566">
        <ele>578</ele>
        <time>2012-10-11T13:57:45Z</time>
      </trkpt>
      <trkpt lat="46.74517" lon="5.78555">
        <ele>578</ele>
        <time>2012-10-11T13:57:48Z</time>
      </trkpt>
      <trkpt lat="46.74509" lon="5.78539">
        <ele>578</ele>
        <time>2012-10-11T13:57:51Z</time>
      </trkpt>
      <trkpt lat="46.74499" lon="5.78528">
        <ele>578</ele>
        <time>2012-10-11T13:57:54Z</time>
      </trkpt>
      <trkpt lat="46.7449" lon="5.78518">
        <ele>578</ele>
        <time>2012-10-11T13:57:57Z</time>
      </trkpt>
      <trkpt lat="46.74481" lon="5.78507">
        <ele>578</ele>
        <time>2012-10-11T13:58:00Z</time>
      </trkpt>
      <trkpt lat="46.74472" lon="5.78496">
        <ele>578</ele>
        <time>2012-10-11T13:58:03Z</time>
      </trkpt>
      <trkpt lat="46.74462" lon="5.78488">
        <ele>578</ele>
        <time>2012-10-11T13:58:06Z</time>
      </trkpt>
      <trkpt lat="46.74453" lon="5.78477">
        <ele>578</ele>
        <time>2012-10-11T13:58:09Z</time>
      </trkpt>
      <trkpt lat="46.74445" lon="5.78463">
        <ele>578</ele>
        <time>2012-10-11T13:58:12Z</time>
      </trkpt>
      <trkpt lat="46.74447" lon="5.78447">
        <ele>578</ele>
        <time>2012-10-11T13:58:15Z</time>
      </trkpt>
      <trkpt lat="46.74458" lon="5.78445">
        <ele>578</ele>
        <time>2012-10-11T13:58:18Z</time>
      </trkpt>
      <trkpt lat="46.74469" lon="5.78452">
        <ele>585</ele>
        <time>2012-10-11T13:58:21Z</time>
      </trkpt>
      <trkpt lat="46.7448" lon="5.7846">
        <ele>585</ele>
        <time>2012-10-11T13:58:24Z</time>
      </trkpt>
      <trkpt lat="46.7449" lon="5.78467">
        <ele>592</ele>
        <time>2012-10-11T13:58:27Z</time>
      </trkpt>
      <trkpt lat="46.745" lon="5.78473">
        <ele>592</ele>
        <time>2012-10-11T13:58:30Z</time>
      </trkpt>
      <trkpt lat="46.7451" lon="5.78477">
        <ele>599</ele>
        <time>2012-10-11T13:58:33Z</time>
      </trkpt>
      <trkpt lat="46.74519" lon="5.78484">
        <ele>599</ele>
        <time>2012-10-11T13:58:36Z</time>
      </trkpt>
      <trkpt lat="46.74531" lon="5.78491">
        <ele>605</ele>
        <time>2012-10-11T13:58:39Z</time>
      </trkpt>
      <trkpt lat="46.7454" lon="5.78498">
        <ele>605</ele>
        <time>2012-10-11T13:58:42Z</time>
      </trkpt>
      <trkpt lat="46.74552" lon="5.78505">
        <ele>605</ele>
        <time>2012-10-11T13:58:45Z</time>
      </trkpt>
      <trkpt lat="46.74563" lon="5.78509">
        <ele>605</ele>
        <time>2012-10-11T13:58:48Z</time>
      </trkpt>
      <trkpt lat="46.74574" lon="5.78514">
        <ele>611</ele>
        <time>2012-10-11T13:58:51Z</time>
      </trkpt>
      <trkpt lat="46.74583" lon="5.78518">
        <ele>611</ele>
        <time>2012-10-11T13:58:54Z</time>
      </trkpt>
      <trkpt lat="46.74594" lon="5.7852">
        <ele>611</ele>
        <time>2012-10-11T13:58:57Z</time>
      </trkpt>
      <trkpt lat="46.74604" lon="5.78524">
        <ele>611</ele>
        <time>2012-10-11T13:58:59Z</time>
      </trkpt>
      <trkpt lat="46.74615" lon="5.78529">
        <ele>611</ele>
        <time>2012-10-11T13:59:02Z</time>
      </trkpt>
      <trkpt lat="46.74625" lon="5.7853">
        <ele>617</ele>
        <time>2012-10-11T13:59:05Z</time>
      </trkpt>
      <trkpt lat="46.74636" lon="5.78531">
        <ele>617</ele>
        <time>2012-10-11T13:59:08Z</time>
      </trkpt>
      <trkpt lat="46.74646" lon="5.78534">
        <ele>617</ele>
        <time>2012-10-11T13:59:11Z</time>
      </trkpt>
      <trkpt lat="46.74657" lon="5.78537">
        <ele>617</ele>
        <time>2012-10-11T13:59:14Z</time>
      </trkpt>
      <trkpt lat="46.74668" lon="5.78541">
        <ele>624</ele>
        <time>2012-10-11T13:59:17Z</time>
      </trkpt>
      <trkpt lat="46.74678" lon="5.78547">
        <ele>624</ele>
        <time>2012-10-11T13:59:20Z</time>
      </trkpt>
      <trkpt lat="46.74689" lon="5.78553">
        <ele>624</ele>
        <time>2012-10-11T13:59:23Z</time>
      </trkpt>
      <trkpt lat="46.74699" lon="5.78559">
        <ele>624</ele>
        <time>2012-10-11T13:59:26Z</time>
      </trkpt>
      <trkpt lat="46.74709" lon="5.78567">
        <ele>624</ele>
        <time>2012-10-11T13:59:29Z</time>
      </trkpt>
      <trkpt lat="46.74719" lon="5.78576">
        <ele>624</ele>
        <time>2012-10-11T13:59:32Z</time>
      </trkpt>
      <trkpt lat="46.7473" lon="5.78583">
        <ele>624</ele>
        <time>2012-10-11T13:59:35Z</time>
      </trkpt>
      <trkpt lat="46.74741" lon="5.7859">
        <ele>630</ele>
        <time>2012-10-11T13:59:38Z</time>
      </trkpt>
      <trkpt lat="46.74749" lon="5.78594">
        <ele>630</ele>
        <time>2012-10-11T13:59:41Z</time>
      </trkpt>
      <trkpt lat="46.7476" lon="5.786">
        <ele>630</ele>
        <time>2012-10-11T13:59:44Z</time>
      </trkpt>
      <trkpt lat="46.74771" lon="5.78606">
        <ele>630</ele>
        <time>2012-10-11T13:59:47Z</time>
      </trkpt>
      <trkpt lat="46.74781" lon="5.78609">
        <ele>630</ele>
        <time>2012-10-11T13:59:50Z</time>
      </trkpt>
      <trkpt lat="46.74789" lon="5.78613">
        <ele>630</ele>
        <time>2012-10-11T13:59:52Z</time>
      </trkpt>
      <trkpt lat="46.74799" lon="5.78616">
        <ele>630</ele>
        <time>2012-10-11T13:59:55Z</time>
      </trkpt>
      <trkpt lat="46.7481" lon="5.78618">
        <ele>630</ele>
        <time>2012-10-11T13:59:58Z</time>
      </trkpt>
      <trkpt lat="46.74821" lon="5.78618">
        <ele>630</ele>
        <time>2012-10-11T14:00:01Z</time>
      </trkpt>
      <trkpt lat="46.74833" lon="5.78618">
        <ele>630</ele>
        <time>2012-10-11T14:00:04Z</time>
      </trkpt>
      <trkpt lat="46.74846" lon="5.78617">
        <ele>630</ele>
        <time>2012-10-11T14:00:07Z</time>
      </trkpt>
      <trkpt lat="46.74857" lon="5.78612">
        <ele>630</ele>
        <time>2012-10-11T14:00:10Z</time>
      </trkpt>
      <trkpt lat="46.74866" lon="5.78606">
        <ele>630</ele>
        <time>2012-10-11T14:00:13Z</time>
      </trkpt>
      <trkpt lat="46.74875" lon="5.78597">
        <ele>630</ele>
        <time>2012-10-11T14:00:16Z</time>
      </trkpt>
      <trkpt lat="46.74886" lon="5.7859">
        <ele>621</ele>
        <time>2012-10-11T14:00:19Z</time>
      </trkpt>
      <trkpt lat="46.74895" lon="5.7858">
        <ele>621</ele>
        <time>2012-10-11T14:00:22Z</time>
      </trkpt>
      <trkpt lat="46.74902" lon="5.78569">
        <ele>615</ele>
        <time>2012-10-11T14:00:25Z</time>
      </trkpt>
      <trkpt lat="46.74909" lon="5.78557">
        <ele>615</ele>
        <time>2012-10-11T14:00:28Z</time>
      </trkpt>
      <trkpt lat="46.74915" lon="5.78547">
        <ele>615</ele>
        <time>2012-10-11T14:00:31Z</time>
      </trkpt>
      <trkpt lat="46.74922" lon="5.78534">
        <ele>615</ele>
        <time>2012-10-11T14:00:34Z</time>
      </trkpt>
      <trkpt lat="46.74931" lon="5.78524">
        <ele>615</ele>
        <time>2012-10-11T14:00:37Z</time>
      </trkpt>
      <trkpt lat="46.74941" lon="5.78516">
        <ele>615</ele>
        <time>2012-10-11T14:00:40Z</time>
      </trkpt>
      <trkpt lat="46.74951" lon="5.78508">
        <ele>615</ele>
        <time>2012-10-11T14:00:43Z</time>
      </trkpt>
      <trkpt lat="46.74961" lon="5.78498">
        <ele>620</ele>
        <time>2012-10-11T14:00:46Z</time>
      </trkpt>
      <trkpt lat="46.74973" lon="5.78486">
        <ele>620</ele>
        <time>2012-10-11T14:00:49Z</time>
      </trkpt>
      <trkpt lat="46.74981" lon="5.78479">
        <ele>620</ele>
        <time>2012-10-11T14:00:51Z</time>
      </trkpt>
      <trkpt lat="46.74993" lon="5.78471">
        <ele>620</ele>
        <time>2012-10-11T14:00:53Z</time>
      </trkpt>
      <trkpt lat="46.75004" lon="5.78461">
        <ele>620</ele>
        <time>2012-10-11T14:00:55Z</time>
      </trkpt>
      <trkpt lat="46.75017" lon="5.78454">
        <ele>620</ele>
        <time>2012-10-11T14:00:57Z</time>
      </trkpt>
      <trkpt lat="46.75029" lon="5.78444">
        <ele>620</ele>
        <time>2012-10-11T14:00:59Z</time>
      </trkpt>
      <trkpt lat="46.75043" lon="5.78435">
        <ele>620</ele>
        <time>2012-10-11T14:01:01Z</time>
      </trkpt>
      <trkpt lat="46.75056" lon="5.78427">
        <ele>620</ele>
        <time>2012-10-11T14:01:03Z</time>
      </trkpt>
      <trkpt lat="46.75069" lon="5.78417">
        <ele>620</ele>
        <time>2012-10-11T14:01:05Z</time>
      </trkpt>
      <trkpt lat="46.75082" lon="5.78408">
        <ele>620</ele>
        <time>2012-10-11T14:01:07Z</time>
      </trkpt>
      <trkpt lat="46.75094" lon="5.78398">
        <ele>620</ele>
        <time>2012-10-11T14:01:09Z</time>
      </trkpt>
      <trkpt lat="46.75105" lon="5.78384">
        <ele>620</ele>
        <time>2012-10-11T14:01:11Z</time>
      </trkpt>
      <trkpt lat="46.75113" lon="5.78365">
        <ele>620</ele>
        <time>2012-10-11T14:01:13Z</time>
      </trkpt>
      <trkpt lat="46.75119" lon="5.78349">
        <ele>620</ele>
        <time>2012-10-11T14:01:15Z</time>
      </trkpt>
      <trkpt lat="46.75124" lon="5.78336">
        <ele>620</ele>
        <time>2012-10-11T14:01:17Z</time>
      </trkpt>
      <trkpt lat="46.75131" lon="5.78325">
        <ele>615</ele>
        <time>2012-10-11T14:01:20Z</time>
      </trkpt>
      <trkpt lat="46.7514" lon="5.78316">
        <ele>615</ele>
        <time>2012-10-11T14:01:24Z</time>
      </trkpt>
      <trkpt lat="46.75138" lon="5.78301">
        <ele>604</ele>
        <time>2012-10-11T14:08:01Z</time>
      </trkpt>
      <trkpt lat="46.75143" lon="5.78288">
        <ele>604</ele>
        <time>2012-10-11T14:08:04Z</time>
      </trkpt>
      <trkpt lat="46.75148" lon="5.78272">
        <ele>604</ele>
        <time>2012-10-11T14:08:07Z</time>
      </trkpt>
      <trkpt lat="46.75152" lon="5.78258">
        <ele>604</ele>
        <time>2012-10-11T14:08:09Z</time>
      </trkpt>
      <trkpt lat="46.75156" lon="5.78244">
        <ele>604</ele>
        <time>2012-10-11T14:08:11Z</time>
      </trkpt>
      <trkpt lat="46.75161" lon="5.7823">
        <ele>604</ele>
        <time>2012-10-11T14:08:13Z</time>
      </trkpt>
      <trkpt lat="46.75165" lon="5.78216">
        <ele>604</ele>
        <time>2012-10-11T14:08:15Z</time>
      </trkpt>
      <trkpt lat="46.75169" lon="5.78202">
        <ele>604</ele>
        <time>2012-10-11T14:08:17Z</time>
      </trkpt>
      <trkpt lat="46.75175" lon="5.78187">
        <ele>604</ele>
        <time>2012-10-11T14:08:19Z</time>
      </trkpt>
      <trkpt lat="46.7518" lon="5.78175">
        <ele>604</ele>
        <time>2012-10-11T14:08:21Z</time>
      </trkpt>
      <trkpt lat="46.75183" lon="5.7816">
        <ele>604</ele>
        <time>2012-10-11T14:08:23Z</time>
      </trkpt>
      <trkpt lat="46.75186" lon="5.78146">
        <ele>604</ele>
        <time>2012-10-11T14:08:25Z</time>
      </trkpt>
      <trkpt lat="46.75191" lon="5.78133">
        <ele>610</ele>
        <time>2012-10-11T14:08:27Z</time>
      </trkpt>
      <trkpt lat="46.75197" lon="5.78119">
        <ele>610</ele>
        <time>2012-10-11T14:08:29Z</time>
      </trkpt>
      <trkpt lat="46.75202" lon="5.78105">
        <ele>610</ele>
        <time>2012-10-11T14:08:31Z</time>
      </trkpt>
      <trkpt lat="46.75207" lon="5.78092">
        <ele>610</ele>
        <time>2012-10-11T14:08:33Z</time>
      </trkpt>
      <trkpt lat="46.75211" lon="5.78077">
        <ele>610</ele>
        <time>2012-10-11T14:08:35Z</time>
      </trkpt>
      <trkpt lat="46.75217" lon="5.78062">
        <ele>610</ele>
        <time>2012-10-11T14:08:37Z</time>
      </trkpt>
      <trkpt lat="46.75222" lon="5.78045">
        <ele>610</ele>
        <time>2012-10-11T14:08:39Z</time>
      </trkpt>
      <trkpt lat="46.75225" lon="5.78029">
        <ele>610</ele>
        <time>2012-10-11T14:08:41Z</time>
      </trkpt>
      <trkpt lat="46.75226" lon="5.78012">
        <ele>610</ele>
        <time>2012-10-11T14:08:43Z</time>
      </trkpt>
      <trkpt lat="46.75223" lon="5.77994">
        <ele>610</ele>
        <time>2012-10-11T14:08:45Z</time>
      </trkpt>
      <trkpt lat="46.75217" lon="5.77978">
        <ele>610</ele>
        <time>2012-10-11T14:08:47Z</time>
      </trkpt>
      <trkpt lat="46.75209" lon="5.77964">
        <ele>610</ele>
        <time>2012-10-11T14:08:49Z</time>
      </trkpt>
      <trkpt lat="46.75203" lon="5.77947">
        <ele>610</ele>
        <time>2012-10-11T14:08:51Z</time>
      </trkpt>
      <trkpt lat="46.75197" lon="5.77933">
        <ele>604</ele>
        <time>2012-10-11T14:08:53Z</time>
      </trkpt>
      <trkpt lat="46.75188" lon="5.77918">
        <ele>604</ele>
        <time>2012-10-11T14:08:55Z</time>
      </trkpt>
      <trkpt lat="46.75182" lon="5.77903">
        <ele>604</ele>
        <time>2012-10-11T14:08:57Z</time>
      </trkpt>
      <trkpt lat="46.75174" lon="5.77889">
        <ele>604</ele>
        <time>2012-10-11T14:08:59Z</time>
      </trkpt>
      <trkpt lat="46.75167" lon="5.77875">
        <ele>604</ele>
        <time>2012-10-11T14:09:01Z</time>
      </trkpt>
      <trkpt lat="46.75161" lon="5.7786">
        <ele>604</ele>
        <time>2012-10-11T14:09:03Z</time>
      </trkpt>
      <trkpt lat="46.75152" lon="5.77846">
        <ele>604</ele>
        <time>2012-10-11T14:09:05Z</time>
      </trkpt>
      <trkpt lat="46.75144" lon="5.77831">
        <ele>604</ele>
        <time>2012-10-11T14:09:07Z</time>
      </trkpt>
      <trkpt lat="46.75135" lon="5.7782">
        <ele>604</ele>
        <time>2012-10-11T14:09:09Z</time>
      </trkpt>
      <trkpt lat="46.75124" lon="5.7781">
        <ele>604</ele>
        <time>2012-10-11T14:09:11Z</time>
      </trkpt>
      <trkpt lat="46.75113" lon="5.77801">
        <ele>610</ele>
        <time>2012-10-11T14:09:13Z</time>
      </trkpt>
      <trkpt lat="46.75104" lon="5.77787">
        <ele>610</ele>
        <time>2012-10-11T14:09:15Z</time>
      </trkpt>
      <trkpt lat="46.75095" lon="5.77776">
        <ele>610</ele>
        <time>2012-10-11T14:09:17Z</time>
      </trkpt>
      <trkpt lat="46.75086" lon="5.77765">
        <ele>610</ele>
        <time>2012-10-11T14:09:19Z</time>
      </trkpt>
      <trkpt lat="46.75077" lon="5.77751">
        <ele>610</ele>
        <time>2012-10-11T14:09:21Z</time>
      </trkpt>
      <trkpt lat="46.7507" lon="5.77737">
        <ele>610</ele>
        <time>2012-10-11T14:09:23Z</time>
      </trkpt>
      <trkpt lat="46.75064" lon="5.77725">
        <ele>615</ele>
        <time>2012-10-11T14:09:25Z</time>
      </trkpt>
      <trkpt lat="46.75059" lon="5.7771">
        <ele>615</ele>
        <time>2012-10-11T14:09:27Z</time>
      </trkpt>
      <trkpt lat="46.75053" lon="5.77696">
        <ele>615</ele>
        <time>2012-10-11T14:09:29Z</time>
      </trkpt>
      <trkpt lat="46.75046" lon="5.77677">
        <ele>621</ele>
        <time>2012-10-11T14:09:31Z</time>
      </trkpt>
      <trkpt lat="46.75039" lon="5.77662">
        <ele>621</ele>
        <time>2012-10-11T14:09:33Z</time>
      </trkpt>
      <trkpt lat="46.75033" lon="5.77646">
        <ele>621</ele>
        <time>2012-10-11T14:09:35Z</time>
      </trkpt>
      <trkpt lat="46.75026" lon="5.77634">
        <ele>621</ele>
        <time>2012-10-11T14:09:37Z</time>
      </trkpt>
      <trkpt lat="46.75017" lon="5.77622">
        <ele>621</ele>
        <time>2012-10-11T14:09:39Z</time>
      </trkpt>
      <trkpt lat="46.75008" lon="5.77614">
        <ele>621</ele>
        <time>2012-10-11T14:09:41Z</time>
      </trkpt>
      <trkpt lat="46.74999" lon="5.77608">
        <ele>621</ele>
        <time>2012-10-11T14:09:43Z</time>
      </trkpt>
      <trkpt lat="46.74989" lon="5.77598">
        <ele>621</ele>
        <time>2012-10-11T14:09:45Z</time>
      </trkpt>
      <trkpt lat="46.7498" lon="5.77588">
        <ele>621</ele>
        <time>2012-10-11T14:09:47Z</time>
      </trkpt>
      <trkpt lat="46.74972" lon="5.77576">
        <ele>621</ele>
        <time>2012-10-11T14:09:49Z</time>
      </trkpt>
      <trkpt lat="46.74966" lon="5.77563">
        <ele>627</ele>
        <time>2012-10-11T14:09:51Z</time>
      </trkpt>
      <trkpt lat="46.74957" lon="5.77548">
        <ele>627</ele>
        <time>2012-10-11T14:09:53Z</time>
      </trkpt>
      <trkpt lat="46.74952" lon="5.77533">
        <ele>627</ele>
        <time>2012-10-11T14:09:55Z</time>
      </trkpt>
      <trkpt lat="46.74945" lon="5.7752">
        <ele>627</ele>
        <time>2012-10-11T14:09:57Z</time>
      </trkpt>
      <trkpt lat="46.74936" lon="5.77504">
        <ele>635</ele>
        <time>2012-10-11T14:09:59Z</time>
      </trkpt>
      <trkpt lat="46.74928" lon="5.77489">
        <ele>635</ele>
        <time>2012-10-11T14:10:01Z</time>
      </trkpt>
      <trkpt lat="46.74923" lon="5.77473">
        <ele>642</ele>
        <time>2012-10-11T14:10:03Z</time>
      </trkpt>
      <trkpt lat="46.74917" lon="5.77458">
        <ele>642</ele>
        <time>2012-10-11T14:10:05Z</time>
      </trkpt>
      <trkpt lat="46.74912" lon="5.77445">
        <ele>649</ele>
        <time>2012-10-11T14:10:07Z</time>
      </trkpt>
      <trkpt lat="46.74906" lon="5.77429">
        <ele>649</ele>
        <time>2012-10-11T14:10:09Z</time>
      </trkpt>
      <trkpt lat="46.74898" lon="5.77413">
        <ele>657</ele>
        <time>2012-10-11T14:10:11Z</time>
      </trkpt>
      <trkpt lat="46.74891" lon="5.77398">
        <ele>657</ele>
        <time>2012-10-11T14:10:13Z</time>
      </trkpt>
      <trkpt lat="46.74885" lon="5.77386">
        <ele>665</ele>
        <time>2012-10-11T14:10:15Z</time>
      </trkpt>
      <trkpt lat="46.74878" lon="5.77371">
        <ele>665</ele>
        <time>2012-10-11T14:10:17Z</time>
      </trkpt>
      <trkpt lat="46.7487" lon="5.77357">
        <ele>673</ele>
        <time>2012-10-11T14:10:19Z</time>
      </trkpt>
      <trkpt lat="46.74864" lon="5.77344">
        <ele>673</ele>
        <time>2012-10-11T14:10:21Z</time>
      </trkpt>
      <trkpt lat="46.74855" lon="5.77329">
        <ele>681</ele>
        <time>2012-10-11T14:10:23Z</time>
      </trkpt>
      <trkpt lat="46.74848" lon="5.77314">
        <ele>687</ele>
        <time>2012-10-11T14:10:25Z</time>
      </trkpt>
      <trkpt lat="46.74842" lon="5.77301">
        <ele>687</ele>
        <time>2012-10-11T14:10:27Z</time>
      </trkpt>
      <trkpt lat="46.74836" lon="5.77287">
        <ele>697</ele>
        <time>2012-10-11T14:10:29Z</time>
      </trkpt>
      <trkpt lat="46.7483" lon="5.77274">
        <ele>702</ele>
        <time>2012-10-11T14:10:31Z</time>
      </trkpt>
      <trkpt lat="46.74823" lon="5.77259">
        <ele>708</ele>
        <time>2012-10-11T14:10:33Z</time>
      </trkpt>
      <trkpt lat="46.74811" lon="5.77243">
        <ele>708</ele>
        <time>2012-10-11T14:10:35Z</time>
      </trkpt>
      <trkpt lat="46.74803" lon="5.77235">
        <ele>708</ele>
        <time>2012-10-11T14:10:36Z</time>
      </trkpt>
      <trkpt lat="46.74792" lon="5.7722">
        <ele>708</ele>
        <time>2012-10-11T14:10:38Z</time>
      </trkpt>
      <trkpt lat="46.74781" lon="5.77203">
        <ele>702</ele>
        <time>2012-10-11T14:10:40Z</time>
      </trkpt>
      <trkpt lat="46.74772" lon="5.77186">
        <ele>702</ele>
        <time>2012-10-11T14:10:42Z</time>
      </trkpt>
      <trkpt lat="46.74763" lon="5.77176">
        <ele>702</ele>
        <time>2012-10-11T14:10:43Z</time>
      </trkpt>
      <trkpt lat="46.74756" lon="5.77166">
        <ele>696</ele>
        <time>2012-10-11T14:10:44Z</time>
      </trkpt>
      <trkpt lat="46.74746" lon="5.77145">
        <ele>696</ele>
        <time>2012-10-11T14:10:46Z</time>
      </trkpt>
      <trkpt lat="46.74734" lon="5.77125">
        <ele>696</ele>
        <time>2012-10-11T14:10:48Z</time>
      </trkpt>
      <trkpt lat="46.74725" lon="5.77105">
        <ele>696</ele>
        <time>2012-10-11T14:10:50Z</time>
      </trkpt>
      <trkpt lat="46.74722" lon="5.77091">
        <ele>696</ele>
        <time>2012-10-11T14:10:51Z</time>
      </trkpt>
      <trkpt lat="46.74718" lon="5.77079">
        <ele>696</ele>
        <time>2012-10-11T14:10:52Z</time>
      </trkpt>
      <trkpt lat="46.74717" lon="5.77064">
        <ele>696</ele>
        <time>2012-10-11T14:10:53Z</time>
      </trkpt>
      <trkpt lat="46.74717" lon="5.7705">
        <ele>687</ele>
        <time>2012-10-11T14:10:54Z</time>
      </trkpt>
      <trkpt lat="46.74718" lon="5.77036">
        <ele>687</ele>
        <time>2012-10-11T14:10:55Z</time>
      </trkpt>
      <trkpt lat="46.74718" lon="5.77022">
        <ele>687</ele>
        <time>2012-10-11T14:10:56Z</time>
      </trkpt>
      <trkpt lat="46.7472" lon="5.76997">
        <ele>682</ele>
        <time>2012-10-11T14:10:58Z</time>
      </trkpt>
      <trkpt lat="46.74705" lon="5.76977">
        <ele>653</ele>
        <time>2012-10-11T14:10:59Z</time>
      </trkpt>
      <trkpt lat="46.747" lon="5.76954">
        <ele>653</ele>
        <time>2012-10-11T14:11:01Z</time>
      </trkpt>
      <trkpt lat="46.74692" lon="5.76935">
        <ele>653</ele>
        <time>2012-10-11T14:11:03Z</time>
      </trkpt>
      <trkpt lat="46.74683" lon="5.76925">
        <ele>641</ele>
        <time>2012-10-11T14:11:04Z</time>
      </trkpt>
      <trkpt lat="46.74676" lon="5.76915">
        <ele>641</ele>
        <time>2012-10-11T14:11:05Z</time>
      </trkpt>
      <trkpt lat="46.74669" lon="5.76906">
        <ele>635</ele>
        <time>2012-10-11T14:11:06Z</time>
      </trkpt>
      <trkpt lat="46.74662" lon="5.76897">
        <ele>635</ele>
        <time>2012-10-11T14:11:07Z</time>
      </trkpt>
      <trkpt lat="46.74652" lon="5.76886">
        <ele>622</ele>
        <time>2012-10-11T14:11:08Z</time>
      </trkpt>
      <trkpt lat="46.74645" lon="5.76877">
        <ele>622</ele>
        <time>2012-10-11T14:11:09Z</time>
      </trkpt>
      <trkpt lat="46.74639" lon="5.76868">
        <ele>615</ele>
        <time>2012-10-11T14:11:10Z</time>
      </trkpt>
      <trkpt lat="46.74625" lon="5.76851">
        <ele>609</ele>
        <time>2012-10-11T14:11:12Z</time>
      </trkpt>
      <trkpt lat="46.74618" lon="5.76842">
        <ele>609</ele>
        <time>2012-10-11T14:11:13Z</time>
      </trkpt>
      <trkpt lat="46.74604" lon="5.76825">
        <ele>601</ele>
        <time>2012-10-11T14:11:15Z</time>
      </trkpt>
      <trkpt lat="46.74592" lon="5.76806">
        <ele>601</ele>
        <time>2012-10-11T14:11:17Z</time>
      </trkpt>
      <trkpt lat="46.74586" lon="5.76785">
        <ele>595</ele>
        <time>2012-10-11T14:11:19Z</time>
      </trkpt>
      <trkpt lat="46.74586" lon="5.76759">
        <ele>595</ele>
        <time>2012-10-11T14:11:21Z</time>
      </trkpt>
      <trkpt lat="46.7459" lon="5.76746">
        <ele>595</ele>
        <time>2012-10-11T14:11:22Z</time>
      </trkpt>
      <trkpt lat="46.746" lon="5.76726">
        <ele>588</ele>
        <time>2012-10-11T14:11:24Z</time>
      </trkpt>
      <trkpt lat="46.74612" lon="5.76709">
        <ele>588</ele>
        <time>2012-10-11T14:11:26Z</time>
      </trkpt>
      <trkpt lat="46.74624" lon="5.76693">
        <ele>588</ele>
        <time>2012-10-11T14:11:28Z</time>
      </trkpt>
      <trkpt lat="46.74636" lon="5.7668">
        <ele>588</ele>
        <time>2012-10-11T14:11:30Z</time>
      </trkpt>
      <trkpt lat="46.74648" lon="5.76665">
        <ele>588</ele>
        <time>2012-10-11T14:11:32Z</time>
      </trkpt>
      <trkpt lat="46.7466" lon="5.76652">
        <ele>588</ele>
        <time>2012-10-11T14:11:34Z</time>
      </trkpt>
      <trkpt lat="46.74671" lon="5.76639">
        <ele>588</ele>
        <time>2012-10-11T14:11:36Z</time>
      </trkpt>
      <trkpt lat="46.74683" lon="5.76626">
        <ele>588</ele>
        <time>2012-10-11T14:11:38Z</time>
      </trkpt>
      <trkpt lat="46.74694" lon="5.76612">
        <ele>588</ele>
        <time>2012-10-11T14:11:40Z</time>
      </trkpt>
      <trkpt lat="46.74705" lon="5.766">
        <ele>588</ele>
        <time>2012-10-11T14:11:42Z</time>
      </trkpt>
      <trkpt lat="46.74716" lon="5.76589">
        <ele>583</ele>
        <time>2012-10-11T14:11:44Z</time>
      </trkpt>
      <trkpt lat="46.74728" lon="5.76578">
        <ele>583</ele>
        <time>2012-10-11T14:11:46Z</time>
      </trkpt>
      <trkpt lat="46.74738" lon="5.76566">
        <ele>583</ele>
        <time>2012-10-11T14:11:48Z</time>
      </trkpt>
      <trkpt lat="46.74746" lon="5.76551">
        <ele>583</ele>
        <time>2012-10-11T14:11:50Z</time>
      </trkpt>
      <trkpt lat="46.74754" lon="5.76535">
        <ele>583</ele>
        <time>2012-10-11T14:11:52Z</time>
      </trkpt>
      <trkpt lat="46.7476" lon="5.76521">
        <ele>583</ele>
        <time>2012-10-11T14:11:54Z</time>
      </trkpt>
      <trkpt lat="46.74765" lon="5.76503">
        <ele>583</ele>
        <time>2012-10-11T14:11:56Z</time>
      </trkpt>
      <trkpt lat="46.74775" lon="5.76488">
        <ele>583</ele>
        <time>2012-10-11T14:11:58Z</time>
      </trkpt>
      <trkpt lat="46.74783" lon="5.76474">
        <ele>583</ele>
        <time>2012-10-11T14:12:00Z</time>
      </trkpt>
      <trkpt lat="46.74791" lon="5.76456">
        <ele>583</ele>
        <time>2012-10-11T14:12:02Z</time>
      </trkpt>
      <trkpt lat="46.74799" lon="5.7644">
        <ele>583</ele>
        <time>2012-10-11T14:12:04Z</time>
      </trkpt>
      <trkpt lat="46.74807" lon="5.76425">
        <ele>583</ele>
        <time>2012-10-11T14:12:06Z</time>
      </trkpt>
      <trkpt lat="46.74814" lon="5.76408">
        <ele>583</ele>
        <time>2012-10-11T14:12:08Z</time>
      </trkpt>
      <trkpt lat="46.7482" lon="5.76389">
        <ele>583</ele>
        <time>2012-10-11T14:12:10Z</time>
      </trkpt>
      <trkpt lat="46.74826" lon="5.76369">
        <ele>583</ele>
        <time>2012-10-11T14:12:12Z</time>
      </trkpt>
      <trkpt lat="46.74833" lon="5.7635">
        <ele>583</ele>
        <time>2012-10-11T14:12:14Z</time>
      </trkpt>
      <trkpt lat="46.74839" lon="5.76332">
        <ele>583</ele>
        <time>2012-10-11T14:12:16Z</time>
      </trkpt>
      <trkpt lat="46.74847" lon="5.76314">
        <ele>583</ele>
        <time>2012-10-11T14:12:18Z</time>
      </trkpt>
      <trkpt lat="46.74854" lon="5.76295">
        <ele>583</ele>
        <time>2012-10-11T14:12:20Z</time>
      </trkpt>
      <trkpt lat="46.7486" lon="5.76276">
        <ele>583</ele>
        <time>2012-10-11T14:12:22Z</time>
      </trkpt>
      <trkpt lat="46.74867" lon="5.76256">
        <ele>583</ele>
        <time>2012-10-11T14:12:24Z</time>
      </trkpt>
      <trkpt lat="46.74874" lon="5.76235">
        <ele>583</ele>
        <time>2012-10-11T14:12:26Z</time>
      </trkpt>
      <trkpt lat="46.74881" lon="5.76213">
        <ele>577</ele>
        <time>2012-10-11T14:12:28Z</time>
      </trkpt>
      <trkpt lat="46.74888" lon="5.76188">
        <ele>577</ele>
        <time>2012-10-11T14:12:30Z</time>
      </trkpt>
      <trkpt lat="46.74894" lon="5.76164">
        <ele>577</ele>
        <time>2012-10-11T14:12:32Z</time>
      </trkpt>
      <trkpt lat="46.74897" lon="5.76152">
        <ele>577</ele>
        <time>2012-10-11T14:12:33Z</time>
      </trkpt>
      <trkpt lat="46.74905" lon="5.76127">
        <ele>577</ele>
        <time>2012-10-11T14:12:35Z</time>
      </trkpt>
      <trkpt lat="46.74912" lon="5.76104">
        <ele>577</ele>
        <time>2012-10-11T14:12:37Z</time>
      </trkpt>
      <trkpt lat="46.74921" lon="5.76082">
        <ele>577</ele>
        <time>2012-10-11T14:12:39Z</time>
      </trkpt>
      <trkpt lat="46.74928" lon="5.7606">
        <ele>577</ele>
        <time>2012-10-11T14:12:41Z</time>
      </trkpt>
      <trkpt lat="46.74935" lon="5.76038">
        <ele>577</ele>
        <time>2012-10-11T14:12:43Z</time>
      </trkpt>
      <trkpt lat="46.74942" lon="5.76016">
        <ele>577</ele>
        <time>2012-10-11T14:12:45Z</time>
      </trkpt>
      <trkpt lat="46.74951" lon="5.75995">
        <ele>577</ele>
        <time>2012-10-11T14:12:47Z</time>
      </trkpt>
      <trkpt lat="46.74959" lon="5.75976">
        <ele>577</ele>
        <time>2012-10-11T14:12:49Z</time>
      </trkpt>
      <trkpt lat="46.74968" lon="5.75954">
        <ele>577</ele>
        <time>2012-10-11T14:12:51Z</time>
      </trkpt>
      <trkpt lat="46.74977" lon="5.75934">
        <ele>577</ele>
        <time>2012-10-11T14:12:53Z</time>
      </trkpt>
      <trkpt lat="46.74985" lon="5.75915">
        <ele>577</ele>
        <time>2012-10-11T14:12:55Z</time>
      </trkpt>
      <trkpt lat="46.74993" lon="5.75896">
        <ele>577</ele>
        <time>2012-10-11T14:12:57Z</time>
      </trkpt>
      <trkpt lat="46.75001" lon="5.75878">
        <ele>577</ele>
        <time>2012-10-11T14:12:59Z</time>
      </trkpt>
      <trkpt lat="46.7501" lon="5.75861">
        <ele>577</ele>
        <time>2012-10-11T14:13:01Z</time>
      </trkpt>
      <trkpt lat="46.75019" lon="5.75844">
        <ele>577</ele>
        <time>2012-10-11T14:13:03Z</time>
      </trkpt>
      <trkpt lat="46.75026" lon="5.75827">
        <ele>577</ele>
        <time>2012-10-11T14:13:05Z</time>
      </trkpt>
      <trkpt lat="46.75033" lon="5.75809">
        <ele>577</ele>
        <time>2012-10-11T14:13:07Z</time>
      </trkpt>
      <trkpt lat="46.75039" lon="5.75792">
        <ele>577</ele>
        <time>2012-10-11T14:13:09Z</time>
      </trkpt>
      <trkpt lat="46.75046" lon="5.75773">
        <ele>577</ele>
        <time>2012-10-11T14:13:11Z</time>
      </trkpt>
      <trkpt lat="46.75054" lon="5.75755">
        <ele>577</ele>
        <time>2012-10-11T14:13:13Z</time>
      </trkpt>
      <trkpt lat="46.75062" lon="5.75736">
        <ele>577</ele>
        <time>2012-10-11T14:13:15Z</time>
      </trkpt>
      <trkpt lat="46.75071" lon="5.75718">
        <ele>577</ele>
        <time>2012-10-11T14:13:17Z</time>
      </trkpt>
      <trkpt lat="46.75078" lon="5.75698">
        <ele>577</ele>
        <time>2012-10-11T14:13:19Z</time>
      </trkpt>
      <trkpt lat="46.75087" lon="5.75679">
        <ele>577</ele>
        <time>2012-10-11T14:13:21Z</time>
      </trkpt>
      <trkpt lat="46.75095" lon="5.7566">
        <ele>577</ele>
        <time>2012-10-11T14:13:23Z</time>
      </trkpt>
      <trkpt lat="46.75102" lon="5.7564">
        <ele>577</ele>
        <time>2012-10-11T14:13:25Z</time>
      </trkpt>
      <trkpt lat="46.75111" lon="5.75619">
        <ele>577</ele>
        <time>2012-10-11T14:13:27Z</time>
      </trkpt>
      <trkpt lat="46.75119" lon="5.75598">
        <ele>577</ele>
        <time>2012-10-11T14:13:29Z</time>
      </trkpt>
      <trkpt lat="46.75127" lon="5.75578">
        <ele>577</ele>
        <time>2012-10-11T14:13:31Z</time>
      </trkpt>
      <trkpt lat="46.75135" lon="5.75557">
        <ele>577</ele>
        <time>2012-10-11T14:13:33Z</time>
      </trkpt>
      <trkpt lat="46.75144" lon="5.75537">
        <ele>577</ele>
        <time>2012-10-11T14:13:35Z</time>
      </trkpt>
      <trkpt lat="46.75152" lon="5.75517">
        <ele>577</ele>
        <time>2012-10-11T14:13:37Z</time>
      </trkpt>
      <trkpt lat="46.75161" lon="5.75497">
        <ele>577</ele>
        <time>2012-10-11T14:13:39Z</time>
      </trkpt>
      <trkpt lat="46.75168" lon="5.75477">
        <ele>571</ele>
        <time>2012-10-11T14:13:41Z</time>
      </trkpt>
      <trkpt lat="46.75175" lon="5.75456">
        <ele>571</ele>
        <time>2012-10-11T14:13:43Z</time>
      </trkpt>
      <trkpt lat="46.75181" lon="5.75434">
        <ele>571</ele>
        <time>2012-10-11T14:13:45Z</time>
      </trkpt>
      <trkpt lat="46.75185" lon="5.75411">
        <ele>571</ele>
        <time>2012-10-11T14:13:47Z</time>
      </trkpt>
      <trkpt lat="46.75189" lon="5.75386">
        <ele>571</ele>
        <time>2012-10-11T14:13:49Z</time>
      </trkpt>
      <trkpt lat="46.75193" lon="5.75361">
        <ele>571</ele>
        <time>2012-10-11T14:13:51Z</time>
      </trkpt>
      <trkpt lat="46.75195" lon="5.75335">
        <ele>571</ele>
        <time>2012-10-11T14:13:53Z</time>
      </trkpt>
      <trkpt lat="46.75199" lon="5.7531">
        <ele>566</ele>
        <time>2012-10-11T14:13:55Z</time>
      </trkpt>
      <trkpt lat="46.752" lon="5.75296">
        <ele>566</ele>
        <time>2012-10-11T14:13:56Z</time>
      </trkpt>
      <trkpt lat="46.75202" lon="5.75283">
        <ele>566</ele>
        <time>2012-10-11T14:13:57Z</time>
      </trkpt>
      <trkpt lat="46.75205" lon="5.75258">
        <ele>566</ele>
        <time>2012-10-11T14:13:59Z</time>
      </trkpt>
      <trkpt lat="46.75208" lon="5.75234">
        <ele>566</ele>
        <time>2012-10-11T14:14:01Z</time>
      </trkpt>
      <trkpt lat="46.75211" lon="5.75212">
        <ele>566</ele>
        <time>2012-10-11T14:14:03Z</time>
      </trkpt>
      <trkpt lat="46.75214" lon="5.7519">
        <ele>566</ele>
        <time>2012-10-11T14:14:05Z</time>
      </trkpt>
      <trkpt lat="46.75216" lon="5.75166">
        <ele>566</ele>
        <time>2012-10-11T14:14:07Z</time>
      </trkpt>
      <trkpt lat="46.75219" lon="5.75143">
        <ele>566</ele>
        <time>2012-10-11T14:14:09Z</time>
      </trkpt>
      <trkpt lat="46.75222" lon="5.75119">
        <ele>566</ele>
        <time>2012-10-11T14:14:11Z</time>
      </trkpt>
      <trkpt lat="46.75225" lon="5.75097">
        <ele>566</ele>
        <time>2012-10-11T14:14:13Z</time>
      </trkpt>
      <trkpt lat="46.75229" lon="5.75074">
        <ele>566</ele>
        <time>2012-10-11T14:14:15Z</time>
      </trkpt>
      <trkpt lat="46.75232" lon="5.75061">
        <ele>566</ele>
        <time>2012-10-11T14:14:16Z</time>
      </trkpt>
      <trkpt lat="46.7524" lon="5.75038">
        <ele>560</ele>
        <time>2012-10-11T14:14:18Z</time>
      </trkpt>
      <trkpt lat="46.75244" lon="5.75025">
        <ele>560</ele>
        <time>2012-10-11T14:14:19Z</time>
      </trkpt>
      <trkpt lat="46.75249" lon="5.75013">
        <ele>560</ele>
        <time>2012-10-11T14:14:20Z</time>
      </trkpt>
      <trkpt lat="46.75254" lon="5.75001">
        <ele>560</ele>
        <time>2012-10-11T14:14:21Z</time>
      </trkpt>
      <trkpt lat="46.75259" lon="5.74988">
        <ele>560</ele>
        <time>2012-10-11T14:14:22Z</time>
      </trkpt>
      <trkpt lat="46.75264" lon="5.74975">
        <ele>560</ele>
        <time>2012-10-11T14:14:23Z</time>
      </trkpt>
      <trkpt lat="46.75269" lon="5.74962">
        <ele>560</ele>
        <time>2012-10-11T14:14:24Z</time>
      </trkpt>
      <trkpt lat="46.75274" lon="5.74949">
        <ele>560</ele>
        <time>2012-10-11T14:14:25Z</time>
      </trkpt>
      <trkpt lat="46.75279" lon="5.74935">
        <ele>560</ele>
        <time>2012-10-11T14:14:26Z</time>
      </trkpt>
      <trkpt lat="46.75283" lon="5.74922">
        <ele>560</ele>
        <time>2012-10-11T14:14:27Z</time>
      </trkpt>
      <trkpt lat="46.75287" lon="5.7491">
        <ele>560</ele>
        <time>2012-10-11T14:14:28Z</time>
      </trkpt>
      <trkpt lat="46.75295" lon="5.74888">
        <ele>560</ele>
        <time>2012-10-11T14:14:30Z</time>
      </trkpt>
      <trkpt lat="46.75303" lon="5.74867">
        <ele>560</ele>
        <time>2012-10-11T14:14:32Z</time>
      </trkpt>
      <trkpt lat="46.7531" lon="5.74847">
        <ele>560</ele>
        <time>2012-10-11T14:14:34Z</time>
      </trkpt>
      <trkpt lat="46.75317" lon="5.74829">
        <ele>560</ele>
        <time>2012-10-11T14:14:36Z</time>
      </trkpt>
      <trkpt lat="46.75322" lon="5.7481">
        <ele>560</ele>
        <time>2012-10-11T14:14:38Z</time>
      </trkpt>
      <trkpt lat="46.75327" lon="5.74789">
        <ele>560</ele>
        <time>2012-10-11T14:14:40Z</time>
      </trkpt>
      <trkpt lat="46.7533" lon="5.74767">
        <ele>560</ele>
        <time>2012-10-11T14:14:42Z</time>
      </trkpt>
      <trkpt lat="46.75332" lon="5.74746">
        <ele>555</ele>
        <time>2012-10-11T14:14:44Z</time>
      </trkpt>
      <trkpt lat="46.75335" lon="5.74722">
        <ele>555</ele>
        <time>2012-10-11T14:14:46Z</time>
      </trkpt>
      <trkpt lat="46.75339" lon="5.747">
        <ele>555</ele>
        <time>2012-10-11T14:14:48Z</time>
      </trkpt>
      <trkpt lat="46.75345" lon="5.74677">
        <ele>555</ele>
        <time>2012-10-11T14:14:50Z</time>
      </trkpt>
      <trkpt lat="46.75351" lon="5.74656">
        <ele>555</ele>
        <time>2012-10-11T14:14:52Z</time>
      </trkpt>
      <trkpt lat="46.75357" lon="5.74634">
        <ele>555</ele>
        <time>2012-10-11T14:14:54Z</time>
      </trkpt>
      <trkpt lat="46.75364" lon="5.74612">
        <ele>555</ele>
        <time>2012-10-11T14:14:56Z</time>
      </trkpt>
      <trkpt lat="46.7537" lon="5.74591">
        <ele>555</ele>
        <time>2012-10-11T14:14:58Z</time>
      </trkpt>
      <trkpt lat="46.75378" lon="5.74571">
        <ele>555</ele>
        <time>2012-10-11T14:15:00Z</time>
      </trkpt>
      <trkpt lat="46.75388" lon="5.74554">
        <ele>555</ele>
        <time>2012-10-11T14:15:02Z</time>
      </trkpt>
      <trkpt lat="46.75396" lon="5.74537">
        <ele>555</ele>
        <time>2012-10-11T14:15:04Z</time>
      </trkpt>
      <trkpt lat="46.75405" lon="5.74522">
        <ele>555</ele>
        <time>2012-10-11T14:15:06Z</time>
      </trkpt>
      <trkpt lat="46.75413" lon="5.74508">
        <ele>555</ele>
        <time>2012-10-11T14:15:08Z</time>
      </trkpt>
      <trkpt lat="46.75421" lon="5.74493">
        <ele>555</ele>
        <time>2012-10-11T14:15:10Z</time>
      </trkpt>
      <trkpt lat="46.75428" lon="5.74481">
        <ele>555</ele>
        <time>2012-10-11T14:15:12Z</time>
      </trkpt>
      <trkpt lat="46.75436" lon="5.74469">
        <ele>555</ele>
        <time>2012-10-11T14:15:14Z</time>
      </trkpt>
      <trkpt lat="46.75445" lon="5.74461">
        <ele>555</ele>
        <time>2012-10-11T14:15:16Z</time>
      </trkpt>
      <trkpt lat="46.75456" lon="5.74458">
        <ele>555</ele>
        <time>2012-10-11T14:15:18Z</time>
      </trkpt>
      <trkpt lat="46.75466" lon="5.74461">
        <ele>555</ele>
        <time>2012-10-11T14:15:20Z</time>
      </trkpt>
      <trkpt lat="46.75477" lon="5.74465">
        <ele>555</ele>
        <time>2012-10-11T14:15:22Z</time>
      </trkpt>
      <trkpt lat="46.75487" lon="5.7447">
        <ele>555</ele>
        <time>2012-10-11T14:15:24Z</time>
      </trkpt>
      <trkpt lat="46.75497" lon="5.74474">
        <ele>555</ele>
        <time>2012-10-11T14:15:26Z</time>
      </trkpt>
      <trkpt lat="46.75507" lon="5.74477">
        <ele>555</ele>
        <time>2012-10-11T14:15:28Z</time>
      </trkpt>
      <trkpt lat="46.75517" lon="5.74481">
        <ele>555</ele>
        <time>2012-10-11T14:15:30Z</time>
      </trkpt>
      <trkpt lat="46.75527" lon="5.74484">
        <ele>555</ele>
        <time>2012-10-11T14:15:32Z</time>
      </trkpt>
      <trkpt lat="46.75537" lon="5.74484">
        <ele>555</ele>
        <time>2012-10-11T14:15:34Z</time>
      </trkpt>
      <trkpt lat="46.75546" lon="5.74477">
        <ele>555</ele>
        <time>2012-10-11T14:15:36Z</time>
      </trkpt>
      <trkpt lat="46.75553" lon="5.74465">
        <ele>555</ele>
        <time>2012-10-11T14:15:38Z</time>
      </trkpt>
      <trkpt lat="46.75558" lon="5.74453">
        <ele>555</ele>
        <time>2012-10-11T14:15:40Z</time>
      </trkpt>
      <trkpt lat="46.75563" lon="5.74439">
        <ele>555</ele>
        <time>2012-10-11T14:15:42Z</time>
      </trkpt>
      <trkpt lat="46.75568" lon="5.74426">
        <ele>555</ele>
        <time>2012-10-11T14:15:44Z</time>
      </trkpt>
      <trkpt lat="46.75572" lon="5.74412">
        <ele>555</ele>
        <time>2012-10-11T14:15:46Z</time>
      </trkpt>
      <trkpt lat="46.75577" lon="5.74397">
        <ele>555</ele>
        <time>2012-10-11T14:15:48Z</time>
      </trkpt>
      <trkpt lat="46.75582" lon="5.74382">
        <ele>555</ele>
        <time>2012-10-11T14:15:50Z</time>
      </trkpt>
      <trkpt lat="46.75588" lon="5.74367">
        <ele>555</ele>
        <time>2012-10-11T14:15:52Z</time>
      </trkpt>
      <trkpt lat="46.75594" lon="5.7435">
        <ele>555</ele>
        <time>2012-10-11T14:15:54Z</time>
      </trkpt>
      <trkpt lat="46.756" lon="5.74331">
        <ele>555</ele>
        <time>2012-10-11T14:15:56Z</time>
      </trkpt>
      <trkpt lat="46.75606" lon="5.74312">
        <ele>555</ele>
        <time>2012-10-11T14:15:58Z</time>
      </trkpt>
      <trkpt lat="46.75613" lon="5.74292">
        <ele>555</ele>
        <time>2012-10-11T14:16:00Z</time>
      </trkpt>
      <trkpt lat="46.7562" lon="5.74271">
        <ele>555</ele>
        <time>2012-10-11T14:16:02Z</time>
      </trkpt>
      <trkpt lat="46.75627" lon="5.74251">
        <ele>549</ele>
        <time>2012-10-11T14:16:04Z</time>
      </trkpt>
      <trkpt lat="46.75635" lon="5.74229">
        <ele>549</ele>
        <time>2012-10-11T14:16:06Z</time>
      </trkpt>
      <trkpt lat="46.75642" lon="5.74208">
        <ele>549</ele>
        <time>2012-10-11T14:16:08Z</time>
      </trkpt>
      <trkpt lat="46.7565" lon="5.74185">
        <ele>549</ele>
        <time>2012-10-11T14:16:10Z</time>
      </trkpt>
      <trkpt lat="46.75658" lon="5.74164">
        <ele>549</ele>
        <time>2012-10-11T14:16:12Z</time>
      </trkpt>
      <trkpt lat="46.75666" lon="5.74141">
        <ele>549</ele>
        <time>2012-10-11T14:16:14Z</time>
      </trkpt>
      <trkpt lat="46.75673" lon="5.74119">
        <ele>549</ele>
        <time>2012-10-11T14:16:16Z</time>
      </trkpt>
      <trkpt lat="46.75681" lon="5.74096">
        <ele>544</ele>
        <time>2012-10-11T14:16:18Z</time>
      </trkpt>
      <trkpt lat="46.75689" lon="5.74073">
        <ele>544</ele>
        <time>2012-10-11T14:16:20Z</time>
      </trkpt>
      <trkpt lat="46.75696" lon="5.7405">
        <ele>544</ele>
        <time>2012-10-11T14:16:22Z</time>
      </trkpt>
      <trkpt lat="46.75704" lon="5.74028">
        <ele>544</ele>
        <time>2012-10-11T14:16:24Z</time>
      </trkpt>
      <trkpt lat="46.75712" lon="5.74007">
        <ele>544</ele>
        <time>2012-10-11T14:16:26Z</time>
      </trkpt>
      <trkpt lat="46.75719" lon="5.73987">
        <ele>544</ele>
        <time>2012-10-11T14:16:28Z</time>
      </trkpt>
      <trkpt lat="46.75725" lon="5.73967">
        <ele>544</ele>
        <time>2012-10-11T14:16:30Z</time>
      </trkpt>
      <trkpt lat="46.75733" lon="5.73947">
        <ele>544</ele>
        <time>2012-10-11T14:16:32Z</time>
      </trkpt>
      <trkpt lat="46.75739" lon="5.73927">
        <ele>544</ele>
        <time>2012-10-11T14:16:34Z</time>
      </trkpt>
      <trkpt lat="46.75746" lon="5.73909">
        <ele>544</ele>
        <time>2012-10-11T14:16:36Z</time>
      </trkpt>
      <trkpt lat="46.75751" lon="5.73891">
        <ele>544</ele>
        <time>2012-10-11T14:16:38Z</time>
      </trkpt>
      <trkpt lat="46.75758" lon="5.73874">
        <ele>544</ele>
        <time>2012-10-11T14:16:40Z</time>
      </trkpt>
      <trkpt lat="46.75764" lon="5.73856">
        <ele>544</ele>
        <time>2012-10-11T14:16:42Z</time>
      </trkpt>
      <trkpt lat="46.7577" lon="5.73839">
        <ele>544</ele>
        <time>2012-10-11T14:16:44Z</time>
      </trkpt>
      <trkpt lat="46.75775" lon="5.73823">
        <ele>544</ele>
        <time>2012-10-11T14:16:46Z</time>
      </trkpt>
      <trkpt lat="46.75781" lon="5.73806">
        <ele>544</ele>
        <time>2012-10-11T14:16:48Z</time>
      </trkpt>
      <trkpt lat="46.75787" lon="5.73789">
        <ele>544</ele>
        <time>2012-10-11T14:16:50Z</time>
      </trkpt>
      <trkpt lat="46.75792" lon="5.73772">
        <ele>544</ele>
        <time>2012-10-11T14:16:52Z</time>
      </trkpt>
      <trkpt lat="46.75798" lon="5.73755">
        <ele>544</ele>
        <time>2012-10-11T14:16:54Z</time>
      </trkpt>
      <trkpt lat="46.75804" lon="5.73738">
        <ele>544</ele>
        <time>2012-10-11T14:16:56Z</time>
      </trkpt>
      <trkpt lat="46.75809" lon="5.73722">
        <ele>544</ele>
        <time>2012-10-11T14:16:58Z</time>
      </trkpt>
      <trkpt lat="46.75815" lon="5.73706">
        <ele>544</ele>
        <time>2012-10-11T14:17:00Z</time>
      </trkpt>
      <trkpt lat="46.75821" lon="5.73689">
        <ele>544</ele>
        <time>2012-10-11T14:17:02Z</time>
      </trkpt>
      <trkpt lat="46.75826" lon="5.73673">
        <ele>544</ele>
        <time>2012-10-11T14:17:04Z</time>
      </trkpt>
      <trkpt lat="46.75832" lon="5.73658">
        <ele>544</ele>
        <time>2012-10-11T14:17:06Z</time>
      </trkpt>
      <trkpt lat="46.75837" lon="5.73643">
        <ele>544</ele>
        <time>2012-10-11T14:17:08Z</time>
      </trkpt>
      <trkpt lat="46.75842" lon="5.73627">
        <ele>544</ele>
        <time>2012-10-11T14:17:10Z</time>
      </trkpt>
      <trkpt lat="46.75848" lon="5.73612">
        <ele>544</ele>
        <time>2012-10-11T14:17:12Z</time>
      </trkpt>
      <trkpt lat="46.75853" lon="5.73597">
        <ele>544</ele>
        <time>2012-10-11T14:17:14Z</time>
      </trkpt>
      <trkpt lat="46.75858" lon="5.73581">
        <ele>544</ele>
        <time>2012-10-11T14:17:16Z</time>
      </trkpt>
      <trkpt lat="46.75864" lon="5.73564">
        <ele>544</ele>
        <time>2012-10-11T14:17:18Z</time>
      </trkpt>
      <trkpt lat="46.75869" lon="5.73548">
        <ele>544</ele>
        <time>2012-10-11T14:17:20Z</time>
      </trkpt>
      <trkpt lat="46.75875" lon="5.73532">
        <ele>544</ele>
        <time>2012-10-11T14:17:22Z</time>
      </trkpt>
      <trkpt lat="46.75881" lon="5.73516">
        <ele>544</ele>
        <time>2012-10-11T14:17:24Z</time>
      </trkpt>
      <trkpt lat="46.75887" lon="5.735">
        <ele>544</ele>
        <time>2012-10-11T14:17:26Z</time>
      </trkpt>
      <trkpt lat="46.75892" lon="5.73484">
        <ele>544</ele>
        <time>2012-10-11T14:17:28Z</time>
      </trkpt>
      <trkpt lat="46.75898" lon="5.73468">
        <ele>544</ele>
        <time>2012-10-11T14:17:30Z</time>
      </trkpt>
      <trkpt lat="46.75903" lon="5.73452">
        <ele>544</ele>
        <time>2012-10-11T14:17:32Z</time>
      </trkpt>
      <trkpt lat="46.75908" lon="5.73438">
        <ele>544</ele>
        <time>2012-10-11T14:17:34Z</time>
      </trkpt>
      <trkpt lat="46.75914" lon="5.73422">
        <ele>544</ele>
        <time>2012-10-11T14:17:36Z</time>
      </trkpt>
      <trkpt lat="46.75919" lon="5.73405">
        <ele>544</ele>
        <time>2012-10-11T14:17:38Z</time>
      </trkpt>
      <trkpt lat="46.75925" lon="5.73388">
        <ele>544</ele>
        <time>2012-10-11T14:17:40Z</time>
      </trkpt>
      <trkpt lat="46.75932" lon="5.7337">
        <ele>544</ele>
        <time>2012-10-11T14:17:42Z</time>
      </trkpt>
      <trkpt lat="46.75938" lon="5.73352">
        <ele>544</ele>
        <time>2012-10-11T14:17:44Z</time>
      </trkpt>
      <trkpt lat="46.75944" lon="5.73334">
        <ele>544</ele>
        <time>2012-10-11T14:17:46Z</time>
      </trkpt>
      <trkpt lat="46.7595" lon="5.73315">
        <ele>544</ele>
        <time>2012-10-11T14:17:48Z</time>
      </trkpt>
      <trkpt lat="46.75957" lon="5.73295">
        <ele>544</ele>
        <time>2012-10-11T14:17:50Z</time>
      </trkpt>
      <trkpt lat="46.75964" lon="5.73275">
        <ele>544</ele>
        <time>2012-10-11T14:17:52Z</time>
      </trkpt>
      <trkpt lat="46.75971" lon="5.73255">
        <ele>544</ele>
        <time>2012-10-11T14:17:54Z</time>
      </trkpt>
      <trkpt lat="46.75979" lon="5.73235">
        <ele>544</ele>
        <time>2012-10-11T14:17:56Z</time>
      </trkpt>
      <trkpt lat="46.75986" lon="5.73213">
        <ele>544</ele>
        <time>2012-10-11T14:17:58Z</time>
      </trkpt>
      <trkpt lat="46.75993" lon="5.73192">
        <ele>544</ele>
        <time>2012-10-11T14:18:00Z</time>
      </trkpt>
      <trkpt lat="46.76001" lon="5.7317">
        <ele>544</ele>
        <time>2012-10-11T14:18:02Z</time>
      </trkpt>
      <trkpt lat="46.76008" lon="5.73149">
        <ele>544</ele>
        <time>2012-10-11T14:18:04Z</time>
      </trkpt>
      <trkpt lat="46.76016" lon="5.73127">
        <ele>544</ele>
        <time>2012-10-11T14:18:06Z</time>
      </trkpt>
      <trkpt lat="46.76023" lon="5.73105">
        <ele>539</ele>
        <time>2012-10-11T14:18:08Z</time>
      </trkpt>
      <trkpt lat="46.7603" lon="5.73083">
        <ele>539</ele>
        <time>2012-10-11T14:18:10Z</time>
      </trkpt>
      <trkpt lat="46.76038" lon="5.7306">
        <ele>539</ele>
        <time>2012-10-11T14:18:12Z</time>
      </trkpt>
      <trkpt lat="46.76045" lon="5.73037">
        <ele>539</ele>
        <time>2012-10-11T14:18:14Z</time>
      </trkpt>
      <trkpt lat="46.76053" lon="5.73015">
        <ele>539</ele>
        <time>2012-10-11T14:18:16Z</time>
      </trkpt>
      <trkpt lat="46.76061" lon="5.72992">
        <ele>539</ele>
        <time>2012-10-11T14:18:18Z</time>
      </trkpt>
      <trkpt lat="46.76068" lon="5.72971">
        <ele>539</ele>
        <time>2012-10-11T14:18:20Z</time>
      </trkpt>
      <trkpt lat="46.76075" lon="5.7295">
        <ele>539</ele>
        <time>2012-10-11T14:18:22Z</time>
      </trkpt>
      <trkpt lat="46.76082" lon="5.72929">
        <ele>539</ele>
        <time>2012-10-11T14:18:24Z</time>
      </trkpt>
      <trkpt lat="46.7609" lon="5.72909">
        <ele>539</ele>
        <time>2012-10-11T14:18:26Z</time>
      </trkpt>
      <trkpt lat="46.76096" lon="5.72888">
        <ele>539</ele>
        <time>2012-10-11T14:18:28Z</time>
      </trkpt>
      <trkpt lat="46.76104" lon="5.72868">
        <ele>539</ele>
        <time>2012-10-11T14:18:30Z</time>
      </trkpt>
      <trkpt lat="46.76111" lon="5.72849">
        <ele>539</ele>
        <time>2012-10-11T14:18:32Z</time>
      </trkpt>
      <trkpt lat="46.76117" lon="5.72828">
        <ele>539</ele>
        <time>2012-10-11T14:18:34Z</time>
      </trkpt>
      <trkpt lat="46.76124" lon="5.72808">
        <ele>539</ele>
        <time>2012-10-11T14:18:36Z</time>
      </trkpt>
      <trkpt lat="46.76131" lon="5.72787">
        <ele>539</ele>
        <time>2012-10-11T14:18:38Z</time>
      </trkpt>
      <trkpt lat="46.76138" lon="5.72767">
        <ele>539</ele>
        <time>2012-10-11T14:18:40Z</time>
      </trkpt>
      <trkpt lat="46.76145" lon="5.72747">
        <ele>539</ele>
        <time>2012-10-11T14:18:42Z</time>
      </trkpt>
      <trkpt lat="46.76153" lon="5.72727">
        <ele>539</ele>
        <time>2012-10-11T14:18:44Z</time>
      </trkpt>
      <trkpt lat="46.76159" lon="5.72707">
        <ele>539</ele>
        <time>2012-10-11T14:18:46Z</time>
      </trkpt>
      <trkpt lat="46.76167" lon="5.72686">
        <ele>534</ele>
        <time>2012-10-11T14:18:48Z</time>
      </trkpt>
      <trkpt lat="46.76174" lon="5.72666">
        <ele>534</ele>
        <time>2012-10-11T14:18:50Z</time>
      </trkpt>
      <trkpt lat="46.7618" lon="5.72646">
        <ele>534</ele>
        <time>2012-10-11T14:18:52Z</time>
      </trkpt>
      <trkpt lat="46.76187" lon="5.72626">
        <ele>534</ele>
        <time>2012-10-11T14:18:54Z</time>
      </trkpt>
      <trkpt lat="46.76194" lon="5.72607">
        <ele>534</ele>
        <time>2012-10-11T14:18:56Z</time>
      </trkpt>
      <trkpt lat="46.762" lon="5.72587">
        <ele>534</ele>
        <time>2012-10-11T14:18:58Z</time>
      </trkpt>
      <trkpt lat="46.76207" lon="5.72568">
        <ele>534</ele>
        <time>2012-10-11T14:19:00Z</time>
      </trkpt>
      <trkpt lat="46.76214" lon="5.72548">
        <ele>534</ele>
        <time>2012-10-11T14:19:02Z</time>
      </trkpt>
      <trkpt lat="46.76221" lon="5.72529">
        <ele>534</ele>
        <time>2012-10-11T14:19:04Z</time>
      </trkpt>
      <trkpt lat="46.76227" lon="5.72509">
        <ele>534</ele>
        <time>2012-10-11T14:19:06Z</time>
      </trkpt>
      <trkpt lat="46.76234" lon="5.72489">
        <ele>534</ele>
        <time>2012-10-11T14:19:08Z</time>
      </trkpt>
      <trkpt lat="46.76241" lon="5.7247">
        <ele>534</ele>
        <time>2012-10-11T14:19:10Z</time>
      </trkpt>
      <trkpt lat="46.76248" lon="5.72451">
        <ele>534</ele>
        <time>2012-10-11T14:19:12Z</time>
      </trkpt>
      <trkpt lat="46.76255" lon="5.72432">
        <ele>534</ele>
        <time>2012-10-11T14:19:14Z</time>
      </trkpt>
      <trkpt lat="46.76261" lon="5.72412">
        <ele>534</ele>
        <time>2012-10-11T14:19:16Z</time>
      </trkpt>
      <trkpt lat="46.76267" lon="5.72394">
        <ele>534</ele>
        <time>2012-10-11T14:19:18Z</time>
      </trkpt>
      <trkpt lat="46.76274" lon="5.72376">
        <ele>534</ele>
        <time>2012-10-11T14:19:20Z</time>
      </trkpt>
      <trkpt lat="46.7628" lon="5.72357">
        <ele>534</ele>
        <time>2012-10-11T14:19:22Z</time>
      </trkpt>
      <trkpt lat="46.76287" lon="5.72338">
        <ele>534</ele>
        <time>2012-10-11T14:19:24Z</time>
      </trkpt>
      <trkpt lat="46.76293" lon="5.7232">
        <ele>534</ele>
        <time>2012-10-11T14:19:26Z</time>
      </trkpt>
      <trkpt lat="46.763" lon="5.72301">
        <ele>534</ele>
        <time>2012-10-11T14:19:28Z</time>
      </trkpt>
      <trkpt lat="46.76306" lon="5.72283">
        <ele>534</ele>
        <time>2012-10-11T14:19:30Z</time>
      </trkpt>
      <trkpt lat="46.76312" lon="5.72265">
        <ele>534</ele>
        <time>2012-10-11T14:19:32Z</time>
      </trkpt>
      <trkpt lat="46.76318" lon="5.72247">
        <ele>534</ele>
        <time>2012-10-11T14:19:34Z</time>
      </trkpt>
      <trkpt lat="46.76324" lon="5.72229">
        <ele>534</ele>
        <time>2012-10-11T14:19:36Z</time>
      </trkpt>
      <trkpt lat="46.76329" lon="5.72212">
        <ele>534</ele>
        <time>2012-10-11T14:19:38Z</time>
      </trkpt>
      <trkpt lat="46.76334" lon="5.72195">
        <ele>534</ele>
        <time>2012-10-11T14:19:40Z</time>
      </trkpt>
      <trkpt lat="46.76338" lon="5.72179">
        <ele>534</ele>
        <time>2012-10-11T14:19:42Z</time>
      </trkpt>
      <trkpt lat="46.76344" lon="5.72163">
        <ele>534</ele>
        <time>2012-10-11T14:19:44Z</time>
      </trkpt>
      <trkpt lat="46.76353" lon="5.7215">
        <ele>534</ele>
        <time>2012-10-11T14:19:46Z</time>
      </trkpt>
      <trkpt lat="46.76364" lon="5.72138">
        <ele>534</ele>
        <time>2012-10-11T14:19:48Z</time>
      </trkpt>
      <trkpt lat="46.76377" lon="5.7213">
        <ele>534</ele>
        <time>2012-10-11T14:19:50Z</time>
      </trkpt>
      <trkpt lat="46.7639" lon="5.72123">
        <ele>534</ele>
        <time>2012-10-11T14:19:52Z</time>
      </trkpt>
      <trkpt lat="46.76405" lon="5.72117">
        <ele>534</ele>
        <time>2012-10-11T14:19:54Z</time>
      </trkpt>
      <trkpt lat="46.76418" lon="5.72111">
        <ele>534</ele>
        <time>2012-10-11T14:19:56Z</time>
      </trkpt>
      <trkpt lat="46.76432" lon="5.72105">
        <ele>534</ele>
        <time>2012-10-11T14:19:58Z</time>
      </trkpt>
      <trkpt lat="46.76446" lon="5.72099">
        <ele>534</ele>
        <time>2012-10-11T14:20:00Z</time>
      </trkpt>
      <trkpt lat="46.76461" lon="5.72093">
        <ele>534</ele>
        <time>2012-10-11T14:20:02Z</time>
      </trkpt>
      <trkpt lat="46.76476" lon="5.72086">
        <ele>534</ele>
        <time>2012-10-11T14:20:04Z</time>
      </trkpt>
      <trkpt lat="46.7649" lon="5.72079">
        <ele>534</ele>
        <time>2012-10-11T14:20:06Z</time>
      </trkpt>
      <trkpt lat="46.76505" lon="5.72072">
        <ele>534</ele>
        <time>2012-10-11T14:20:08Z</time>
      </trkpt>
      <trkpt lat="46.76519" lon="5.72066">
        <ele>534</ele>
        <time>2012-10-11T14:20:10Z</time>
      </trkpt>
      <trkpt lat="46.76534" lon="5.7206">
        <ele>534</ele>
        <time>2012-10-11T14:20:12Z</time>
      </trkpt>
      <trkpt lat="46.76548" lon="5.72054">
        <ele>534</ele>
        <time>2012-10-11T14:20:14Z</time>
      </trkpt>
      <trkpt lat="46.76562" lon="5.72048">
        <ele>534</ele>
        <time>2012-10-11T14:20:16Z</time>
      </trkpt>
      <trkpt lat="46.76576" lon="5.72045">
        <ele>534</ele>
        <time>2012-10-11T14:20:18Z</time>
      </trkpt>
      <trkpt lat="46.76589" lon="5.72042">
        <ele>534</ele>
        <time>2012-10-11T14:20:20Z</time>
      </trkpt>
      <trkpt lat="46.76602" lon="5.72041">
        <ele>534</ele>
        <time>2012-10-11T14:20:22Z</time>
      </trkpt>
      <trkpt lat="46.76614" lon="5.72041">
        <ele>534</ele>
        <time>2012-10-11T14:20:24Z</time>
      </trkpt>
      <trkpt lat="46.76627" lon="5.72041">
        <ele>534</ele>
        <time>2012-10-11T14:20:26Z</time>
      </trkpt>
      <trkpt lat="46.76639" lon="5.7204">
        <ele>534</ele>
        <time>2012-10-11T14:20:28Z</time>
      </trkpt>
      <trkpt lat="46.76653" lon="5.72039">
        <ele>534</ele>
        <time>2012-10-11T14:20:30Z</time>
      </trkpt>
      <trkpt lat="46.76666" lon="5.72037">
        <ele>534</ele>
        <time>2012-10-11T14:20:32Z</time>
      </trkpt>
      <trkpt lat="46.7668" lon="5.72034">
        <ele>534</ele>
        <time>2012-10-11T14:20:34Z</time>
      </trkpt>
      <trkpt lat="46.76695" lon="5.72031">
        <ele>534</ele>
        <time>2012-10-11T14:20:36Z</time>
      </trkpt>
      <trkpt lat="46.76708" lon="5.72026">
        <ele>534</ele>
        <time>2012-10-11T14:20:38Z</time>
      </trkpt>
      <trkpt lat="46.76721" lon="5.72019">
        <ele>534</ele>
        <time>2012-10-11T14:20:40Z</time>
      </trkpt>
      <trkpt lat="46.76732" lon="5.72014">
        <ele>534</ele>
        <time>2012-10-11T14:20:42Z</time>
      </trkpt>
      <trkpt lat="46.76743" lon="5.72009">
        <ele>534</ele>
        <time>2012-10-11T14:20:44Z</time>
      </trkpt>
      <trkpt lat="46.76753" lon="5.72003">
        <ele>534</ele>
        <time>2012-10-11T14:20:46Z</time>
      </trkpt>
      <trkpt lat="46.76764" lon="5.71998">
        <ele>534</ele>
        <time>2012-10-11T14:20:48Z</time>
      </trkpt>
      <trkpt lat="46.76774" lon="5.71992">
        <ele>534</ele>
        <time>2012-10-11T14:20:50Z</time>
      </trkpt>
      <trkpt lat="46.76784" lon="5.71986">
        <ele>534</ele>
        <time>2012-10-11T14:20:52Z</time>
      </trkpt>
      <trkpt lat="46.76793" lon="5.71982">
        <ele>534</ele>
        <time>2012-10-11T14:20:54Z</time>
      </trkpt>
      <trkpt lat="46.76803" lon="5.71976">
        <ele>534</ele>
        <time>2012-10-11T14:20:56Z</time>
      </trkpt>
      <trkpt lat="46.76812" lon="5.71973">
        <ele>534</ele>
        <time>2012-10-11T14:20:58Z</time>
      </trkpt>
      <trkpt lat="46.76821" lon="5.71969">
        <ele>534</ele>
        <time>2012-10-11T14:21:00Z</time>
      </trkpt>
      <trkpt lat="46.76831" lon="5.71966">
        <ele>534</ele>
        <time>2012-10-11T14:21:02Z</time>
      </trkpt>
      <trkpt lat="46.76842" lon="5.71966">
        <ele>534</ele>
        <time>2012-10-11T14:21:04Z</time>
      </trkpt>
      <trkpt lat="46.76853" lon="5.71968">
        <ele>534</ele>
        <time>2012-10-11T14:21:06Z</time>
      </trkpt>
      <trkpt lat="46.76863" lon="5.71972">
        <ele>534</ele>
        <time>2012-10-11T14:21:08Z</time>
      </trkpt>
      <trkpt lat="46.76873" lon="5.71975">
        <ele>534</ele>
        <time>2012-10-11T14:21:10Z</time>
      </trkpt>
      <trkpt lat="46.76884" lon="5.71979">
        <ele>534</ele>
        <time>2012-10-11T14:21:12Z</time>
      </trkpt>
      <trkpt lat="46.76893" lon="5.71983">
        <ele>534</ele>
        <time>2012-10-11T14:21:14Z</time>
      </trkpt>
      <trkpt lat="46.76902" lon="5.71988">
        <ele>534</ele>
        <time>2012-10-11T14:21:16Z</time>
      </trkpt>
      <trkpt lat="46.76911" lon="5.71992">
        <ele>534</ele>
        <time>2012-10-11T14:21:18Z</time>
      </trkpt>
      <trkpt lat="46.7692" lon="5.71996">
        <ele>534</ele>
        <time>2012-10-11T14:21:20Z</time>
      </trkpt>
      <trkpt lat="46.76929" lon="5.71997">
        <ele>534</ele>
        <time>2012-10-11T14:21:22Z</time>
      </trkpt>
      <trkpt lat="46.76938" lon="5.71992">
        <ele>534</ele>
        <time>2012-10-11T14:21:24Z</time>
      </trkpt>
      <trkpt lat="46.76946" lon="5.7198">
        <ele>534</ele>
        <time>2012-10-11T14:21:26Z</time>
      </trkpt>
      <trkpt lat="46.76954" lon="5.71965">
        <ele>534</ele>
        <time>2012-10-11T14:21:28Z</time>
      </trkpt>
      <trkpt lat="46.76962" lon="5.71949">
        <ele>534</ele>
        <time>2012-10-11T14:21:30Z</time>
      </trkpt>
      <trkpt lat="46.7697" lon="5.71937">
        <ele>534</ele>
        <time>2012-10-11T14:21:32Z</time>
      </trkpt>
      <trkpt lat="46.76977" lon="5.71925">
        <ele>534</ele>
        <time>2012-10-11T14:21:34Z</time>
      </trkpt>
      <trkpt lat="46.76984" lon="5.71912">
        <ele>534</ele>
        <time>2012-10-11T14:21:36Z</time>
      </trkpt>
      <trkpt lat="46.76989" lon="5.71897">
        <ele>534</ele>
        <time>2012-10-11T14:21:38Z</time>
      </trkpt>
      <trkpt lat="46.76993" lon="5.71882">
        <ele>534</ele>
        <time>2012-10-11T14:21:40Z</time>
      </trkpt>
      <trkpt lat="46.76998" lon="5.71868">
        <ele>534</ele>
        <time>2012-10-11T14:21:42Z</time>
      </trkpt>
      <trkpt lat="46.77003" lon="5.71852">
        <ele>534</ele>
        <time>2012-10-11T14:21:44Z</time>
      </trkpt>
      <trkpt lat="46.77008" lon="5.71839">
        <ele>534</ele>
        <time>2012-10-11T14:21:46Z</time>
      </trkpt>
      <trkpt lat="46.77012" lon="5.71824">
        <ele>534</ele>
        <time>2012-10-11T14:21:48Z</time>
      </trkpt>
      <trkpt lat="46.77017" lon="5.7181">
        <ele>534</ele>
        <time>2012-10-11T14:21:50Z</time>
      </trkpt>
      <trkpt lat="46.77021" lon="5.71796">
        <ele>534</ele>
        <time>2012-10-11T14:21:52Z</time>
      </trkpt>
      <trkpt lat="46.77025" lon="5.71781">
        <ele>534</ele>
        <time>2012-10-11T14:21:54Z</time>
      </trkpt>
      <trkpt lat="46.77029" lon="5.71767">
        <ele>534</ele>
        <time>2012-10-11T14:21:56Z</time>
      </trkpt>
      <trkpt lat="46.77034" lon="5.71753">
        <ele>534</ele>
        <time>2012-10-11T14:21:58Z</time>
      </trkpt>
      <trkpt lat="46.77038" lon="5.71739">
        <ele>534</ele>
        <time>2012-10-11T14:22:00Z</time>
      </trkpt>
      <trkpt lat="46.77042" lon="5.71726">
        <ele>534</ele>
        <time>2012-10-11T14:22:02Z</time>
      </trkpt>
      <trkpt lat="46.77046" lon="5.71712">
        <ele>534</ele>
        <time>2012-10-11T14:22:04Z</time>
      </trkpt>
      <trkpt lat="46.77051" lon="5.717">
        <ele>534</ele>
        <time>2012-10-11T14:22:06Z</time>
      </trkpt>
      <trkpt lat="46.77054" lon="5.71687">
        <ele>534</ele>
        <time>2012-10-11T14:22:08Z</time>
      </trkpt>
      <trkpt lat="46.77058" lon="5.71674">
        <ele>534</ele>
        <time>2012-10-11T14:22:10Z</time>
      </trkpt>
      <trkpt lat="46.77063" lon="5.71663">
        <ele>534</ele>
        <time>2012-10-11T14:22:12Z</time>
      </trkpt>
      <trkpt lat="46.77066" lon="5.7165">
        <ele>534</ele>
        <time>2012-10-11T14:22:14Z</time>
      </trkpt>
      <trkpt lat="46.7707" lon="5.71638">
        <ele>534</ele>
        <time>2012-10-11T14:22:16Z</time>
      </trkpt>
      <trkpt lat="46.77074" lon="5.71626">
        <ele>534</ele>
        <time>2012-10-11T14:22:18Z</time>
      </trkpt>
      <trkpt lat="46.77077" lon="5.71613">
        <ele>534</ele>
        <time>2012-10-11T14:22:20Z</time>
      </trkpt>
      <trkpt lat="46.77083" lon="5.71595">
        <ele>534</ele>
        <time>2012-10-11T14:22:23Z</time>
      </trkpt>
      <trkpt lat="46.77093" lon="5.71584">
        <ele>534</ele>
        <time>2012-10-11T14:22:26Z</time>
      </trkpt>
      <trkpt lat="46.77102" lon="5.7158">
        <ele>534</ele>
        <time>2012-10-11T14:22:28Z</time>
      </trkpt>
      <trkpt lat="46.77111" lon="5.71579">
        <ele>534</ele>
        <time>2012-10-11T14:22:30Z</time>
      </trkpt>
      <trkpt lat="46.77122" lon="5.71581">
        <ele>534</ele>
        <time>2012-10-11T14:22:32Z</time>
      </trkpt>
      <trkpt lat="46.77132" lon="5.71584">
        <ele>534</ele>
        <time>2012-10-11T14:22:34Z</time>
      </trkpt>
      <trkpt lat="46.77144" lon="5.71587">
        <ele>534</ele>
        <time>2012-10-11T14:22:36Z</time>
      </trkpt>
      <trkpt lat="46.77155" lon="5.71589">
        <ele>534</ele>
        <time>2012-10-11T14:22:38Z</time>
      </trkpt>
      <trkpt lat="46.77166" lon="5.71592">
        <ele>534</ele>
        <time>2012-10-11T14:22:40Z</time>
      </trkpt>
      <trkpt lat="46.77177" lon="5.71594">
        <ele>534</ele>
        <time>2012-10-11T14:22:42Z</time>
      </trkpt>
      <trkpt lat="46.77187" lon="5.71597">
        <ele>534</ele>
        <time>2012-10-11T14:22:44Z</time>
      </trkpt>
      <trkpt lat="46.77196" lon="5.71602">
        <ele>534</ele>
        <time>2012-10-11T14:22:46Z</time>
      </trkpt>
      <trkpt lat="46.77208" lon="5.71611">
        <ele>534</ele>
        <time>2012-10-11T14:22:49Z</time>
      </trkpt>
      <trkpt lat="46.77213" lon="5.71621">
        <ele>534</ele>
        <time>2012-10-11T14:22:51Z</time>
      </trkpt>
      <trkpt lat="46.77216" lon="5.7164">
        <ele>539</ele>
        <time>2012-10-11T14:22:54Z</time>
      </trkpt>
      <trkpt lat="46.77217" lon="5.71656">
        <ele>539</ele>
        <time>2012-10-11T14:22:56Z</time>
      </trkpt>
      <trkpt lat="46.77222" lon="5.7167">
        <ele>539</ele>
        <time>2012-10-11T14:22:58Z</time>
      </trkpt>
      <trkpt lat="46.77232" lon="5.71678">
        <ele>539</ele>
        <time>2012-10-11T14:23:00Z</time>
      </trkpt>
      <trkpt lat="46.77243" lon="5.71685">
        <ele>539</ele>
        <time>2012-10-11T14:23:02Z</time>
      </trkpt>
      <trkpt lat="46.77256" lon="5.71692">
        <ele>539</ele>
        <time>2012-10-11T14:23:04Z</time>
      </trkpt>
      <trkpt lat="46.77269" lon="5.717">
        <ele>539</ele>
        <time>2012-10-11T14:23:06Z</time>
      </trkpt>
      <trkpt lat="46.77282" lon="5.71707">
        <ele>539</ele>
        <time>2012-10-11T14:23:08Z</time>
      </trkpt>
      <trkpt lat="46.77295" lon="5.71712">
        <ele>539</ele>
        <time>2012-10-11T14:23:10Z</time>
      </trkpt>
      <trkpt lat="46.77307" lon="5.71718">
        <ele>539</ele>
        <time>2012-10-11T14:23:12Z</time>
      </trkpt>
      <trkpt lat="46.77319" lon="5.71724">
        <ele>539</ele>
        <time>2012-10-11T14:23:14Z</time>
      </trkpt>
      <trkpt lat="46.77331" lon="5.71728">
        <ele>539</ele>
        <time>2012-10-11T14:23:16Z</time>
      </trkpt>
      <trkpt lat="46.77341" lon="5.71733">
        <ele>539</ele>
        <time>2012-10-11T14:23:18Z</time>
      </trkpt>
      <trkpt lat="46.77351" lon="5.71736">
        <ele>539</ele>
        <time>2012-10-11T14:23:20Z</time>
      </trkpt>
      <trkpt lat="46.77361" lon="5.71739">
        <ele>539</ele>
        <time>2012-10-11T14:23:22Z</time>
      </trkpt>
      <trkpt lat="46.77371" lon="5.71741">
        <ele>539</ele>
        <time>2012-10-11T14:23:24Z</time>
      </trkpt>
      <trkpt lat="46.77381" lon="5.71744">
        <ele>539</ele>
        <time>2012-10-11T14:23:26Z</time>
      </trkpt>
      <trkpt lat="46.7739" lon="5.71745">
        <ele>545</ele>
        <time>2012-10-11T14:23:28Z</time>
      </trkpt>
      <trkpt lat="46.774" lon="5.71748">
        <ele>545</ele>
        <time>2012-10-11T14:23:30Z</time>
      </trkpt>
      <trkpt lat="46.77412" lon="5.71751">
        <ele>545</ele>
        <time>2012-10-11T14:23:33Z</time>
      </trkpt>
      <trkpt lat="46.77422" lon="5.71753">
        <ele>545</ele>
        <time>2012-10-11T14:23:35Z</time>
      </trkpt>
      <trkpt lat="46.77435" lon="5.71756">
        <ele>545</ele>
        <time>2012-10-11T14:23:38Z</time>
      </trkpt>
      <trkpt lat="46.77446" lon="5.71759">
        <ele>545</ele>
        <time>2012-10-11T14:23:41Z</time>
      </trkpt>
      <trkpt lat="46.77458" lon="5.71762">
        <ele>545</ele>
        <time>2012-10-11T14:23:44Z</time>
      </trkpt>
      <trkpt lat="46.77467" lon="5.71764">
        <ele>545</ele>
        <time>2012-10-11T14:23:46Z</time>
      </trkpt>
      <trkpt lat="46.77476" lon="5.71768">
        <ele>545</ele>
        <time>2012-10-11T14:23:48Z</time>
      </trkpt>
      <trkpt lat="46.77487" lon="5.71773">
        <ele>545</ele>
        <time>2012-10-11T14:23:50Z</time>
      </trkpt>
      <trkpt lat="46.77497" lon="5.7178">
        <ele>545</ele>
        <time>2012-10-11T14:23:52Z</time>
      </trkpt>
      <trkpt lat="46.77509" lon="5.71787">
        <ele>545</ele>
        <time>2012-10-11T14:23:54Z</time>
      </trkpt>
      <trkpt lat="46.77522" lon="5.71791">
        <ele>545</ele>
        <time>2012-10-11T14:23:56Z</time>
      </trkpt>
      <trkpt lat="46.77536" lon="5.71794">
        <ele>545</ele>
        <time>2012-10-11T14:23:58Z</time>
      </trkpt>
      <trkpt lat="46.77551" lon="5.71794">
        <ele>545</ele>
        <time>2012-10-11T14:24:00Z</time>
      </trkpt>
      <trkpt lat="46.77566" lon="5.7179">
        <ele>545</ele>
        <time>2012-10-11T14:24:02Z</time>
      </trkpt>
      <trkpt lat="46.77582" lon="5.71785">
        <ele>545</ele>
        <time>2012-10-11T14:24:04Z</time>
      </trkpt>
      <trkpt lat="46.77596" lon="5.71779">
        <ele>545</ele>
        <time>2012-10-11T14:24:06Z</time>
      </trkpt>
      <trkpt lat="46.77611" lon="5.71773">
        <ele>545</ele>
        <time>2012-10-11T14:24:08Z</time>
      </trkpt>
      <trkpt lat="46.77625" lon="5.71767">
        <ele>545</ele>
        <time>2012-10-11T14:24:10Z</time>
      </trkpt>
      <trkpt lat="46.77639" lon="5.71762">
        <ele>545</ele>
        <time>2012-10-11T14:24:12Z</time>
      </trkpt>
      <trkpt lat="46.77653" lon="5.71754">
        <ele>545</ele>
        <time>2012-10-11T14:24:14Z</time>
      </trkpt>
      <trkpt lat="46.77666" lon="5.71746">
        <ele>545</ele>
        <time>2012-10-11T14:24:16Z</time>
      </trkpt>
      <trkpt lat="46.77677" lon="5.71737">
        <ele>545</ele>
        <time>2012-10-11T14:24:18Z</time>
      </trkpt>
      <trkpt lat="46.77687" lon="5.7173">
        <ele>545</ele>
        <time>2012-10-11T14:24:20Z</time>
      </trkpt>
      <trkpt lat="46.77698" lon="5.71726">
        <ele>545</ele>
        <time>2012-10-11T14:24:22Z</time>
      </trkpt>
      <trkpt lat="46.77709" lon="5.71723">
        <ele>545</ele>
        <time>2012-10-11T14:24:24Z</time>
      </trkpt>
      <trkpt lat="46.77719" lon="5.71722">
        <ele>545</ele>
        <time>2012-10-11T14:24:26Z</time>
      </trkpt>
      <trkpt lat="46.7773" lon="5.71722">
        <ele>545</ele>
        <time>2012-10-11T14:24:28Z</time>
      </trkpt>
      <trkpt lat="46.77739" lon="5.71721">
        <ele>545</ele>
        <time>2012-10-11T14:24:30Z</time>
      </trkpt>
      <trkpt lat="46.77749" lon="5.71721">
        <ele>545</ele>
        <time>2012-10-11T14:24:32Z</time>
      </trkpt>
      <trkpt lat="46.77759" lon="5.71721">
        <ele>545</ele>
        <time>2012-10-11T14:24:34Z</time>
      </trkpt>
      <trkpt lat="46.77769" lon="5.71721">
        <ele>545</ele>
        <time>2012-10-11T14:24:36Z</time>
      </trkpt>
      <trkpt lat="46.77782" lon="5.7172">
        <ele>545</ele>
        <time>2012-10-11T14:24:39Z</time>
      </trkpt>
      <trkpt lat="46.77795" lon="5.71718">
        <ele>545</ele>
        <time>2012-10-11T14:24:42Z</time>
      </trkpt>
      <trkpt lat="46.77805" lon="5.71718">
        <ele>545</ele>
        <time>2012-10-11T14:24:44Z</time>
      </trkpt>
      <trkpt lat="46.77815" lon="5.71718">
        <ele>545</ele>
        <time>2012-10-11T14:24:46Z</time>
      </trkpt>
      <trkpt lat="46.77827" lon="5.71717">
        <ele>545</ele>
        <time>2012-10-11T14:24:48Z</time>
      </trkpt>
      <trkpt lat="46.77836" lon="5.71716">
        <ele>545</ele>
        <time>2012-10-11T14:24:50Z</time>
      </trkpt>
      <trkpt lat="46.77848" lon="5.71715">
        <ele>545</ele>
        <time>2012-10-11T14:24:52Z</time>
      </trkpt>
      <trkpt lat="46.77861" lon="5.71714">
        <ele>545</ele>
        <time>2012-10-11T14:24:54Z</time>
      </trkpt>
      <trkpt lat="46.77874" lon="5.71714">
        <ele>545</ele>
        <time>2012-10-11T14:24:56Z</time>
      </trkpt>
      <trkpt lat="46.77889" lon="5.71715">
        <ele>545</ele>
        <time>2012-10-11T14:24:58Z</time>
      </trkpt>
      <trkpt lat="46.77904" lon="5.71715">
        <ele>545</ele>
        <time>2012-10-11T14:25:00Z</time>
      </trkpt>
      <trkpt lat="46.77921" lon="5.71715">
        <ele>545</ele>
        <time>2012-10-11T14:25:02Z</time>
      </trkpt>
      <trkpt lat="46.77937" lon="5.71714">
        <ele>545</ele>
        <time>2012-10-11T14:25:04Z</time>
      </trkpt>
      <trkpt lat="46.77946" lon="5.71715">
        <ele>539</ele>
        <time>2012-10-11T14:25:05Z</time>
      </trkpt>
      <trkpt lat="46.77964" lon="5.71716">
        <ele>539</ele>
        <time>2012-10-11T14:25:07Z</time>
      </trkpt>
      <trkpt lat="46.77981" lon="5.71716">
        <ele>539</ele>
        <time>2012-10-11T14:25:09Z</time>
      </trkpt>
      <trkpt lat="46.7799" lon="5.71715">
        <ele>539</ele>
        <time>2012-10-11T14:25:10Z</time>
      </trkpt>
      <trkpt lat="46.77999" lon="5.71715">
        <ele>539</ele>
        <time>2012-10-11T14:25:11Z</time>
      </trkpt>
      <trkpt lat="46.78009" lon="5.71715">
        <ele>539</ele>
        <time>2012-10-11T14:25:12Z</time>
      </trkpt>
      <trkpt lat="46.78018" lon="5.71714">
        <ele>539</ele>
        <time>2012-10-11T14:25:13Z</time>
      </trkpt>
      <trkpt lat="46.78028" lon="5.71714">
        <ele>539</ele>
        <time>2012-10-11T14:25:14Z</time>
      </trkpt>
      <trkpt lat="46.78038" lon="5.71714">
        <ele>539</ele>
        <time>2012-10-11T14:25:15Z</time>
      </trkpt>
      <trkpt lat="46.78048" lon="5.71713">
        <ele>539</ele>
        <time>2012-10-11T14:25:16Z</time>
      </trkpt>
      <trkpt lat="46.78057" lon="5.71713">
        <ele>539</ele>
        <time>2012-10-11T14:25:17Z</time>
      </trkpt>
      <trkpt lat="46.78067" lon="5.71712">
        <ele>534</ele>
        <time>2012-10-11T14:25:18Z</time>
      </trkpt>
      <trkpt lat="46.78076" lon="5.71712">
        <ele>534</ele>
        <time>2012-10-11T14:25:19Z</time>
      </trkpt>
      <trkpt lat="46.78086" lon="5.71712">
        <ele>534</ele>
        <time>2012-10-11T14:25:20Z</time>
      </trkpt>
      <trkpt lat="46.78096" lon="5.71714">
        <ele>534</ele>
        <time>2012-10-11T14:25:21Z</time>
      </trkpt>
      <trkpt lat="46.78115" lon="5.71716">
        <ele>534</ele>
        <time>2012-10-11T14:25:23Z</time>
      </trkpt>
      <trkpt lat="46.78124" lon="5.71718">
        <ele>534</ele>
        <time>2012-10-11T14:25:24Z</time>
      </trkpt>
      <trkpt lat="46.78141" lon="5.71723">
        <ele>534</ele>
        <time>2012-10-11T14:25:26Z</time>
      </trkpt>
      <trkpt lat="46.78158" lon="5.71727">
        <ele>534</ele>
        <time>2012-10-11T14:25:28Z</time>
      </trkpt>
      <trkpt lat="46.78174" lon="5.71733">
        <ele>534</ele>
        <time>2012-10-11T14:25:30Z</time>
      </trkpt>
      <trkpt lat="46.78189" lon="5.71739">
        <ele>534</ele>
        <time>2012-10-11T14:25:32Z</time>
      </trkpt>
      <trkpt lat="46.78204" lon="5.71744">
        <ele>534</ele>
        <time>2012-10-11T14:25:34Z</time>
      </trkpt>
      <trkpt lat="46.78219" lon="5.71751">
        <ele>534</ele>
        <time>2012-10-11T14:25:36Z</time>
      </trkpt>
      <trkpt lat="46.78234" lon="5.71756">
        <ele>534</ele>
        <time>2012-10-11T14:25:38Z</time>
      </trkpt>
      <trkpt lat="46.78251" lon="5.71762">
        <ele>534</ele>
        <time>2012-10-11T14:25:40Z</time>
      </trkpt>
      <trkpt lat="46.78267" lon="5.7177">
        <ele>534</ele>
        <time>2012-10-11T14:25:42Z</time>
      </trkpt>
      <trkpt lat="46.78283" lon="5.71778">
        <ele>534</ele>
        <time>2012-10-11T14:25:44Z</time>
      </trkpt>
      <trkpt lat="46.78298" lon="5.71786">
        <ele>534</ele>
        <time>2012-10-11T14:25:46Z</time>
      </trkpt>
      <trkpt lat="46.78313" lon="5.71795">
        <ele>534</ele>
        <time>2012-10-11T14:25:48Z</time>
      </trkpt>
      <trkpt lat="46.78327" lon="5.71802">
        <ele>534</ele>
        <time>2012-10-11T14:25:50Z</time>
      </trkpt>
      <trkpt lat="46.7834" lon="5.7181">
        <ele>534</ele>
        <time>2012-10-11T14:25:52Z</time>
      </trkpt>
      <trkpt lat="46.78354" lon="5.71818">
        <ele>534</ele>
        <time>2012-10-11T14:25:54Z</time>
      </trkpt>
      <trkpt lat="46.78368" lon="5.71827">
        <ele>534</ele>
        <time>2012-10-11T14:25:56Z</time>
      </trkpt>
      <trkpt lat="46.78381" lon="5.71833">
        <ele>534</ele>
        <time>2012-10-11T14:25:58Z</time>
      </trkpt>
      <trkpt lat="46.78396" lon="5.7184">
        <ele>534</ele>
        <time>2012-10-11T14:26:00Z</time>
      </trkpt>
      <trkpt lat="46.7841" lon="5.71845">
        <ele>534</ele>
        <time>2012-10-11T14:26:02Z</time>
      </trkpt>
      <trkpt lat="46.78426" lon="5.71848">
        <ele>534</ele>
        <time>2012-10-11T14:26:04Z</time>
      </trkpt>
      <trkpt lat="46.78441" lon="5.71849">
        <ele>534</ele>
        <time>2012-10-11T14:26:06Z</time>
      </trkpt>
      <trkpt lat="46.78457" lon="5.71849">
        <ele>534</ele>
        <time>2012-10-11T14:26:08Z</time>
      </trkpt>
      <trkpt lat="46.78473" lon="5.71847">
        <ele>534</ele>
        <time>2012-10-11T14:26:10Z</time>
      </trkpt>
      <trkpt lat="46.78488" lon="5.71842">
        <ele>534</ele>
        <time>2012-10-11T14:26:12Z</time>
      </trkpt>
      <trkpt lat="46.78503" lon="5.71837">
        <ele>534</ele>
        <time>2012-10-11T14:26:14Z</time>
      </trkpt>
      <trkpt lat="46.78518" lon="5.7183">
        <ele>534</ele>
        <time>2012-10-11T14:26:16Z</time>
      </trkpt>
      <trkpt lat="46.78533" lon="5.71823">
        <ele>534</ele>
        <time>2012-10-11T14:26:18Z</time>
      </trkpt>
      <trkpt lat="46.78546" lon="5.71815">
        <ele>534</ele>
        <time>2012-10-11T14:26:20Z</time>
      </trkpt>
      <trkpt lat="46.7856" lon="5.71808">
        <ele>534</ele>
        <time>2012-10-11T14:26:22Z</time>
      </trkpt>
      <trkpt lat="46.78573" lon="5.71802">
        <ele>534</ele>
        <time>2012-10-11T14:26:24Z</time>
      </trkpt>
      <trkpt lat="46.78587" lon="5.71794">
        <ele>534</ele>
        <time>2012-10-11T14:26:26Z</time>
      </trkpt>
      <trkpt lat="46.786" lon="5.71785">
        <ele>534</ele>
        <time>2012-10-11T14:26:28Z</time>
      </trkpt>
      <trkpt lat="46.78612" lon="5.71774">
        <ele>534</ele>
        <time>2012-10-11T14:26:30Z</time>
      </trkpt>
      <trkpt lat="46.78623" lon="5.71761">
        <ele>534</ele>
        <time>2012-10-11T14:26:32Z</time>
      </trkpt>
      <trkpt lat="46.78632" lon="5.71746">
        <ele>534</ele>
        <time>2012-10-11T14:26:34Z</time>
      </trkpt>
      <trkpt lat="46.7864" lon="5.71732">
        <ele>534</ele>
        <time>2012-10-11T14:26:36Z</time>
      </trkpt>
      <trkpt lat="46.78647" lon="5.71718">
        <ele>534</ele>
        <time>2012-10-11T14:26:38Z</time>
      </trkpt>
      <trkpt lat="46.78655" lon="5.71703">
        <ele>534</ele>
        <time>2012-10-11T14:26:40Z</time>
      </trkpt>
      <trkpt lat="46.78664" lon="5.71689">
        <ele>534</ele>
        <time>2012-10-11T14:26:42Z</time>
      </trkpt>
      <trkpt lat="46.78672" lon="5.71674">
        <ele>534</ele>
        <time>2012-10-11T14:26:44Z</time>
      </trkpt>
      <trkpt lat="46.7868" lon="5.71659">
        <ele>534</ele>
        <time>2012-10-11T14:26:46Z</time>
      </trkpt>
      <trkpt lat="46.78688" lon="5.71646">
        <ele>534</ele>
        <time>2012-10-11T14:26:48Z</time>
      </trkpt>
      <trkpt lat="46.78696" lon="5.71631">
        <ele>534</ele>
        <time>2012-10-11T14:26:50Z</time>
      </trkpt>
      <trkpt lat="46.78703" lon="5.71618">
        <ele>534</ele>
        <time>2012-10-11T14:26:52Z</time>
      </trkpt>
      <trkpt lat="46.78711" lon="5.71604">
        <ele>534</ele>
        <time>2012-10-11T14:26:54Z</time>
      </trkpt>
      <trkpt lat="46.78718" lon="5.71591">
        <ele>534</ele>
        <time>2012-10-11T14:26:56Z</time>
      </trkpt>
      <trkpt lat="46.78725" lon="5.71577">
        <ele>534</ele>
        <time>2012-10-11T14:26:58Z</time>
      </trkpt>
      <trkpt lat="46.78732" lon="5.71564">
        <ele>534</ele>
        <time>2012-10-11T14:27:00Z</time>
      </trkpt>
      <trkpt lat="46.78739" lon="5.71551">
        <ele>534</ele>
        <time>2012-10-11T14:27:02Z</time>
      </trkpt>
      <trkpt lat="46.78746" lon="5.71539">
        <ele>534</ele>
        <time>2012-10-11T14:27:04Z</time>
      </trkpt>
      <trkpt lat="46.78753" lon="5.71526">
        <ele>534</ele>
        <time>2012-10-11T14:27:06Z</time>
      </trkpt>
      <trkpt lat="46.78761" lon="5.71512">
        <ele>534</ele>
        <time>2012-10-11T14:27:08Z</time>
      </trkpt>
      <trkpt lat="46.78769" lon="5.71497">
        <ele>534</ele>
        <time>2012-10-11T14:27:10Z</time>
      </trkpt>
      <trkpt lat="46.78777" lon="5.71483">
        <ele>534</ele>
        <time>2012-10-11T14:27:12Z</time>
      </trkpt>
      <trkpt lat="46.78785" lon="5.71468">
        <ele>534</ele>
        <time>2012-10-11T14:27:14Z</time>
      </trkpt>
      <trkpt lat="46.78793" lon="5.71453">
        <ele>534</ele>
        <time>2012-10-11T14:27:16Z</time>
      </trkpt>
      <trkpt lat="46.78801" lon="5.71438">
        <ele>534</ele>
        <time>2012-10-11T14:27:18Z</time>
      </trkpt>
      <trkpt lat="46.78809" lon="5.71424">
        <ele>534</ele>
        <time>2012-10-11T14:27:20Z</time>
      </trkpt>
      <trkpt lat="46.78817" lon="5.71409">
        <ele>534</ele>
        <time>2012-10-11T14:27:22Z</time>
      </trkpt>
      <trkpt lat="46.78825" lon="5.71395">
        <ele>534</ele>
        <time>2012-10-11T14:27:24Z</time>
      </trkpt>
      <trkpt lat="46.78832" lon="5.71382">
        <ele>534</ele>
        <time>2012-10-11T14:27:26Z</time>
      </trkpt>
      <trkpt lat="46.7884" lon="5.71368">
        <ele>534</ele>
        <time>2012-10-11T14:27:28Z</time>
      </trkpt>
      <trkpt lat="46.78848" lon="5.71355">
        <ele>534</ele>
        <time>2012-10-11T14:27:30Z</time>
      </trkpt>
      <trkpt lat="46.78855" lon="5.7134">
        <ele>534</ele>
        <time>2012-10-11T14:27:32Z</time>
      </trkpt>
      <trkpt lat="46.78863" lon="5.71327">
        <ele>534</ele>
        <time>2012-10-11T14:27:34Z</time>
      </trkpt>
      <trkpt lat="46.78871" lon="5.71312">
        <ele>534</ele>
        <time>2012-10-11T14:27:36Z</time>
      </trkpt>
      <trkpt lat="46.78879" lon="5.71298">
        <ele>534</ele>
        <time>2012-10-11T14:27:38Z</time>
      </trkpt>
      <trkpt lat="46.78887" lon="5.71284">
        <ele>534</ele>
        <time>2012-10-11T14:27:40Z</time>
      </trkpt>
      <trkpt lat="46.78895" lon="5.71269">
        <ele>534</ele>
        <time>2012-10-11T14:27:42Z</time>
      </trkpt>
      <trkpt lat="46.78903" lon="5.71255">
        <ele>534</ele>
        <time>2012-10-11T14:27:44Z</time>
      </trkpt>
      <trkpt lat="46.7891" lon="5.71241">
        <ele>534</ele>
        <time>2012-10-11T14:27:46Z</time>
      </trkpt>
      <trkpt lat="46.78918" lon="5.71228">
        <ele>534</ele>
        <time>2012-10-11T14:27:48Z</time>
      </trkpt>
      <trkpt lat="46.78926" lon="5.71214">
        <ele>534</ele>
        <time>2012-10-11T14:27:50Z</time>
      </trkpt>
      <trkpt lat="46.78934" lon="5.71198">
        <ele>534</ele>
        <time>2012-10-11T14:27:52Z</time>
      </trkpt>
      <trkpt lat="46.7894" lon="5.71183">
        <ele>534</ele>
        <time>2012-10-11T14:27:54Z</time>
      </trkpt>
      <trkpt lat="46.78947" lon="5.71168">
        <ele>534</ele>
        <time>2012-10-11T14:27:56Z</time>
      </trkpt>
      <trkpt lat="46.78952" lon="5.71153">
        <ele>534</ele>
        <time>2012-10-11T14:27:58Z</time>
      </trkpt>
      <trkpt lat="46.78958" lon="5.71137">
        <ele>534</ele>
        <time>2012-10-11T14:28:00Z</time>
      </trkpt>
      <trkpt lat="46.78962" lon="5.71122">
        <ele>534</ele>
        <time>2012-10-11T14:28:02Z</time>
      </trkpt>
      <trkpt lat="46.78967" lon="5.71106">
        <ele>534</ele>
        <time>2012-10-11T14:28:04Z</time>
      </trkpt>
      <trkpt lat="46.78972" lon="5.7109">
        <ele>534</ele>
        <time>2012-10-11T14:28:06Z</time>
      </trkpt>
      <trkpt lat="46.78977" lon="5.71073">
        <ele>534</ele>
        <time>2012-10-11T14:28:08Z</time>
      </trkpt>
      <trkpt lat="46.78981" lon="5.71057">
        <ele>534</ele>
        <time>2012-10-11T14:28:10Z</time>
      </trkpt>
      <trkpt lat="46.78986" lon="5.7104">
        <ele>534</ele>
        <time>2012-10-11T14:28:12Z</time>
      </trkpt>
      <trkpt lat="46.78991" lon="5.71024">
        <ele>534</ele>
        <time>2012-10-11T14:28:14Z</time>
      </trkpt>
      <trkpt lat="46.78996" lon="5.71008">
        <ele>534</ele>
        <time>2012-10-11T14:28:16Z</time>
      </trkpt>
      <trkpt lat="46.79001" lon="5.70992">
        <ele>534</ele>
        <time>2012-10-11T14:28:18Z</time>
      </trkpt>
      <trkpt lat="46.79006" lon="5.70976">
        <ele>534</ele>
        <time>2012-10-11T14:28:20Z</time>
      </trkpt>
      <trkpt lat="46.79011" lon="5.70961">
        <ele>534</ele>
        <time>2012-10-11T14:28:22Z</time>
      </trkpt>
      <trkpt lat="46.79017" lon="5.70947">
        <ele>534</ele>
        <time>2012-10-11T14:28:24Z</time>
      </trkpt>
      <trkpt lat="46.79022" lon="5.70932">
        <ele>534</ele>
        <time>2012-10-11T14:28:26Z</time>
      </trkpt>
      <trkpt lat="46.79029" lon="5.70917">
        <ele>534</ele>
        <time>2012-10-11T14:28:28Z</time>
      </trkpt>
      <trkpt lat="46.79034" lon="5.70902">
        <ele>534</ele>
        <time>2012-10-11T14:28:30Z</time>
      </trkpt>
      <trkpt lat="46.7904" lon="5.70887">
        <ele>539</ele>
        <time>2012-10-11T14:28:32Z</time>
      </trkpt>
      <trkpt lat="46.79047" lon="5.70871">
        <ele>539</ele>
        <time>2012-10-11T14:28:34Z</time>
      </trkpt>
      <trkpt lat="46.79053" lon="5.70856">
        <ele>539</ele>
        <time>2012-10-11T14:28:36Z</time>
      </trkpt>
      <trkpt lat="46.79059" lon="5.7084">
        <ele>539</ele>
        <time>2012-10-11T14:28:38Z</time>
      </trkpt>
      <trkpt lat="46.79065" lon="5.70825">
        <ele>539</ele>
        <time>2012-10-11T14:28:40Z</time>
      </trkpt>
      <trkpt lat="46.79071" lon="5.7081">
        <ele>539</ele>
        <time>2012-10-11T14:28:42Z</time>
      </trkpt>
      <trkpt lat="46.79076" lon="5.70796">
        <ele>539</ele>
        <time>2012-10-11T14:28:44Z</time>
      </trkpt>
      <trkpt lat="46.79082" lon="5.70783">
        <ele>539</ele>
        <time>2012-10-11T14:28:46Z</time>
      </trkpt>
      <trkpt lat="46.79088" lon="5.7077">
        <ele>539</ele>
        <time>2012-10-11T14:28:48Z</time>
      </trkpt>
      <trkpt lat="46.79095" lon="5.70756">
        <ele>539</ele>
        <time>2012-10-11T14:28:50Z</time>
      </trkpt>
      <trkpt lat="46.79101" lon="5.70742">
        <ele>539</ele>
        <time>2012-10-11T14:28:52Z</time>
      </trkpt>
      <trkpt lat="46.79109" lon="5.70728">
        <ele>539</ele>
        <time>2012-10-11T14:28:54Z</time>
      </trkpt>
      <trkpt lat="46.79116" lon="5.70713">
        <ele>539</ele>
        <time>2012-10-11T14:28:56Z</time>
      </trkpt>
      <trkpt lat="46.79124" lon="5.70699">
        <ele>539</ele>
        <time>2012-10-11T14:28:58Z</time>
      </trkpt>
      <trkpt lat="46.79132" lon="5.70684">
        <ele>539</ele>
        <time>2012-10-11T14:29:00Z</time>
      </trkpt>
      <trkpt lat="46.7914" lon="5.70668">
        <ele>539</ele>
        <time>2012-10-11T14:29:02Z</time>
      </trkpt>
      <trkpt lat="46.79148" lon="5.70652">
        <ele>539</ele>
        <time>2012-10-11T14:29:04Z</time>
      </trkpt>
      <trkpt lat="46.79155" lon="5.70637">
        <ele>539</ele>
        <time>2012-10-11T14:29:06Z</time>
      </trkpt>
      <trkpt lat="46.79162" lon="5.7062">
        <ele>539</ele>
        <time>2012-10-11T14:29:08Z</time>
      </trkpt>
      <trkpt lat="46.79171" lon="5.70602">
        <ele>539</ele>
        <time>2012-10-11T14:29:10Z</time>
      </trkpt>
      <trkpt lat="46.79178" lon="5.70584">
        <ele>539</ele>
        <time>2012-10-11T14:29:12Z</time>
      </trkpt>
      <trkpt lat="46.79185" lon="5.70566">
        <ele>539</ele>
        <time>2012-10-11T14:29:14Z</time>
      </trkpt>
      <trkpt lat="46.79191" lon="5.70547">
        <ele>539</ele>
        <time>2012-10-11T14:29:16Z</time>
      </trkpt>
      <trkpt lat="46.79198" lon="5.70529">
        <ele>539</ele>
        <time>2012-10-11T14:29:18Z</time>
      </trkpt>
      <trkpt lat="46.79204" lon="5.70511">
        <ele>539</ele>
        <time>2012-10-11T14:29:20Z</time>
      </trkpt>
      <trkpt lat="46.7921" lon="5.70493">
        <ele>539</ele>
        <time>2012-10-11T14:29:22Z</time>
      </trkpt>
      <trkpt lat="46.79216" lon="5.70476">
        <ele>539</ele>
        <time>2012-10-11T14:29:24Z</time>
      </trkpt>
      <trkpt lat="46.79221" lon="5.70459">
        <ele>539</ele>
        <time>2012-10-11T14:29:26Z</time>
      </trkpt>
      <trkpt lat="46.79227" lon="5.70443">
        <ele>539</ele>
        <time>2012-10-11T14:29:28Z</time>
      </trkpt>
      <trkpt lat="46.79232" lon="5.70428">
        <ele>539</ele>
        <time>2012-10-11T14:29:30Z</time>
      </trkpt>
      <trkpt lat="46.79237" lon="5.70413">
        <ele>539</ele>
        <time>2012-10-11T14:29:32Z</time>
      </trkpt>
      <trkpt lat="46.79241" lon="5.70398">
        <ele>539</ele>
        <time>2012-10-11T14:29:34Z</time>
      </trkpt>
      <trkpt lat="46.79246" lon="5.70383">
        <ele>539</ele>
        <time>2012-10-11T14:29:36Z</time>
      </trkpt>
      <trkpt lat="46.7925" lon="5.70368">
        <ele>539</ele>
        <time>2012-10-11T14:29:38Z</time>
      </trkpt>
      <trkpt lat="46.79255" lon="5.70353">
        <ele>539</ele>
        <time>2012-10-11T14:29:40Z</time>
      </trkpt>
      <trkpt lat="46.79259" lon="5.70339">
        <ele>539</ele>
        <time>2012-10-11T14:29:42Z</time>
      </trkpt>
      <trkpt lat="46.79264" lon="5.70323">
        <ele>539</ele>
        <time>2012-10-11T14:29:44Z</time>
      </trkpt>
      <trkpt lat="46.7927" lon="5.70309">
        <ele>539</ele>
        <time>2012-10-11T14:29:46Z</time>
      </trkpt>
      <trkpt lat="46.79275" lon="5.70295">
        <ele>539</ele>
        <time>2012-10-11T14:29:48Z</time>
      </trkpt>
      <trkpt lat="46.79282" lon="5.70281">
        <ele>539</ele>
        <time>2012-10-11T14:29:50Z</time>
      </trkpt>
      <trkpt lat="46.79289" lon="5.70268">
        <ele>539</ele>
        <time>2012-10-11T14:29:52Z</time>
      </trkpt>
      <trkpt lat="46.79296" lon="5.70254">
        <ele>544</ele>
        <time>2012-10-11T14:29:54Z</time>
      </trkpt>
      <trkpt lat="46.79303" lon="5.70243">
        <ele>544</ele>
        <time>2012-10-11T14:29:56Z</time>
      </trkpt>
      <trkpt lat="46.79309" lon="5.70231">
        <ele>544</ele>
        <time>2012-10-11T14:29:58Z</time>
      </trkpt>
      <trkpt lat="46.79315" lon="5.70219">
        <ele>544</ele>
        <time>2012-10-11T14:30:00Z</time>
      </trkpt>
      <trkpt lat="46.79322" lon="5.70207">
        <ele>544</ele>
        <time>2012-10-11T14:30:02Z</time>
      </trkpt>
      <trkpt lat="46.79328" lon="5.70197">
        <ele>544</ele>
        <time>2012-10-11T14:30:04Z</time>
      </trkpt>
      <trkpt lat="46.79334" lon="5.70184">
        <ele>544</ele>
        <time>2012-10-11T14:30:06Z</time>
      </trkpt>
      <trkpt lat="46.79341" lon="5.70172">
        <ele>544</ele>
        <time>2012-10-11T14:30:08Z</time>
      </trkpt>
      <trkpt lat="46.79348" lon="5.70159">
        <ele>544</ele>
        <time>2012-10-11T14:30:10Z</time>
      </trkpt>
      <trkpt lat="46.79355" lon="5.70145">
        <ele>544</ele>
        <time>2012-10-11T14:30:12Z</time>
      </trkpt>
      <trkpt lat="46.79362" lon="5.70132">
        <ele>544</ele>
        <time>2012-10-11T14:30:14Z</time>
      </trkpt>
      <trkpt lat="46.7937" lon="5.70118">
        <ele>544</ele>
        <time>2012-10-11T14:30:16Z</time>
      </trkpt>
      <trkpt lat="46.79377" lon="5.70104">
        <ele>544</ele>
        <time>2012-10-11T14:30:18Z</time>
      </trkpt>
      <trkpt lat="46.79384" lon="5.70091">
        <ele>544</ele>
        <time>2012-10-11T14:30:20Z</time>
      </trkpt>
      <trkpt lat="46.79391" lon="5.70077">
        <ele>544</ele>
        <time>2012-10-11T14:30:22Z</time>
      </trkpt>
      <trkpt lat="46.79398" lon="5.70064">
        <ele>544</ele>
        <time>2012-10-11T14:30:24Z</time>
      </trkpt>
      <trkpt lat="46.79405" lon="5.7005">
        <ele>544</ele>
        <time>2012-10-11T14:30:26Z</time>
      </trkpt>
      <trkpt lat="46.79412" lon="5.70037">
        <ele>544</ele>
        <time>2012-10-11T14:30:28Z</time>
      </trkpt>
      <trkpt lat="46.79419" lon="5.70023">
        <ele>544</ele>
        <time>2012-10-11T14:30:30Z</time>
      </trkpt>
      <trkpt lat="46.79425" lon="5.70011">
        <ele>544</ele>
        <time>2012-10-11T14:30:32Z</time>
      </trkpt>
      <trkpt lat="46.79432" lon="5.69998">
        <ele>544</ele>
        <time>2012-10-11T14:30:34Z</time>
      </trkpt>
      <trkpt lat="46.79439" lon="5.69986">
        <ele>544</ele>
        <time>2012-10-11T14:30:36Z</time>
      </trkpt>
      <trkpt lat="46.79446" lon="5.69973">
        <ele>544</ele>
        <time>2012-10-11T14:30:38Z</time>
      </trkpt>
      <trkpt lat="46.79452" lon="5.6996">
        <ele>544</ele>
        <time>2012-10-11T14:30:40Z</time>
      </trkpt>
      <trkpt lat="46.7946" lon="5.69947">
        <ele>544</ele>
        <time>2012-10-11T14:30:42Z</time>
      </trkpt>
      <trkpt lat="46.79466" lon="5.69933">
        <ele>544</ele>
        <time>2012-10-11T14:30:44Z</time>
      </trkpt>
      <trkpt lat="46.79473" lon="5.69922">
        <ele>550</ele>
        <time>2012-10-11T14:30:46Z</time>
      </trkpt>
      <trkpt lat="46.7948" lon="5.6991">
        <ele>550</ele>
        <time>2012-10-11T14:30:48Z</time>
      </trkpt>
      <trkpt lat="46.79485" lon="5.69898">
        <ele>550</ele>
        <time>2012-10-11T14:30:50Z</time>
      </trkpt>
      <trkpt lat="46.79492" lon="5.69886">
        <ele>550</ele>
        <time>2012-10-11T14:30:52Z</time>
      </trkpt>
      <trkpt lat="46.79498" lon="5.69874">
        <ele>550</ele>
        <time>2012-10-11T14:30:54Z</time>
      </trkpt>
      <trkpt lat="46.79503" lon="5.69862">
        <ele>550</ele>
        <time>2012-10-11T14:30:56Z</time>
      </trkpt>
      <trkpt lat="46.79509" lon="5.6985">
        <ele>550</ele>
        <time>2012-10-11T14:30:58Z</time>
      </trkpt>
      <trkpt lat="46.79516" lon="5.69838">
        <ele>550</ele>
        <time>2012-10-11T14:31:00Z</time>
      </trkpt>
      <trkpt lat="46.79522" lon="5.69827">
        <ele>550</ele>
        <time>2012-10-11T14:31:02Z</time>
      </trkpt>
      <trkpt lat="46.79528" lon="5.69817">
        <ele>550</ele>
        <time>2012-10-11T14:31:04Z</time>
      </trkpt>
      <trkpt lat="46.79533" lon="5.69805">
        <ele>550</ele>
        <time>2012-10-11T14:31:06Z</time>
      </trkpt>
      <trkpt lat="46.7954" lon="5.69795">
        <ele>550</ele>
        <time>2012-10-11T14:31:08Z</time>
      </trkpt>
      <trkpt lat="46.79546" lon="5.69785">
        <ele>550</ele>
        <time>2012-10-11T14:31:10Z</time>
      </trkpt>
      <trkpt lat="46.79555" lon="5.69771">
        <ele>550</ele>
        <time>2012-10-11T14:31:13Z</time>
      </trkpt>
      <trkpt lat="46.79561" lon="5.69761">
        <ele>550</ele>
        <time>2012-10-11T14:31:15Z</time>
      </trkpt>
      <trkpt lat="46.7957" lon="5.69748">
        <ele>550</ele>
        <time>2012-10-11T14:31:18Z</time>
      </trkpt>
      <trkpt lat="46.79576" lon="5.69738">
        <ele>550</ele>
        <time>2012-10-11T14:31:20Z</time>
      </trkpt>
      <trkpt lat="46.79583" lon="5.69728">
        <ele>550</ele>
        <time>2012-10-11T14:31:22Z</time>
      </trkpt>
      <trkpt lat="46.79589" lon="5.69717">
        <ele>550</ele>
        <time>2012-10-11T14:31:24Z</time>
      </trkpt>
      <trkpt lat="46.79596" lon="5.69706">
        <ele>550</ele>
        <time>2012-10-11T14:31:26Z</time>
      </trkpt>
      <trkpt lat="46.79602" lon="5.69695">
        <ele>550</ele>
        <time>2012-10-11T14:31:28Z</time>
      </trkpt>
      <trkpt lat="46.7961" lon="5.69683">
        <ele>550</ele>
        <time>2012-10-11T14:31:30Z</time>
      </trkpt>
      <trkpt lat="46.79619" lon="5.6967">
        <ele>550</ele>
        <time>2012-10-11T14:31:32Z</time>
      </trkpt>
      <trkpt lat="46.79628" lon="5.69658">
        <ele>550</ele>
        <time>2012-10-11T14:31:34Z</time>
      </trkpt>
      <trkpt lat="46.79638" lon="5.69646">
        <ele>550</ele>
        <time>2012-10-11T14:31:36Z</time>
      </trkpt>
      <trkpt lat="46.79649" lon="5.69634">
        <ele>550</ele>
        <time>2012-10-11T14:31:38Z</time>
      </trkpt>
      <trkpt lat="46.79659" lon="5.69623">
        <ele>550</ele>
        <time>2012-10-11T14:31:40Z</time>
      </trkpt>
      <trkpt lat="46.7967" lon="5.6961">
        <ele>550</ele>
        <time>2012-10-11T14:31:42Z</time>
      </trkpt>
      <trkpt lat="46.7968" lon="5.69598">
        <ele>550</ele>
        <time>2012-10-11T14:31:44Z</time>
      </trkpt>
      <trkpt lat="46.79689" lon="5.69585">
        <ele>550</ele>
        <time>2012-10-11T14:31:46Z</time>
      </trkpt>
      <trkpt lat="46.79698" lon="5.6957">
        <ele>550</ele>
        <time>2012-10-11T14:31:48Z</time>
      </trkpt>
      <trkpt lat="46.79706" lon="5.69555">
        <ele>550</ele>
        <time>2012-10-11T14:31:50Z</time>
      </trkpt>
      <trkpt lat="46.79714" lon="5.69539">
        <ele>550</ele>
        <time>2012-10-11T14:31:52Z</time>
      </trkpt>
      <trkpt lat="46.79723" lon="5.69525">
        <ele>550</ele>
        <time>2012-10-11T14:31:54Z</time>
      </trkpt>
      <trkpt lat="46.79731" lon="5.69512">
        <ele>550</ele>
        <time>2012-10-11T14:31:56Z</time>
      </trkpt>
      <trkpt lat="46.79739" lon="5.695">
        <ele>550</ele>
        <time>2012-10-11T14:31:58Z</time>
      </trkpt>
      <trkpt lat="46.79748" lon="5.69489">
        <ele>550</ele>
        <time>2012-10-11T14:32:00Z</time>
      </trkpt>
      <trkpt lat="46.79757" lon="5.69478">
        <ele>550</ele>
        <time>2012-10-11T14:32:02Z</time>
      </trkpt>
      <trkpt lat="46.79765" lon="5.69467">
        <ele>550</ele>
        <time>2012-10-11T14:32:04Z</time>
      </trkpt>
      <trkpt lat="46.79773" lon="5.69458">
        <ele>555</ele>
        <time>2012-10-11T14:32:06Z</time>
      </trkpt>
      <trkpt lat="46.7978" lon="5.69448">
        <ele>555</ele>
        <time>2012-10-11T14:32:08Z</time>
      </trkpt>
      <trkpt lat="46.79787" lon="5.69439">
        <ele>555</ele>
        <time>2012-10-11T14:32:10Z</time>
      </trkpt>
      <trkpt lat="46.79795" lon="5.6943">
        <ele>555</ele>
        <time>2012-10-11T14:32:12Z</time>
      </trkpt>
      <trkpt lat="46.79802" lon="5.69421">
        <ele>555</ele>
        <time>2012-10-11T14:32:14Z</time>
      </trkpt>
      <trkpt lat="46.79809" lon="5.69412">
        <ele>555</ele>
        <time>2012-10-11T14:32:16Z</time>
      </trkpt>
      <trkpt lat="46.79816" lon="5.69402">
        <ele>555</ele>
        <time>2012-10-11T14:32:18Z</time>
      </trkpt>
      <trkpt lat="46.79822" lon="5.69392">
        <ele>555</ele>
        <time>2012-10-11T14:32:20Z</time>
      </trkpt>
      <trkpt lat="46.79828" lon="5.69381">
        <ele>555</ele>
        <time>2012-10-11T14:32:22Z</time>
      </trkpt>
      <trkpt lat="46.79834" lon="5.69369">
        <ele>555</ele>
        <time>2012-10-11T14:32:24Z</time>
      </trkpt>
      <trkpt lat="46.7984" lon="5.69359">
        <ele>555</ele>
        <time>2012-10-11T14:32:26Z</time>
      </trkpt>
      <trkpt lat="46.79845" lon="5.69348">
        <ele>555</ele>
        <time>2012-10-11T14:32:28Z</time>
      </trkpt>
      <trkpt lat="46.79851" lon="5.69336">
        <ele>555</ele>
        <time>2012-10-11T14:32:30Z</time>
      </trkpt>
      <trkpt lat="46.79857" lon="5.69325">
        <ele>555</ele>
        <time>2012-10-11T14:32:32Z</time>
      </trkpt>
      <trkpt lat="46.79862" lon="5.69315">
        <ele>560</ele>
        <time>2012-10-11T14:32:34Z</time>
      </trkpt>
      <trkpt lat="46.79868" lon="5.69304">
        <ele>560</ele>
        <time>2012-10-11T14:32:36Z</time>
      </trkpt>
      <trkpt lat="46.79873" lon="5.69293">
        <ele>560</ele>
        <time>2012-10-11T14:32:38Z</time>
      </trkpt>
      <trkpt lat="46.79879" lon="5.69282">
        <ele>560</ele>
        <time>2012-10-11T14:32:40Z</time>
      </trkpt>
      <trkpt lat="46.79884" lon="5.69271">
        <ele>560</ele>
        <time>2012-10-11T14:32:42Z</time>
      </trkpt>
      <trkpt lat="46.79892" lon="5.69256">
        <ele>560</ele>
        <time>2012-10-11T14:32:45Z</time>
      </trkpt>
      <trkpt lat="46.79899" lon="5.69245">
        <ele>560</ele>
        <time>2012-10-11T14:32:47Z</time>
      </trkpt>
      <trkpt lat="46.79904" lon="5.69235">
        <ele>560</ele>
        <time>2012-10-11T14:32:49Z</time>
      </trkpt>
      <trkpt lat="46.7991" lon="5.69224">
        <ele>560</ele>
        <time>2012-10-11T14:32:51Z</time>
      </trkpt>
      <trkpt lat="46.79918" lon="5.69208">
        <ele>560</ele>
        <time>2012-10-11T14:32:54Z</time>
      </trkpt>
      <trkpt lat="46.79925" lon="5.69191">
        <ele>560</ele>
        <time>2012-10-11T14:32:57Z</time>
      </trkpt>
      <trkpt lat="46.79932" lon="5.69177">
        <ele>560</ele>
        <time>2012-10-11T14:33:00Z</time>
      </trkpt>
      <trkpt lat="46.7994" lon="5.69163">
        <ele>560</ele>
        <time>2012-10-11T14:33:03Z</time>
      </trkpt>
      <trkpt lat="46.79947" lon="5.69149">
        <ele>560</ele>
        <time>2012-10-11T14:33:06Z</time>
      </trkpt>
      <trkpt lat="46.79953" lon="5.69134">
        <ele>560</ele>
        <time>2012-10-11T14:33:09Z</time>
      </trkpt>
      <trkpt lat="46.7996" lon="5.6912">
        <ele>566</ele>
        <time>2012-10-11T14:33:12Z</time>
      </trkpt>
      <trkpt lat="46.79966" lon="5.69106">
        <ele>566</ele>
        <time>2012-10-11T14:33:15Z</time>
      </trkpt>
      <trkpt lat="46.79973" lon="5.69094">
        <ele>566</ele>
        <time>2012-10-11T14:33:18Z</time>
      </trkpt>
      <trkpt lat="46.79979" lon="5.69081">
        <ele>566</ele>
        <time>2012-10-11T14:33:21Z</time>
      </trkpt>
      <trkpt lat="46.79985" lon="5.69068">
        <ele>566</ele>
        <time>2012-10-11T14:33:24Z</time>
      </trkpt>
      <trkpt lat="46.79991" lon="5.69056">
        <ele>566</ele>
        <time>2012-10-11T14:33:27Z</time>
      </trkpt>
      <trkpt lat="46.79998" lon="5.69043">
        <ele>566</ele>
        <time>2012-10-11T14:33:30Z</time>
      </trkpt>
      <trkpt lat="46.80003" lon="5.6903">
        <ele>566</ele>
        <time>2012-10-11T14:33:33Z</time>
      </trkpt>
      <trkpt lat="46.80008" lon="5.69015">
        <ele>566</ele>
        <time>2012-10-11T14:33:36Z</time>
      </trkpt>
      <trkpt lat="46.80014" lon="5.69001">
        <ele>571</ele>
        <time>2012-10-11T14:33:39Z</time>
      </trkpt>
      <trkpt lat="46.80019" lon="5.68986">
        <ele>571</ele>
        <time>2012-10-11T14:33:42Z</time>
      </trkpt>
      <trkpt lat="46.80024" lon="5.68971">
        <ele>571</ele>
        <time>2012-10-11T14:33:45Z</time>
      </trkpt>
      <trkpt lat="46.8003" lon="5.68957">
        <ele>571</ele>
        <time>2012-10-11T14:33:48Z</time>
      </trkpt>
      <trkpt lat="46.80034" lon="5.68942">
        <ele>571</ele>
        <time>2012-10-11T14:33:51Z</time>
      </trkpt>
      <trkpt lat="46.80038" lon="5.68926">
        <ele>571</ele>
        <time>2012-10-11T14:33:54Z</time>
      </trkpt>
      <trkpt lat="46.80041" lon="5.68911">
        <ele>571</ele>
        <time>2012-10-11T14:33:57Z</time>
      </trkpt>
      <trkpt lat="46.80043" lon="5.68895">
        <ele>571</ele>
        <time>2012-10-11T14:34:00Z</time>
      </trkpt>
      <trkpt lat="46.80045" lon="5.68879">
        <ele>571</ele>
        <time>2012-10-11T14:34:03Z</time>
      </trkpt>
      <trkpt lat="46.80048" lon="5.68864">
        <ele>571</ele>
        <time>2012-10-11T14:34:06Z</time>
      </trkpt>
      <trkpt lat="46.8005" lon="5.68848">
        <ele>571</ele>
        <time>2012-10-11T14:34:09Z</time>
      </trkpt>
      <trkpt lat="46.80052" lon="5.68833">
        <ele>571</ele>
        <time>2012-10-11T14:34:12Z</time>
      </trkpt>
      <trkpt lat="46.80055" lon="5.68818">
        <ele>571</ele>
        <time>2012-10-11T14:34:15Z</time>
      </trkpt>
      <trkpt lat="46.80057" lon="5.68803">
        <ele>576</ele>
        <time>2012-10-11T14:34:18Z</time>
      </trkpt>
      <trkpt lat="46.8006" lon="5.68788">
        <ele>576</ele>
        <time>2012-10-11T14:34:21Z</time>
      </trkpt>
      <trkpt lat="46.80062" lon="5.68772">
        <ele>576</ele>
        <time>2012-10-11T14:34:24Z</time>
      </trkpt>
      <trkpt lat="46.80064" lon="5.68756">
        <ele>576</ele>
        <time>2012-10-11T14:34:27Z</time>
      </trkpt>
      <trkpt lat="46.80066" lon="5.6874">
        <ele>576</ele>
        <time>2012-10-11T14:34:30Z</time>
      </trkpt>
      <trkpt lat="46.80069" lon="5.68723">
        <ele>576</ele>
        <time>2012-10-11T14:34:33Z</time>
      </trkpt>
      <trkpt lat="46.80071" lon="5.68706">
        <ele>576</ele>
        <time>2012-10-11T14:34:36Z</time>
      </trkpt>
      <trkpt lat="46.80074" lon="5.68689">
        <ele>576</ele>
        <time>2012-10-11T14:34:39Z</time>
      </trkpt>
      <trkpt lat="46.80076" lon="5.68671">
        <ele>576</ele>
        <time>2012-10-11T14:34:42Z</time>
      </trkpt>
      <trkpt lat="46.80078" lon="5.68655">
        <ele>576</ele>
        <time>2012-10-11T14:34:45Z</time>
      </trkpt>
      <trkpt lat="46.8008" lon="5.6864">
        <ele>582</ele>
        <time>2012-10-11T14:34:48Z</time>
      </trkpt>
      <trkpt lat="46.80085" lon="5.68626">
        <ele>582</ele>
        <time>2012-10-11T14:34:51Z</time>
      </trkpt>
      <trkpt lat="46.80089" lon="5.68611">
        <ele>582</ele>
        <time>2012-10-11T14:34:54Z</time>
      </trkpt>
      <trkpt lat="46.80095" lon="5.68599">
        <ele>582</ele>
        <time>2012-10-11T14:34:57Z</time>
      </trkpt>
      <trkpt lat="46.80103" lon="5.68588">
        <ele>582</ele>
        <time>2012-10-11T14:35:00Z</time>
      </trkpt>
      <trkpt lat="46.80114" lon="5.68579">
        <ele>582</ele>
        <time>2012-10-11T14:35:03Z</time>
      </trkpt>
      <trkpt lat="46.80121" lon="5.68571">
        <ele>582</ele>
        <time>2012-10-11T14:35:05Z</time>
      </trkpt>
      <trkpt lat="46.80131" lon="5.68563">
        <ele>582</ele>
        <time>2012-10-11T14:35:07Z</time>
      </trkpt>
      <trkpt lat="46.80141" lon="5.68551">
        <ele>582</ele>
        <time>2012-10-11T14:35:09Z</time>
      </trkpt>
      <trkpt lat="46.80152" lon="5.6854">
        <ele>582</ele>
        <time>2012-10-11T14:35:11Z</time>
      </trkpt>
      <trkpt lat="46.80164" lon="5.68529">
        <ele>582</ele>
        <time>2012-10-11T14:35:13Z</time>
      </trkpt>
      <trkpt lat="46.80175" lon="5.68518">
        <ele>582</ele>
        <time>2012-10-11T14:35:15Z</time>
      </trkpt>
      <trkpt lat="46.80183" lon="5.68511">
        <ele>582</ele>
        <time>2012-10-11T14:35:17Z</time>
      </trkpt>
      <trkpt lat="46.80192" lon="5.68503">
        <ele>582</ele>
        <time>2012-10-11T14:35:19Z</time>
      </trkpt>
      <trkpt lat="46.80203" lon="5.68494">
        <ele>576</ele>
        <time>2012-10-11T14:35:21Z</time>
      </trkpt>
      <trkpt lat="46.80212" lon="5.68487">
        <ele>576</ele>
        <time>2012-10-11T14:35:23Z</time>
      </trkpt>
      <trkpt lat="46.80221" lon="5.68482">
        <ele>576</ele>
        <time>2012-10-11T14:35:25Z</time>
      </trkpt>
      <trkpt lat="46.8023" lon="5.68476">
        <ele>576</ele>
        <time>2012-10-11T14:35:27Z</time>
      </trkpt>
      <trkpt lat="46.80239" lon="5.6847">
        <ele>576</ele>
        <time>2012-10-11T14:35:29Z</time>
      </trkpt>
      <trkpt lat="46.8025" lon="5.68464">
        <ele>576</ele>
        <time>2012-10-11T14:35:31Z</time>
      </trkpt>
      <trkpt lat="46.80261" lon="5.68458">
        <ele>571</ele>
        <time>2012-10-11T14:35:33Z</time>
      </trkpt>
      <trkpt lat="46.80273" lon="5.68451">
        <ele>571</ele>
        <time>2012-10-11T14:35:35Z</time>
      </trkpt>
      <trkpt lat="46.80285" lon="5.68446">
        <ele>571</ele>
        <time>2012-10-11T14:35:37Z</time>
      </trkpt>
      <trkpt lat="46.80298" lon="5.68442">
        <ele>571</ele>
        <time>2012-10-11T14:35:39Z</time>
      </trkpt>
      <trkpt lat="46.80312" lon="5.68439">
        <ele>571</ele>
        <time>2012-10-11T14:35:41Z</time>
      </trkpt>
      <trkpt lat="46.80326" lon="5.68434">
        <ele>571</ele>
        <time>2012-10-11T14:35:43Z</time>
      </trkpt>
      <trkpt lat="46.8034" lon="5.68428">
        <ele>571</ele>
        <time>2012-10-11T14:35:45Z</time>
      </trkpt>
      <trkpt lat="46.80353" lon="5.68419">
        <ele>571</ele>
        <time>2012-10-11T14:35:47Z</time>
      </trkpt>
      <trkpt lat="46.80366" lon="5.6841">
        <ele>565</ele>
        <time>2012-10-11T14:35:49Z</time>
      </trkpt>
      <trkpt lat="46.80378" lon="5.684">
        <ele>565</ele>
        <time>2012-10-11T14:35:51Z</time>
      </trkpt>
      <trkpt lat="46.8039" lon="5.6839">
        <ele>565</ele>
        <time>2012-10-11T14:35:53Z</time>
      </trkpt>
      <trkpt lat="46.80402" lon="5.68382">
        <ele>565</ele>
        <time>2012-10-11T14:35:55Z</time>
      </trkpt>
      <trkpt lat="46.80415" lon="5.68378">
        <ele>565</ele>
        <time>2012-10-11T14:35:57Z</time>
      </trkpt>
      <trkpt lat="46.8043" lon="5.68376">
        <ele>565</ele>
        <time>2012-10-11T14:35:59Z</time>
      </trkpt>
      <trkpt lat="46.80446" lon="5.68379">
        <ele>565</ele>
        <time>2012-10-11T14:36:01Z</time>
      </trkpt>
      <trkpt lat="46.80462" lon="5.68384">
        <ele>565</ele>
        <time>2012-10-11T14:36:03Z</time>
      </trkpt>
      <trkpt lat="46.80478" lon="5.68387">
        <ele>559</ele>
        <time>2012-10-11T14:36:05Z</time>
      </trkpt>
      <trkpt lat="46.80495" lon="5.68391">
        <ele>559</ele>
        <time>2012-10-11T14:36:07Z</time>
      </trkpt>
      <trkpt lat="46.80512" lon="5.68395">
        <ele>559</ele>
        <time>2012-10-11T14:36:09Z</time>
      </trkpt>
      <trkpt lat="46.80528" lon="5.68397">
        <ele>559</ele>
        <time>2012-10-11T14:36:11Z</time>
      </trkpt>
      <trkpt lat="46.80544" lon="5.68399">
        <ele>559</ele>
        <time>2012-10-11T14:36:13Z</time>
      </trkpt>
      <trkpt lat="46.8056" lon="5.68401">
        <ele>559</ele>
        <time>2012-10-11T14:36:15Z</time>
      </trkpt>
      <trkpt lat="46.80576" lon="5.68404">
        <ele>559</ele>
        <time>2012-10-11T14:36:17Z</time>
      </trkpt>
      <trkpt lat="46.80591" lon="5.68405">
        <ele>559</ele>
        <time>2012-10-11T14:36:19Z</time>
      </trkpt>
      <trkpt lat="46.80607" lon="5.68405">
        <ele>559</ele>
        <time>2012-10-11T14:36:21Z</time>
      </trkpt>
      <trkpt lat="46.80624" lon="5.68406">
        <ele>559</ele>
        <time>2012-10-11T14:36:23Z</time>
      </trkpt>
      <trkpt lat="46.80641" lon="5.68407">
        <ele>554</ele>
        <time>2012-10-11T14:36:25Z</time>
      </trkpt>
      <trkpt lat="46.80657" lon="5.68407">
        <ele>554</ele>
        <time>2012-10-11T14:36:27Z</time>
      </trkpt>
      <trkpt lat="46.80673" lon="5.68408">
        <ele>554</ele>
        <time>2012-10-11T14:36:29Z</time>
      </trkpt>
      <trkpt lat="46.8069" lon="5.68409">
        <ele>554</ele>
        <time>2012-10-11T14:36:31Z</time>
      </trkpt>
      <trkpt lat="46.80705" lon="5.68411">
        <ele>554</ele>
        <time>2012-10-11T14:36:33Z</time>
      </trkpt>
      <trkpt lat="46.80722" lon="5.68413">
        <ele>554</ele>
        <time>2012-10-11T14:36:35Z</time>
      </trkpt>
      <trkpt lat="46.80738" lon="5.68415">
        <ele>554</ele>
        <time>2012-10-11T14:36:37Z</time>
      </trkpt>
      <trkpt lat="46.80755" lon="5.68418">
        <ele>554</ele>
        <time>2012-10-11T14:36:39Z</time>
      </trkpt>
      <trkpt lat="46.80771" lon="5.68423">
        <ele>554</ele>
        <time>2012-10-11T14:36:41Z</time>
      </trkpt>
      <trkpt lat="46.8078" lon="5.68427">
        <ele>549</ele>
        <time>2012-10-11T14:36:42Z</time>
      </trkpt>
      <trkpt lat="46.80789" lon="5.68431">
        <ele>549</ele>
        <time>2012-10-11T14:36:43Z</time>
      </trkpt>
      <trkpt lat="46.80797" lon="5.68436">
        <ele>549</ele>
        <time>2012-10-11T14:36:44Z</time>
      </trkpt>
      <trkpt lat="46.80806" lon="5.6844">
        <ele>549</ele>
        <time>2012-10-11T14:36:45Z</time>
      </trkpt>
      <trkpt lat="46.80816" lon="5.68446">
        <ele>549</ele>
        <time>2012-10-11T14:36:46Z</time>
      </trkpt>
      <trkpt lat="46.80826" lon="5.68452">
        <ele>549</ele>
        <time>2012-10-11T14:36:47Z</time>
      </trkpt>
      <trkpt lat="46.80835" lon="5.68458">
        <ele>549</ele>
        <time>2012-10-11T14:36:48Z</time>
      </trkpt>
      <trkpt lat="46.80845" lon="5.68464">
        <ele>549</ele>
        <time>2012-10-11T14:36:49Z</time>
      </trkpt>
      <trkpt lat="46.80856" lon="5.68471">
        <ele>549</ele>
        <time>2012-10-11T14:36:50Z</time>
      </trkpt>
      <trkpt lat="46.80866" lon="5.68479">
        <ele>549</ele>
        <time>2012-10-11T14:36:51Z</time>
      </trkpt>
      <trkpt lat="46.80876" lon="5.68487">
        <ele>549</ele>
        <time>2012-10-11T14:36:52Z</time>
      </trkpt>
      <trkpt lat="46.80887" lon="5.68497">
        <ele>549</ele>
        <time>2012-10-11T14:36:53Z</time>
      </trkpt>
      <trkpt lat="46.80897" lon="5.68506">
        <ele>544</ele>
        <time>2012-10-11T14:36:54Z</time>
      </trkpt>
      <trkpt lat="46.80907" lon="5.68515">
        <ele>544</ele>
        <time>2012-10-11T14:36:55Z</time>
      </trkpt>
      <trkpt lat="46.80918" lon="5.68525">
        <ele>544</ele>
        <time>2012-10-11T14:36:56Z</time>
      </trkpt>
      <trkpt lat="46.80929" lon="5.68537">
        <ele>544</ele>
        <time>2012-10-11T14:36:57Z</time>
      </trkpt>
      <trkpt lat="46.8094" lon="5.68548">
        <ele>544</ele>
        <time>2012-10-11T14:36:58Z</time>
      </trkpt>
      <trkpt lat="46.80951" lon="5.68557">
        <ele>538</ele>
        <time>2012-10-11T14:36:59Z</time>
      </trkpt>
      <trkpt lat="46.8096" lon="5.68566">
        <ele>538</ele>
        <time>2012-10-11T14:37:00Z</time>
      </trkpt>
      <trkpt lat="46.80969" lon="5.68573">
        <ele>538</ele>
        <time>2012-10-11T14:37:01Z</time>
      </trkpt>
      <trkpt lat="46.80978" lon="5.68582">
        <ele>538</ele>
        <time>2012-10-11T14:37:02Z</time>
      </trkpt>
      <trkpt lat="46.80987" lon="5.68591">
        <ele>538</ele>
        <time>2012-10-11T14:37:03Z</time>
      </trkpt>
      <trkpt lat="46.80996" lon="5.68602">
        <ele>538</ele>
        <time>2012-10-11T14:37:04Z</time>
      </trkpt>
      <trkpt lat="46.81006" lon="5.68612">
        <ele>538</ele>
        <time>2012-10-11T14:37:05Z</time>
      </trkpt>
      <trkpt lat="46.81016" lon="5.6862">
        <ele>538</ele>
        <time>2012-10-11T14:37:06Z</time>
      </trkpt>
      <trkpt lat="46.81025" lon="5.68629">
        <ele>532</ele>
        <time>2012-10-11T14:37:07Z</time>
      </trkpt>
      <trkpt lat="46.81033" lon="5.68638">
        <ele>532</ele>
        <time>2012-10-11T14:37:08Z</time>
      </trkpt>
      <trkpt lat="46.81041" lon="5.68646">
        <ele>532</ele>
        <time>2012-10-11T14:37:09Z</time>
      </trkpt>
      <trkpt lat="46.8105" lon="5.68652">
        <ele>532</ele>
        <time>2012-10-11T14:37:10Z</time>
      </trkpt>
      <trkpt lat="46.8106" lon="5.68659">
        <ele>532</ele>
        <time>2012-10-11T14:37:11Z</time>
      </trkpt>
      <trkpt lat="46.81071" lon="5.68665">
        <ele>532</ele>
        <time>2012-10-11T14:37:12Z</time>
      </trkpt>
      <trkpt lat="46.81083" lon="5.6867">
        <ele>532</ele>
        <time>2012-10-11T14:37:13Z</time>
      </trkpt>
      <trkpt lat="46.81095" lon="5.68676">
        <ele>532</ele>
        <time>2012-10-11T14:37:14Z</time>
      </trkpt>
      <trkpt lat="46.81109" lon="5.68683">
        <ele>526</ele>
        <time>2012-10-11T14:37:15Z</time>
      </trkpt>
      <trkpt lat="46.81122" lon="5.68689">
        <ele>526</ele>
        <time>2012-10-11T14:37:16Z</time>
      </trkpt>
      <trkpt lat="46.81135" lon="5.68696">
        <ele>526</ele>
        <time>2012-10-11T14:37:17Z</time>
      </trkpt>
      <trkpt lat="46.81148" lon="5.68701">
        <ele>526</ele>
        <time>2012-10-11T14:37:18Z</time>
      </trkpt>
      <trkpt lat="46.81161" lon="5.68706">
        <ele>526</ele>
        <time>2012-10-11T14:37:19Z</time>
      </trkpt>
      <trkpt lat="46.81173" lon="5.68711">
        <ele>526</ele>
        <time>2012-10-11T14:37:20Z</time>
      </trkpt>
      <trkpt lat="46.81186" lon="5.68717">
        <ele>526</ele>
        <time>2012-10-11T14:37:21Z</time>
      </trkpt>
      <trkpt lat="46.81199" lon="5.68725">
        <ele>520</ele>
        <time>2012-10-11T14:37:22Z</time>
      </trkpt>
      <trkpt lat="46.81212" lon="5.68732">
        <ele>520</ele>
        <time>2012-10-11T14:37:23Z</time>
      </trkpt>
      <trkpt lat="46.81225" lon="5.68741">
        <ele>520</ele>
        <time>2012-10-11T14:37:24Z</time>
      </trkpt>
      <trkpt lat="46.81238" lon="5.68748">
        <ele>520</ele>
        <time>2012-10-11T14:37:25Z</time>
      </trkpt>
      <trkpt lat="46.81251" lon="5.68756">
        <ele>515</ele>
        <time>2012-10-11T14:37:26Z</time>
      </trkpt>
      <trkpt lat="46.81264" lon="5.68763">
        <ele>515</ele>
        <time>2012-10-11T14:37:27Z</time>
      </trkpt>
      <trkpt lat="46.81277" lon="5.68769">
        <ele>515</ele>
        <time>2012-10-11T14:37:28Z</time>
      </trkpt>
      <trkpt lat="46.81291" lon="5.68776">
        <ele>515</ele>
        <time>2012-10-11T14:37:29Z</time>
      </trkpt>
      <trkpt lat="46.81303" lon="5.68784">
        <ele>515</ele>
        <time>2012-10-11T14:37:30Z</time>
      </trkpt>
      <trkpt lat="46.81316" lon="5.68791">
        <ele>509</ele>
        <time>2012-10-11T14:37:31Z</time>
      </trkpt>
      <trkpt lat="46.81328" lon="5.68798">
        <ele>509</ele>
        <time>2012-10-11T14:37:32Z</time>
      </trkpt>
      <trkpt lat="46.81341" lon="5.68805">
        <ele>509</ele>
        <time>2012-10-11T14:37:33Z</time>
      </trkpt>
      <trkpt lat="46.81354" lon="5.68812">
        <ele>509</ele>
        <time>2012-10-11T14:37:34Z</time>
      </trkpt>
      <trkpt lat="46.81366" lon="5.68819">
        <ele>509</ele>
        <time>2012-10-11T14:37:35Z</time>
      </trkpt>
      <trkpt lat="46.81379" lon="5.68826">
        <ele>509</ele>
        <time>2012-10-11T14:37:36Z</time>
      </trkpt>
      <trkpt lat="46.81392" lon="5.68833">
        <ele>509</ele>
        <time>2012-10-11T14:37:37Z</time>
      </trkpt>
      <trkpt lat="46.81404" lon="5.6884">
        <ele>504</ele>
        <time>2012-10-11T14:37:38Z</time>
      </trkpt>
      <trkpt lat="46.81417" lon="5.68847">
        <ele>504</ele>
        <time>2012-10-11T14:37:39Z</time>
      </trkpt>
      <trkpt lat="46.8143" lon="5.68855">
        <ele>504</ele>
        <time>2012-10-11T14:37:40Z</time>
      </trkpt>
      <trkpt lat="46.81443" lon="5.68861">
        <ele>504</ele>
        <time>2012-10-11T14:37:41Z</time>
      </trkpt>
      <trkpt lat="46.81456" lon="5.68868">
        <ele>504</ele>
        <time>2012-10-11T14:37:42Z</time>
      </trkpt>
      <trkpt lat="46.81469" lon="5.68875">
        <ele>504</ele>
        <time>2012-10-11T14:37:43Z</time>
      </trkpt>
      <trkpt lat="46.81481" lon="5.68883">
        <ele>499</ele>
        <time>2012-10-11T14:37:44Z</time>
      </trkpt>
      <trkpt lat="46.81494" lon="5.68891">
        <ele>499</ele>
        <time>2012-10-11T14:37:45Z</time>
      </trkpt>
      <trkpt lat="46.81505" lon="5.689">
        <ele>499</ele>
        <time>2012-10-11T14:37:46Z</time>
      </trkpt>
      <trkpt lat="46.81518" lon="5.68909">
        <ele>499</ele>
        <time>2012-10-11T14:37:47Z</time>
      </trkpt>
      <trkpt lat="46.81529" lon="5.68919">
        <ele>499</ele>
        <time>2012-10-11T14:37:48Z</time>
      </trkpt>
      <trkpt lat="46.8154" lon="5.6893">
        <ele>499</ele>
        <time>2012-10-11T14:37:49Z</time>
      </trkpt>
      <trkpt lat="46.81552" lon="5.68941">
        <ele>499</ele>
        <time>2012-10-11T14:37:50Z</time>
      </trkpt>
      <trkpt lat="46.81563" lon="5.68952">
        <ele>499</ele>
        <time>2012-10-11T14:37:51Z</time>
      </trkpt>
      <trkpt lat="46.81573" lon="5.68963">
        <ele>493</ele>
        <time>2012-10-11T14:37:52Z</time>
      </trkpt>
      <trkpt lat="46.81584" lon="5.68975">
        <ele>493</ele>
        <time>2012-10-11T14:37:53Z</time>
      </trkpt>
      <trkpt lat="46.81595" lon="5.68987">
        <ele>493</ele>
        <time>2012-10-11T14:37:54Z</time>
      </trkpt>
      <trkpt lat="46.81605" lon="5.68999">
        <ele>493</ele>
        <time>2012-10-11T14:37:55Z</time>
      </trkpt>
      <trkpt lat="46.81615" lon="5.69014">
        <ele>493</ele>
        <time>2012-10-11T14:37:56Z</time>
      </trkpt>
      <trkpt lat="46.81625" lon="5.69027">
        <ele>488</ele>
        <time>2012-10-11T14:37:57Z</time>
      </trkpt>
      <trkpt lat="46.81635" lon="5.69041">
        <ele>488</ele>
        <time>2012-10-11T14:37:58Z</time>
      </trkpt>
      <trkpt lat="46.81644" lon="5.69056">
        <ele>488</ele>
        <time>2012-10-11T14:37:59Z</time>
      </trkpt>
      <trkpt lat="46.81654" lon="5.6907">
        <ele>488</ele>
        <time>2012-10-11T14:38:00Z</time>
      </trkpt>
      <trkpt lat="46.81664" lon="5.69085">
        <ele>488</ele>
        <time>2012-10-11T14:38:01Z</time>
      </trkpt>
      <trkpt lat="46.81673" lon="5.69099">
        <ele>488</ele>
        <time>2012-10-11T14:38:02Z</time>
      </trkpt>
      <trkpt lat="46.81683" lon="5.69113">
        <ele>482</ele>
        <time>2012-10-11T14:38:03Z</time>
      </trkpt>
      <trkpt lat="46.81693" lon="5.69127">
        <ele>482</ele>
        <time>2012-10-11T14:38:04Z</time>
      </trkpt>
      <trkpt lat="46.81704" lon="5.6914">
        <ele>482</ele>
        <time>2012-10-11T14:38:05Z</time>
      </trkpt>
      <trkpt lat="46.81715" lon="5.69152">
        <ele>482</ele>
        <time>2012-10-11T14:38:06Z</time>
      </trkpt>
      <trkpt lat="46.81727" lon="5.69164">
        <ele>482</ele>
        <time>2012-10-11T14:38:07Z</time>
      </trkpt>
      <trkpt lat="46.8174" lon="5.69174">
        <ele>482</ele>
        <time>2012-10-11T14:38:08Z</time>
      </trkpt>
      <trkpt lat="46.81752" lon="5.69184">
        <ele>476</ele>
        <time>2012-10-11T14:38:09Z</time>
      </trkpt>
      <trkpt lat="46.81765" lon="5.69195">
        <ele>476</ele>
        <time>2012-10-11T14:38:10Z</time>
      </trkpt>
      <trkpt lat="46.81777" lon="5.69205">
        <ele>476</ele>
        <time>2012-10-11T14:38:11Z</time>
      </trkpt>
      <trkpt lat="46.81789" lon="5.69215">
        <ele>476</ele>
        <time>2012-10-11T14:38:12Z</time>
      </trkpt>
      <trkpt lat="46.81801" lon="5.69225">
        <ele>476</ele>
        <time>2012-10-11T14:38:13Z</time>
      </trkpt>
      <trkpt lat="46.81811" lon="5.69234">
        <ele>476</ele>
        <time>2012-10-11T14:38:14Z</time>
      </trkpt>
      <trkpt lat="46.81822" lon="5.69244">
        <ele>471</ele>
        <time>2012-10-11T14:38:15Z</time>
      </trkpt>
      <trkpt lat="46.81833" lon="5.69253">
        <ele>471</ele>
        <time>2012-10-11T14:38:16Z</time>
      </trkpt>
      <trkpt lat="46.81844" lon="5.69262">
        <ele>471</ele>
        <time>2012-10-11T14:38:17Z</time>
      </trkpt>
      <trkpt lat="46.81855" lon="5.69272">
        <ele>471</ele>
        <time>2012-10-11T14:38:18Z</time>
      </trkpt>
      <trkpt lat="46.81865" lon="5.69281">
        <ele>471</ele>
        <time>2012-10-11T14:38:19Z</time>
      </trkpt>
      <trkpt lat="46.81876" lon="5.69291">
        <ele>465</ele>
        <time>2012-10-11T14:38:20Z</time>
      </trkpt>
      <trkpt lat="46.81886" lon="5.69302">
        <ele>465</ele>
        <time>2012-10-11T14:38:21Z</time>
      </trkpt>
      <trkpt lat="46.81897" lon="5.69312">
        <ele>465</ele>
        <time>2012-10-11T14:38:22Z</time>
      </trkpt>
      <trkpt lat="46.81907" lon="5.69324">
        <ele>465</ele>
        <time>2012-10-11T14:38:23Z</time>
      </trkpt>
      <trkpt lat="46.81918" lon="5.69335">
        <ele>465</ele>
        <time>2012-10-11T14:38:24Z</time>
      </trkpt>
      <trkpt lat="46.81928" lon="5.69349">
        <ele>460</ele>
        <time>2012-10-11T14:38:25Z</time>
      </trkpt>
      <trkpt lat="46.81938" lon="5.69363">
        <ele>460</ele>
        <time>2012-10-11T14:38:26Z</time>
      </trkpt>
      <trkpt lat="46.81946" lon="5.69377">
        <ele>460</ele>
        <time>2012-10-11T14:38:27Z</time>
      </trkpt>
      <trkpt lat="46.81955" lon="5.69391">
        <ele>460</ele>
        <time>2012-10-11T14:38:28Z</time>
      </trkpt>
      <trkpt lat="46.81965" lon="5.69405">
        <ele>454</ele>
        <time>2012-10-11T14:38:29Z</time>
      </trkpt>
      <trkpt lat="46.81975" lon="5.6942">
        <ele>454</ele>
        <time>2012-10-11T14:38:30Z</time>
      </trkpt>
      <trkpt lat="46.81984" lon="5.69434">
        <ele>454</ele>
        <time>2012-10-11T14:38:31Z</time>
      </trkpt>
      <trkpt lat="46.81994" lon="5.69448">
        <ele>454</ele>
        <time>2012-10-11T14:38:32Z</time>
      </trkpt>
      <trkpt lat="46.82004" lon="5.69464">
        <ele>454</ele>
        <time>2012-10-11T14:38:33Z</time>
      </trkpt>
      <trkpt lat="46.82013" lon="5.69479">
        <ele>449</ele>
        <time>2012-10-11T14:38:34Z</time>
      </trkpt>
      <trkpt lat="46.82021" lon="5.69494">
        <ele>449</ele>
        <time>2012-10-11T14:38:35Z</time>
      </trkpt>
      <trkpt lat="46.82029" lon="5.6951">
        <ele>449</ele>
        <time>2012-10-11T14:38:36Z</time>
      </trkpt>
      <trkpt lat="46.82036" lon="5.69527">
        <ele>449</ele>
        <time>2012-10-11T14:38:37Z</time>
      </trkpt>
      <trkpt lat="46.82044" lon="5.69544">
        <ele>449</ele>
        <time>2012-10-11T14:38:38Z</time>
      </trkpt>
      <trkpt lat="46.82051" lon="5.6956">
        <ele>449</ele>
        <time>2012-10-11T14:38:39Z</time>
      </trkpt>
      <trkpt lat="46.82057" lon="5.69576">
        <ele>443</ele>
        <time>2012-10-11T14:38:40Z</time>
      </trkpt>
      <trkpt lat="46.82065" lon="5.69592">
        <ele>443</ele>
        <time>2012-10-11T14:38:41Z</time>
      </trkpt>
      <trkpt lat="46.82071" lon="5.69607">
        <ele>443</ele>
        <time>2012-10-11T14:38:42Z</time>
      </trkpt>
      <trkpt lat="46.82078" lon="5.69624">
        <ele>443</ele>
        <time>2012-10-11T14:38:43Z</time>
      </trkpt>
      <trkpt lat="46.82085" lon="5.69641">
        <ele>443</ele>
        <time>2012-10-11T14:38:44Z</time>
      </trkpt>
      <trkpt lat="46.82092" lon="5.69657">
        <ele>443</ele>
        <time>2012-10-11T14:38:45Z</time>
      </trkpt>
      <trkpt lat="46.82098" lon="5.69673">
        <ele>443</ele>
        <time>2012-10-11T14:38:46Z</time>
      </trkpt>
      <trkpt lat="46.82104" lon="5.69689">
        <ele>443</ele>
        <time>2012-10-11T14:38:47Z</time>
      </trkpt>
      <trkpt lat="46.8211" lon="5.69704">
        <ele>437</ele>
        <time>2012-10-11T14:38:48Z</time>
      </trkpt>
      <trkpt lat="46.82115" lon="5.69719">
        <ele>437</ele>
        <time>2012-10-11T14:38:49Z</time>
      </trkpt>
      <trkpt lat="46.8212" lon="5.69734">
        <ele>437</ele>
        <time>2012-10-11T14:38:50Z</time>
      </trkpt>
      <trkpt lat="46.82126" lon="5.69748">
        <ele>437</ele>
        <time>2012-10-11T14:38:51Z</time>
      </trkpt>
      <trkpt lat="46.8213" lon="5.69763">
        <ele>437</ele>
        <time>2012-10-11T14:38:52Z</time>
      </trkpt>
      <trkpt lat="46.82134" lon="5.69778">
        <ele>437</ele>
        <time>2012-10-11T14:38:53Z</time>
      </trkpt>
      <trkpt lat="46.82138" lon="5.69792">
        <ele>437</ele>
        <time>2012-10-11T14:38:54Z</time>
      </trkpt>
      <trkpt lat="46.82141" lon="5.69806">
        <ele>432</ele>
        <time>2012-10-11T14:38:55Z</time>
      </trkpt>
      <trkpt lat="46.82144" lon="5.69819">
        <ele>432</ele>
        <time>2012-10-11T14:38:56Z</time>
      </trkpt>
      <trkpt lat="46.82147" lon="5.69832">
        <ele>432</ele>
        <time>2012-10-11T14:38:57Z</time>
      </trkpt>
      <trkpt lat="46.82152" lon="5.69845">
        <ele>432</ele>
        <time>2012-10-11T14:38:58Z</time>
      </trkpt>
      <trkpt lat="46.82156" lon="5.69857">
        <ele>432</ele>
        <time>2012-10-11T14:38:59Z</time>
      </trkpt>
      <trkpt lat="46.82163" lon="5.69868">
        <ele>432</ele>
        <time>2012-10-11T14:39:00Z</time>
      </trkpt>
      <trkpt lat="46.82177" lon="5.69885">
        <ele>432</ele>
        <time>2012-10-11T14:39:02Z</time>
      </trkpt>
      <trkpt lat="46.82185" lon="5.69892">
        <ele>427</ele>
        <time>2012-10-11T14:39:03Z</time>
      </trkpt>
      <trkpt lat="46.82194" lon="5.69898">
        <ele>427</ele>
        <time>2012-10-11T14:39:04Z</time>
      </trkpt>
      <trkpt lat="46.82204" lon="5.69902">
        <ele>427</ele>
        <time>2012-10-11T14:39:05Z</time>
      </trkpt>
      <trkpt lat="46.82214" lon="5.69905">
        <ele>427</ele>
        <time>2012-10-11T14:39:06Z</time>
      </trkpt>
      <trkpt lat="46.8223" lon="5.69912">
        <ele>427</ele>
        <time>2012-10-11T14:39:08Z</time>
      </trkpt>
      <trkpt lat="46.8224" lon="5.69916">
        <ele>427</ele>
        <time>2012-10-11T14:39:09Z</time>
      </trkpt>
      <trkpt lat="46.82249" lon="5.69922">
        <ele>427</ele>
        <time>2012-10-11T14:39:10Z</time>
      </trkpt>
      <trkpt lat="46.82256" lon="5.69931">
        <ele>427</ele>
        <time>2012-10-11T14:39:11Z</time>
      </trkpt>
      <trkpt lat="46.82269" lon="5.69948">
        <ele>427</ele>
        <time>2012-10-11T14:39:13Z</time>
      </trkpt>
      <trkpt lat="46.82282" lon="5.69966">
        <ele>427</ele>
        <time>2012-10-11T14:39:15Z</time>
      </trkpt>
      <trkpt lat="46.82291" lon="5.69976">
        <ele>427</ele>
        <time>2012-10-11T14:39:16Z</time>
      </trkpt>
      <trkpt lat="46.82299" lon="5.69985">
        <ele>427</ele>
        <time>2012-10-11T14:39:17Z</time>
      </trkpt>
      <trkpt lat="46.82309" lon="5.69992">
        <ele>427</ele>
        <time>2012-10-11T14:39:18Z</time>
      </trkpt>
      <trkpt lat="46.82319" lon="5.69995">
        <ele>427</ele>
        <time>2012-10-11T14:39:19Z</time>
      </trkpt>
      <trkpt lat="46.82331" lon="5.7">
        <ele>427</ele>
        <time>2012-10-11T14:39:20Z</time>
      </trkpt>
      <trkpt lat="46.82341" lon="5.70004">
        <ele>427</ele>
        <time>2012-10-11T14:39:21Z</time>
      </trkpt>
      <trkpt lat="46.82353" lon="5.70009">
        <ele>427</ele>
        <time>2012-10-11T14:39:22Z</time>
      </trkpt>
      <trkpt lat="46.82365" lon="5.70016">
        <ele>421</ele>
        <time>2012-10-11T14:39:23Z</time>
      </trkpt>
      <trkpt lat="46.82377" lon="5.70023">
        <ele>421</ele>
        <time>2012-10-11T14:39:24Z</time>
      </trkpt>
      <trkpt lat="46.82389" lon="5.70031">
        <ele>421</ele>
        <time>2012-10-11T14:39:25Z</time>
      </trkpt>
      <trkpt lat="46.82401" lon="5.70037">
        <ele>421</ele>
        <time>2012-10-11T14:39:26Z</time>
      </trkpt>
      <trkpt lat="46.82413" lon="5.70044">
        <ele>415</ele>
        <time>2012-10-11T14:39:27Z</time>
      </trkpt>
      <trkpt lat="46.82425" lon="5.70051">
        <ele>415</ele>
        <time>2012-10-11T14:39:28Z</time>
      </trkpt>
      <trkpt lat="46.82438" lon="5.70059">
        <ele>415</ele>
        <time>2012-10-11T14:39:29Z</time>
      </trkpt>
      <trkpt lat="46.82451" lon="5.70066">
        <ele>410</ele>
        <time>2012-10-11T14:39:30Z</time>
      </trkpt>
      <trkpt lat="46.82463" lon="5.70072">
        <ele>410</ele>
        <time>2012-10-11T14:39:31Z</time>
      </trkpt>
      <trkpt lat="46.82475" lon="5.70078">
        <ele>410</ele>
        <time>2012-10-11T14:39:32Z</time>
      </trkpt>
      <trkpt lat="46.82486" lon="5.70083">
        <ele>410</ele>
        <time>2012-10-11T14:39:33Z</time>
      </trkpt>
      <trkpt lat="46.82497" lon="5.70086">
        <ele>410</ele>
        <time>2012-10-11T14:39:34Z</time>
      </trkpt>
      <trkpt lat="46.82509" lon="5.70088">
        <ele>404</ele>
        <time>2012-10-11T14:39:35Z</time>
      </trkpt>
      <trkpt lat="46.82522" lon="5.70087">
        <ele>404</ele>
        <time>2012-10-11T14:39:36Z</time>
      </trkpt>
      <trkpt lat="46.82534" lon="5.70084">
        <ele>404</ele>
        <time>2012-10-11T14:39:37Z</time>
      </trkpt>
      <trkpt lat="46.82547" lon="5.70082">
        <ele>404</ele>
        <time>2012-10-11T14:39:38Z</time>
      </trkpt>
      <trkpt lat="46.82559" lon="5.70079">
        <ele>404</ele>
        <time>2012-10-11T14:39:39Z</time>
      </trkpt>
      <trkpt lat="46.82572" lon="5.70076">
        <ele>399</ele>
        <time>2012-10-11T14:39:40Z</time>
      </trkpt>
      <trkpt lat="46.82584" lon="5.70075">
        <ele>399</ele>
        <time>2012-10-11T14:39:41Z</time>
      </trkpt>
      <trkpt lat="46.82597" lon="5.70074">
        <ele>399</ele>
        <time>2012-10-11T14:39:42Z</time>
      </trkpt>
      <trkpt lat="46.8261" lon="5.70073">
        <ele>399</ele>
        <time>2012-10-11T14:39:43Z</time>
      </trkpt>
      <trkpt lat="46.82623" lon="5.70071">
        <ele>399</ele>
        <time>2012-10-11T14:39:44Z</time>
      </trkpt>
      <trkpt lat="46.82635" lon="5.70071">
        <ele>393</ele>
        <time>2012-10-11T14:39:45Z</time>
      </trkpt>
      <trkpt lat="46.82647" lon="5.70072">
        <ele>393</ele>
        <time>2012-10-11T14:39:46Z</time>
      </trkpt>
      <trkpt lat="46.8266" lon="5.70074">
        <ele>393</ele>
        <time>2012-10-11T14:39:47Z</time>
      </trkpt>
      <trkpt lat="46.82672" lon="5.70076">
        <ele>393</ele>
        <time>2012-10-11T14:39:48Z</time>
      </trkpt>
      <trkpt lat="46.82684" lon="5.7008">
        <ele>393</ele>
        <time>2012-10-11T14:39:49Z</time>
      </trkpt>
      <trkpt lat="46.82696" lon="5.70084">
        <ele>393</ele>
        <time>2012-10-11T14:39:50Z</time>
      </trkpt>
      <trkpt lat="46.82707" lon="5.70087">
        <ele>387</ele>
        <time>2012-10-11T14:39:51Z</time>
      </trkpt>
      <trkpt lat="46.82718" lon="5.70092">
        <ele>387</ele>
        <time>2012-10-11T14:39:52Z</time>
      </trkpt>
      <trkpt lat="46.82729" lon="5.70097">
        <ele>387</ele>
        <time>2012-10-11T14:39:53Z</time>
      </trkpt>
      <trkpt lat="46.8274" lon="5.70103">
        <ele>387</ele>
        <time>2012-10-11T14:39:54Z</time>
      </trkpt>
      <trkpt lat="46.8275" lon="5.7011">
        <ele>387</ele>
        <time>2012-10-11T14:39:55Z</time>
      </trkpt>
      <trkpt lat="46.8276" lon="5.70119">
        <ele>387</ele>
        <time>2012-10-11T14:39:56Z</time>
      </trkpt>
      <trkpt lat="46.82769" lon="5.70128">
        <ele>387</ele>
        <time>2012-10-11T14:39:57Z</time>
      </trkpt>
      <trkpt lat="46.82779" lon="5.70137">
        <ele>382</ele>
        <time>2012-10-11T14:39:58Z</time>
      </trkpt>
      <trkpt lat="46.82788" lon="5.70147">
        <ele>382</ele>
        <time>2012-10-11T14:39:59Z</time>
      </trkpt>
      <trkpt lat="46.82798" lon="5.70158">
        <ele>382</ele>
        <time>2012-10-11T14:40:00Z</time>
      </trkpt>
      <trkpt lat="46.82807" lon="5.70169">
        <ele>382</ele>
        <time>2012-10-11T14:40:01Z</time>
      </trkpt>
      <trkpt lat="46.82816" lon="5.70181">
        <ele>382</ele>
        <time>2012-10-11T14:40:02Z</time>
      </trkpt>
      <trkpt lat="46.82825" lon="5.70192">
        <ele>382</ele>
        <time>2012-10-11T14:40:03Z</time>
      </trkpt>
      <trkpt lat="46.82835" lon="5.70204">
        <ele>382</ele>
        <time>2012-10-11T14:40:04Z</time>
      </trkpt>
      <trkpt lat="46.82845" lon="5.70216">
        <ele>376</ele>
        <time>2012-10-11T14:40:05Z</time>
      </trkpt>
      <trkpt lat="46.82856" lon="5.70225">
        <ele>376</ele>
        <time>2012-10-11T14:40:06Z</time>
      </trkpt>
      <trkpt lat="46.82866" lon="5.70235">
        <ele>376</ele>
        <time>2012-10-11T14:40:07Z</time>
      </trkpt>
      <trkpt lat="46.82877" lon="5.70244">
        <ele>376</ele>
        <time>2012-10-11T14:40:08Z</time>
      </trkpt>
      <trkpt lat="46.82888" lon="5.70252">
        <ele>376</ele>
        <time>2012-10-11T14:40:09Z</time>
      </trkpt>
      <trkpt lat="46.82898" lon="5.7026">
        <ele>376</ele>
        <time>2012-10-11T14:40:10Z</time>
      </trkpt>
      <trkpt lat="46.82908" lon="5.70269">
        <ele>371</ele>
        <time>2012-10-11T14:40:11Z</time>
      </trkpt>
      <trkpt lat="46.82917" lon="5.70279">
        <ele>371</ele>
        <time>2012-10-11T14:40:12Z</time>
      </trkpt>
      <trkpt lat="46.82926" lon="5.7029">
        <ele>371</ele>
        <time>2012-10-11T14:40:13Z</time>
      </trkpt>
      <trkpt lat="46.82935" lon="5.70302">
        <ele>371</ele>
        <time>2012-10-11T14:40:14Z</time>
      </trkpt>
      <trkpt lat="46.82943" lon="5.70314">
        <ele>371</ele>
        <time>2012-10-11T14:40:15Z</time>
      </trkpt>
      <trkpt lat="46.82952" lon="5.70327">
        <ele>371</ele>
        <time>2012-10-11T14:40:16Z</time>
      </trkpt>
      <trkpt lat="46.8296" lon="5.7034">
        <ele>371</ele>
        <time>2012-10-11T14:40:17Z</time>
      </trkpt>
      <trkpt lat="46.82969" lon="5.70353">
        <ele>365</ele>
        <time>2012-10-11T14:40:18Z</time>
      </trkpt>
      <trkpt lat="46.82978" lon="5.70366">
        <ele>365</ele>
        <time>2012-10-11T14:40:19Z</time>
      </trkpt>
      <trkpt lat="46.82986" lon="5.70379">
        <ele>365</ele>
        <time>2012-10-11T14:40:20Z</time>
      </trkpt>
      <trkpt lat="46.82995" lon="5.70393">
        <ele>365</ele>
        <time>2012-10-11T14:40:21Z</time>
      </trkpt>
      <trkpt lat="46.83004" lon="5.70407">
        <ele>365</ele>
        <time>2012-10-11T14:40:22Z</time>
      </trkpt>
      <trkpt lat="46.83011" lon="5.70421">
        <ele>365</ele>
        <time>2012-10-11T14:40:23Z</time>
      </trkpt>
      <trkpt lat="46.83018" lon="5.70435">
        <ele>359</ele>
        <time>2012-10-11T14:40:24Z</time>
      </trkpt>
      <trkpt lat="46.83025" lon="5.70449">
        <ele>359</ele>
        <time>2012-10-11T14:40:25Z</time>
      </trkpt>
      <trkpt lat="46.83031" lon="5.70463">
        <ele>359</ele>
        <time>2012-10-11T14:40:26Z</time>
      </trkpt>
      <trkpt lat="46.83038" lon="5.70479">
        <ele>359</ele>
        <time>2012-10-11T14:40:27Z</time>
      </trkpt>
      <trkpt lat="46.83045" lon="5.70492">
        <ele>359</ele>
        <time>2012-10-11T14:40:28Z</time>
      </trkpt>
      <trkpt lat="46.83051" lon="5.70506">
        <ele>359</ele>
        <time>2012-10-11T14:40:29Z</time>
      </trkpt>
      <trkpt lat="46.83058" lon="5.70518">
        <ele>353</ele>
        <time>2012-10-11T14:40:30Z</time>
      </trkpt>
      <trkpt lat="46.83064" lon="5.70531">
        <ele>353</ele>
        <time>2012-10-11T14:40:31Z</time>
      </trkpt>
      <trkpt lat="46.83071" lon="5.70543">
        <ele>353</ele>
        <time>2012-10-11T14:40:32Z</time>
      </trkpt>
      <trkpt lat="46.83077" lon="5.70557">
        <ele>353</ele>
        <time>2012-10-11T14:40:33Z</time>
      </trkpt>
      <trkpt lat="46.83084" lon="5.70571">
        <ele>353</ele>
        <time>2012-10-11T14:40:34Z</time>
      </trkpt>
      <trkpt lat="46.83089" lon="5.70586">
        <ele>353</ele>
        <time>2012-10-11T14:40:35Z</time>
      </trkpt>
      <trkpt lat="46.83095" lon="5.706">
        <ele>353</ele>
        <time>2012-10-11T14:40:36Z</time>
      </trkpt>
      <trkpt lat="46.831" lon="5.70613">
        <ele>348</ele>
        <time>2012-10-11T14:40:37Z</time>
      </trkpt>
      <trkpt lat="46.83104" lon="5.70626">
        <ele>348</ele>
        <time>2012-10-11T14:40:38Z</time>
      </trkpt>
      <trkpt lat="46.83108" lon="5.7064">
        <ele>348</ele>
        <time>2012-10-11T14:40:39Z</time>
      </trkpt>
      <trkpt lat="46.8311" lon="5.70654">
        <ele>348</ele>
        <time>2012-10-11T14:40:40Z</time>
      </trkpt>
      <trkpt lat="46.83113" lon="5.70667">
        <ele>348</ele>
        <time>2012-10-11T14:40:41Z</time>
      </trkpt>
      <trkpt lat="46.83114" lon="5.70681">
        <ele>348</ele>
        <time>2012-10-11T14:40:42Z</time>
      </trkpt>
      <trkpt lat="46.83115" lon="5.70706">
        <ele>348</ele>
        <time>2012-10-11T14:40:44Z</time>
      </trkpt>
      <trkpt lat="46.83113" lon="5.70731">
        <ele>348</ele>
        <time>2012-10-11T14:40:46Z</time>
      </trkpt>
      <trkpt lat="46.83116" lon="5.70755">
        <ele>342</ele>
        <time>2012-10-11T14:40:48Z</time>
      </trkpt>
      <trkpt lat="46.83118" lon="5.70769">
        <ele>342</ele>
        <time>2012-10-11T14:40:49Z</time>
      </trkpt>
      <trkpt lat="46.83124" lon="5.70792">
        <ele>342</ele>
        <time>2012-10-11T14:40:51Z</time>
      </trkpt>
      <trkpt lat="46.83134" lon="5.70809">
        <ele>336</ele>
        <time>2012-10-11T14:40:53Z</time>
      </trkpt>
      <trkpt lat="46.83147" lon="5.70818">
        <ele>336</ele>
        <time>2012-10-11T14:40:55Z</time>
      </trkpt>
      <trkpt lat="46.83163" lon="5.70816">
        <ele>336</ele>
        <time>2012-10-11T14:40:57Z</time>
      </trkpt>
      <trkpt lat="46.83178" lon="5.70808">
        <ele>336</ele>
        <time>2012-10-11T14:40:59Z</time>
      </trkpt>
      <trkpt lat="46.83194" lon="5.70802">
        <ele>336</ele>
        <time>2012-10-11T14:41:01Z</time>
      </trkpt>
      <trkpt lat="46.83209" lon="5.70795">
        <ele>336</ele>
        <time>2012-10-11T14:41:03Z</time>
      </trkpt>
      <trkpt lat="46.83224" lon="5.70788">
        <ele>336</ele>
        <time>2012-10-11T14:41:05Z</time>
      </trkpt>
      <trkpt lat="46.83239" lon="5.70781">
        <ele>336</ele>
        <time>2012-10-11T14:41:07Z</time>
      </trkpt>
      <trkpt lat="46.83252" lon="5.70773">
        <ele>336</ele>
        <time>2012-10-11T14:41:09Z</time>
      </trkpt>
      <trkpt lat="46.83266" lon="5.70766">
        <ele>336</ele>
        <time>2012-10-11T14:41:11Z</time>
      </trkpt>
      <trkpt lat="46.83279" lon="5.70761">
        <ele>336</ele>
        <time>2012-10-11T14:41:13Z</time>
      </trkpt>
      <trkpt lat="46.83288" lon="5.70757">
        <ele>336</ele>
        <time>2012-10-11T14:41:15Z</time>
      </trkpt>
      <trkpt lat="46.83298" lon="5.70753">
        <ele>336</ele>
        <time>2012-10-11T14:41:18Z</time>
      </trkpt>
      <trkpt lat="46.83307" lon="5.70749">
        <ele>336</ele>
        <time>2012-10-11T14:42:43Z</time>
      </trkpt>
      <trkpt lat="46.83309" lon="5.70735">
        <ele>336</ele>
        <time>2012-10-11T14:42:49Z</time>
      </trkpt>
      <trkpt lat="46.83305" lon="5.7072">
        <ele>336</ele>
        <time>2012-10-11T14:42:52Z</time>
      </trkpt>
      <trkpt lat="46.83303" lon="5.70704">
        <ele>336</ele>
        <time>2012-10-11T14:42:54Z</time>
      </trkpt>
      <trkpt lat="46.83304" lon="5.70687">
        <ele>336</ele>
        <time>2012-10-11T14:42:56Z</time>
      </trkpt>
      <trkpt lat="46.83305" lon="5.70669">
        <ele>336</ele>
        <time>2012-10-11T14:42:58Z</time>
      </trkpt>
      <trkpt lat="46.83307" lon="5.70649">
        <ele>336</ele>
        <time>2012-10-11T14:43:00Z</time>
      </trkpt>
      <trkpt lat="46.83308" lon="5.70631">
        <ele>336</ele>
        <time>2012-10-11T14:43:02Z</time>
      </trkpt>
      <trkpt lat="46.83309" lon="5.70612">
        <ele>336</ele>
        <time>2012-10-11T14:43:04Z</time>
      </trkpt>
      <trkpt lat="46.83311" lon="5.70592">
        <ele>336</ele>
        <time>2012-10-11T14:43:06Z</time>
      </trkpt>
      <trkpt lat="46.83312" lon="5.70572">
        <ele>336</ele>
        <time>2012-10-11T14:43:08Z</time>
      </trkpt>
      <trkpt lat="46.83314" lon="5.70552">
        <ele>336</ele>
        <time>2012-10-11T14:43:10Z</time>
      </trkpt>
      <trkpt lat="46.83316" lon="5.70531">
        <ele>336</ele>
        <time>2012-10-11T14:43:12Z</time>
      </trkpt>
      <trkpt lat="46.83317" lon="5.70511">
        <ele>336</ele>
        <time>2012-10-11T14:43:14Z</time>
      </trkpt>
      <trkpt lat="46.8332" lon="5.7049">
        <ele>336</ele>
        <time>2012-10-11T14:43:16Z</time>
      </trkpt>
      <trkpt lat="46.83322" lon="5.70471">
        <ele>336</ele>
        <time>2012-10-11T14:43:18Z</time>
      </trkpt>
      <trkpt lat="46.83324" lon="5.70453">
        <ele>336</ele>
        <time>2012-10-11T14:43:20Z</time>
      </trkpt>
      <trkpt lat="46.83325" lon="5.70436">
        <ele>336</ele>
        <time>2012-10-11T14:43:22Z</time>
      </trkpt>
      <trkpt lat="46.83327" lon="5.7042">
        <ele>336</ele>
        <time>2012-10-11T14:43:24Z</time>
      </trkpt>
      <trkpt lat="46.83333" lon="5.7041">
        <ele>336</ele>
        <time>2012-10-11T14:43:26Z</time>
      </trkpt>
      <trkpt lat="46.83345" lon="5.704">
        <ele>331</ele>
        <time>2012-10-11T14:43:29Z</time>
      </trkpt>
      <trkpt lat="46.83353" lon="5.70393">
        <ele>331</ele>
        <time>2012-10-11T14:43:31Z</time>
      </trkpt>
      <trkpt lat="46.83362" lon="5.70386">
        <ele>331</ele>
        <time>2012-10-11T14:43:33Z</time>
      </trkpt>
      <trkpt lat="46.83372" lon="5.70379">
        <ele>331</ele>
        <time>2012-10-11T14:43:35Z</time>
      </trkpt>
      <trkpt lat="46.83383" lon="5.70373">
        <ele>331</ele>
        <time>2012-10-11T14:43:37Z</time>
      </trkpt>
      <trkpt lat="46.83395" lon="5.70365">
        <ele>331</ele>
        <time>2012-10-11T14:43:39Z</time>
      </trkpt>
      <trkpt lat="46.83407" lon="5.70357">
        <ele>331</ele>
        <time>2012-10-11T14:43:41Z</time>
      </trkpt>
      <trkpt lat="46.83419" lon="5.7035">
        <ele>331</ele>
        <time>2012-10-11T14:43:43Z</time>
      </trkpt>
      <trkpt lat="46.8343" lon="5.70342">
        <ele>331</ele>
        <time>2012-10-11T14:43:45Z</time>
      </trkpt>
      <trkpt lat="46.83441" lon="5.70336">
        <ele>331</ele>
        <time>2012-10-11T14:43:47Z</time>
      </trkpt>
      <trkpt lat="46.83452" lon="5.70329">
        <ele>331</ele>
        <time>2012-10-11T14:43:49Z</time>
      </trkpt>
      <trkpt lat="46.83462" lon="5.70322">
        <ele>331</ele>
        <time>2012-10-11T14:43:51Z</time>
      </trkpt>
      <trkpt lat="46.83471" lon="5.70318">
        <ele>331</ele>
        <time>2012-10-11T14:43:53Z</time>
      </trkpt>
      <trkpt lat="46.83481" lon="5.70313">
        <ele>331</ele>
        <time>2012-10-11T14:43:57Z</time>
      </trkpt>
      <trkpt lat="46.8349" lon="5.7031">
        <ele>331</ele>
        <time>2012-10-11T14:44:00Z</time>
      </trkpt>
      <trkpt lat="46.835" lon="5.70305">
        <ele>325</ele>
        <time>2012-10-11T14:44:03Z</time>
      </trkpt>
      <trkpt lat="46.83512" lon="5.703">
        <ele>325</ele>
        <time>2012-10-11T14:44:06Z</time>
      </trkpt>
      <trkpt lat="46.83521" lon="5.70297">
        <ele>325</ele>
        <time>2012-10-11T14:44:08Z</time>
      </trkpt>
      <trkpt lat="46.83531" lon="5.70295">
        <ele>325</ele>
        <time>2012-10-11T14:44:10Z</time>
      </trkpt>
      <trkpt lat="46.83541" lon="5.70291">
        <ele>325</ele>
        <time>2012-10-11T14:44:12Z</time>
      </trkpt>
      <trkpt lat="46.83552" lon="5.70288">
        <ele>325</ele>
        <time>2012-10-11T14:44:14Z</time>
      </trkpt>
      <trkpt lat="46.83563" lon="5.70286">
        <ele>325</ele>
        <time>2012-10-11T14:44:16Z</time>
      </trkpt>
      <trkpt lat="46.83575" lon="5.70283">
        <ele>325</ele>
        <time>2012-10-11T14:44:18Z</time>
      </trkpt>
      <trkpt lat="46.83586" lon="5.70281">
        <ele>325</ele>
        <time>2012-10-11T14:44:20Z</time>
      </trkpt>
      <trkpt lat="46.83598" lon="5.7028">
        <ele>325</ele>
        <time>2012-10-11T14:44:22Z</time>
      </trkpt>
      <trkpt lat="46.8361" lon="5.70279">
        <ele>325</ele>
        <time>2012-10-11T14:44:24Z</time>
      </trkpt>
      <trkpt lat="46.83622" lon="5.70279">
        <ele>325</ele>
        <time>2012-10-11T14:44:26Z</time>
      </trkpt>
      <trkpt lat="46.83634" lon="5.70279">
        <ele>325</ele>
        <time>2012-10-11T14:44:28Z</time>
      </trkpt>
      <trkpt lat="46.83647" lon="5.70282">
        <ele>325</ele>
        <time>2012-10-11T14:44:30Z</time>
      </trkpt>
      <trkpt lat="46.83658" lon="5.70285">
        <ele>325</ele>
        <time>2012-10-11T14:44:32Z</time>
      </trkpt>
      <trkpt lat="46.8367" lon="5.70288">
        <ele>325</ele>
        <time>2012-10-11T14:44:34Z</time>
      </trkpt>
      <trkpt lat="46.83682" lon="5.70292">
        <ele>325</ele>
        <time>2012-10-11T14:44:36Z</time>
      </trkpt>
      <trkpt lat="46.83693" lon="5.70296">
        <ele>325</ele>
        <time>2012-10-11T14:44:38Z</time>
      </trkpt>
      <trkpt lat="46.83703" lon="5.703">
        <ele>325</ele>
        <time>2012-10-11T14:44:40Z</time>
      </trkpt>
      <trkpt lat="46.83714" lon="5.70306">
        <ele>325</ele>
        <time>2012-10-11T14:44:43Z</time>
      </trkpt>
      <trkpt lat="46.83722" lon="5.70313">
        <ele>325</ele>
        <time>2012-10-11T14:44:48Z</time>
      </trkpt>
      <trkpt lat="46.83733" lon="5.70317">
        <ele>325</ele>
        <time>2012-10-11T14:44:56Z</time>
      </trkpt>
      <trkpt lat="46.83743" lon="5.70322">
        <ele>325</ele>
        <time>2012-10-11T14:44:59Z</time>
      </trkpt>
      <trkpt lat="46.83752" lon="5.70325">
        <ele>325</ele>
        <time>2012-10-11T14:45:01Z</time>
      </trkpt>
      <trkpt lat="46.83764" lon="5.70331">
        <ele>325</ele>
        <time>2012-10-11T14:45:04Z</time>
      </trkpt>
      <trkpt lat="46.83772" lon="5.70334">
        <ele>325</ele>
        <time>2012-10-11T14:45:06Z</time>
      </trkpt>
      <trkpt lat="46.83782" lon="5.70339">
        <ele>325</ele>
        <time>2012-10-11T14:45:08Z</time>
      </trkpt>
      <trkpt lat="46.83791" lon="5.70344">
        <ele>325</ele>
        <time>2012-10-11T14:45:10Z</time>
      </trkpt>
      <trkpt lat="46.83801" lon="5.70349">
        <ele>325</ele>
        <time>2012-10-11T14:45:12Z</time>
      </trkpt>
      <trkpt lat="46.83811" lon="5.70354">
        <ele>325</ele>
        <time>2012-10-11T14:45:14Z</time>
      </trkpt>
      <trkpt lat="46.83822" lon="5.70358">
        <ele>325</ele>
        <time>2012-10-11T14:45:16Z</time>
      </trkpt>
      <trkpt lat="46.83833" lon="5.70364">
        <ele>325</ele>
        <time>2012-10-11T14:45:18Z</time>
      </trkpt>
      <trkpt lat="46.83845" lon="5.70368">
        <ele>325</ele>
        <time>2012-10-11T14:45:20Z</time>
      </trkpt>
      <trkpt lat="46.83856" lon="5.70375">
        <ele>325</ele>
        <time>2012-10-11T14:45:22Z</time>
      </trkpt>
      <trkpt lat="46.83869" lon="5.7038">
        <ele>325</ele>
        <time>2012-10-11T14:45:24Z</time>
      </trkpt>
      <trkpt lat="46.83882" lon="5.70386">
        <ele>325</ele>
        <time>2012-10-11T14:45:26Z</time>
      </trkpt>
      <trkpt lat="46.83894" lon="5.70392">
        <ele>325</ele>
        <time>2012-10-11T14:45:28Z</time>
      </trkpt>
      <trkpt lat="46.83906" lon="5.70396">
        <ele>325</ele>
        <time>2012-10-11T14:45:30Z</time>
      </trkpt>
      <trkpt lat="46.83918" lon="5.70402">
        <ele>325</ele>
        <time>2012-10-11T14:45:32Z</time>
      </trkpt>
      <trkpt lat="46.8393" lon="5.70408">
        <ele>325</ele>
        <time>2012-10-11T14:45:34Z</time>
      </trkpt>
      <trkpt lat="46.83943" lon="5.70414">
        <ele>325</ele>
        <time>2012-10-11T14:45:36Z</time>
      </trkpt>
      <trkpt lat="46.83956" lon="5.7042">
        <ele>325</ele>
        <time>2012-10-11T14:45:38Z</time>
      </trkpt>
      <trkpt lat="46.83969" lon="5.70427">
        <ele>325</ele>
        <time>2012-10-11T14:45:40Z</time>
      </trkpt>
      <trkpt lat="46.83982" lon="5.70433">
        <ele>325</ele>
        <time>2012-10-11T14:45:42Z</time>
      </trkpt>
      <trkpt lat="46.83996" lon="5.70438">
        <ele>325</ele>
        <time>2012-10-11T14:45:44Z</time>
      </trkpt>
      <trkpt lat="46.8401" lon="5.70446">
        <ele>325</ele>
        <time>2012-10-11T14:45:46Z</time>
      </trkpt>
      <trkpt lat="46.84023" lon="5.70452">
        <ele>325</ele>
        <time>2012-10-11T14:45:48Z</time>
      </trkpt>
      <trkpt lat="46.84037" lon="5.70458">
        <ele>325</ele>
        <time>2012-10-11T14:45:50Z</time>
      </trkpt>
      <trkpt lat="46.84052" lon="5.70464">
        <ele>325</ele>
        <time>2012-10-11T14:45:52Z</time>
      </trkpt>
      <trkpt lat="46.84065" lon="5.70471">
        <ele>325</ele>
        <time>2012-10-11T14:45:54Z</time>
      </trkpt>
      <trkpt lat="46.84079" lon="5.70477">
        <ele>325</ele>
        <time>2012-10-11T14:45:56Z</time>
      </trkpt>
      <trkpt lat="46.84092" lon="5.70485">
        <ele>319</ele>
        <time>2012-10-11T14:45:58Z</time>
      </trkpt>
      <trkpt lat="46.84106" lon="5.70492">
        <ele>319</ele>
        <time>2012-10-11T14:46:00Z</time>
      </trkpt>
      <trkpt lat="46.84119" lon="5.70499">
        <ele>319</ele>
        <time>2012-10-11T14:46:02Z</time>
      </trkpt>
      <trkpt lat="46.84131" lon="5.70507">
        <ele>319</ele>
        <time>2012-10-11T14:46:04Z</time>
      </trkpt>
      <trkpt lat="46.84142" lon="5.70515">
        <ele>319</ele>
        <time>2012-10-11T14:46:06Z</time>
      </trkpt>
      <trkpt lat="46.84153" lon="5.70522">
        <ele>319</ele>
        <time>2012-10-11T14:46:08Z</time>
      </trkpt>
      <trkpt lat="46.84161" lon="5.70527">
        <ele>319</ele>
        <time>2012-10-11T14:46:10Z</time>
      </trkpt>
      <trkpt lat="46.8417" lon="5.70533">
        <ele>319</ele>
        <time>2012-10-11T14:46:12Z</time>
      </trkpt>
      <trkpt lat="46.8418" lon="5.70543">
        <ele>313</ele>
        <time>2012-10-11T14:46:15Z</time>
      </trkpt>
      <trkpt lat="46.84186" lon="5.70554">
        <ele>313</ele>
        <time>2012-10-11T14:46:19Z</time>
      </trkpt>
      <trkpt lat="46.84189" lon="5.70567">
        <ele>308</ele>
        <time>2012-10-11T14:47:04Z</time>
      </trkpt>
      <trkpt lat="46.84198" lon="5.70568">
        <ele>308</ele>
        <time>2012-10-11T14:47:10Z</time>
      </trkpt>
      <trkpt lat="46.84208" lon="5.70565">
        <ele>308</ele>
        <time>2012-10-11T14:47:14Z</time>
      </trkpt>
      <trkpt lat="46.84219" lon="5.70561">
        <ele>308</ele>
        <time>2012-10-11T14:47:18Z</time>
      </trkpt>
      <trkpt lat="46.84223" lon="5.70546">
        <ele>308</ele>
        <time>2012-10-11T14:47:22Z</time>
      </trkpt>
      <trkpt lat="46.84225" lon="5.70532">
        <ele>308</ele>
        <time>2012-10-11T14:47:26Z</time>
      </trkpt>
      <trkpt lat="46.84234" lon="5.70518">
        <ele>308</ele>
        <time>2012-10-11T14:47:29Z</time>
      </trkpt>
      <trkpt lat="46.84242" lon="5.70508">
        <ele>308</ele>
        <time>2012-10-11T14:47:31Z</time>
      </trkpt>
      <trkpt lat="46.8425" lon="5.70497">
        <ele>308</ele>
        <time>2012-10-11T14:47:33Z</time>
      </trkpt>
      <trkpt lat="46.84259" lon="5.70485">
        <ele>308</ele>
        <time>2012-10-11T14:47:35Z</time>
      </trkpt>
      <trkpt lat="46.84269" lon="5.70473">
        <ele>308</ele>
        <time>2012-10-11T14:47:37Z</time>
      </trkpt>
      <trkpt lat="46.84278" lon="5.70461">
        <ele>308</ele>
        <time>2012-10-11T14:47:39Z</time>
      </trkpt>
      <trkpt lat="46.84289" lon="5.70448">
        <ele>308</ele>
        <time>2012-10-11T14:47:41Z</time>
      </trkpt>
      <trkpt lat="46.84299" lon="5.70435">
        <ele>308</ele>
        <time>2012-10-11T14:47:43Z</time>
      </trkpt>
      <trkpt lat="46.84311" lon="5.7042">
        <ele>308</ele>
        <time>2012-10-11T14:47:45Z</time>
      </trkpt>
      <trkpt lat="46.84322" lon="5.70406">
        <ele>308</ele>
        <time>2012-10-11T14:47:47Z</time>
      </trkpt>
      <trkpt lat="46.84334" lon="5.70392">
        <ele>308</ele>
        <time>2012-10-11T14:47:49Z</time>
      </trkpt>
      <trkpt lat="46.84346" lon="5.70376">
        <ele>303</ele>
        <time>2012-10-11T14:47:51Z</time>
      </trkpt>
      <trkpt lat="46.84358" lon="5.70361">
        <ele>303</ele>
        <time>2012-10-11T14:47:53Z</time>
      </trkpt>
      <trkpt lat="46.84368" lon="5.70348">
        <ele>303</ele>
        <time>2012-10-11T14:47:55Z</time>
      </trkpt>
      <trkpt lat="46.8438" lon="5.70334">
        <ele>303</ele>
        <time>2012-10-11T14:47:57Z</time>
      </trkpt>
      <trkpt lat="46.84391" lon="5.7032">
        <ele>303</ele>
        <time>2012-10-11T14:47:59Z</time>
      </trkpt>
      <trkpt lat="46.84403" lon="5.70305">
        <ele>303</ele>
        <time>2012-10-11T14:48:01Z</time>
      </trkpt>
      <trkpt lat="46.84416" lon="5.70291">
        <ele>303</ele>
        <time>2012-10-11T14:48:03Z</time>
      </trkpt>
      <trkpt lat="46.8443" lon="5.70278">
        <ele>303</ele>
        <time>2012-10-11T14:48:05Z</time>
      </trkpt>
      <trkpt lat="46.84444" lon="5.70266">
        <ele>303</ele>
        <time>2012-10-11T14:48:07Z</time>
      </trkpt>
      <trkpt lat="46.84458" lon="5.70251">
        <ele>303</ele>
        <time>2012-10-11T14:48:09Z</time>
      </trkpt>
      <trkpt lat="46.84478" lon="5.70225">
        <ele>303</ele>
        <time>2012-10-11T14:48:12Z</time>
      </trkpt>
      <trkpt lat="46.84484" lon="5.70214">
        <ele>298</ele>
        <time>2012-10-11T14:48:13Z</time>
      </trkpt>
      <trkpt lat="46.84495" lon="5.70194">
        <ele>298</ele>
        <time>2012-10-11T14:48:15Z</time>
      </trkpt>
      <trkpt lat="46.84501" lon="5.70184">
        <ele>298</ele>
        <time>2012-10-11T14:48:16Z</time>
      </trkpt>
      <trkpt lat="46.84513" lon="5.70167">
        <ele>298</ele>
        <time>2012-10-11T14:48:18Z</time>
      </trkpt>
      <trkpt lat="46.84526" lon="5.70151">
        <ele>298</ele>
        <time>2012-10-11T14:48:20Z</time>
      </trkpt>
      <trkpt lat="46.84538" lon="5.70136">
        <ele>298</ele>
        <time>2012-10-11T14:48:22Z</time>
      </trkpt>
      <trkpt lat="46.8455" lon="5.7012">
        <ele>298</ele>
        <time>2012-10-11T14:48:24Z</time>
      </trkpt>
      <trkpt lat="46.84561" lon="5.70108">
        <ele>298</ele>
        <time>2012-10-11T14:48:26Z</time>
      </trkpt>
      <trkpt lat="46.84571" lon="5.70095">
        <ele>298</ele>
        <time>2012-10-11T14:48:28Z</time>
      </trkpt>
      <trkpt lat="46.84581" lon="5.70084">
        <ele>298</ele>
        <time>2012-10-11T14:48:30Z</time>
      </trkpt>
      <trkpt lat="46.8459" lon="5.70072">
        <ele>298</ele>
        <time>2012-10-11T14:48:32Z</time>
      </trkpt>
      <trkpt lat="46.84601" lon="5.70058">
        <ele>298</ele>
        <time>2012-10-11T14:48:34Z</time>
      </trkpt>
      <trkpt lat="46.84612" lon="5.70045">
        <ele>292</ele>
        <time>2012-10-11T14:48:36Z</time>
      </trkpt>
      <trkpt lat="46.84624" lon="5.7003">
        <ele>292</ele>
        <time>2012-10-11T14:48:38Z</time>
      </trkpt>
      <trkpt lat="46.84637" lon="5.70014">
        <ele>292</ele>
        <time>2012-10-11T14:48:40Z</time>
      </trkpt>
      <trkpt lat="46.84649" lon="5.69998">
        <ele>292</ele>
        <time>2012-10-11T14:48:42Z</time>
      </trkpt>
      <trkpt lat="46.84662" lon="5.69982">
        <ele>292</ele>
        <time>2012-10-11T14:48:44Z</time>
      </trkpt>
      <trkpt lat="46.84675" lon="5.69965">
        <ele>292</ele>
        <time>2012-10-11T14:48:46Z</time>
      </trkpt>
      <trkpt lat="46.84689" lon="5.69949">
        <ele>292</ele>
        <time>2012-10-11T14:48:48Z</time>
      </trkpt>
      <trkpt lat="46.84696" lon="5.6994">
        <ele>292</ele>
        <time>2012-10-11T14:48:49Z</time>
      </trkpt>
      <trkpt lat="46.8471" lon="5.69923">
        <ele>292</ele>
        <time>2012-10-11T14:48:51Z</time>
      </trkpt>
      <trkpt lat="46.84724" lon="5.69906">
        <ele>292</ele>
        <time>2012-10-11T14:48:53Z</time>
      </trkpt>
      <trkpt lat="46.8473" lon="5.69897">
        <ele>292</ele>
        <time>2012-10-11T14:48:54Z</time>
      </trkpt>
      <trkpt lat="46.84738" lon="5.69888">
        <ele>287</ele>
        <time>2012-10-11T14:48:55Z</time>
      </trkpt>
      <trkpt lat="46.84744" lon="5.69879">
        <ele>287</ele>
        <time>2012-10-11T14:48:56Z</time>
      </trkpt>
      <trkpt lat="46.84757" lon="5.69863">
        <ele>287</ele>
        <time>2012-10-11T14:48:58Z</time>
      </trkpt>
      <trkpt lat="46.84765" lon="5.69854">
        <ele>287</ele>
        <time>2012-10-11T14:48:59Z</time>
      </trkpt>
      <trkpt lat="46.84778" lon="5.69837">
        <ele>287</ele>
        <time>2012-10-11T14:49:01Z</time>
      </trkpt>
      <trkpt lat="46.84791" lon="5.69821">
        <ele>287</ele>
        <time>2012-10-11T14:49:03Z</time>
      </trkpt>
      <trkpt lat="46.84804" lon="5.69805">
        <ele>287</ele>
        <time>2012-10-11T14:49:05Z</time>
      </trkpt>
      <trkpt lat="46.84811" lon="5.69796">
        <ele>287</ele>
        <time>2012-10-11T14:49:06Z</time>
      </trkpt>
      <trkpt lat="46.84824" lon="5.6978">
        <ele>287</ele>
        <time>2012-10-11T14:49:08Z</time>
      </trkpt>
      <trkpt lat="46.84837" lon="5.69764">
        <ele>287</ele>
        <time>2012-10-11T14:49:10Z</time>
      </trkpt>
      <trkpt lat="46.84849" lon="5.69748">
        <ele>287</ele>
        <time>2012-10-11T14:49:12Z</time>
      </trkpt>
      <trkpt lat="46.84862" lon="5.69732">
        <ele>287</ele>
        <time>2012-10-11T14:49:14Z</time>
      </trkpt>
      <trkpt lat="46.84875" lon="5.69716">
        <ele>287</ele>
        <time>2012-10-11T14:49:16Z</time>
      </trkpt>
      <trkpt lat="46.84887" lon="5.697">
        <ele>287</ele>
        <time>2012-10-11T14:49:18Z</time>
      </trkpt>
      <trkpt lat="46.849" lon="5.69685">
        <ele>287</ele>
        <time>2012-10-11T14:49:20Z</time>
      </trkpt>
      <trkpt lat="46.84913" lon="5.69668">
        <ele>287</ele>
        <time>2012-10-11T14:49:22Z</time>
      </trkpt>
      <trkpt lat="46.84925" lon="5.69652">
        <ele>287</ele>
        <time>2012-10-11T14:49:24Z</time>
      </trkpt>
      <trkpt lat="46.84938" lon="5.69637">
        <ele>287</ele>
        <time>2012-10-11T14:49:26Z</time>
      </trkpt>
      <trkpt lat="46.8495" lon="5.69621">
        <ele>287</ele>
        <time>2012-10-11T14:49:28Z</time>
      </trkpt>
      <trkpt lat="46.84963" lon="5.69606">
        <ele>287</ele>
        <time>2012-10-11T14:49:30Z</time>
      </trkpt>
      <trkpt lat="46.84976" lon="5.69589">
        <ele>287</ele>
        <time>2012-10-11T14:49:32Z</time>
      </trkpt>
      <trkpt lat="46.84989" lon="5.69573">
        <ele>287</ele>
        <time>2012-10-11T14:49:34Z</time>
      </trkpt>
      <trkpt lat="46.84996" lon="5.69564">
        <ele>287</ele>
        <time>2012-10-11T14:49:35Z</time>
      </trkpt>
      <trkpt lat="46.85003" lon="5.69556">
        <ele>287</ele>
        <time>2012-10-11T14:49:36Z</time>
      </trkpt>
      <trkpt lat="46.85017" lon="5.69539">
        <ele>287</ele>
        <time>2012-10-11T14:49:38Z</time>
      </trkpt>
      <trkpt lat="46.85024" lon="5.6953">
        <ele>287</ele>
        <time>2012-10-11T14:49:39Z</time>
      </trkpt>
      <trkpt lat="46.85038" lon="5.69513">
        <ele>287</ele>
        <time>2012-10-11T14:49:41Z</time>
      </trkpt>
      <trkpt lat="46.85045" lon="5.69504">
        <ele>287</ele>
        <time>2012-10-11T14:49:42Z</time>
      </trkpt>
      <trkpt lat="46.85058" lon="5.69488">
        <ele>287</ele>
        <time>2012-10-11T14:49:44Z</time>
      </trkpt>
      <trkpt lat="46.85066" lon="5.6948">
        <ele>287</ele>
        <time>2012-10-11T14:49:45Z</time>
      </trkpt>
      <trkpt lat="46.85072" lon="5.69471">
        <ele>282</ele>
        <time>2012-10-11T14:49:46Z</time>
      </trkpt>
      <trkpt lat="46.85086" lon="5.69455">
        <ele>282</ele>
        <time>2012-10-11T14:49:48Z</time>
      </trkpt>
      <trkpt lat="46.85093" lon="5.69446">
        <ele>282</ele>
        <time>2012-10-11T14:49:49Z</time>
      </trkpt>
      <trkpt lat="46.85106" lon="5.6943">
        <ele>282</ele>
        <time>2012-10-11T14:49:51Z</time>
      </trkpt>
      <trkpt lat="46.85113" lon="5.69421">
        <ele>282</ele>
        <time>2012-10-11T14:49:52Z</time>
      </trkpt>
      <trkpt lat="46.85126" lon="5.69405">
        <ele>282</ele>
        <time>2012-10-11T14:49:54Z</time>
      </trkpt>
      <trkpt lat="46.85139" lon="5.69389">
        <ele>282</ele>
        <time>2012-10-11T14:49:56Z</time>
      </trkpt>
      <trkpt lat="46.85152" lon="5.69373">
        <ele>282</ele>
        <time>2012-10-11T14:49:58Z</time>
      </trkpt>
      <trkpt lat="46.85165" lon="5.69357">
        <ele>282</ele>
        <time>2012-10-11T14:50:00Z</time>
      </trkpt>
      <trkpt lat="46.85178" lon="5.69341">
        <ele>282</ele>
        <time>2012-10-11T14:50:02Z</time>
      </trkpt>
      <trkpt lat="46.85191" lon="5.69324">
        <ele>282</ele>
        <time>2012-10-11T14:50:04Z</time>
      </trkpt>
      <trkpt lat="46.85204" lon="5.69309">
        <ele>282</ele>
        <time>2012-10-11T14:50:06Z</time>
      </trkpt>
      <trkpt lat="46.85216" lon="5.69293">
        <ele>282</ele>
        <time>2012-10-11T14:50:08Z</time>
      </trkpt>
      <trkpt lat="46.85228" lon="5.69278">
        <ele>282</ele>
        <time>2012-10-11T14:50:10Z</time>
      </trkpt>
      <trkpt lat="46.85242" lon="5.69261">
        <ele>282</ele>
        <time>2012-10-11T14:50:12Z</time>
      </trkpt>
      <trkpt lat="46.85255" lon="5.69244">
        <ele>282</ele>
        <time>2012-10-11T14:50:14Z</time>
      </trkpt>
      <trkpt lat="46.85262" lon="5.69235">
        <ele>282</ele>
        <time>2012-10-11T14:50:15Z</time>
      </trkpt>
      <trkpt lat="46.85268" lon="5.69227">
        <ele>277</ele>
        <time>2012-10-11T14:50:16Z</time>
      </trkpt>
      <trkpt lat="46.85282" lon="5.6921">
        <ele>277</ele>
        <time>2012-10-11T14:50:18Z</time>
      </trkpt>
      <trkpt lat="46.85295" lon="5.69193">
        <ele>277</ele>
        <time>2012-10-11T14:50:20Z</time>
      </trkpt>
      <trkpt lat="46.85302" lon="5.69184">
        <ele>277</ele>
        <time>2012-10-11T14:50:21Z</time>
      </trkpt>
      <trkpt lat="46.85309" lon="5.69175">
        <ele>277</ele>
        <time>2012-10-11T14:50:22Z</time>
      </trkpt>
      <trkpt lat="46.85316" lon="5.69166">
        <ele>277</ele>
        <time>2012-10-11T14:50:23Z</time>
      </trkpt>
      <trkpt lat="46.85324" lon="5.69156">
        <ele>277</ele>
        <time>2012-10-11T14:50:24Z</time>
      </trkpt>
      <trkpt lat="46.85331" lon="5.69147">
        <ele>277</ele>
        <time>2012-10-11T14:50:25Z</time>
      </trkpt>
      <trkpt lat="46.85339" lon="5.69138">
        <ele>277</ele>
        <time>2012-10-11T14:50:26Z</time>
      </trkpt>
      <trkpt lat="46.85346" lon="5.69129">
        <ele>277</ele>
        <time>2012-10-11T14:50:27Z</time>
      </trkpt>
      <trkpt lat="46.85353" lon="5.69119">
        <ele>277</ele>
        <time>2012-10-11T14:50:28Z</time>
      </trkpt>
      <trkpt lat="46.85361" lon="5.6911">
        <ele>277</ele>
        <time>2012-10-11T14:50:29Z</time>
      </trkpt>
      <trkpt lat="46.85368" lon="5.69101">
        <ele>277</ele>
        <time>2012-10-11T14:50:30Z</time>
      </trkpt>
      <trkpt lat="46.85375" lon="5.69091">
        <ele>277</ele>
        <time>2012-10-11T14:50:31Z</time>
      </trkpt>
      <trkpt lat="46.85382" lon="5.69082">
        <ele>277</ele>
        <time>2012-10-11T14:50:32Z</time>
      </trkpt>
      <trkpt lat="46.85389" lon="5.69073">
        <ele>271</ele>
        <time>2012-10-11T14:50:33Z</time>
      </trkpt>
      <trkpt lat="46.85397" lon="5.69063">
        <ele>271</ele>
        <time>2012-10-11T14:50:34Z</time>
      </trkpt>
      <trkpt lat="46.85404" lon="5.69054">
        <ele>271</ele>
        <time>2012-10-11T14:50:35Z</time>
      </trkpt>
      <trkpt lat="46.85411" lon="5.69045">
        <ele>271</ele>
        <time>2012-10-11T14:50:36Z</time>
      </trkpt>
      <trkpt lat="46.85419" lon="5.69035">
        <ele>271</ele>
        <time>2012-10-11T14:50:37Z</time>
      </trkpt>
      <trkpt lat="46.85426" lon="5.69027">
        <ele>271</ele>
        <time>2012-10-11T14:50:38Z</time>
      </trkpt>
      <trkpt lat="46.85433" lon="5.69018">
        <ele>271</ele>
        <time>2012-10-11T14:50:39Z</time>
      </trkpt>
      <trkpt lat="46.8544" lon="5.69009">
        <ele>271</ele>
        <time>2012-10-11T14:50:40Z</time>
      </trkpt>
      <trkpt lat="46.85448" lon="5.68999">
        <ele>271</ele>
        <time>2012-10-11T14:50:41Z</time>
      </trkpt>
      <trkpt lat="46.85454" lon="5.6899">
        <ele>271</ele>
        <time>2012-10-11T14:50:42Z</time>
      </trkpt>
      <trkpt lat="46.85462" lon="5.6898">
        <ele>271</ele>
        <time>2012-10-11T14:50:43Z</time>
      </trkpt>
      <trkpt lat="46.8547" lon="5.68972">
        <ele>271</ele>
        <time>2012-10-11T14:50:44Z</time>
      </trkpt>
      <trkpt lat="46.85477" lon="5.68963">
        <ele>271</ele>
        <time>2012-10-11T14:50:45Z</time>
      </trkpt>
      <trkpt lat="46.85484" lon="5.68953">
        <ele>271</ele>
        <time>2012-10-11T14:50:46Z</time>
      </trkpt>
      <trkpt lat="46.85491" lon="5.68944">
        <ele>271</ele>
        <time>2012-10-11T14:50:47Z</time>
      </trkpt>
      <trkpt lat="46.85498" lon="5.68935">
        <ele>271</ele>
        <time>2012-10-11T14:50:48Z</time>
      </trkpt>
      <trkpt lat="46.85506" lon="5.68926">
        <ele>271</ele>
        <time>2012-10-11T14:50:49Z</time>
      </trkpt>
      <trkpt lat="46.85512" lon="5.68917">
        <ele>271</ele>
        <time>2012-10-11T14:50:50Z</time>
      </trkpt>
      <trkpt lat="46.8552" lon="5.68909">
        <ele>271</ele>
        <time>2012-10-11T14:50:51Z</time>
      </trkpt>
      <trkpt lat="46.85527" lon="5.689">
        <ele>271</ele>
        <time>2012-10-11T14:50:52Z</time>
      </trkpt>
      <trkpt lat="46.85534" lon="5.68891">
        <ele>271</ele>
        <time>2012-10-11T14:50:53Z</time>
      </trkpt>
      <trkpt lat="46.85548" lon="5.68873">
        <ele>271</ele>
        <time>2012-10-11T14:50:55Z</time>
      </trkpt>
      <trkpt lat="46.85555" lon="5.68864">
        <ele>271</ele>
        <time>2012-10-11T14:50:56Z</time>
      </trkpt>
      <trkpt lat="46.85562" lon="5.68856">
        <ele>271</ele>
        <time>2012-10-11T14:50:57Z</time>
      </trkpt>
      <trkpt lat="46.8557" lon="5.68847">
        <ele>271</ele>
        <time>2012-10-11T14:50:58Z</time>
      </trkpt>
      <trkpt lat="46.85578" lon="5.68838">
        <ele>271</ele>
        <time>2012-10-11T14:50:59Z</time>
      </trkpt>
      <trkpt lat="46.85584" lon="5.68829">
        <ele>271</ele>
        <time>2012-10-11T14:51:00Z</time>
      </trkpt>
      <trkpt lat="46.85599" lon="5.68811">
        <ele>271</ele>
        <time>2012-10-11T14:51:02Z</time>
      </trkpt>
      <trkpt lat="46.85605" lon="5.68803">
        <ele>271</ele>
        <time>2012-10-11T14:51:03Z</time>
      </trkpt>
      <trkpt lat="46.85613" lon="5.68794">
        <ele>271</ele>
        <time>2012-10-11T14:51:04Z</time>
      </trkpt>
      <trkpt lat="46.8562" lon="5.68785">
        <ele>271</ele>
        <time>2012-10-11T14:51:05Z</time>
      </trkpt>
      <trkpt lat="46.85633" lon="5.68767">
        <ele>271</ele>
        <time>2012-10-11T14:51:07Z</time>
      </trkpt>
      <trkpt lat="46.8564" lon="5.68758">
        <ele>271</ele>
        <time>2012-10-11T14:51:08Z</time>
      </trkpt>
      <trkpt lat="46.85653" lon="5.68741">
        <ele>271</ele>
        <time>2012-10-11T14:51:10Z</time>
      </trkpt>
      <trkpt lat="46.8566" lon="5.68732">
        <ele>271</ele>
        <time>2012-10-11T14:51:11Z</time>
      </trkpt>
      <trkpt lat="46.85674" lon="5.68715">
        <ele>271</ele>
        <time>2012-10-11T14:51:13Z</time>
      </trkpt>
      <trkpt lat="46.85686" lon="5.68699">
        <ele>271</ele>
        <time>2012-10-11T14:51:15Z</time>
      </trkpt>
      <trkpt lat="46.857" lon="5.68683">
        <ele>271</ele>
        <time>2012-10-11T14:51:17Z</time>
      </trkpt>
      <trkpt lat="46.85713" lon="5.68667">
        <ele>271</ele>
        <time>2012-10-11T14:51:19Z</time>
      </trkpt>
      <trkpt lat="46.85725" lon="5.68652">
        <ele>271</ele>
        <time>2012-10-11T14:51:21Z</time>
      </trkpt>
      <trkpt lat="46.85732" lon="5.68644">
        <ele>271</ele>
        <time>2012-10-11T14:51:22Z</time>
      </trkpt>
      <trkpt lat="46.85745" lon="5.68626">
        <ele>271</ele>
        <time>2012-10-11T14:51:24Z</time>
      </trkpt>
      <trkpt lat="46.85758" lon="5.68611">
        <ele>271</ele>
        <time>2012-10-11T14:51:26Z</time>
      </trkpt>
      <trkpt lat="46.85771" lon="5.68595">
        <ele>271</ele>
        <time>2012-10-11T14:51:28Z</time>
      </trkpt>
      <trkpt lat="46.85784" lon="5.68579">
        <ele>271</ele>
        <time>2012-10-11T14:51:30Z</time>
      </trkpt>
      <trkpt lat="46.8579" lon="5.6857">
        <ele>271</ele>
        <time>2012-10-11T14:51:31Z</time>
      </trkpt>
      <trkpt lat="46.85803" lon="5.68555">
        <ele>271</ele>
        <time>2012-10-11T14:51:33Z</time>
      </trkpt>
      <trkpt lat="46.85816" lon="5.68539">
        <ele>271</ele>
        <time>2012-10-11T14:51:35Z</time>
      </trkpt>
      <trkpt lat="46.85828" lon="5.68524">
        <ele>271</ele>
        <time>2012-10-11T14:51:37Z</time>
      </trkpt>
      <trkpt lat="46.85841" lon="5.68508">
        <ele>266</ele>
        <time>2012-10-11T14:51:39Z</time>
      </trkpt>
      <trkpt lat="46.85854" lon="5.68492">
        <ele>266</ele>
        <time>2012-10-11T14:51:41Z</time>
      </trkpt>
      <trkpt lat="46.85866" lon="5.68476">
        <ele>266</ele>
        <time>2012-10-11T14:51:43Z</time>
      </trkpt>
      <trkpt lat="46.85879" lon="5.68461">
        <ele>266</ele>
        <time>2012-10-11T14:51:45Z</time>
      </trkpt>
      <trkpt lat="46.85891" lon="5.68446">
        <ele>266</ele>
        <time>2012-10-11T14:51:47Z</time>
      </trkpt>
      <trkpt lat="46.85902" lon="5.68432">
        <ele>266</ele>
        <time>2012-10-11T14:51:49Z</time>
      </trkpt>
      <trkpt lat="46.85914" lon="5.68417">
        <ele>266</ele>
        <time>2012-10-11T14:51:51Z</time>
      </trkpt>
      <trkpt lat="46.85925" lon="5.68405">
        <ele>266</ele>
        <time>2012-10-11T14:51:53Z</time>
      </trkpt>
      <trkpt lat="46.85934" lon="5.68392">
        <ele>266</ele>
        <time>2012-10-11T14:51:55Z</time>
      </trkpt>
      <trkpt lat="46.85944" lon="5.6838">
        <ele>266</ele>
        <time>2012-10-11T14:51:57Z</time>
      </trkpt>
      <trkpt lat="46.85955" lon="5.68373">
        <ele>266</ele>
        <time>2012-10-11T14:51:59Z</time>
      </trkpt>
      <trkpt lat="46.85967" lon="5.68375">
        <ele>266</ele>
        <time>2012-10-11T14:52:01Z</time>
      </trkpt>
      <trkpt lat="46.85978" lon="5.68381">
        <ele>266</ele>
        <time>2012-10-11T14:52:03Z</time>
      </trkpt>
      <trkpt lat="46.85988" lon="5.6839">
        <ele>266</ele>
        <time>2012-10-11T14:52:05Z</time>
      </trkpt>
      <trkpt lat="46.85999" lon="5.684">
        <ele>266</ele>
        <time>2012-10-11T14:52:07Z</time>
      </trkpt>
      <trkpt lat="46.8601" lon="5.6841">
        <ele>266</ele>
        <time>2012-10-11T14:52:09Z</time>
      </trkpt>
      <trkpt lat="46.8602" lon="5.6842">
        <ele>266</ele>
        <time>2012-10-11T14:52:11Z</time>
      </trkpt>
      <trkpt lat="46.8603" lon="5.6843">
        <ele>266</ele>
        <time>2012-10-11T14:52:13Z</time>
      </trkpt>
      <trkpt lat="46.8604" lon="5.68439">
        <ele>266</ele>
        <time>2012-10-11T14:52:15Z</time>
      </trkpt>
      <trkpt lat="46.8605" lon="5.68448">
        <ele>266</ele>
        <time>2012-10-11T14:52:17Z</time>
      </trkpt>
      <trkpt lat="46.8606" lon="5.68458">
        <ele>266</ele>
        <time>2012-10-11T14:52:19Z</time>
      </trkpt>
      <trkpt lat="46.8607" lon="5.68467">
        <ele>266</ele>
        <time>2012-10-11T14:52:21Z</time>
      </trkpt>
      <trkpt lat="46.86081" lon="5.68477">
        <ele>266</ele>
        <time>2012-10-11T14:52:23Z</time>
      </trkpt>
      <trkpt lat="46.86091" lon="5.68487">
        <ele>266</ele>
        <time>2012-10-11T14:52:25Z</time>
      </trkpt>
      <trkpt lat="46.86101" lon="5.68496">
        <ele>266</ele>
        <time>2012-10-11T14:52:27Z</time>
      </trkpt>
      <trkpt lat="46.86111" lon="5.68506">
        <ele>266</ele>
        <time>2012-10-11T14:52:29Z</time>
      </trkpt>
      <trkpt lat="46.86122" lon="5.68517">
        <ele>266</ele>
        <time>2012-10-11T14:52:31Z</time>
      </trkpt>
      <trkpt lat="46.86132" lon="5.68526">
        <ele>266</ele>
        <time>2012-10-11T14:52:33Z</time>
      </trkpt>
      <trkpt lat="46.86143" lon="5.68536">
        <ele>266</ele>
        <time>2012-10-11T14:52:35Z</time>
      </trkpt>
      <trkpt lat="46.86153" lon="5.68546">
        <ele>271</ele>
        <time>2012-10-11T14:52:37Z</time>
      </trkpt>
      <trkpt lat="46.86163" lon="5.68556">
        <ele>271</ele>
        <time>2012-10-11T14:52:39Z</time>
      </trkpt>
      <trkpt lat="46.86173" lon="5.68567">
        <ele>271</ele>
        <time>2012-10-11T14:52:41Z</time>
      </trkpt>
      <trkpt lat="46.86183" lon="5.68577">
        <ele>271</ele>
        <time>2012-10-11T14:52:43Z</time>
      </trkpt>
      <trkpt lat="46.86193" lon="5.68587">
        <ele>271</ele>
        <time>2012-10-11T14:52:45Z</time>
      </trkpt>
      <trkpt lat="46.86202" lon="5.68597">
        <ele>271</ele>
        <time>2012-10-11T14:52:47Z</time>
      </trkpt>
      <trkpt lat="46.86212" lon="5.68607">
        <ele>271</ele>
        <time>2012-10-11T14:52:49Z</time>
      </trkpt>
      <trkpt lat="46.86221" lon="5.68617">
        <ele>271</ele>
        <time>2012-10-11T14:52:51Z</time>
      </trkpt>
      <trkpt lat="46.86231" lon="5.68626">
        <ele>271</ele>
        <time>2012-10-11T14:52:53Z</time>
      </trkpt>
      <trkpt lat="46.86241" lon="5.68635">
        <ele>271</ele>
        <time>2012-10-11T14:52:55Z</time>
      </trkpt>
      <trkpt lat="46.86251" lon="5.68644">
        <ele>271</ele>
        <time>2012-10-11T14:52:57Z</time>
      </trkpt>
      <trkpt lat="46.8626" lon="5.68652">
        <ele>271</ele>
        <time>2012-10-11T14:52:59Z</time>
      </trkpt>
      <trkpt lat="46.8627" lon="5.68661">
        <ele>271</ele>
        <time>2012-10-11T14:53:01Z</time>
      </trkpt>
      <trkpt lat="46.86281" lon="5.68669">
        <ele>271</ele>
        <time>2012-10-11T14:53:03Z</time>
      </trkpt>
      <trkpt lat="46.86291" lon="5.68677">
        <ele>271</ele>
        <time>2012-10-11T14:53:05Z</time>
      </trkpt>
      <trkpt lat="46.863" lon="5.68686">
        <ele>271</ele>
        <time>2012-10-11T14:53:07Z</time>
      </trkpt>
      <trkpt lat="46.8631" lon="5.68694">
        <ele>271</ele>
        <time>2012-10-11T14:53:09Z</time>
      </trkpt>
      <trkpt lat="46.86319" lon="5.68703">
        <ele>271</ele>
        <time>2012-10-11T14:53:11Z</time>
      </trkpt>
      <trkpt lat="46.86329" lon="5.6871">
        <ele>271</ele>
        <time>2012-10-11T14:53:13Z</time>
      </trkpt>
      <trkpt lat="46.86339" lon="5.68718">
        <ele>271</ele>
        <time>2012-10-11T14:53:15Z</time>
      </trkpt>
      <trkpt lat="46.86348" lon="5.68724">
        <ele>277</ele>
        <time>2012-10-11T14:53:17Z</time>
      </trkpt>
      <trkpt lat="46.86357" lon="5.68732">
        <ele>277</ele>
        <time>2012-10-11T14:53:19Z</time>
      </trkpt>
      <trkpt lat="46.86365" lon="5.68739">
        <ele>277</ele>
        <time>2012-10-11T14:53:21Z</time>
      </trkpt>
      <trkpt lat="46.86373" lon="5.68746">
        <ele>277</ele>
        <time>2012-10-11T14:53:23Z</time>
      </trkpt>
      <trkpt lat="46.86384" lon="5.68757">
        <ele>277</ele>
        <time>2012-10-11T14:53:26Z</time>
      </trkpt>
      <trkpt lat="46.86394" lon="5.68767">
        <ele>277</ele>
        <time>2012-10-11T14:53:29Z</time>
      </trkpt>
      <trkpt lat="46.86402" lon="5.68776">
        <ele>277</ele>
        <time>2012-10-11T14:53:31Z</time>
      </trkpt>
      <trkpt lat="46.86412" lon="5.68788">
        <ele>277</ele>
        <time>2012-10-11T14:53:34Z</time>
      </trkpt>
      <trkpt lat="46.86423" lon="5.688">
        <ele>277</ele>
        <time>2012-10-11T14:53:37Z</time>
      </trkpt>
      <trkpt lat="46.86434" lon="5.68811">
        <ele>277</ele>
        <time>2012-10-11T14:53:40Z</time>
      </trkpt>
      <trkpt lat="46.86445" lon="5.68822">
        <ele>277</ele>
        <time>2012-10-11T14:53:43Z</time>
      </trkpt>
      <trkpt lat="46.86452" lon="5.6883">
        <ele>282</ele>
        <time>2012-10-11T14:53:45Z</time>
      </trkpt>
      <trkpt lat="46.86463" lon="5.68842">
        <ele>282</ele>
        <time>2012-10-11T14:53:48Z</time>
      </trkpt>
      <trkpt lat="46.86473" lon="5.68853">
        <ele>282</ele>
        <time>2012-10-11T14:53:51Z</time>
      </trkpt>
      <trkpt lat="46.8648" lon="5.68861">
        <ele>282</ele>
        <time>2012-10-11T14:53:53Z</time>
      </trkpt>
      <trkpt lat="46.86488" lon="5.68869">
        <ele>282</ele>
        <time>2012-10-11T14:53:55Z</time>
      </trkpt>
      <trkpt lat="46.86498" lon="5.6888">
        <ele>282</ele>
        <time>2012-10-11T14:53:58Z</time>
      </trkpt>
      <trkpt lat="46.8651" lon="5.6889">
        <ele>282</ele>
        <time>2012-10-11T14:54:01Z</time>
      </trkpt>
      <trkpt lat="46.86521" lon="5.68899">
        <ele>282</ele>
        <time>2012-10-11T14:54:04Z</time>
      </trkpt>
      <trkpt lat="46.86533" lon="5.68906">
        <ele>282</ele>
        <time>2012-10-11T14:54:07Z</time>
      </trkpt>
      <trkpt lat="46.86544" lon="5.68913">
        <ele>288</ele>
        <time>2012-10-11T14:54:10Z</time>
      </trkpt>
      <trkpt lat="46.86557" lon="5.68919">
        <ele>288</ele>
        <time>2012-10-11T14:54:13Z</time>
      </trkpt>
      <trkpt lat="46.86569" lon="5.68926">
        <ele>288</ele>
        <time>2012-10-11T14:54:16Z</time>
      </trkpt>
      <trkpt lat="46.8658" lon="5.68932">
        <ele>288</ele>
        <time>2012-10-11T14:54:19Z</time>
      </trkpt>
      <trkpt lat="46.86591" lon="5.68938">
        <ele>288</ele>
        <time>2012-10-11T14:54:22Z</time>
      </trkpt>
      <trkpt lat="46.86603" lon="5.68944">
        <ele>288</ele>
        <time>2012-10-11T14:54:25Z</time>
      </trkpt>
      <trkpt lat="46.86615" lon="5.68951">
        <ele>288</ele>
        <time>2012-10-11T14:54:28Z</time>
      </trkpt>
      <trkpt lat="46.86626" lon="5.68957">
        <ele>288</ele>
        <time>2012-10-11T14:54:31Z</time>
      </trkpt>
      <trkpt lat="46.86635" lon="5.68962">
        <ele>293</ele>
        <time>2012-10-11T14:54:33Z</time>
      </trkpt>
      <trkpt lat="46.86644" lon="5.68965">
        <ele>293</ele>
        <time>2012-10-11T14:54:35Z</time>
      </trkpt>
      <trkpt lat="46.86655" lon="5.6897">
        <ele>293</ele>
        <time>2012-10-11T14:54:38Z</time>
      </trkpt>
      <trkpt lat="46.86668" lon="5.68971">
        <ele>293</ele>
        <time>2012-10-11T14:54:41Z</time>
      </trkpt>
      <trkpt lat="46.86681" lon="5.68973">
        <ele>293</ele>
        <time>2012-10-11T14:54:44Z</time>
      </trkpt>
      <trkpt lat="46.8669" lon="5.68974">
        <ele>293</ele>
        <time>2012-10-11T14:54:46Z</time>
      </trkpt>
      <trkpt lat="46.867" lon="5.68977">
        <ele>293</ele>
        <time>2012-10-11T14:54:48Z</time>
      </trkpt>
      <trkpt lat="46.86711" lon="5.6898">
        <ele>293</ele>
        <time>2012-10-11T14:54:50Z</time>
      </trkpt>
      <trkpt lat="46.86721" lon="5.68986">
        <ele>293</ele>
        <time>2012-10-11T14:54:52Z</time>
      </trkpt>
      <trkpt lat="46.86731" lon="5.68991">
        <ele>293</ele>
        <time>2012-10-11T14:54:54Z</time>
      </trkpt>
      <trkpt lat="46.86741" lon="5.68998">
        <ele>293</ele>
        <time>2012-10-11T14:54:56Z</time>
      </trkpt>
      <trkpt lat="46.8675" lon="5.69006">
        <ele>293</ele>
        <time>2012-10-11T14:54:58Z</time>
      </trkpt>
      <trkpt lat="46.86759" lon="5.69013">
        <ele>293</ele>
        <time>2012-10-11T14:55:00Z</time>
      </trkpt>
      <trkpt lat="46.86768" lon="5.69021">
        <ele>293</ele>
        <time>2012-10-11T14:55:02Z</time>
      </trkpt>
      <trkpt lat="46.86777" lon="5.6903">
        <ele>293</ele>
        <time>2012-10-11T14:55:04Z</time>
      </trkpt>
      <trkpt lat="46.86787" lon="5.6904">
        <ele>293</ele>
        <time>2012-10-11T14:55:06Z</time>
      </trkpt>
      <trkpt lat="46.86798" lon="5.6905">
        <ele>293</ele>
        <time>2012-10-11T14:55:08Z</time>
      </trkpt>
      <trkpt lat="46.86809" lon="5.69061">
        <ele>293</ele>
        <time>2012-10-11T14:55:10Z</time>
      </trkpt>
      <trkpt lat="46.86821" lon="5.69073">
        <ele>293</ele>
        <time>2012-10-11T14:55:12Z</time>
      </trkpt>
      <trkpt lat="46.86832" lon="5.69085">
        <ele>293</ele>
        <time>2012-10-11T14:55:14Z</time>
      </trkpt>
      <trkpt lat="46.86843" lon="5.69094">
        <ele>293</ele>
        <time>2012-10-11T14:55:16Z</time>
      </trkpt>
      <trkpt lat="46.86855" lon="5.69103">
        <ele>293</ele>
        <time>2012-10-11T14:55:18Z</time>
      </trkpt>
      <trkpt lat="46.86867" lon="5.69111">
        <ele>293</ele>
        <time>2012-10-11T14:55:20Z</time>
      </trkpt>
      <trkpt lat="46.86878" lon="5.69121">
        <ele>293</ele>
        <time>2012-10-11T14:55:22Z</time>
      </trkpt>
      <trkpt lat="46.86891" lon="5.69131">
        <ele>293</ele>
        <time>2012-10-11T14:55:24Z</time>
      </trkpt>
      <trkpt lat="46.86902" lon="5.69144">
        <ele>293</ele>
        <time>2012-10-11T14:55:26Z</time>
      </trkpt>
      <trkpt lat="46.86914" lon="5.69156">
        <ele>293</ele>
        <time>2012-10-11T14:55:28Z</time>
      </trkpt>
      <trkpt lat="46.86925" lon="5.69168">
        <ele>293</ele>
        <time>2012-10-11T14:55:30Z</time>
      </trkpt>
      <trkpt lat="46.86936" lon="5.69179">
        <ele>293</ele>
        <time>2012-10-11T14:55:32Z</time>
      </trkpt>
      <trkpt lat="46.86946" lon="5.69187">
        <ele>293</ele>
        <time>2012-10-11T14:55:34Z</time>
      </trkpt>
      <trkpt lat="46.86957" lon="5.69193">
        <ele>293</ele>
        <time>2012-10-11T14:55:36Z</time>
      </trkpt>
      <trkpt lat="46.86968" lon="5.69198">
        <ele>293</ele>
        <time>2012-10-11T14:55:38Z</time>
      </trkpt>
      <trkpt lat="46.86979" lon="5.69201">
        <ele>293</ele>
        <time>2012-10-11T14:55:40Z</time>
      </trkpt>
      <trkpt lat="46.8699" lon="5.69203">
        <ele>293</ele>
        <time>2012-10-11T14:55:42Z</time>
      </trkpt>
      <trkpt lat="46.87001" lon="5.69204">
        <ele>293</ele>
        <time>2012-10-11T14:55:44Z</time>
      </trkpt>
      <trkpt lat="46.87013" lon="5.69205">
        <ele>293</ele>
        <time>2012-10-11T14:55:46Z</time>
      </trkpt>
      <trkpt lat="46.87024" lon="5.69204">
        <ele>293</ele>
        <time>2012-10-11T14:55:48Z</time>
      </trkpt>
      <trkpt lat="46.87036" lon="5.69203">
        <ele>293</ele>
        <time>2012-10-11T14:55:50Z</time>
      </trkpt>
      <trkpt lat="46.87048" lon="5.69201">
        <ele>298</ele>
        <time>2012-10-11T14:55:52Z</time>
      </trkpt>
      <trkpt lat="46.8706" lon="5.69199">
        <ele>298</ele>
        <time>2012-10-11T14:55:54Z</time>
      </trkpt>
      <trkpt lat="46.87072" lon="5.69196">
        <ele>298</ele>
        <time>2012-10-11T14:55:56Z</time>
      </trkpt>
      <trkpt lat="46.87085" lon="5.69195">
        <ele>298</ele>
        <time>2012-10-11T14:55:58Z</time>
      </trkpt>
      <trkpt lat="46.87098" lon="5.69193">
        <ele>298</ele>
        <time>2012-10-11T14:56:00Z</time>
      </trkpt>
      <trkpt lat="46.8711" lon="5.69191">
        <ele>298</ele>
        <time>2012-10-11T14:56:02Z</time>
      </trkpt>
      <trkpt lat="46.87122" lon="5.69189">
        <ele>298</ele>
        <time>2012-10-11T14:56:04Z</time>
      </trkpt>
      <trkpt lat="46.87135" lon="5.69186">
        <ele>298</ele>
        <time>2012-10-11T14:56:06Z</time>
      </trkpt>
      <trkpt lat="46.87147" lon="5.69184">
        <ele>298</ele>
        <time>2012-10-11T14:56:08Z</time>
      </trkpt>
      <trkpt lat="46.8716" lon="5.69182">
        <ele>298</ele>
        <time>2012-10-11T14:56:10Z</time>
      </trkpt>
      <trkpt lat="46.87173" lon="5.6918">
        <ele>298</ele>
        <time>2012-10-11T14:56:12Z</time>
      </trkpt>
      <trkpt lat="46.87186" lon="5.69177">
        <ele>298</ele>
        <time>2012-10-11T14:56:14Z</time>
      </trkpt>
      <trkpt lat="46.872" lon="5.69175">
        <ele>298</ele>
        <time>2012-10-11T14:56:16Z</time>
      </trkpt>
      <trkpt lat="46.87212" lon="5.69174">
        <ele>298</ele>
        <time>2012-10-11T14:56:18Z</time>
      </trkpt>
      <trkpt lat="46.87225" lon="5.69172">
        <ele>298</ele>
        <time>2012-10-11T14:56:20Z</time>
      </trkpt>
      <trkpt lat="46.87236" lon="5.6917">
        <ele>298</ele>
        <time>2012-10-11T14:56:22Z</time>
      </trkpt>
      <trkpt lat="46.87248" lon="5.69169">
        <ele>298</ele>
        <time>2012-10-11T14:56:24Z</time>
      </trkpt>
      <trkpt lat="46.8726" lon="5.69168">
        <ele>298</ele>
        <time>2012-10-11T14:56:26Z</time>
      </trkpt>
      <trkpt lat="46.87273" lon="5.69168">
        <ele>298</ele>
        <time>2012-10-11T14:56:28Z</time>
      </trkpt>
      <trkpt lat="46.87285" lon="5.69169">
        <ele>298</ele>
        <time>2012-10-11T14:56:30Z</time>
      </trkpt>
      <trkpt lat="46.87297" lon="5.6917">
        <ele>298</ele>
        <time>2012-10-11T14:56:32Z</time>
      </trkpt>
      <trkpt lat="46.87311" lon="5.69173">
        <ele>298</ele>
        <time>2012-10-11T14:56:34Z</time>
      </trkpt>
      <trkpt lat="46.87325" lon="5.69176">
        <ele>298</ele>
        <time>2012-10-11T14:56:36Z</time>
      </trkpt>
      <trkpt lat="46.87339" lon="5.6918">
        <ele>298</ele>
        <time>2012-10-11T14:56:38Z</time>
      </trkpt>
      <trkpt lat="46.87354" lon="5.69184">
        <ele>298</ele>
        <time>2012-10-11T14:56:40Z</time>
      </trkpt>
      <trkpt lat="46.87369" lon="5.69191">
        <ele>298</ele>
        <time>2012-10-11T14:56:42Z</time>
      </trkpt>
      <trkpt lat="46.87385" lon="5.69198">
        <ele>298</ele>
        <time>2012-10-11T14:56:44Z</time>
      </trkpt>
      <trkpt lat="46.87401" lon="5.69207">
        <ele>298</ele>
        <time>2012-10-11T14:56:46Z</time>
      </trkpt>
      <trkpt lat="46.8741" lon="5.6921">
        <ele>298</ele>
        <time>2012-10-11T14:56:47Z</time>
      </trkpt>
      <trkpt lat="46.87419" lon="5.69216">
        <ele>298</ele>
        <time>2012-10-11T14:56:48Z</time>
      </trkpt>
      <trkpt lat="46.87435" lon="5.69224">
        <ele>298</ele>
        <time>2012-10-11T14:56:50Z</time>
      </trkpt>
      <trkpt lat="46.87445" lon="5.69227">
        <ele>298</ele>
        <time>2012-10-11T14:56:51Z</time>
      </trkpt>
      <trkpt lat="46.87454" lon="5.69229">
        <ele>298</ele>
        <time>2012-10-11T14:56:52Z</time>
      </trkpt>
      <trkpt lat="46.87463" lon="5.69229">
        <ele>298</ele>
        <time>2012-10-11T14:56:53Z</time>
      </trkpt>
      <trkpt lat="46.87472" lon="5.69227">
        <ele>298</ele>
        <time>2012-10-11T14:56:54Z</time>
      </trkpt>
      <trkpt lat="46.87482" lon="5.69224">
        <ele>298</ele>
        <time>2012-10-11T14:56:55Z</time>
      </trkpt>
      <trkpt lat="46.8749" lon="5.69219">
        <ele>298</ele>
        <time>2012-10-11T14:56:56Z</time>
      </trkpt>
      <trkpt lat="46.87499" lon="5.69214">
        <ele>298</ele>
        <time>2012-10-11T14:56:57Z</time>
      </trkpt>
      <trkpt lat="46.87508" lon="5.69208">
        <ele>298</ele>
        <time>2012-10-11T14:56:58Z</time>
      </trkpt>
      <trkpt lat="46.87517" lon="5.692">
        <ele>298</ele>
        <time>2012-10-11T14:56:59Z</time>
      </trkpt>
      <trkpt lat="46.87525" lon="5.69192">
        <ele>298</ele>
        <time>2012-10-11T14:57:00Z</time>
      </trkpt>
      <trkpt lat="46.87534" lon="5.69183">
        <ele>298</ele>
        <time>2012-10-11T14:57:01Z</time>
      </trkpt>
      <trkpt lat="46.87542" lon="5.69174">
        <ele>298</ele>
        <time>2012-10-11T14:57:02Z</time>
      </trkpt>
      <trkpt lat="46.8755" lon="5.69164">
        <ele>298</ele>
        <time>2012-10-11T14:57:03Z</time>
      </trkpt>
      <trkpt lat="46.87558" lon="5.69153">
        <ele>292</ele>
        <time>2012-10-11T14:57:04Z</time>
      </trkpt>
      <trkpt lat="46.87567" lon="5.69142">
        <ele>292</ele>
        <time>2012-10-11T14:57:05Z</time>
      </trkpt>
      <trkpt lat="46.87575" lon="5.6913">
        <ele>292</ele>
        <time>2012-10-11T14:57:06Z</time>
      </trkpt>
      <trkpt lat="46.87584" lon="5.6912">
        <ele>292</ele>
        <time>2012-10-11T14:57:07Z</time>
      </trkpt>
      <trkpt lat="46.87592" lon="5.69108">
        <ele>292</ele>
        <time>2012-10-11T14:57:08Z</time>
      </trkpt>
      <trkpt lat="46.87602" lon="5.69097">
        <ele>287</ele>
        <time>2012-10-11T14:57:09Z</time>
      </trkpt>
      <trkpt lat="46.87611" lon="5.69085">
        <ele>287</ele>
        <time>2012-10-11T14:57:10Z</time>
      </trkpt>
      <trkpt lat="46.8762" lon="5.69074">
        <ele>287</ele>
        <time>2012-10-11T14:57:11Z</time>
      </trkpt>
      <trkpt lat="46.87628" lon="5.69063">
        <ele>287</ele>
        <time>2012-10-11T14:57:12Z</time>
      </trkpt>
      <trkpt lat="46.87638" lon="5.69054">
        <ele>287</ele>
        <time>2012-10-11T14:57:13Z</time>
      </trkpt>
      <trkpt lat="46.87648" lon="5.69047">
        <ele>287</ele>
        <time>2012-10-11T14:57:14Z</time>
      </trkpt>
      <trkpt lat="46.8766" lon="5.69043">
        <ele>281</ele>
        <time>2012-10-11T14:57:15Z</time>
      </trkpt>
      <trkpt lat="46.87672" lon="5.69041">
        <ele>281</ele>
        <time>2012-10-11T14:57:16Z</time>
      </trkpt>
      <trkpt lat="46.87685" lon="5.69041">
        <ele>281</ele>
        <time>2012-10-11T14:57:17Z</time>
      </trkpt>
      <trkpt lat="46.87698" lon="5.69042">
        <ele>281</ele>
        <time>2012-10-11T14:57:18Z</time>
      </trkpt>
      <trkpt lat="46.87711" lon="5.69047">
        <ele>281</ele>
        <time>2012-10-11T14:57:19Z</time>
      </trkpt>
      <trkpt lat="46.87722" lon="5.69053">
        <ele>281</ele>
        <time>2012-10-11T14:57:20Z</time>
      </trkpt>
      <trkpt lat="46.87733" lon="5.69063">
        <ele>281</ele>
        <time>2012-10-11T14:57:21Z</time>
      </trkpt>
      <trkpt lat="46.87743" lon="5.69075">
        <ele>281</ele>
        <time>2012-10-11T14:57:22Z</time>
      </trkpt>
      <trkpt lat="46.87751" lon="5.69088">
        <ele>281</ele>
        <time>2012-10-11T14:57:23Z</time>
      </trkpt>
      <trkpt lat="46.87757" lon="5.69103">
        <ele>281</ele>
        <time>2012-10-11T14:57:24Z</time>
      </trkpt>
      <trkpt lat="46.87762" lon="5.69117">
        <ele>281</ele>
        <time>2012-10-11T14:57:25Z</time>
      </trkpt>
      <trkpt lat="46.87767" lon="5.69131">
        <ele>281</ele>
        <time>2012-10-11T14:57:26Z</time>
      </trkpt>
      <trkpt lat="46.87771" lon="5.69147">
        <ele>281</ele>
        <time>2012-10-11T14:57:27Z</time>
      </trkpt>
      <trkpt lat="46.87774" lon="5.6916">
        <ele>281</ele>
        <time>2012-10-11T14:57:28Z</time>
      </trkpt>
      <trkpt lat="46.87777" lon="5.69174">
        <ele>281</ele>
        <time>2012-10-11T14:57:29Z</time>
      </trkpt>
      <trkpt lat="46.87781" lon="5.69187">
        <ele>281</ele>
        <time>2012-10-11T14:57:30Z</time>
      </trkpt>
      <trkpt lat="46.87784" lon="5.692">
        <ele>281</ele>
        <time>2012-10-11T14:57:31Z</time>
      </trkpt>
      <trkpt lat="46.87791" lon="5.69222">
        <ele>281</ele>
        <time>2012-10-11T14:57:33Z</time>
      </trkpt>
      <trkpt lat="46.87802" lon="5.6924">
        <ele>281</ele>
        <time>2012-10-11T14:57:35Z</time>
      </trkpt>
      <trkpt lat="46.87814" lon="5.69253">
        <ele>281</ele>
        <time>2012-10-11T14:57:37Z</time>
      </trkpt>
      <trkpt lat="46.87827" lon="5.69265">
        <ele>281</ele>
        <time>2012-10-11T14:57:39Z</time>
      </trkpt>
      <trkpt lat="46.87841" lon="5.69275">
        <ele>281</ele>
        <time>2012-10-11T14:57:41Z</time>
      </trkpt>
      <trkpt lat="46.87855" lon="5.69284">
        <ele>287</ele>
        <time>2012-10-11T14:57:43Z</time>
      </trkpt>
      <trkpt lat="46.87868" lon="5.69292">
        <ele>287</ele>
        <time>2012-10-11T14:57:45Z</time>
      </trkpt>
      <trkpt lat="46.87881" lon="5.69301">
        <ele>287</ele>
        <time>2012-10-11T14:57:47Z</time>
      </trkpt>
      <trkpt lat="46.87894" lon="5.6931">
        <ele>287</ele>
        <time>2012-10-11T14:57:49Z</time>
      </trkpt>
      <trkpt lat="46.87905" lon="5.69317">
        <ele>287</ele>
        <time>2012-10-11T14:57:51Z</time>
      </trkpt>
      <trkpt lat="46.87916" lon="5.69325">
        <ele>287</ele>
        <time>2012-10-11T14:57:53Z</time>
      </trkpt>
      <trkpt lat="46.87927" lon="5.69333">
        <ele>287</ele>
        <time>2012-10-11T14:57:55Z</time>
      </trkpt>
      <trkpt lat="46.87936" lon="5.69339">
        <ele>287</ele>
        <time>2012-10-11T14:57:57Z</time>
      </trkpt>
      <trkpt lat="46.87945" lon="5.69346">
        <ele>287</ele>
        <time>2012-10-11T14:57:59Z</time>
      </trkpt>
      <trkpt lat="46.87955" lon="5.69354">
        <ele>287</ele>
        <time>2012-10-11T14:58:01Z</time>
      </trkpt>
      <trkpt lat="46.87964" lon="5.6936">
        <ele>287</ele>
        <time>2012-10-11T14:58:03Z</time>
      </trkpt>
      <trkpt lat="46.87972" lon="5.69368">
        <ele>287</ele>
        <time>2012-10-11T14:58:05Z</time>
      </trkpt>
      <trkpt lat="46.87982" lon="5.69376">
        <ele>287</ele>
        <time>2012-10-11T14:58:07Z</time>
      </trkpt>
      <trkpt lat="46.87991" lon="5.69384">
        <ele>287</ele>
        <time>2012-10-11T14:58:09Z</time>
      </trkpt>
      <trkpt lat="46.88001" lon="5.69394">
        <ele>287</ele>
        <time>2012-10-11T14:58:11Z</time>
      </trkpt>
      <trkpt lat="46.88011" lon="5.69403">
        <ele>287</ele>
        <time>2012-10-11T14:58:13Z</time>
      </trkpt>
      <trkpt lat="46.88021" lon="5.69414">
        <ele>287</ele>
        <time>2012-10-11T14:58:15Z</time>
      </trkpt>
      <trkpt lat="46.8803" lon="5.69425">
        <ele>287</ele>
        <time>2012-10-11T14:58:17Z</time>
      </trkpt>
      <trkpt lat="46.8804" lon="5.69438">
        <ele>287</ele>
        <time>2012-10-11T14:58:19Z</time>
      </trkpt>
      <trkpt lat="46.88048" lon="5.6945">
        <ele>287</ele>
        <time>2012-10-11T14:58:21Z</time>
      </trkpt>
      <trkpt lat="46.88057" lon="5.69463">
        <ele>287</ele>
        <time>2012-10-11T14:58:23Z</time>
      </trkpt>
      <trkpt lat="46.88066" lon="5.69476">
        <ele>287</ele>
        <time>2012-10-11T14:58:25Z</time>
      </trkpt>
      <trkpt lat="46.88076" lon="5.69488">
        <ele>287</ele>
        <time>2012-10-11T14:58:27Z</time>
      </trkpt>
      <trkpt lat="46.88087" lon="5.69496">
        <ele>287</ele>
        <time>2012-10-11T14:58:29Z</time>
      </trkpt>
      <trkpt lat="46.88099" lon="5.695">
        <ele>287</ele>
        <time>2012-10-11T14:58:31Z</time>
      </trkpt>
      <trkpt lat="46.88112" lon="5.695">
        <ele>287</ele>
        <time>2012-10-11T14:58:33Z</time>
      </trkpt>
      <trkpt lat="46.88125" lon="5.69495">
        <ele>287</ele>
        <time>2012-10-11T14:58:35Z</time>
      </trkpt>
      <trkpt lat="46.88138" lon="5.69492">
        <ele>287</ele>
        <time>2012-10-11T14:58:37Z</time>
      </trkpt>
      <trkpt lat="46.8815" lon="5.69488">
        <ele>287</ele>
        <time>2012-10-11T14:58:39Z</time>
      </trkpt>
      <trkpt lat="46.88163" lon="5.69485">
        <ele>287</ele>
        <time>2012-10-11T14:58:41Z</time>
      </trkpt>
      <trkpt lat="46.88176" lon="5.69482">
        <ele>287</ele>
        <time>2012-10-11T14:58:43Z</time>
      </trkpt>
      <trkpt lat="46.88188" lon="5.69479">
        <ele>287</ele>
        <time>2012-10-11T14:58:45Z</time>
      </trkpt>
      <trkpt lat="46.882" lon="5.69477">
        <ele>287</ele>
        <time>2012-10-11T14:58:47Z</time>
      </trkpt>
      <trkpt lat="46.88212" lon="5.69474">
        <ele>287</ele>
        <time>2012-10-11T14:58:49Z</time>
      </trkpt>
      <trkpt lat="46.88224" lon="5.69473">
        <ele>287</ele>
        <time>2012-10-11T14:58:51Z</time>
      </trkpt>
      <trkpt lat="46.88236" lon="5.69471">
        <ele>287</ele>
        <time>2012-10-11T14:58:53Z</time>
      </trkpt>
      <trkpt lat="46.88248" lon="5.69468">
        <ele>287</ele>
        <time>2012-10-11T14:58:55Z</time>
      </trkpt>
      <trkpt lat="46.88259" lon="5.69465">
        <ele>287</ele>
        <time>2012-10-11T14:58:57Z</time>
      </trkpt>
      <trkpt lat="46.88271" lon="5.69463">
        <ele>287</ele>
        <time>2012-10-11T14:58:59Z</time>
      </trkpt>
      <trkpt lat="46.88282" lon="5.69462">
        <ele>287</ele>
        <time>2012-10-11T14:59:01Z</time>
      </trkpt>
      <trkpt lat="46.88293" lon="5.69462">
        <ele>287</ele>
        <time>2012-10-11T14:59:03Z</time>
      </trkpt>
      <trkpt lat="46.88303" lon="5.69462">
        <ele>287</ele>
        <time>2012-10-11T14:59:05Z</time>
      </trkpt>
      <trkpt lat="46.88312" lon="5.69463">
        <ele>287</ele>
        <time>2012-10-11T14:59:07Z</time>
      </trkpt>
      <trkpt lat="46.88322" lon="5.69464">
        <ele>287</ele>
        <time>2012-10-11T14:59:09Z</time>
      </trkpt>
      <trkpt lat="46.88335" lon="5.69463">
        <ele>287</ele>
        <time>2012-10-11T14:59:12Z</time>
      </trkpt>
      <trkpt lat="46.88348" lon="5.69462">
        <ele>287</ele>
        <time>2012-10-11T14:59:15Z</time>
      </trkpt>
      <trkpt lat="46.88357" lon="5.69461">
        <ele>287</ele>
        <time>2012-10-11T14:59:17Z</time>
      </trkpt>
      <trkpt lat="46.88368" lon="5.69459">
        <ele>287</ele>
        <time>2012-10-11T14:59:19Z</time>
      </trkpt>
      <trkpt lat="46.88378" lon="5.69456">
        <ele>287</ele>
        <time>2012-10-11T14:59:21Z</time>
      </trkpt>
      <trkpt lat="46.88388" lon="5.69452">
        <ele>287</ele>
        <time>2012-10-11T14:59:23Z</time>
      </trkpt>
      <trkpt lat="46.88397" lon="5.69447">
        <ele>287</ele>
        <time>2012-10-11T14:59:25Z</time>
      </trkpt>
      <trkpt lat="46.88407" lon="5.6944">
        <ele>287</ele>
        <time>2012-10-11T14:59:27Z</time>
      </trkpt>
      <trkpt lat="46.88418" lon="5.69433">
        <ele>287</ele>
        <time>2012-10-11T14:59:29Z</time>
      </trkpt>
      <trkpt lat="46.88428" lon="5.69427">
        <ele>287</ele>
        <time>2012-10-11T14:59:31Z</time>
      </trkpt>
      <trkpt lat="46.88437" lon="5.69423">
        <ele>287</ele>
        <time>2012-10-11T14:59:33Z</time>
      </trkpt>
      <trkpt lat="46.88447" lon="5.69419">
        <ele>287</ele>
        <time>2012-10-11T14:59:35Z</time>
      </trkpt>
      <trkpt lat="46.88456" lon="5.69415">
        <ele>287</ele>
        <time>2012-10-11T14:59:37Z</time>
      </trkpt>
      <trkpt lat="46.88466" lon="5.6941">
        <ele>287</ele>
        <time>2012-10-11T14:59:39Z</time>
      </trkpt>
      <trkpt lat="46.88477" lon="5.69402">
        <ele>287</ele>
        <time>2012-10-11T14:59:41Z</time>
      </trkpt>
      <trkpt lat="46.88488" lon="5.6939">
        <ele>287</ele>
        <time>2012-10-11T14:59:43Z</time>
      </trkpt>
      <trkpt lat="46.88501" lon="5.69376">
        <ele>287</ele>
        <time>2012-10-11T14:59:45Z</time>
      </trkpt>
      <trkpt lat="46.88514" lon="5.6936">
        <ele>287</ele>
        <time>2012-10-11T14:59:47Z</time>
      </trkpt>
      <trkpt lat="46.88521" lon="5.69352">
        <ele>287</ele>
        <time>2012-10-11T14:59:48Z</time>
      </trkpt>
      <trkpt lat="46.88529" lon="5.69343">
        <ele>287</ele>
        <time>2012-10-11T14:59:49Z</time>
      </trkpt>
      <trkpt lat="46.88536" lon="5.69335">
        <ele>287</ele>
        <time>2012-10-11T14:59:50Z</time>
      </trkpt>
      <trkpt lat="46.88545" lon="5.69328">
        <ele>287</ele>
        <time>2012-10-11T14:59:51Z</time>
      </trkpt>
      <trkpt lat="46.88554" lon="5.69323">
        <ele>287</ele>
        <time>2012-10-11T14:59:52Z</time>
      </trkpt>
      <trkpt lat="46.88563" lon="5.69319">
        <ele>281</ele>
        <time>2012-10-11T14:59:53Z</time>
      </trkpt>
      <trkpt lat="46.88573" lon="5.69316">
        <ele>281</ele>
        <time>2012-10-11T14:59:54Z</time>
      </trkpt>
      <trkpt lat="46.88582" lon="5.69315">
        <ele>281</ele>
        <time>2012-10-11T14:59:55Z</time>
      </trkpt>
      <trkpt lat="46.88591" lon="5.69314">
        <ele>281</ele>
        <time>2012-10-11T14:59:56Z</time>
      </trkpt>
      <trkpt lat="46.88601" lon="5.69315">
        <ele>281</ele>
        <time>2012-10-11T14:59:57Z</time>
      </trkpt>
      <trkpt lat="46.88611" lon="5.69316">
        <ele>281</ele>
        <time>2012-10-11T14:59:58Z</time>
      </trkpt>
      <trkpt lat="46.88621" lon="5.69319">
        <ele>281</ele>
        <time>2012-10-11T14:59:59Z</time>
      </trkpt>
      <trkpt lat="46.88631" lon="5.69323">
        <ele>281</ele>
        <time>2012-10-11T15:00:00Z</time>
      </trkpt>
      <trkpt lat="46.88641" lon="5.69326">
        <ele>281</ele>
        <time>2012-10-11T15:00:01Z</time>
      </trkpt>
      <trkpt lat="46.88652" lon="5.69332">
        <ele>281</ele>
        <time>2012-10-11T15:00:02Z</time>
      </trkpt>
      <trkpt lat="46.88662" lon="5.69338">
        <ele>276</ele>
        <time>2012-10-11T15:00:03Z</time>
      </trkpt>
      <trkpt lat="46.88672" lon="5.69347">
        <ele>276</ele>
        <time>2012-10-11T15:00:04Z</time>
      </trkpt>
      <trkpt lat="46.88682" lon="5.69359">
        <ele>276</ele>
        <time>2012-10-11T15:00:05Z</time>
      </trkpt>
      <trkpt lat="46.88691" lon="5.69371">
        <ele>276</ele>
        <time>2012-10-11T15:00:06Z</time>
      </trkpt>
      <trkpt lat="46.887" lon="5.69384">
        <ele>276</ele>
        <time>2012-10-11T15:00:07Z</time>
      </trkpt>
      <trkpt lat="46.8871" lon="5.69397">
        <ele>276</ele>
        <time>2012-10-11T15:00:08Z</time>
      </trkpt>
      <trkpt lat="46.8872" lon="5.69409">
        <ele>270</ele>
        <time>2012-10-11T15:00:09Z</time>
      </trkpt>
      <trkpt lat="46.88731" lon="5.6942">
        <ele>270</ele>
        <time>2012-10-11T15:00:10Z</time>
      </trkpt>
      <trkpt lat="46.88744" lon="5.6943">
        <ele>270</ele>
        <time>2012-10-11T15:00:11Z</time>
      </trkpt>
      <trkpt lat="46.88756" lon="5.69439">
        <ele>270</ele>
        <time>2012-10-11T15:00:12Z</time>
      </trkpt>
      <trkpt lat="46.88768" lon="5.69447">
        <ele>270</ele>
        <time>2012-10-11T15:00:13Z</time>
      </trkpt>
      <trkpt lat="46.88781" lon="5.69455">
        <ele>270</ele>
        <time>2012-10-11T15:00:14Z</time>
      </trkpt>
      <trkpt lat="46.88793" lon="5.69462">
        <ele>270</ele>
        <time>2012-10-11T15:00:15Z</time>
      </trkpt>
      <trkpt lat="46.88805" lon="5.69468">
        <ele>270</ele>
        <time>2012-10-11T15:00:16Z</time>
      </trkpt>
      <trkpt lat="46.88817" lon="5.69474">
        <ele>264</ele>
        <time>2012-10-11T15:00:17Z</time>
      </trkpt>
      <trkpt lat="46.88829" lon="5.69482">
        <ele>264</ele>
        <time>2012-10-11T15:00:18Z</time>
      </trkpt>
      <trkpt lat="46.88839" lon="5.6949">
        <ele>264</ele>
        <time>2012-10-11T15:00:19Z</time>
      </trkpt>
      <trkpt lat="46.88848" lon="5.69499">
        <ele>264</ele>
        <time>2012-10-11T15:00:20Z</time>
      </trkpt>
      <trkpt lat="46.88857" lon="5.69509">
        <ele>264</ele>
        <time>2012-10-11T15:00:21Z</time>
      </trkpt>
      <trkpt lat="46.88864" lon="5.6952">
        <ele>264</ele>
        <time>2012-10-11T15:00:22Z</time>
      </trkpt>
      <trkpt lat="46.88872" lon="5.69532">
        <ele>264</ele>
        <time>2012-10-11T15:00:23Z</time>
      </trkpt>
      <trkpt lat="46.88878" lon="5.69543">
        <ele>264</ele>
        <time>2012-10-11T15:00:24Z</time>
      </trkpt>
      <trkpt lat="46.88885" lon="5.69554">
        <ele>264</ele>
        <time>2012-10-11T15:00:25Z</time>
      </trkpt>
      <trkpt lat="46.88891" lon="5.69566">
        <ele>264</ele>
        <time>2012-10-11T15:00:26Z</time>
      </trkpt>
      <trkpt lat="46.88898" lon="5.69577">
        <ele>264</ele>
        <time>2012-10-11T15:00:27Z</time>
      </trkpt>
      <trkpt lat="46.88903" lon="5.69588">
        <ele>264</ele>
        <time>2012-10-11T15:00:28Z</time>
      </trkpt>
      <trkpt lat="46.88912" lon="5.69608">
        <ele>264</ele>
        <time>2012-10-11T15:00:30Z</time>
      </trkpt>
      <trkpt lat="46.8892" lon="5.69627">
        <ele>264</ele>
        <time>2012-10-11T15:00:32Z</time>
      </trkpt>
      <trkpt lat="46.88925" lon="5.69647">
        <ele>264</ele>
        <time>2012-10-11T15:00:34Z</time>
      </trkpt>
      <trkpt lat="46.88927" lon="5.69668">
        <ele>264</ele>
        <time>2012-10-11T15:00:36Z</time>
      </trkpt>
      <trkpt lat="46.88923" lon="5.69685">
        <ele>264</ele>
        <time>2012-10-11T15:00:38Z</time>
      </trkpt>
      <trkpt lat="46.88915" lon="5.69699">
        <ele>264</ele>
        <time>2012-10-11T15:00:40Z</time>
      </trkpt>
      <trkpt lat="46.88907" lon="5.69713">
        <ele>264</ele>
        <time>2012-10-11T15:00:42Z</time>
      </trkpt>
      <trkpt lat="46.88899" lon="5.69728">
        <ele>264</ele>
        <time>2012-10-11T15:00:44Z</time>
      </trkpt>
      <trkpt lat="46.88892" lon="5.69746">
        <ele>259</ele>
        <time>2012-10-11T15:00:46Z</time>
      </trkpt>
      <trkpt lat="46.88886" lon="5.69766">
        <ele>259</ele>
        <time>2012-10-11T15:00:48Z</time>
      </trkpt>
      <trkpt lat="46.88885" lon="5.69786">
        <ele>259</ele>
        <time>2012-10-11T15:00:50Z</time>
      </trkpt>
      <trkpt lat="46.88888" lon="5.69806">
        <ele>259</ele>
        <time>2012-10-11T15:00:52Z</time>
      </trkpt>
      <trkpt lat="46.88894" lon="5.69824">
        <ele>259</ele>
        <time>2012-10-11T15:00:54Z</time>
      </trkpt>
      <trkpt lat="46.88902" lon="5.69839">
        <ele>259</ele>
        <time>2012-10-11T15:00:56Z</time>
      </trkpt>
      <trkpt lat="46.88909" lon="5.69854">
        <ele>259</ele>
        <time>2012-10-11T15:00:58Z</time>
      </trkpt>
      <trkpt lat="46.88915" lon="5.69869">
        <ele>259</ele>
        <time>2012-10-11T15:01:00Z</time>
      </trkpt>
      <trkpt lat="46.8892" lon="5.69882">
        <ele>259</ele>
        <time>2012-10-11T15:01:02Z</time>
      </trkpt>
      <trkpt lat="46.88926" lon="5.69895">
        <ele>259</ele>
        <time>2012-10-11T15:01:04Z</time>
      </trkpt>
      <trkpt lat="46.88932" lon="5.69907">
        <ele>259</ele>
        <time>2012-10-11T15:01:06Z</time>
      </trkpt>
      <trkpt lat="46.88938" lon="5.69921">
        <ele>259</ele>
        <time>2012-10-11T15:01:08Z</time>
      </trkpt>
      <trkpt lat="46.88944" lon="5.69935">
        <ele>259</ele>
        <time>2012-10-11T15:01:10Z</time>
      </trkpt>
      <trkpt lat="46.88949" lon="5.6995">
        <ele>259</ele>
        <time>2012-10-11T15:01:12Z</time>
      </trkpt>
      <trkpt lat="46.88954" lon="5.69965">
        <ele>259</ele>
        <time>2012-10-11T15:01:14Z</time>
      </trkpt>
      <trkpt lat="46.88959" lon="5.6998">
        <ele>259</ele>
        <time>2012-10-11T15:01:16Z</time>
      </trkpt>
      <trkpt lat="46.88965" lon="5.69994">
        <ele>259</ele>
        <time>2012-10-11T15:01:18Z</time>
      </trkpt>
      <trkpt lat="46.8897" lon="5.70008">
        <ele>259</ele>
        <time>2012-10-11T15:01:20Z</time>
      </trkpt>
      <trkpt lat="46.88975" lon="5.70022">
        <ele>259</ele>
        <time>2012-10-11T15:01:22Z</time>
      </trkpt>
      <trkpt lat="46.88981" lon="5.70036">
        <ele>259</ele>
        <time>2012-10-11T15:01:24Z</time>
      </trkpt>
      <trkpt lat="46.88988" lon="5.70047">
        <ele>259</ele>
        <time>2012-10-11T15:01:26Z</time>
      </trkpt>
      <trkpt lat="46.88996" lon="5.70056">
        <ele>259</ele>
        <time>2012-10-11T15:01:28Z</time>
      </trkpt>
      <trkpt lat="46.89005" lon="5.70064">
        <ele>259</ele>
        <time>2012-10-11T15:01:30Z</time>
      </trkpt>
      <trkpt lat="46.89013" lon="5.70071">
        <ele>259</ele>
        <time>2012-10-11T15:01:32Z</time>
      </trkpt>
      <trkpt lat="46.89024" lon="5.70075">
        <ele>259</ele>
        <time>2012-10-11T15:01:35Z</time>
      </trkpt>
      <trkpt lat="46.89034" lon="5.70072">
        <ele>259</ele>
        <time>2012-10-11T15:01:37Z</time>
      </trkpt>
      <trkpt lat="46.89042" lon="5.70063">
        <ele>259</ele>
        <time>2012-10-11T15:01:39Z</time>
      </trkpt>
      <trkpt lat="46.8905" lon="5.70051">
        <ele>259</ele>
        <time>2012-10-11T15:01:41Z</time>
      </trkpt>
      <trkpt lat="46.89056" lon="5.70038">
        <ele>259</ele>
        <time>2012-10-11T15:01:43Z</time>
      </trkpt>
      <trkpt lat="46.89063" lon="5.70024">
        <ele>259</ele>
        <time>2012-10-11T15:01:45Z</time>
      </trkpt>
      <trkpt lat="46.89069" lon="5.70011">
        <ele>259</ele>
        <time>2012-10-11T15:01:47Z</time>
      </trkpt>
      <trkpt lat="46.89075" lon="5.7">
        <ele>259</ele>
        <time>2012-10-11T15:01:49Z</time>
      </trkpt>
      <trkpt lat="46.89081" lon="5.6999">
        <ele>259</ele>
        <time>2012-10-11T15:01:51Z</time>
      </trkpt>
      <trkpt lat="46.89089" lon="5.69976">
        <ele>259</ele>
        <time>2012-10-11T15:01:54Z</time>
      </trkpt>
      <trkpt lat="46.89096" lon="5.69961">
        <ele>259</ele>
        <time>2012-10-11T15:01:57Z</time>
      </trkpt>
      <trkpt lat="46.89104" lon="5.6995">
        <ele>259</ele>
        <time>2012-10-11T15:02:00Z</time>
      </trkpt>
      <trkpt lat="46.89112" lon="5.69944">
        <ele>259</ele>
        <time>2012-10-11T15:02:03Z</time>
      </trkpt>
      <trkpt lat="46.89123" lon="5.69945">
        <ele>259</ele>
        <time>2012-10-11T15:04:17Z</time>
      </trkpt>
      <trkpt lat="46.89132" lon="5.69949">
        <ele>259</ele>
        <time>2012-10-11T15:04:21Z</time>
      </trkpt>
      <trkpt lat="46.89144" lon="5.69952">
        <ele>259</ele>
        <time>2012-10-11T15:04:25Z</time>
      </trkpt>
      <trkpt lat="46.89153" lon="5.69956">
        <ele>259</ele>
        <time>2012-10-11T15:04:28Z</time>
      </trkpt>
      <trkpt lat="46.89164" lon="5.6996">
        <ele>259</ele>
        <time>2012-10-11T15:04:31Z</time>
      </trkpt>
      <trkpt lat="46.89175" lon="5.69965">
        <ele>264</ele>
        <time>2012-10-11T15:04:34Z</time>
      </trkpt>
      <trkpt lat="46.89188" lon="5.69969">
        <ele>264</ele>
        <time>2012-10-11T15:04:37Z</time>
      </trkpt>
      <trkpt lat="46.89197" lon="5.69971">
        <ele>264</ele>
        <time>2012-10-11T15:04:39Z</time>
      </trkpt>
      <trkpt lat="46.8921" lon="5.69976">
        <ele>264</ele>
        <time>2012-10-11T15:04:42Z</time>
      </trkpt>
      <trkpt lat="46.89219" lon="5.6998">
        <ele>264</ele>
        <time>2012-10-11T15:04:44Z</time>
      </trkpt>
      <trkpt lat="46.89228" lon="5.69987">
        <ele>264</ele>
        <time>2012-10-11T15:04:46Z</time>
      </trkpt>
      <trkpt lat="46.89239" lon="5.69994">
        <ele>264</ele>
        <time>2012-10-11T15:04:49Z</time>
      </trkpt>
      <trkpt lat="46.89251" lon="5.69998">
        <ele>264</ele>
        <time>2012-10-11T15:04:52Z</time>
      </trkpt>
      <trkpt lat="46.89262" lon="5.69999">
        <ele>264</ele>
        <time>2012-10-11T15:04:55Z</time>
      </trkpt>
      <trkpt lat="46.89274" lon="5.69998">
        <ele>264</ele>
        <time>2012-10-11T15:04:58Z</time>
      </trkpt>
      <trkpt lat="46.89284" lon="5.69995">
        <ele>264</ele>
        <time>2012-10-11T15:05:01Z</time>
      </trkpt>
      <trkpt lat="46.89293" lon="5.69993">
        <ele>264</ele>
        <time>2012-10-11T15:05:04Z</time>
      </trkpt>
      <trkpt lat="46.89302" lon="5.69992">
        <ele>264</ele>
        <time>2012-10-11T15:05:07Z</time>
      </trkpt>
      <trkpt lat="46.89312" lon="5.69989">
        <ele>264</ele>
        <time>2012-10-11T15:05:10Z</time>
      </trkpt>
      <trkpt lat="46.89321" lon="5.69986">
        <ele>264</ele>
        <time>2012-10-11T15:05:13Z</time>
      </trkpt>
      <trkpt lat="46.89331" lon="5.69979">
        <ele>264</ele>
        <time>2012-10-11T15:05:16Z</time>
      </trkpt>
      <trkpt lat="46.8934" lon="5.69971">
        <ele>264</ele>
        <time>2012-10-11T15:05:19Z</time>
      </trkpt>
      <trkpt lat="46.89349" lon="5.69961">
        <ele>264</ele>
        <time>2012-10-11T15:05:22Z</time>
      </trkpt>
      <trkpt lat="46.89358" lon="5.69951">
        <ele>270</ele>
        <time>2012-10-11T15:05:25Z</time>
      </trkpt>
      <trkpt lat="46.89367" lon="5.6994">
        <ele>270</ele>
        <time>2012-10-11T15:05:28Z</time>
      </trkpt>
      <trkpt lat="46.89378" lon="5.69928">
        <ele>270</ele>
        <time>2012-10-11T15:05:31Z</time>
      </trkpt>
      <trkpt lat="46.89386" lon="5.69919">
        <ele>270</ele>
        <time>2012-10-11T15:05:33Z</time>
      </trkpt>
      <trkpt lat="46.89394" lon="5.69911">
        <ele>270</ele>
        <time>2012-10-11T15:05:35Z</time>
      </trkpt>
      <trkpt lat="46.89403" lon="5.69903">
        <ele>270</ele>
        <time>2012-10-11T15:05:37Z</time>
      </trkpt>
      <trkpt lat="46.89412" lon="5.69895">
        <ele>270</ele>
        <time>2012-10-11T15:05:39Z</time>
      </trkpt>
      <trkpt lat="46.89422" lon="5.69886">
        <ele>270</ele>
        <time>2012-10-11T15:05:41Z</time>
      </trkpt>
      <trkpt lat="46.89431" lon="5.69877">
        <ele>270</ele>
        <time>2012-10-11T15:05:43Z</time>
      </trkpt>
      <trkpt lat="46.89441" lon="5.69869">
        <ele>270</ele>
        <time>2012-10-11T15:05:45Z</time>
      </trkpt>
      <trkpt lat="46.8945" lon="5.6986">
        <ele>270</ele>
        <time>2012-10-11T15:05:47Z</time>
      </trkpt>
      <trkpt lat="46.89459" lon="5.69851">
        <ele>270</ele>
        <time>2012-10-11T15:05:49Z</time>
      </trkpt>
      <trkpt lat="46.89468" lon="5.69841">
        <ele>270</ele>
        <time>2012-10-11T15:05:51Z</time>
      </trkpt>
      <trkpt lat="46.89476" lon="5.6983">
        <ele>270</ele>
        <time>2012-10-11T15:05:53Z</time>
      </trkpt>
      <trkpt lat="46.89484" lon="5.69819">
        <ele>270</ele>
        <time>2012-10-11T15:05:55Z</time>
      </trkpt>
      <trkpt lat="46.89491" lon="5.69808">
        <ele>270</ele>
        <time>2012-10-11T15:05:57Z</time>
      </trkpt>
      <trkpt lat="46.89499" lon="5.69796">
        <ele>270</ele>
        <time>2012-10-11T15:05:59Z</time>
      </trkpt>
      <trkpt lat="46.89505" lon="5.69785">
        <ele>270</ele>
        <time>2012-10-11T15:06:01Z</time>
      </trkpt>
      <trkpt lat="46.89512" lon="5.69774">
        <ele>270</ele>
        <time>2012-10-11T15:06:03Z</time>
      </trkpt>
      <trkpt lat="46.89518" lon="5.69764">
        <ele>270</ele>
        <time>2012-10-11T15:06:05Z</time>
      </trkpt>
      <trkpt lat="46.89524" lon="5.69753">
        <ele>270</ele>
        <time>2012-10-11T15:06:07Z</time>
      </trkpt>
      <trkpt lat="46.89531" lon="5.69743">
        <ele>270</ele>
        <time>2012-10-11T15:06:09Z</time>
      </trkpt>
      <trkpt lat="46.89537" lon="5.69732">
        <ele>270</ele>
        <time>2012-10-11T15:06:11Z</time>
      </trkpt>
      <trkpt lat="46.89544" lon="5.69722">
        <ele>270</ele>
        <time>2012-10-11T15:06:13Z</time>
      </trkpt>
      <trkpt lat="46.8955" lon="5.69712">
        <ele>270</ele>
        <time>2012-10-11T15:06:15Z</time>
      </trkpt>
      <trkpt lat="46.89557" lon="5.69703">
        <ele>270</ele>
        <time>2012-10-11T15:06:17Z</time>
      </trkpt>
      <trkpt lat="46.89566" lon="5.69689">
        <ele>270</ele>
        <time>2012-10-11T15:06:20Z</time>
      </trkpt>
      <trkpt lat="46.89576" lon="5.69677">
        <ele>270</ele>
        <time>2012-10-11T15:06:23Z</time>
      </trkpt>
      <trkpt lat="46.89584" lon="5.69666">
        <ele>270</ele>
        <time>2012-10-11T15:06:26Z</time>
      </trkpt>
      <trkpt lat="46.89592" lon="5.69658">
        <ele>270</ele>
        <time>2012-10-11T15:06:28Z</time>
      </trkpt>
      <trkpt lat="46.896" lon="5.69647">
        <ele>270</ele>
        <time>2012-10-11T15:06:30Z</time>
      </trkpt>
      <trkpt lat="46.89611" lon="5.69635">
        <ele>270</ele>
        <time>2012-10-11T15:06:32Z</time>
      </trkpt>
      <trkpt lat="46.89622" lon="5.69623">
        <ele>270</ele>
        <time>2012-10-11T15:06:34Z</time>
      </trkpt>
      <trkpt lat="46.89634" lon="5.69608">
        <ele>270</ele>
        <time>2012-10-11T15:06:36Z</time>
      </trkpt>
      <trkpt lat="46.89646" lon="5.69595">
        <ele>270</ele>
        <time>2012-10-11T15:06:38Z</time>
      </trkpt>
      <trkpt lat="46.89659" lon="5.6958">
        <ele>270</ele>
        <time>2012-10-11T15:06:40Z</time>
      </trkpt>
      <trkpt lat="46.89672" lon="5.69565">
        <ele>270</ele>
        <time>2012-10-11T15:06:42Z</time>
      </trkpt>
      <trkpt lat="46.89684" lon="5.69551">
        <ele>270</ele>
        <time>2012-10-11T15:06:44Z</time>
      </trkpt>
      <trkpt lat="46.89696" lon="5.69537">
        <ele>270</ele>
        <time>2012-10-11T15:06:46Z</time>
      </trkpt>
      <trkpt lat="46.89706" lon="5.69525">
        <ele>270</ele>
        <time>2012-10-11T15:06:48Z</time>
      </trkpt>
      <trkpt lat="46.89715" lon="5.69512">
        <ele>270</ele>
        <time>2012-10-11T15:06:50Z</time>
      </trkpt>
      <trkpt lat="46.89723" lon="5.695">
        <ele>270</ele>
        <time>2012-10-11T15:06:52Z</time>
      </trkpt>
      <trkpt lat="46.8973" lon="5.69486">
        <ele>270</ele>
        <time>2012-10-11T15:06:54Z</time>
      </trkpt>
      <trkpt lat="46.89736" lon="5.69472">
        <ele>270</ele>
        <time>2012-10-11T15:06:56Z</time>
      </trkpt>
      <trkpt lat="46.89744" lon="5.69456">
        <ele>270</ele>
        <time>2012-10-11T15:06:58Z</time>
      </trkpt>
      <trkpt lat="46.89752" lon="5.6944">
        <ele>270</ele>
        <time>2012-10-11T15:07:00Z</time>
      </trkpt>
      <trkpt lat="46.89762" lon="5.69425">
        <ele>265</ele>
        <time>2012-10-11T15:07:02Z</time>
      </trkpt>
      <trkpt lat="46.89775" lon="5.69412">
        <ele>265</ele>
        <time>2012-10-11T15:07:04Z</time>
      </trkpt>
      <trkpt lat="46.89791" lon="5.69406">
        <ele>265</ele>
        <time>2012-10-11T15:07:06Z</time>
      </trkpt>
      <trkpt lat="46.89808" lon="5.69403">
        <ele>265</ele>
        <time>2012-10-11T15:07:08Z</time>
      </trkpt>
      <trkpt lat="46.89818" lon="5.69402">
        <ele>265</ele>
        <time>2012-10-11T15:07:09Z</time>
      </trkpt>
      <trkpt lat="46.89827" lon="5.694">
        <ele>265</ele>
        <time>2012-10-11T15:07:10Z</time>
      </trkpt>
      <trkpt lat="46.89836" lon="5.69398">
        <ele>259</ele>
        <time>2012-10-11T15:07:11Z</time>
      </trkpt>
      <trkpt lat="46.89845" lon="5.69396">
        <ele>259</ele>
        <time>2012-10-11T15:07:12Z</time>
      </trkpt>
      <trkpt lat="46.89855" lon="5.69396">
        <ele>259</ele>
        <time>2012-10-11T15:07:13Z</time>
      </trkpt>
      <trkpt lat="46.89865" lon="5.69397">
        <ele>259</ele>
        <time>2012-10-11T15:07:14Z</time>
      </trkpt>
      <trkpt lat="46.89875" lon="5.694">
        <ele>259</ele>
        <time>2012-10-11T15:07:15Z</time>
      </trkpt>
      <trkpt lat="46.89885" lon="5.69404">
        <ele>259</ele>
        <time>2012-10-11T15:07:16Z</time>
      </trkpt>
      <trkpt lat="46.89895" lon="5.6941">
        <ele>259</ele>
        <time>2012-10-11T15:07:17Z</time>
      </trkpt>
      <trkpt lat="46.89904" lon="5.69416">
        <ele>259</ele>
        <time>2012-10-11T15:07:18Z</time>
      </trkpt>
      <trkpt lat="46.89914" lon="5.69423">
        <ele>259</ele>
        <time>2012-10-11T15:07:19Z</time>
      </trkpt>
      <trkpt lat="46.89922" lon="5.6943">
        <ele>259</ele>
        <time>2012-10-11T15:07:20Z</time>
      </trkpt>
      <trkpt lat="46.8993" lon="5.69439">
        <ele>259</ele>
        <time>2012-10-11T15:07:21Z</time>
      </trkpt>
      <trkpt lat="46.89938" lon="5.69448">
        <ele>254</ele>
        <time>2012-10-11T15:07:22Z</time>
      </trkpt>
      <trkpt lat="46.89948" lon="5.6947">
        <ele>254</ele>
        <time>2012-10-11T15:07:24Z</time>
      </trkpt>
      <trkpt lat="46.89951" lon="5.69483">
        <ele>254</ele>
        <time>2012-10-11T15:07:25Z</time>
      </trkpt>
      <trkpt lat="46.89954" lon="5.69505">
        <ele>254</ele>
        <time>2012-10-11T15:07:27Z</time>
      </trkpt>
      <trkpt lat="46.8996" lon="5.69523">
        <ele>254</ele>
        <time>2012-10-11T15:07:29Z</time>
      </trkpt>
      <trkpt lat="46.89968" lon="5.69539">
        <ele>254</ele>
        <time>2012-10-11T15:07:31Z</time>
      </trkpt>
      <trkpt lat="46.89976" lon="5.69554">
        <ele>254</ele>
        <time>2012-10-11T15:07:33Z</time>
      </trkpt>
      <trkpt lat="46.89986" lon="5.69567">
        <ele>254</ele>
        <time>2012-10-11T15:07:35Z</time>
      </trkpt>
      <trkpt lat="46.89996" lon="5.69578">
        <ele>254</ele>
        <time>2012-10-11T15:07:37Z</time>
      </trkpt>
      <trkpt lat="46.90006" lon="5.69586">
        <ele>254</ele>
        <time>2012-10-11T15:07:39Z</time>
      </trkpt>
      <trkpt lat="46.90018" lon="5.69593">
        <ele>254</ele>
        <time>2012-10-11T15:07:41Z</time>
      </trkpt>
      <trkpt lat="46.90029" lon="5.69599">
        <ele>260</ele>
        <time>2012-10-11T15:07:43Z</time>
      </trkpt>
      <trkpt lat="46.90039" lon="5.69605">
        <ele>260</ele>
        <time>2012-10-11T15:07:45Z</time>
      </trkpt>
      <trkpt lat="46.9005" lon="5.6961">
        <ele>260</ele>
        <time>2012-10-11T15:07:47Z</time>
      </trkpt>
      <trkpt lat="46.9006" lon="5.69616">
        <ele>260</ele>
        <time>2012-10-11T15:07:49Z</time>
      </trkpt>
      <trkpt lat="46.90069" lon="5.69622">
        <ele>260</ele>
        <time>2012-10-11T15:07:51Z</time>
      </trkpt>
      <trkpt lat="46.90077" lon="5.69626">
        <ele>260</ele>
        <time>2012-10-11T15:07:53Z</time>
      </trkpt>
      <trkpt lat="46.90087" lon="5.6963">
        <ele>260</ele>
        <time>2012-10-11T15:07:55Z</time>
      </trkpt>
      <trkpt lat="46.90096" lon="5.69634">
        <ele>260</ele>
        <time>2012-10-11T15:07:57Z</time>
      </trkpt>
      <trkpt lat="46.90105" lon="5.69637">
        <ele>265</ele>
        <time>2012-10-11T15:07:59Z</time>
      </trkpt>
      <trkpt lat="46.90118" lon="5.69639">
        <ele>265</ele>
        <time>2012-10-11T15:08:02Z</time>
      </trkpt>
      <trkpt lat="46.90131" lon="5.6964">
        <ele>265</ele>
        <time>2012-10-11T15:08:05Z</time>
      </trkpt>
      <trkpt lat="46.90143" lon="5.69638">
        <ele>265</ele>
        <time>2012-10-11T15:08:08Z</time>
      </trkpt>
      <trkpt lat="46.90154" lon="5.69633">
        <ele>265</ele>
        <time>2012-10-11T15:08:11Z</time>
      </trkpt>
      <trkpt lat="46.90163" lon="5.69625">
        <ele>271</ele>
        <time>2012-10-11T15:08:14Z</time>
      </trkpt>
      <trkpt lat="46.90171" lon="5.69615">
        <ele>271</ele>
        <time>2012-10-11T15:08:17Z</time>
      </trkpt>
      <trkpt lat="46.90178" lon="5.69606">
        <ele>271</ele>
        <time>2012-10-11T15:08:20Z</time>
      </trkpt>
      <trkpt lat="46.90186" lon="5.69597">
        <ele>271</ele>
        <time>2012-10-11T15:08:23Z</time>
      </trkpt>
      <trkpt lat="46.90195" lon="5.69589">
        <ele>271</ele>
        <time>2012-10-11T15:08:28Z</time>
      </trkpt>
      <trkpt lat="46.90201" lon="5.69579">
        <ele>271</ele>
        <time>2012-10-11T15:08:34Z</time>
      </trkpt>
      <trkpt lat="46.90205" lon="5.69564">
        <ele>271</ele>
        <time>2012-10-11T15:08:39Z</time>
      </trkpt>
      <trkpt lat="46.90212" lon="5.69551">
        <ele>271</ele>
        <time>2012-10-11T15:08:43Z</time>
      </trkpt>
      <trkpt lat="46.90218" lon="5.69538">
        <ele>271</ele>
        <time>2012-10-11T15:08:47Z</time>
      </trkpt>
      <trkpt lat="46.90224" lon="5.69527">
        <ele>277</ele>
        <time>2012-10-11T15:08:51Z</time>
      </trkpt>
      <trkpt lat="46.9023" lon="5.69514">
        <ele>277</ele>
        <time>2012-10-11T15:08:55Z</time>
      </trkpt>
      <trkpt lat="46.90237" lon="5.695">
        <ele>277</ele>
        <time>2012-10-11T15:08:59Z</time>
      </trkpt>
      <trkpt lat="46.90242" lon="5.69486">
        <ele>277</ele>
        <time>2012-10-11T15:09:03Z</time>
      </trkpt>
      <trkpt lat="46.90245" lon="5.69472">
        <ele>277</ele>
        <time>2012-10-11T15:09:07Z</time>
      </trkpt>
      <trkpt lat="46.90249" lon="5.69456">
        <ele>277</ele>
        <time>2012-10-11T15:09:11Z</time>
      </trkpt>
      <trkpt lat="46.90251" lon="5.6944">
        <ele>283</ele>
        <time>2012-10-11T15:09:15Z</time>
      </trkpt>
      <trkpt lat="46.9025" lon="5.69426">
        <ele>283</ele>
        <time>2012-10-11T15:09:18Z</time>
      </trkpt>
      <trkpt lat="46.90247" lon="5.69412">
        <ele>283</ele>
        <time>2012-10-11T15:09:21Z</time>
      </trkpt>
      <trkpt lat="46.90242" lon="5.69394">
        <ele>283</ele>
        <time>2012-10-11T15:09:24Z</time>
      </trkpt>
      <trkpt lat="46.90242" lon="5.6938">
        <ele>283</ele>
        <time>2012-10-11T15:09:26Z</time>
      </trkpt>
      <trkpt lat="46.90248" lon="5.69367">
        <ele>283</ele>
        <time>2012-10-11T15:09:28Z</time>
      </trkpt>
      <trkpt lat="46.90256" lon="5.69359">
        <ele>283</ele>
        <time>2012-10-11T15:09:30Z</time>
      </trkpt>
      <trkpt lat="46.90263" lon="5.6935">
        <ele>283</ele>
        <time>2012-10-11T15:09:32Z</time>
      </trkpt>
      <trkpt lat="46.90271" lon="5.69341">
        <ele>283</ele>
        <time>2012-10-11T15:09:34Z</time>
      </trkpt>
      <trkpt lat="46.90279" lon="5.69332">
        <ele>283</ele>
        <time>2012-10-11T15:09:36Z</time>
      </trkpt>
      <trkpt lat="46.90288" lon="5.69324">
        <ele>283</ele>
        <time>2012-10-11T15:09:38Z</time>
      </trkpt>
      <trkpt lat="46.90297" lon="5.69315">
        <ele>283</ele>
        <time>2012-10-11T15:09:40Z</time>
      </trkpt>
      <trkpt lat="46.90306" lon="5.69307">
        <ele>283</ele>
        <time>2012-10-11T15:09:42Z</time>
      </trkpt>
      <trkpt lat="46.90315" lon="5.69299">
        <ele>283</ele>
        <time>2012-10-11T15:09:44Z</time>
      </trkpt>
      <trkpt lat="46.90324" lon="5.6929">
        <ele>283</ele>
        <time>2012-10-11T15:09:46Z</time>
      </trkpt>
      <trkpt lat="46.90331" lon="5.69279">
        <ele>283</ele>
        <time>2012-10-11T15:09:48Z</time>
      </trkpt>
      <trkpt lat="46.90337" lon="5.69265">
        <ele>283</ele>
        <time>2012-10-11T15:09:50Z</time>
      </trkpt>
      <trkpt lat="46.90341" lon="5.6925">
        <ele>283</ele>
        <time>2012-10-11T15:09:52Z</time>
      </trkpt>
      <trkpt lat="46.90343" lon="5.69233">
        <ele>283</ele>
        <time>2012-10-11T15:09:54Z</time>
      </trkpt>
      <trkpt lat="46.90346" lon="5.69215">
        <ele>283</ele>
        <time>2012-10-11T15:09:56Z</time>
      </trkpt>
      <trkpt lat="46.90349" lon="5.69197">
        <ele>283</ele>
        <time>2012-10-11T15:09:58Z</time>
      </trkpt>
      <trkpt lat="46.90352" lon="5.6918">
        <ele>278</ele>
        <time>2012-10-11T15:10:00Z</time>
      </trkpt>
      <trkpt lat="46.90355" lon="5.69162">
        <ele>278</ele>
        <time>2012-10-11T15:10:02Z</time>
      </trkpt>
      <trkpt lat="46.90358" lon="5.69143">
        <ele>278</ele>
        <time>2012-10-11T15:10:04Z</time>
      </trkpt>
      <trkpt lat="46.90362" lon="5.69124">
        <ele>278</ele>
        <time>2012-10-11T15:10:06Z</time>
      </trkpt>
      <trkpt lat="46.90366" lon="5.69104">
        <ele>278</ele>
        <time>2012-10-11T15:10:08Z</time>
      </trkpt>
      <trkpt lat="46.90369" lon="5.69085">
        <ele>278</ele>
        <time>2012-10-11T15:10:10Z</time>
      </trkpt>
      <trkpt lat="46.90374" lon="5.69066">
        <ele>278</ele>
        <time>2012-10-11T15:10:12Z</time>
      </trkpt>
      <trkpt lat="46.9038" lon="5.69048">
        <ele>278</ele>
        <time>2012-10-11T15:10:14Z</time>
      </trkpt>
      <trkpt lat="46.90389" lon="5.69032">
        <ele>278</ele>
        <time>2012-10-11T15:10:16Z</time>
      </trkpt>
      <trkpt lat="46.904" lon="5.6902">
        <ele>278</ele>
        <time>2012-10-11T15:10:18Z</time>
      </trkpt>
      <trkpt lat="46.90412" lon="5.6901">
        <ele>278</ele>
        <time>2012-10-11T15:10:20Z</time>
      </trkpt>
      <trkpt lat="46.90425" lon="5.68999">
        <ele>278</ele>
        <time>2012-10-11T15:10:22Z</time>
      </trkpt>
      <trkpt lat="46.90439" lon="5.68986">
        <ele>278</ele>
        <time>2012-10-11T15:10:24Z</time>
      </trkpt>
      <trkpt lat="46.90454" lon="5.68972">
        <ele>278</ele>
        <time>2012-10-11T15:10:26Z</time>
      </trkpt>
      <trkpt lat="46.9047" lon="5.6896">
        <ele>278</ele>
        <time>2012-10-11T15:10:28Z</time>
      </trkpt>
      <trkpt lat="46.90486" lon="5.68944">
        <ele>278</ele>
        <time>2012-10-11T15:10:30Z</time>
      </trkpt>
      <trkpt lat="46.90493" lon="5.68935">
        <ele>278</ele>
        <time>2012-10-11T15:10:31Z</time>
      </trkpt>
      <trkpt lat="46.90508" lon="5.68918">
        <ele>278</ele>
        <time>2012-10-11T15:10:33Z</time>
      </trkpt>
      <trkpt lat="46.90515" lon="5.68909">
        <ele>278</ele>
        <time>2012-10-11T15:10:34Z</time>
      </trkpt>
      <trkpt lat="46.90523" lon="5.68901">
        <ele>272</ele>
        <time>2012-10-11T15:10:35Z</time>
      </trkpt>
      <trkpt lat="46.9053" lon="5.68892">
        <ele>272</ele>
        <time>2012-10-11T15:10:36Z</time>
      </trkpt>
      <trkpt lat="46.90538" lon="5.68882">
        <ele>272</ele>
        <time>2012-10-11T15:10:37Z</time>
      </trkpt>
      <trkpt lat="46.90545" lon="5.68873">
        <ele>272</ele>
        <time>2012-10-11T15:10:38Z</time>
      </trkpt>
      <trkpt lat="46.90553" lon="5.68864">
        <ele>272</ele>
        <time>2012-10-11T15:10:39Z</time>
      </trkpt>
      <trkpt lat="46.9056" lon="5.68856">
        <ele>272</ele>
        <time>2012-10-11T15:10:40Z</time>
      </trkpt>
      <trkpt lat="46.90567" lon="5.68846">
        <ele>272</ele>
        <time>2012-10-11T15:10:41Z</time>
      </trkpt>
      <trkpt lat="46.90574" lon="5.68835">
        <ele>272</ele>
        <time>2012-10-11T15:10:42Z</time>
      </trkpt>
      <trkpt lat="46.9058" lon="5.68824">
        <ele>272</ele>
        <time>2012-10-11T15:10:43Z</time>
      </trkpt>
      <trkpt lat="46.90587" lon="5.68813">
        <ele>272</ele>
        <time>2012-10-11T15:10:44Z</time>
      </trkpt>
      <trkpt lat="46.90594" lon="5.68803">
        <ele>267</ele>
        <time>2012-10-11T15:10:45Z</time>
      </trkpt>
      <trkpt lat="46.90602" lon="5.68792">
        <ele>267</ele>
        <time>2012-10-11T15:10:46Z</time>
      </trkpt>
      <trkpt lat="46.90611" lon="5.68781">
        <ele>267</ele>
        <time>2012-10-11T15:10:47Z</time>
      </trkpt>
      <trkpt lat="46.9062" lon="5.68771">
        <ele>267</ele>
        <time>2012-10-11T15:10:48Z</time>
      </trkpt>
      <trkpt lat="46.90629" lon="5.68762">
        <ele>267</ele>
        <time>2012-10-11T15:10:49Z</time>
      </trkpt>
      <trkpt lat="46.9064" lon="5.68753">
        <ele>267</ele>
        <time>2012-10-11T15:10:50Z</time>
      </trkpt>
      <trkpt lat="46.9065" lon="5.68746">
        <ele>261</ele>
        <time>2012-10-11T15:10:51Z</time>
      </trkpt>
      <trkpt lat="46.90661" lon="5.6874">
        <ele>261</ele>
        <time>2012-10-11T15:10:52Z</time>
      </trkpt>
      <trkpt lat="46.90672" lon="5.68734">
        <ele>261</ele>
        <time>2012-10-11T15:10:53Z</time>
      </trkpt>
      <trkpt lat="46.90684" lon="5.68732">
        <ele>261</ele>
        <time>2012-10-11T15:10:54Z</time>
      </trkpt>
      <trkpt lat="46.90695" lon="5.6873">
        <ele>261</ele>
        <time>2012-10-11T15:10:55Z</time>
      </trkpt>
      <trkpt lat="46.90707" lon="5.68729">
        <ele>261</ele>
        <time>2012-10-11T15:10:56Z</time>
      </trkpt>
      <trkpt lat="46.90718" lon="5.68731">
        <ele>261</ele>
        <time>2012-10-11T15:10:57Z</time>
      </trkpt>
      <trkpt lat="46.9073" lon="5.68734">
        <ele>256</ele>
        <time>2012-10-11T15:10:58Z</time>
      </trkpt>
      <trkpt lat="46.90742" lon="5.68738">
        <ele>256</ele>
        <time>2012-10-11T15:10:59Z</time>
      </trkpt>
      <trkpt lat="46.90755" lon="5.68741">
        <ele>256</ele>
        <time>2012-10-11T15:11:00Z</time>
      </trkpt>
      <trkpt lat="46.90767" lon="5.68743">
        <ele>256</ele>
        <time>2012-10-11T15:11:01Z</time>
      </trkpt>
      <trkpt lat="46.90779" lon="5.68744">
        <ele>256</ele>
        <time>2012-10-11T15:11:02Z</time>
      </trkpt>
      <trkpt lat="46.90792" lon="5.68743">
        <ele>256</ele>
        <time>2012-10-11T15:11:03Z</time>
      </trkpt>
      <trkpt lat="46.90804" lon="5.68741">
        <ele>256</ele>
        <time>2012-10-11T15:11:04Z</time>
      </trkpt>
      <trkpt lat="46.90816" lon="5.6874">
        <ele>251</ele>
        <time>2012-10-11T15:11:05Z</time>
      </trkpt>
      <trkpt lat="46.90827" lon="5.68736">
        <ele>251</ele>
        <time>2012-10-11T15:11:06Z</time>
      </trkpt>
      <trkpt lat="46.90838" lon="5.68732">
        <ele>251</ele>
        <time>2012-10-11T15:11:07Z</time>
      </trkpt>
      <trkpt lat="46.90848" lon="5.68726">
        <ele>251</ele>
        <time>2012-10-11T15:11:08Z</time>
      </trkpt>
      <trkpt lat="46.90858" lon="5.68721">
        <ele>251</ele>
        <time>2012-10-11T15:11:09Z</time>
      </trkpt>
      <trkpt lat="46.90867" lon="5.68714">
        <ele>251</ele>
        <time>2012-10-11T15:11:10Z</time>
      </trkpt>
      <trkpt lat="46.90877" lon="5.68707">
        <ele>251</ele>
        <time>2012-10-11T15:11:11Z</time>
      </trkpt>
      <trkpt lat="46.90886" lon="5.68701">
        <ele>251</ele>
        <time>2012-10-11T15:11:12Z</time>
      </trkpt>
      <trkpt lat="46.90895" lon="5.68694">
        <ele>251</ele>
        <time>2012-10-11T15:11:13Z</time>
      </trkpt>
      <trkpt lat="46.90904" lon="5.68687">
        <ele>251</ele>
        <time>2012-10-11T15:11:14Z</time>
      </trkpt>
      <trkpt lat="46.90912" lon="5.68679">
        <ele>251</ele>
        <time>2012-10-11T15:11:15Z</time>
      </trkpt>
      <trkpt lat="46.9092" lon="5.6867">
        <ele>251</ele>
        <time>2012-10-11T15:11:16Z</time>
      </trkpt>
      <trkpt lat="46.90928" lon="5.68661">
        <ele>251</ele>
        <time>2012-10-11T15:11:17Z</time>
      </trkpt>
      <trkpt lat="46.90936" lon="5.68652">
        <ele>251</ele>
        <time>2012-10-11T15:11:18Z</time>
      </trkpt>
      <trkpt lat="46.90944" lon="5.68644">
        <ele>251</ele>
        <time>2012-10-11T15:11:19Z</time>
      </trkpt>
      <trkpt lat="46.90952" lon="5.68635">
        <ele>251</ele>
        <time>2012-10-11T15:11:20Z</time>
      </trkpt>
      <trkpt lat="46.9096" lon="5.68627">
        <ele>251</ele>
        <time>2012-10-11T15:11:21Z</time>
      </trkpt>
      <trkpt lat="46.90968" lon="5.68619">
        <ele>251</ele>
        <time>2012-10-11T15:11:22Z</time>
      </trkpt>
      <trkpt lat="46.90982" lon="5.68605">
        <ele>251</ele>
        <time>2012-10-11T15:11:24Z</time>
      </trkpt>
      <trkpt lat="46.90995" lon="5.68591">
        <ele>251</ele>
        <time>2012-10-11T15:11:26Z</time>
      </trkpt>
      <trkpt lat="46.91008" lon="5.68577">
        <ele>251</ele>
        <time>2012-10-11T15:11:28Z</time>
      </trkpt>
      <trkpt lat="46.91019" lon="5.68565">
        <ele>251</ele>
        <time>2012-10-11T15:11:30Z</time>
      </trkpt>
      <trkpt lat="46.91029" lon="5.68555">
        <ele>251</ele>
        <time>2012-10-11T15:11:32Z</time>
      </trkpt>
      <trkpt lat="46.91038" lon="5.68546">
        <ele>251</ele>
        <time>2012-10-11T15:11:34Z</time>
      </trkpt>
      <trkpt lat="46.91047" lon="5.68538">
        <ele>251</ele>
        <time>2012-10-11T15:11:36Z</time>
      </trkpt>
      <trkpt lat="46.91056" lon="5.68529">
        <ele>251</ele>
        <time>2012-10-11T15:11:38Z</time>
      </trkpt>
      <trkpt lat="46.91064" lon="5.6852">
        <ele>251</ele>
        <time>2012-10-11T15:11:40Z</time>
      </trkpt>
      <trkpt lat="46.91075" lon="5.6851">
        <ele>251</ele>
        <time>2012-10-11T15:11:43Z</time>
      </trkpt>
      <trkpt lat="46.91086" lon="5.68499">
        <ele>251</ele>
        <time>2012-10-11T15:11:46Z</time>
      </trkpt>
      <trkpt lat="46.91094" lon="5.68491">
        <ele>251</ele>
        <time>2012-10-11T15:11:48Z</time>
      </trkpt>
      <trkpt lat="46.91104" lon="5.68483">
        <ele>251</ele>
        <time>2012-10-11T15:11:50Z</time>
      </trkpt>
      <trkpt lat="46.91115" lon="5.68474">
        <ele>251</ele>
        <time>2012-10-11T15:11:52Z</time>
      </trkpt>
      <trkpt lat="46.91126" lon="5.68463">
        <ele>251</ele>
        <time>2012-10-11T15:11:54Z</time>
      </trkpt>
      <trkpt lat="46.91136" lon="5.68451">
        <ele>251</ele>
        <time>2012-10-11T15:11:56Z</time>
      </trkpt>
      <trkpt lat="46.91146" lon="5.6844">
        <ele>251</ele>
        <time>2012-10-11T15:11:58Z</time>
      </trkpt>
      <trkpt lat="46.91155" lon="5.68429">
        <ele>251</ele>
        <time>2012-10-11T15:12:00Z</time>
      </trkpt>
      <trkpt lat="46.91165" lon="5.68415">
        <ele>251</ele>
        <time>2012-10-11T15:12:02Z</time>
      </trkpt>
      <trkpt lat="46.91171" lon="5.68399">
        <ele>251</ele>
        <time>2012-10-11T15:12:04Z</time>
      </trkpt>
      <trkpt lat="46.91176" lon="5.68381">
        <ele>251</ele>
        <time>2012-10-11T15:12:06Z</time>
      </trkpt>
      <trkpt lat="46.91178" lon="5.68361">
        <ele>251</ele>
        <time>2012-10-11T15:12:08Z</time>
      </trkpt>
      <trkpt lat="46.91179" lon="5.68341">
        <ele>251</ele>
        <time>2012-10-11T15:12:10Z</time>
      </trkpt>
      <trkpt lat="46.91178" lon="5.68322">
        <ele>251</ele>
        <time>2012-10-11T15:12:12Z</time>
      </trkpt>
      <trkpt lat="46.91174" lon="5.68305">
        <ele>251</ele>
        <time>2012-10-11T15:12:14Z</time>
      </trkpt>
      <trkpt lat="46.9117" lon="5.6829">
        <ele>251</ele>
        <time>2012-10-11T15:12:16Z</time>
      </trkpt>
      <trkpt lat="46.91166" lon="5.68277">
        <ele>251</ele>
        <time>2012-10-11T15:12:18Z</time>
      </trkpt>
      <trkpt lat="46.91163" lon="5.6826">
        <ele>251</ele>
        <time>2012-10-11T15:12:21Z</time>
      </trkpt>
      <trkpt lat="46.91167" lon="5.68243">
        <ele>251</ele>
        <time>2012-10-11T15:12:24Z</time>
      </trkpt>
      <trkpt lat="46.91176" lon="5.68231">
        <ele>257</ele>
        <time>2012-10-11T15:12:27Z</time>
      </trkpt>
      <trkpt lat="46.91187" lon="5.68224">
        <ele>257</ele>
        <time>2012-10-11T15:12:30Z</time>
      </trkpt>
      <trkpt lat="46.91198" lon="5.68219">
        <ele>257</ele>
        <time>2012-10-11T15:12:33Z</time>
      </trkpt>
      <trkpt lat="46.91209" lon="5.68214">
        <ele>257</ele>
        <time>2012-10-11T15:12:36Z</time>
      </trkpt>
      <trkpt lat="46.9122" lon="5.6821">
        <ele>263</ele>
        <time>2012-10-11T15:12:39Z</time>
      </trkpt>
      <trkpt lat="46.91231" lon="5.68205">
        <ele>263</ele>
        <time>2012-10-11T15:12:42Z</time>
      </trkpt>
      <trkpt lat="46.91241" lon="5.68201">
        <ele>263</ele>
        <time>2012-10-11T15:12:45Z</time>
      </trkpt>
      <trkpt lat="46.9125" lon="5.68196">
        <ele>263</ele>
        <time>2012-10-11T15:12:48Z</time>
      </trkpt>
      <trkpt lat="46.91259" lon="5.68192">
        <ele>263</ele>
        <time>2012-10-11T15:12:51Z</time>
      </trkpt>
      <trkpt lat="46.91267" lon="5.68186">
        <ele>263</ele>
        <time>2012-10-11T15:12:54Z</time>
      </trkpt>
      <trkpt lat="46.91277" lon="5.68179">
        <ele>263</ele>
        <time>2012-10-11T15:12:57Z</time>
      </trkpt>
      <trkpt lat="46.91287" lon="5.68172">
        <ele>263</ele>
        <time>2012-10-11T15:13:00Z</time>
      </trkpt>
      <trkpt lat="46.91299" lon="5.68167">
        <ele>268</ele>
        <time>2012-10-11T15:13:03Z</time>
      </trkpt>
      <trkpt lat="46.9131" lon="5.68167">
        <ele>268</ele>
        <time>2012-10-11T15:13:06Z</time>
      </trkpt>
      <trkpt lat="46.9132" lon="5.68166">
        <ele>268</ele>
        <time>2012-10-11T15:13:09Z</time>
      </trkpt>
      <trkpt lat="46.9133" lon="5.68167">
        <ele>268</ele>
        <time>2012-10-11T15:13:12Z</time>
      </trkpt>
      <trkpt lat="46.91339" lon="5.68169">
        <ele>268</ele>
        <time>2012-10-11T15:13:15Z</time>
      </trkpt>
      <trkpt lat="46.91351" lon="5.6817">
        <ele>268</ele>
        <time>2012-10-11T15:13:19Z</time>
      </trkpt>
      <trkpt lat="46.91362" lon="5.68171">
        <ele>268</ele>
        <time>2012-10-11T15:13:23Z</time>
      </trkpt>
      <trkpt lat="46.91374" lon="5.68173">
        <ele>268</ele>
        <time>2012-10-11T15:13:27Z</time>
      </trkpt>
      <trkpt lat="46.91384" lon="5.68174">
        <ele>274</ele>
        <time>2012-10-11T15:13:31Z</time>
      </trkpt>
      <trkpt lat="46.91394" lon="5.68181">
        <ele>274</ele>
        <time>2012-10-11T15:13:36Z</time>
      </trkpt>
      <trkpt lat="46.91402" lon="5.68188">
        <ele>274</ele>
        <time>2012-10-11T15:13:40Z</time>
      </trkpt>
      <trkpt lat="46.9141" lon="5.68196">
        <ele>279</ele>
        <time>2012-10-11T15:13:44Z</time>
      </trkpt>
      <trkpt lat="46.91419" lon="5.68206">
        <ele>279</ele>
        <time>2012-10-11T15:13:48Z</time>
      </trkpt>
      <trkpt lat="46.91427" lon="5.68215">
        <ele>279</ele>
        <time>2012-10-11T15:13:51Z</time>
      </trkpt>
      <trkpt lat="46.91434" lon="5.68225">
        <ele>279</ele>
        <time>2012-10-11T15:13:54Z</time>
      </trkpt>
      <trkpt lat="46.91442" lon="5.68237">
        <ele>279</ele>
        <time>2012-10-11T15:13:57Z</time>
      </trkpt>
      <trkpt lat="46.91448" lon="5.68249">
        <ele>279</ele>
        <time>2012-10-11T15:14:00Z</time>
      </trkpt>
      <trkpt lat="46.91454" lon="5.68264">
        <ele>279</ele>
        <time>2012-10-11T15:14:03Z</time>
      </trkpt>
      <trkpt lat="46.9146" lon="5.68278">
        <ele>279</ele>
        <time>2012-10-11T15:14:06Z</time>
      </trkpt>
      <trkpt lat="46.91467" lon="5.68293">
        <ele>279</ele>
        <time>2012-10-11T15:14:09Z</time>
      </trkpt>
      <trkpt lat="46.91474" lon="5.68308">
        <ele>279</ele>
        <time>2012-10-11T15:14:12Z</time>
      </trkpt>
      <trkpt lat="46.91482" lon="5.68321">
        <ele>279</ele>
        <time>2012-10-11T15:14:15Z</time>
      </trkpt>
      <trkpt lat="46.9149" lon="5.68336">
        <ele>279</ele>
        <time>2012-10-11T15:14:18Z</time>
      </trkpt>
      <trkpt lat="46.91499" lon="5.68351">
        <ele>279</ele>
        <time>2012-10-11T15:14:21Z</time>
      </trkpt>
      <trkpt lat="46.91508" lon="5.68365">
        <ele>279</ele>
        <time>2012-10-11T15:14:24Z</time>
      </trkpt>
      <trkpt lat="46.91514" lon="5.68377">
        <ele>279</ele>
        <time>2012-10-11T15:14:26Z</time>
      </trkpt>
      <trkpt lat="46.9152" lon="5.68389">
        <ele>279</ele>
        <time>2012-10-11T15:14:28Z</time>
      </trkpt>
      <trkpt lat="46.91526" lon="5.68402">
        <ele>279</ele>
        <time>2012-10-11T15:14:30Z</time>
      </trkpt>
      <trkpt lat="46.91532" lon="5.68414">
        <ele>279</ele>
        <time>2012-10-11T15:14:32Z</time>
      </trkpt>
      <trkpt lat="46.91538" lon="5.68429">
        <ele>279</ele>
        <time>2012-10-11T15:14:34Z</time>
      </trkpt>
      <trkpt lat="46.91544" lon="5.68445">
        <ele>279</ele>
        <time>2012-10-11T15:14:36Z</time>
      </trkpt>
      <trkpt lat="46.91551" lon="5.68461">
        <ele>279</ele>
        <time>2012-10-11T15:14:38Z</time>
      </trkpt>
      <trkpt lat="46.91559" lon="5.68479">
        <ele>279</ele>
        <time>2012-10-11T15:14:40Z</time>
      </trkpt>
      <trkpt lat="46.91566" lon="5.68498">
        <ele>279</ele>
        <time>2012-10-11T15:14:42Z</time>
      </trkpt>
      <trkpt lat="46.91573" lon="5.68519">
        <ele>279</ele>
        <time>2012-10-11T15:14:44Z</time>
      </trkpt>
      <trkpt lat="46.91581" lon="5.68539">
        <ele>279</ele>
        <time>2012-10-11T15:14:46Z</time>
      </trkpt>
      <trkpt lat="46.91589" lon="5.6856">
        <ele>279</ele>
        <time>2012-10-11T15:14:48Z</time>
      </trkpt>
      <trkpt lat="46.91597" lon="5.68582">
        <ele>274</ele>
        <time>2012-10-11T15:14:50Z</time>
      </trkpt>
      <trkpt lat="46.91607" lon="5.68604">
        <ele>274</ele>
        <time>2012-10-11T15:14:52Z</time>
      </trkpt>
      <trkpt lat="46.91611" lon="5.68616">
        <ele>274</ele>
        <time>2012-10-11T15:14:53Z</time>
      </trkpt>
      <trkpt lat="46.9162" lon="5.68638">
        <ele>274</ele>
        <time>2012-10-11T15:14:55Z</time>
      </trkpt>
      <trkpt lat="46.91624" lon="5.6865">
        <ele>274</ele>
        <time>2012-10-11T15:14:56Z</time>
      </trkpt>
      <trkpt lat="46.91629" lon="5.68661">
        <ele>274</ele>
        <time>2012-10-11T15:14:57Z</time>
      </trkpt>
      <trkpt lat="46.91633" lon="5.68673">
        <ele>274</ele>
        <time>2012-10-11T15:14:58Z</time>
      </trkpt>
      <trkpt lat="46.91637" lon="5.68685">
        <ele>274</ele>
        <time>2012-10-11T15:14:59Z</time>
      </trkpt>
      <trkpt lat="46.91642" lon="5.68697">
        <ele>274</ele>
        <time>2012-10-11T15:15:00Z</time>
      </trkpt>
      <trkpt lat="46.91647" lon="5.68708">
        <ele>274</ele>
        <time>2012-10-11T15:15:01Z</time>
      </trkpt>
      <trkpt lat="46.91652" lon="5.6872">
        <ele>274</ele>
        <time>2012-10-11T15:15:02Z</time>
      </trkpt>
      <trkpt lat="46.91656" lon="5.68732">
        <ele>274</ele>
        <time>2012-10-11T15:15:03Z</time>
      </trkpt>
      <trkpt lat="46.91666" lon="5.68755">
        <ele>274</ele>
        <time>2012-10-11T15:15:05Z</time>
      </trkpt>
      <trkpt lat="46.91671" lon="5.68767">
        <ele>274</ele>
        <time>2012-10-11T15:15:06Z</time>
      </trkpt>
      <trkpt lat="46.91675" lon="5.68778">
        <ele>269</ele>
        <time>2012-10-11T15:15:07Z</time>
      </trkpt>
      <trkpt lat="46.91679" lon="5.68791">
        <ele>269</ele>
        <time>2012-10-11T15:15:08Z</time>
      </trkpt>
      <trkpt lat="46.91684" lon="5.68803">
        <ele>269</ele>
        <time>2012-10-11T15:15:09Z</time>
      </trkpt>
      <trkpt lat="46.91689" lon="5.68815">
        <ele>269</ele>
        <time>2012-10-11T15:15:10Z</time>
      </trkpt>
      <trkpt lat="46.91693" lon="5.68828">
        <ele>269</ele>
        <time>2012-10-11T15:15:11Z</time>
      </trkpt>
      <trkpt lat="46.91698" lon="5.6884">
        <ele>269</ele>
        <time>2012-10-11T15:15:12Z</time>
      </trkpt>
      <trkpt lat="46.91703" lon="5.68852">
        <ele>269</ele>
        <time>2012-10-11T15:15:13Z</time>
      </trkpt>
      <trkpt lat="46.91708" lon="5.68864">
        <ele>269</ele>
        <time>2012-10-11T15:15:14Z</time>
      </trkpt>
      <trkpt lat="46.91712" lon="5.68875">
        <ele>269</ele>
        <time>2012-10-11T15:15:15Z</time>
      </trkpt>
      <trkpt lat="46.91716" lon="5.68887">
        <ele>269</ele>
        <time>2012-10-11T15:15:16Z</time>
      </trkpt>
      <trkpt lat="46.91721" lon="5.68899">
        <ele>269</ele>
        <time>2012-10-11T15:15:17Z</time>
      </trkpt>
      <trkpt lat="46.91725" lon="5.6891">
        <ele>269</ele>
        <time>2012-10-11T15:15:18Z</time>
      </trkpt>
      <trkpt lat="46.91735" lon="5.68932">
        <ele>269</ele>
        <time>2012-10-11T15:15:20Z</time>
      </trkpt>
      <trkpt lat="46.91744" lon="5.68953">
        <ele>269</ele>
        <time>2012-10-11T15:15:22Z</time>
      </trkpt>
      <trkpt lat="46.91753" lon="5.68974">
        <ele>269</ele>
        <time>2012-10-11T15:15:24Z</time>
      </trkpt>
      <trkpt lat="46.91759" lon="5.68995">
        <ele>269</ele>
        <time>2012-10-11T15:15:26Z</time>
      </trkpt>
      <trkpt lat="46.91767" lon="5.69014">
        <ele>269</ele>
        <time>2012-10-11T15:15:28Z</time>
      </trkpt>
      <trkpt lat="46.91775" lon="5.69033">
        <ele>269</ele>
        <time>2012-10-11T15:15:30Z</time>
      </trkpt>
      <trkpt lat="46.91783" lon="5.69052">
        <ele>269</ele>
        <time>2012-10-11T15:15:32Z</time>
      </trkpt>
      <trkpt lat="46.91791" lon="5.69071">
        <ele>269</ele>
        <time>2012-10-11T15:15:34Z</time>
      </trkpt>
      <trkpt lat="46.91797" lon="5.69088">
        <ele>269</ele>
        <time>2012-10-11T15:15:36Z</time>
      </trkpt>
      <trkpt lat="46.91804" lon="5.69103">
        <ele>269</ele>
        <time>2012-10-11T15:15:38Z</time>
      </trkpt>
      <trkpt lat="46.9181" lon="5.6912">
        <ele>269</ele>
        <time>2012-10-11T15:15:40Z</time>
      </trkpt>
      <trkpt lat="46.91817" lon="5.69135">
        <ele>269</ele>
        <time>2012-10-11T15:15:42Z</time>
      </trkpt>
      <trkpt lat="46.91823" lon="5.69152">
        <ele>269</ele>
        <time>2012-10-11T15:15:44Z</time>
      </trkpt>
      <trkpt lat="46.91829" lon="5.6917">
        <ele>269</ele>
        <time>2012-10-11T15:15:46Z</time>
      </trkpt>
      <trkpt lat="46.91836" lon="5.69189">
        <ele>269</ele>
        <time>2012-10-11T15:15:48Z</time>
      </trkpt>
      <trkpt lat="46.91844" lon="5.69209">
        <ele>269</ele>
        <time>2012-10-11T15:15:50Z</time>
      </trkpt>
      <trkpt lat="46.91852" lon="5.6923">
        <ele>269</ele>
        <time>2012-10-11T15:15:52Z</time>
      </trkpt>
      <trkpt lat="46.91861" lon="5.69253">
        <ele>269</ele>
        <time>2012-10-11T15:15:54Z</time>
      </trkpt>
      <trkpt lat="46.91866" lon="5.69264">
        <ele>269</ele>
        <time>2012-10-11T15:15:55Z</time>
      </trkpt>
      <trkpt lat="46.91871" lon="5.69276">
        <ele>269</ele>
        <time>2012-10-11T15:15:56Z</time>
      </trkpt>
      <trkpt lat="46.91876" lon="5.69288">
        <ele>269</ele>
        <time>2012-10-11T15:15:57Z</time>
      </trkpt>
      <trkpt lat="46.91881" lon="5.693">
        <ele>269</ele>
        <time>2012-10-11T15:15:58Z</time>
      </trkpt>
      <trkpt lat="46.91887" lon="5.69313">
        <ele>269</ele>
        <time>2012-10-11T15:15:59Z</time>
      </trkpt>
      <trkpt lat="46.91892" lon="5.69325">
        <ele>269</ele>
        <time>2012-10-11T15:16:00Z</time>
      </trkpt>
      <trkpt lat="46.91897" lon="5.69338">
        <ele>269</ele>
        <time>2012-10-11T15:16:01Z</time>
      </trkpt>
      <trkpt lat="46.91903" lon="5.69351">
        <ele>269</ele>
        <time>2012-10-11T15:16:02Z</time>
      </trkpt>
      <trkpt lat="46.91908" lon="5.69365">
        <ele>269</ele>
        <time>2012-10-11T15:16:03Z</time>
      </trkpt>
      <trkpt lat="46.91913" lon="5.69378">
        <ele>269</ele>
        <time>2012-10-11T15:16:04Z</time>
      </trkpt>
      <trkpt lat="46.91919" lon="5.69393">
        <ele>264</ele>
        <time>2012-10-11T15:16:05Z</time>
      </trkpt>
      <trkpt lat="46.91924" lon="5.69406">
        <ele>264</ele>
        <time>2012-10-11T15:16:06Z</time>
      </trkpt>
      <trkpt lat="46.91929" lon="5.69421">
        <ele>264</ele>
        <time>2012-10-11T15:16:07Z</time>
      </trkpt>
      <trkpt lat="46.91935" lon="5.69435">
        <ele>264</ele>
        <time>2012-10-11T15:16:08Z</time>
      </trkpt>
      <trkpt lat="46.9194" lon="5.69449">
        <ele>264</ele>
        <time>2012-10-11T15:16:09Z</time>
      </trkpt>
      <trkpt lat="46.91946" lon="5.69463">
        <ele>264</ele>
        <time>2012-10-11T15:16:10Z</time>
      </trkpt>
      <trkpt lat="46.91952" lon="5.69477">
        <ele>264</ele>
        <time>2012-10-11T15:16:11Z</time>
      </trkpt>
      <trkpt lat="46.91957" lon="5.69492">
        <ele>264</ele>
        <time>2012-10-11T15:16:12Z</time>
      </trkpt>
      <trkpt lat="46.91964" lon="5.69507">
        <ele>264</ele>
        <time>2012-10-11T15:16:13Z</time>
      </trkpt>
      <trkpt lat="46.91969" lon="5.69521">
        <ele>259</ele>
        <time>2012-10-11T15:16:14Z</time>
      </trkpt>
      <trkpt lat="46.91975" lon="5.69536">
        <ele>259</ele>
        <time>2012-10-11T15:16:15Z</time>
      </trkpt>
      <trkpt lat="46.9198" lon="5.69551">
        <ele>259</ele>
        <time>2012-10-11T15:16:16Z</time>
      </trkpt>
      <trkpt lat="46.91986" lon="5.69565">
        <ele>259</ele>
        <time>2012-10-11T15:16:17Z</time>
      </trkpt>
      <trkpt lat="46.91992" lon="5.69579">
        <ele>259</ele>
        <time>2012-10-11T15:16:18Z</time>
      </trkpt>
      <trkpt lat="46.91998" lon="5.69593">
        <ele>259</ele>
        <time>2012-10-11T15:16:19Z</time>
      </trkpt>
      <trkpt lat="46.92004" lon="5.69607">
        <ele>259</ele>
        <time>2012-10-11T15:16:20Z</time>
      </trkpt>
      <trkpt lat="46.92009" lon="5.69621">
        <ele>259</ele>
        <time>2012-10-11T15:16:21Z</time>
      </trkpt>
      <trkpt lat="46.92015" lon="5.69634">
        <ele>259</ele>
        <time>2012-10-11T15:16:22Z</time>
      </trkpt>
      <trkpt lat="46.9202" lon="5.69648">
        <ele>259</ele>
        <time>2012-10-11T15:16:23Z</time>
      </trkpt>
      <trkpt lat="46.92026" lon="5.69661">
        <ele>259</ele>
        <time>2012-10-11T15:16:24Z</time>
      </trkpt>
      <trkpt lat="46.92031" lon="5.69675">
        <ele>259</ele>
        <time>2012-10-11T15:16:25Z</time>
      </trkpt>
      <trkpt lat="46.92036" lon="5.69688">
        <ele>259</ele>
        <time>2012-10-11T15:16:26Z</time>
      </trkpt>
      <trkpt lat="46.92041" lon="5.69701">
        <ele>259</ele>
        <time>2012-10-11T15:16:27Z</time>
      </trkpt>
      <trkpt lat="46.92046" lon="5.69714">
        <ele>259</ele>
        <time>2012-10-11T15:16:28Z</time>
      </trkpt>
      <trkpt lat="46.92052" lon="5.69727">
        <ele>259</ele>
        <time>2012-10-11T15:16:29Z</time>
      </trkpt>
      <trkpt lat="46.92057" lon="5.69739">
        <ele>259</ele>
        <time>2012-10-11T15:16:30Z</time>
      </trkpt>
      <trkpt lat="46.92061" lon="5.69751">
        <ele>259</ele>
        <time>2012-10-11T15:16:31Z</time>
      </trkpt>
      <trkpt lat="46.92066" lon="5.69764">
        <ele>259</ele>
        <time>2012-10-11T15:16:32Z</time>
      </trkpt>
      <trkpt lat="46.92071" lon="5.69776">
        <ele>259</ele>
        <time>2012-10-11T15:16:33Z</time>
      </trkpt>
      <trkpt lat="46.92077" lon="5.69789">
        <ele>254</ele>
        <time>2012-10-11T15:16:34Z</time>
      </trkpt>
      <trkpt lat="46.92082" lon="5.69801">
        <ele>254</ele>
        <time>2012-10-11T15:16:35Z</time>
      </trkpt>
      <trkpt lat="46.92087" lon="5.69814">
        <ele>254</ele>
        <time>2012-10-11T15:16:36Z</time>
      </trkpt>
      <trkpt lat="46.92092" lon="5.69827">
        <ele>254</ele>
        <time>2012-10-11T15:16:37Z</time>
      </trkpt>
      <trkpt lat="46.92097" lon="5.6984">
        <ele>254</ele>
        <time>2012-10-11T15:16:38Z</time>
      </trkpt>
      <trkpt lat="46.92103" lon="5.69853">
        <ele>254</ele>
        <time>2012-10-11T15:16:39Z</time>
      </trkpt>
      <trkpt lat="46.92108" lon="5.69866">
        <ele>254</ele>
        <time>2012-10-11T15:16:40Z</time>
      </trkpt>
      <trkpt lat="46.92113" lon="5.6988">
        <ele>254</ele>
        <time>2012-10-11T15:16:41Z</time>
      </trkpt>
      <trkpt lat="46.92118" lon="5.69894">
        <ele>254</ele>
        <time>2012-10-11T15:16:42Z</time>
      </trkpt>
      <trkpt lat="46.92123" lon="5.69908">
        <ele>254</ele>
        <time>2012-10-11T15:16:43Z</time>
      </trkpt>
      <trkpt lat="46.92128" lon="5.69924">
        <ele>254</ele>
        <time>2012-10-11T15:16:44Z</time>
      </trkpt>
      <trkpt lat="46.92132" lon="5.69938">
        <ele>254</ele>
        <time>2012-10-11T15:16:45Z</time>
      </trkpt>
      <trkpt lat="46.92137" lon="5.69953">
        <ele>248</ele>
        <time>2012-10-11T15:16:46Z</time>
      </trkpt>
      <trkpt lat="46.9214" lon="5.69969">
        <ele>248</ele>
        <time>2012-10-11T15:16:47Z</time>
      </trkpt>
      <trkpt lat="46.92143" lon="5.69984">
        <ele>248</ele>
        <time>2012-10-11T15:16:48Z</time>
      </trkpt>
      <trkpt lat="46.92146" lon="5.69999">
        <ele>248</ele>
        <time>2012-10-11T15:16:49Z</time>
      </trkpt>
      <trkpt lat="46.92148" lon="5.70015">
        <ele>248</ele>
        <time>2012-10-11T15:16:50Z</time>
      </trkpt>
      <trkpt lat="46.92151" lon="5.70031">
        <ele>248</ele>
        <time>2012-10-11T15:16:51Z</time>
      </trkpt>
      <trkpt lat="46.92153" lon="5.70047">
        <ele>248</ele>
        <time>2012-10-11T15:16:52Z</time>
      </trkpt>
      <trkpt lat="46.92155" lon="5.70062">
        <ele>248</ele>
        <time>2012-10-11T15:16:53Z</time>
      </trkpt>
      <trkpt lat="46.92158" lon="5.70077">
        <ele>248</ele>
        <time>2012-10-11T15:16:54Z</time>
      </trkpt>
      <trkpt lat="46.92159" lon="5.70092">
        <ele>248</ele>
        <time>2012-10-11T15:16:55Z</time>
      </trkpt>
      <trkpt lat="46.92161" lon="5.70107">
        <ele>248</ele>
        <time>2012-10-11T15:16:56Z</time>
      </trkpt>
      <trkpt lat="46.92163" lon="5.70121">
        <ele>248</ele>
        <time>2012-10-11T15:16:57Z</time>
      </trkpt>
      <trkpt lat="46.92166" lon="5.70135">
        <ele>248</ele>
        <time>2012-10-11T15:16:58Z</time>
      </trkpt>
      <trkpt lat="46.92168" lon="5.70149">
        <ele>248</ele>
        <time>2012-10-11T15:16:59Z</time>
      </trkpt>
      <trkpt lat="46.92172" lon="5.70162">
        <ele>248</ele>
        <time>2012-10-11T15:17:00Z</time>
      </trkpt>
      <trkpt lat="46.92176" lon="5.70174">
        <ele>248</ele>
        <time>2012-10-11T15:17:01Z</time>
      </trkpt>
      <trkpt lat="46.92182" lon="5.70185">
        <ele>248</ele>
        <time>2012-10-11T15:17:02Z</time>
      </trkpt>
      <trkpt lat="46.92188" lon="5.70195">
        <ele>248</ele>
        <time>2012-10-11T15:17:03Z</time>
      </trkpt>
      <trkpt lat="46.92196" lon="5.70203">
        <ele>248</ele>
        <time>2012-10-11T15:17:04Z</time>
      </trkpt>
      <trkpt lat="46.9221" lon="5.70215">
        <ele>242</ele>
        <time>2012-10-11T15:17:06Z</time>
      </trkpt>
      <trkpt lat="46.92223" lon="5.70221">
        <ele>242</ele>
        <time>2012-10-11T15:17:08Z</time>
      </trkpt>
      <trkpt lat="46.92234" lon="5.70225">
        <ele>242</ele>
        <time>2012-10-11T15:17:11Z</time>
      </trkpt>
      <trkpt lat="46.92244" lon="5.70227">
        <ele>242</ele>
        <time>2012-10-11T15:17:20Z</time>
      </trkpt>
      <trkpt lat="46.92254" lon="5.70228">
        <ele>242</ele>
        <time>2012-10-11T15:17:24Z</time>
      </trkpt>
      <trkpt lat="46.92267" lon="5.70227">
        <ele>242</ele>
        <time>2012-10-11T15:17:27Z</time>
      </trkpt>
      <trkpt lat="46.92279" lon="5.70227">
        <ele>242</ele>
        <time>2012-10-11T15:17:29Z</time>
      </trkpt>
      <trkpt lat="46.92291" lon="5.70228">
        <ele>242</ele>
        <time>2012-10-11T15:17:31Z</time>
      </trkpt>
      <trkpt lat="46.92304" lon="5.70228">
        <ele>242</ele>
        <time>2012-10-11T15:17:33Z</time>
      </trkpt>
      <trkpt lat="46.92318" lon="5.7023">
        <ele>242</ele>
        <time>2012-10-11T15:17:35Z</time>
      </trkpt>
      <trkpt lat="46.92332" lon="5.70231">
        <ele>242</ele>
        <time>2012-10-11T15:17:37Z</time>
      </trkpt>
      <trkpt lat="46.92346" lon="5.70233">
        <ele>242</ele>
        <time>2012-10-11T15:17:39Z</time>
      </trkpt>
      <trkpt lat="46.92362" lon="5.70234">
        <ele>242</ele>
        <time>2012-10-11T15:17:41Z</time>
      </trkpt>
      <trkpt lat="46.92377" lon="5.70234">
        <ele>242</ele>
        <time>2012-10-11T15:17:43Z</time>
      </trkpt>
      <trkpt lat="46.92392" lon="5.70236">
        <ele>242</ele>
        <time>2012-10-11T15:17:45Z</time>
      </trkpt>
      <trkpt lat="46.92407" lon="5.70238">
        <ele>242</ele>
        <time>2012-10-11T15:17:47Z</time>
      </trkpt>
      <trkpt lat="46.92423" lon="5.7024">
        <ele>242</ele>
        <time>2012-10-11T15:17:49Z</time>
      </trkpt>
      <trkpt lat="46.92438" lon="5.70241">
        <ele>242</ele>
        <time>2012-10-11T15:17:51Z</time>
      </trkpt>
      <trkpt lat="46.92453" lon="5.70243">
        <ele>242</ele>
        <time>2012-10-11T15:17:53Z</time>
      </trkpt>
      <trkpt lat="46.92466" lon="5.70243">
        <ele>242</ele>
        <time>2012-10-11T15:17:55Z</time>
      </trkpt>
      <trkpt lat="46.9248" lon="5.70244">
        <ele>242</ele>
        <time>2012-10-11T15:17:57Z</time>
      </trkpt>
      <trkpt lat="46.92495" lon="5.70245">
        <ele>242</ele>
        <time>2012-10-11T15:17:59Z</time>
      </trkpt>
      <trkpt lat="46.9251" lon="5.70246">
        <ele>242</ele>
        <time>2012-10-11T15:18:01Z</time>
      </trkpt>
      <trkpt lat="46.92526" lon="5.70246">
        <ele>242</ele>
        <time>2012-10-11T15:18:03Z</time>
      </trkpt>
      <trkpt lat="46.92542" lon="5.70245">
        <ele>242</ele>
        <time>2012-10-11T15:18:05Z</time>
      </trkpt>
      <trkpt lat="46.92558" lon="5.70243">
        <ele>242</ele>
        <time>2012-10-11T15:18:07Z</time>
      </trkpt>
      <trkpt lat="46.92574" lon="5.7024">
        <ele>242</ele>
        <time>2012-10-11T15:18:09Z</time>
      </trkpt>
      <trkpt lat="46.92589" lon="5.70237">
        <ele>242</ele>
        <time>2012-10-11T15:18:11Z</time>
      </trkpt>
      <trkpt lat="46.92605" lon="5.70234">
        <ele>242</ele>
        <time>2012-10-11T15:18:13Z</time>
      </trkpt>
    </trkseg>
  </trk>
</gpx>